Saito, Atsushi (2026): Radiosonde measurements from station Tateno (2026-02) [dataset]. Aerological Observatory, Japan Meteorological Agency, PANGAEA, https://doi.org/10.1594/PANGAEA.993239
Always quote citation above when using data! You can download the citation in several formats below.
Published: 2026-03-25 • DOI registered: 2026-04-23
Other version:
Saito, Atsushi (2026): BSRN Station-to-archive file for station Tateno (2026-02) [dataset]. ftp://ftp.bsrn.awi.de/tat/tat0226.dat.gz
Project(s):
Coverage:
Latitude: 36.058100 * Longitude: 140.125800
Date/Time Start: 2026-02-01T00:00:00 * Date/Time End: 2026-02-28T23:59:00
Minimum ALTITUDE: 26 m * Maximum ALTITUDE: 32957 m
Event(s):
TAT (Tateno) * Latitude: 36.058100 * Longitude: 140.125800 * Date/Time: 1996-02-01T00:00:00 * Elevation: 25.0 m * Station info: https://hdl.handle.net/10013/epic.44630.d027, update 2022: Tateno.pdf * Location: Japan * Method/Device: Monitoring station (MONS) * Comment: BSRN station no: 16; Surface type: grass; Topography type: flat, urban; Horizon: doi:10.1594/PANGAEA.669527; Station scientist: Atsushi Saito (saito-atsushi@met.kishou.go.jp)
Parameter(s):
| # | Name | Short Name | Unit | Principal Investigator | Method/Device | Comment |
|---|---|---|---|---|---|---|
| 1 | DATE/TIME | Date/Time | Saito, Atsushi | Geocode | ||
| 2 | ALTITUDE | Altitude | m | Saito, Atsushi | Geocode | |
| 3 | Pressure, at given altitude | PPPP | hPa | Saito, Atsushi | Radiosonde, Meisei, iMS | |
| 4 | Temperature, air | TTT | °C | Saito, Atsushi | Radiosonde, Meisei, iMS | |
| 5 | Dew/frost point | TdTdTd | °C | Saito, Atsushi | Radiosonde, Meisei, iMS | |
| 6 | Wind direction | dd | deg | Saito, Atsushi | Radiosonde, Meisei, iMS | |
| 7 | Wind speed | ff | m/s | Saito, Atsushi | Radiosonde, Meisei, iMS |
License:
Status:
Curation Level: Enhanced curation (CurationLevelC)
Size:
27112 data points
Data
| 1 Date/Time | 2 Altitude [m] | 3 PPPP [hPa] | 4 TTT [°C] | 5 TdTdTd [°C] | 6 dd [deg] | 7 ff [m/s] |
|---|---|---|---|---|---|---|
| 2026-02-01T00:00 | 9300 | 283 | -41.3 | |||
| 2026-02-01T00:00 | 9312 | 282 | 256 | 71 | ||
| 2026-02-01T00:00 | 9484 | 275 | -40.5 | |||
| 2026-02-01T00:00 | 9575 | 272 | 258 | 75 | ||
| 2026-02-01T00:01 | 9912 | 259 | 258 | 72 | ||
| 2026-02-01T00:02 | 10119 | 251 | -40.0 | |||
| 2026-02-01T00:02 | 10273 | 245 | 258 | 76 | ||
| 2026-02-01T00:03 | 10406 | 241 | -41.2 | |||
| 2026-02-01T00:03 | 10445 | 239 | 254 | 79 | ||
| 2026-02-01T00:03 | 10532 | 236 | -40.8 | |||
| 2026-02-01T00:03 | 10623 | 233 | -39.6 | |||
| 2026-02-01T00:04 | 10839 | 226 | 255 | 74 | ||
| 2026-02-01T00:04 | 10968 | 221 | -41.2 | |||
| 2026-02-01T00:04 | 11064 | 218 | 258 | 74 | ||
| 2026-02-01T00:05 | 11330 | 210 | -43.6 | |||
| 2026-02-01T00:05 | 11424 | 207 | 258 | 74 | ||
| 2026-02-01T00:06 | 11595 | 202 | 258 | 80 | ||
| 2026-02-01T00:06 | 11741 | 197 | 258 | 81 | ||
| 2026-02-01T00:06 | 11880 | 193 | -47.2 | |||
| 2026-02-01T00:07 | 11995 | 190 | 257 | 84 | ||
| 2026-02-01T00:08 | 12292 | 182 | -49.1 | |||
| 2026-02-01T00:08 | 12328 | 181 | 256 | 78 | ||
| 2026-02-01T00:08 | 12403 | 179 | -48.1 | |||
| 2026-02-01T00:09 | 12635 | 172 | 256 | 77 | ||
| 2026-02-01T00:09 | 12773 | 169 | -50.2 | |||
| 2026-02-01T00:10 | 12987 | 163 | 262 | 78 | ||
| 2026-02-01T00:11 | 13271 | 156 | 266 | 77 | ||
| 2026-02-01T00:12 | 13576 | 149 | -55.4 | |||
| 2026-02-01T00:12 | 13605 | 148 | 266 | 69 | ||
| 2026-02-01T00:12 | 13854 | 143 | -55.4 | |||
| 2026-02-01T00:13 | 13922 | 141 | 258 | 64 | ||
| 2026-02-01T00:14 | 14183 | 135 | 261 | 62 | ||
| 2026-02-01T00:14 | 14277 | 133 | -54.8 | |||
| 2026-02-01T00:15 | 14469 | 129 | 252 | 58 | ||
| 2026-02-01T00:15 | 14509 | 129 | -54.8 | |||
| 2026-02-01T00:16 | 14800 | 123 | 252 | 64 | ||
| 2026-02-01T00:16 | 15030 | 119 | -57.2 | |||
| 2026-02-01T00:17 | 15132 | 117 | 260 | 61 | ||
| 2026-02-01T00:17 | 15220 | 115 | -56.5 | |||
| 2026-02-01T00:18 | 15438 | 111 | 260 | 52 | ||
| 2026-02-01T00:18 | 15461 | 111 | -57.0 | |||
| 2026-02-01T00:18 | 15665 | 107 | -56.1 | |||
| 2026-02-01T00:19 | 15750 | 106 | 256 | 47 | ||
| 2026-02-01T00:19 | 15999 | 102 | -58.0 | |||
| 2026-02-01T00:19 | 16034 | 101 | 260 | 46 | ||
| 2026-02-01T00:20 | 16263 | 98 | -57.6 | |||
| 2026-02-01T00:20 | 16322 | 97 | 260 | 42 | ||
| 2026-02-01T00:20 | 16371 | 96 | -56.4 | |||
| 2026-02-01T00:21 | 16641 | 92 | 265 | 38 | ||
| 2026-02-01T00:22 | 16746 | 90 | -57.3 | |||
| 2026-02-01T00:22 | 16959 | 87 | 264 | 29 | ||
| 2026-02-01T00:23 | 17289 | 83 | 252 | 24 | ||
| 2026-02-01T00:24 | 17449 | 81 | -59.9 | |||
| 2026-02-01T00:24 | 17536 | 80 | 241 | 26 | ||
| 2026-02-01T00:25 | 17863 | 76 | -62.4 | |||
| 2026-02-01T00:25 | 17871 | 76 | 241 | 29 | ||
| 2026-02-01T00:26 | 18223 | 71 | 233 | 27 | ||
| 2026-02-01T00:27 | 18579 | 67 | 250 | 28 | ||
| 2026-02-01T00:27 | 18701 | 66 | -62.3 | |||
| 2026-02-01T00:28 | 18784 | 65 | -61.1 | |||
| 2026-02-01T00:28 | 18910 | 64 | 246 | 27 | ||
| 2026-02-01T00:29 | 19030 | 63 | -61.0 | |||
| 2026-02-01T00:29 | 19088 | 62 | 252 | 27 | ||
| 2026-02-01T00:29 | 19157 | 61 | -58.3 | |||
| 2026-02-01T00:29 | 19285 | 60 | 259 | 19 | ||
| 2026-02-01T00:30 | 19420 | 59 | -58.0 | |||
| 2026-02-01T00:30 | 19530 | 58 | 251 | 11 | ||
| 2026-02-01T00:31 | 19885 | 55 | 238 | 9 | ||
| 2026-02-01T00:32 | 20081 | 53 | -62.2 | |||
| 2026-02-01T00:32 | 20238 | 52 | 258 | 15 | ||
| 2026-02-01T00:32 | 20322 | 51 | -62.8 | |||
| 2026-02-01T00:33 | 20481 | 50 | -61.7 | |||
| 2026-02-01T00:33 | 20520 | 49 | 275 | 9 | ||
| 2026-02-01T00:33 | 20723 | 48 | 273 | 8 | ||
| 2026-02-01T00:34 | 20827 | 47 | 265 | 8 | ||
| 2026-02-01T00:34 | 20880 | 47 | -58.8 | |||
| 2026-02-01T00:34 | 20895 | 46 | 251 | 3 | ||
| 2026-02-01T00:34 | 21088 | 45 | 222 | 3 | ||
| 2026-02-01T00:35 | 21185 | 44 | -57.9 | |||
| 2026-02-01T00:35 | 21286 | 44 | 234 | 8 | ||
| 2026-02-01T00:36 | 21492 | 42 | -55.6 | 232 | 6 | |
| 2026-02-01T00:36 | 21786 | 40 | 261 | 2 | ||
| 2026-02-01T00:37 | 22110 | 38 | 266 | 4 | ||
| 2026-02-01T00:38 | 22228 | 38 | 190 | 3 | ||
| 2026-02-01T00:38 | 22434 | 36 | 186 | 7 | ||
| 2026-02-01T00:39 | 22646 | 35 | 209 | 7 | ||
| 2026-02-01T00:39 | 22807 | 34 | -57.7 | |||
| 2026-02-01T00:40 | 23012 | 33 | 201 | 7 | ||
| 2026-02-01T00:41 | 23306 | 32 | -56.6 | |||
| 2026-02-01T00:41 | 23327 | 32 | 213 | 7 | ||
| 2026-02-01T00:41 | 23427 | 31 | 183 | 4 | ||
| 2026-02-01T00:41 | 23529 | 31 | 133 | 4 | ||
| 2026-02-01T00:42 | 23658 | 30 | 146 | 5 | ||
| 2026-02-01T00:42 | 23848 | 29 | 193 | 7 | ||
| 2026-02-01T00:43 | 24024 | 28 | 164 | 5 | ||
| 2026-02-01T00:43 | 24068 | 28 | -57.3 | |||
| 2026-02-01T00:43 | 24135 | 28 | 155 | 6 | ||
| 2026-02-01T00:43 | 24322 | 27 | 192 | 6 | ||
| 2026-02-01T00:44 | 24485 | 26 | 140 | 5 | ||
| 2026-02-01T00:45 | 24756 | 25 | 123 | 7 | ||
| 2026-02-01T00:45 | 25040 | 24 | 151 | 7 | ||
| 2026-02-01T00:46 | 25202 | 24 | -54.8 | |||
| 2026-02-01T00:46 | 25340 | 23 | 134 | 5 | ||
| 2026-02-01T00:46 | 25450 | 23 | 112 | 7 | ||
| 2026-02-01T00:47 | 25742 | 22 | 125 | 4 | ||
| 2026-02-01T00:48 | 26043 | 21 | 90 | 9 | ||
| 2026-02-01T00:49 | 26366 | 20 | 120 | 7 | ||
| 2026-02-01T00:49 | 26634 | 19 | 98 | 12 | ||
| 2026-02-01T00:50 | 26879 | 18 | 132 | 11 | ||
| 2026-02-01T00:50 | 27024 | 18 | 120 | 10 | ||
| 2026-02-01T00:51 | 27170 | 17 | -51.7 | |||
| 2026-02-01T00:51 | 27247 | 17 | 127 | 11 | ||
| 2026-02-01T00:52 | 27634 | 16 | 108 | 11 | ||
| 2026-02-01T00:53 | 27923 | 15 | 110 | 7 | ||
| 2026-02-01T00:53 | 28051 | 15 | 100 | 8 | ||
| 2026-02-01T00:53 | 28137 | 15 | -51.4 | |||
| 2026-02-01T00:54 | 28224 | 15 | 101 | 12 | ||
| 2026-02-01T00:54 | 28446 | 14 | 103 | 17 | ||
| 2026-02-01T00:55 | 28633 | 14 | 108 | 11 | ||
| 2026-02-01T00:55 | 28823 | 13 | -52.0 | |||
| 2026-02-01T00:56 | 29070 | 13 | 108 | 14 | ||
| 2026-02-01T00:56 | 29384 | 12 | -50.3 | |||
| 2026-02-01T00:57 | 29490 | 12 | 100 | 15 | ||
| 2026-02-01T00:57 | 29655 | 12 | 108 | 19 | ||
| 2026-02-01T00:57 | 29823 | 12 | 107 | 16 | ||
| 2026-02-01T00:58 | 29993 | 11 | 105 | 19 | ||
| 2026-02-01T00:58 | 30111 | 11 | 106 | 16 | ||
| 2026-02-01T00:59 | 30291 | 11 | 102 | 18 | ||
| 2026-02-01T00:59 | 30415 | 11 | -50.0 | |||
| 2026-02-01T00:59 | 30476 | 10 | 98 | 17 | ||
| 2026-02-01T01:00 | 30797 | 10 | -49.2 | |||
| 2026-02-01T01:00 | 30933 | 10 | 114 | 18 | ||
| 2026-02-01T01:00 | 31039 | 10 | -45.1 | 108 | 16 | |
| 2026-02-01T11:33 | 26 | 1013 | 2.4 | -6.0 | 80 | 0 |
| 2026-02-01T11:33 | 33 | 1012 | 2.9 | -6.5 | 0 | 0 |
| 2026-02-01T11:33 | 79 | 1007 | 6.6 | -6.0 | ||
| 2026-02-01T11:33 | 106 | 1003 | 7.1 | -5.9 | ||
| 2026-02-01T11:33 | 138 | 999 | 58 | 4 | ||
| 2026-02-01T11:34 | 233 | 988 | 7.0 | -9.8 | ||
| 2026-02-01T11:34 | 238 | 987 | 64 | 1 | ||
| 2026-02-01T11:34 | 364 | 972 | 241 | 3 | ||
| 2026-02-01T11:35 | 607 | 944 | 4.1 | -10.7 | ||
| 2026-02-01T11:35 | 658 | 938 | 277 | 4 | ||
| 2026-02-01T11:35 | 794 | 922 | 248 | 4 | ||
| 2026-02-01T11:36 | 1001 | 899 | 279 | 4 | ||
| 2026-02-01T11:36 | 1189 | 878 | 273 | 4 | ||
| 2026-02-01T11:37 | 1536 | 840 | 267 | 4 | ||
| 2026-02-01T11:38 | 1699 | 823 | 251 | 4 | ||
| 2026-02-01T11:38 | 1777 | 815 | -7.2 | -12.1 | ||
| 2026-02-01T11:39 | 1948 | 797 | 273 | 3 | ||
| 2026-02-01T11:39 | 2029 | 789 | -9.4 | -12.8 | ||
| 2026-02-01T11:39 | 2035 | 788 | 271 | 4 | ||
| 2026-02-01T11:39 | 2212 | 770 | 262 | 7 | ||
| 2026-02-01T11:40 | 2447 | 747 | -12.6 | -15.3 | ||
| 2026-02-01T11:40 | 2516 | 740 | -13.0 | -16.5 | ||
| 2026-02-01T11:40 | 2546 | 737 | 271 | 13 | ||
| 2026-02-01T11:41 | 2598 | 732 | -13.1 | -18.8 | ||
| 2026-02-01T11:41 | 2681 | 724 | -12.7 | -20.7 | ||
| 2026-02-01T11:41 | 2896 | 704 | 281 | 18 | ||
| 2026-02-01T11:42 | 3083 | 687 | 283 | 18 | ||
| 2026-02-01T11:42 | 3169 | 679 | -14.0 | -25.0 | ||
| 2026-02-01T11:42 | 3227 | 674 | -13.9 | -25.5 | ||
| 2026-02-01T11:43 | 3316 | 666 | 279 | 25 | ||
| 2026-02-01T11:43 | 3397 | 659 | -14.0 | -27.5 | ||
| 2026-02-01T11:44 | 3653 | 637 | 282 | 24 | ||
| 2026-02-01T11:44 | 3794 | 626 | 277 | 26 | ||
| 2026-02-01T11:45 | 4082 | 602 | -18.8 | -35.7 | ||
| 2026-02-01T11:45 | 4145 | 597 | 274 | 26 | ||
| 2026-02-01T11:46 | 4483 | 570 | 272 | 24 | ||
| 2026-02-01T11:47 | 4799 | 546 | 270 | 26 | ||
| 2026-02-01T11:47 | 4903 | 538 | -25.7 | -43.6 | ||
| 2026-02-01T11:47 | 4937 | 536 | 265 | 27 | ||
| 2026-02-01T11:48 | 5269 | 512 | 271 | 27 | ||
| 2026-02-01T11:49 | 5328 | 507 | -28.9 | -50.2 | ||
| 2026-02-01T11:49 | 5463 | 498 | 263 | 29 | ||
| 2026-02-01T11:50 | 5733 | 479 | -31.7 | -51.0 | ||
| 2026-02-01T11:50 | 5812 | 474 | 260 | 30 | ||
| 2026-02-01T11:51 | 6022 | 460 | -34.1 | -50.2 | ||
| 2026-02-01T11:51 | 6086 | 456 | 265 | 31 | ||
| 2026-02-01T11:51 | 6197 | 449 | 259 | 34 | ||
| 2026-02-01T11:52 | 6421 | 435 | 261 | 36 | ||
| 2026-02-01T11:52 | 6543 | 427 | -37.2 | -58.5 | ||
| 2026-02-01T11:53 | 6743 | 415 | 263 | 38 | ||
| 2026-02-01T11:53 | 6796 | 411 | -38.6 | -60.6 | ||
| 2026-02-01T11:53 | 6908 | 405 | -38.7 | -61.7 | ||
| 2026-02-01T11:53 | 7105 | 393 | -40.0 | -61.7 | ||
| 2026-02-01T11:53 | 7136 | 392 | 268 | 40 | ||
| 2026-02-01T11:54 | 7268 | 384 | 265 | 40 | ||
| 2026-02-01T11:54 | 7368 | 378 | 270 | 40 | ||
| 2026-02-01T11:54 | 7387 | 377 | -42.0 | |||
| 2026-02-01T11:54 | 7492 | 372 | 268 | 44 | ||
| 2026-02-01T11:55 | 7577 | 367 | -43.0 | |||
| 2026-02-01T11:55 | 7668 | 362 | -41.9 | |||
| 2026-02-01T11:55 | 7800 | 355 | 270 | 52 | ||
| 2026-02-01T11:55 | 7822 | 354 | -41.8 | |||
| 2026-02-01T11:56 | 7979 | 346 | -42.5 | 272 | 55 | |
| 2026-02-01T11:57 | 8284 | 331 | 270 | 62 | ||
| 2026-02-01T11:57 | 8397 | 325 | -44.2 | |||
| 2026-02-01T11:58 | 8602 | 315 | -45.4 | |||
| 2026-02-01T11:58 | 8613 | 315 | 271 | 62 | ||
| 2026-02-01T11:58 | 8776 | 307 | -45.7 | |||
| 2026-02-01T11:59 | 8923 | 300 | -46.7 | |||
| 2026-02-01T11:59 | 8952 | 299 | 270 | 61 | ||
| 2026-02-01T11:59 | 9199 | 288 | 269 | 58 | ||
| 2026-02-01T11:59 | 9256 | 286 | -46.7 | |||
| 2026-02-01T12:00 | 9580 | 272 | 264 | 54 | ||
| 2026-02-01T12:01 | 9672 | 268 | -47.2 | |||
| 2026-02-01T12:01 | 9797 | 263 | -46.8 | |||
| 2026-02-01T12:01 | 9882 | 260 | 261 | 63 | ||
| 2026-02-01T12:01 | 9955 | 257 | -46.0 | |||
| 2026-02-01T12:02 | 10093 | 252 | -45.3 | |||
| 2026-02-01T12:02 | 10203 | 248 | -44.9 | |||
| 2026-02-01T12:02 | 10253 | 246 | 257 | 64 | ||
| 2026-02-01T12:02 | 10329 | 243 | -44.3 | |||
| 2026-02-01T12:03 | 10529 | 236 | -44.4 | |||
| 2026-02-01T12:03 | 10579 | 234 | 252 | 70 | ||
| 2026-02-01T12:04 | 10923 | 222 | 255 | 73 | ||
| 2026-02-01T12:04 | 10990 | 220 | -46.9 | |||
| 2026-02-01T12:05 | 11259 | 211 | -46.1 | |||
| 2026-02-01T12:05 | 11278 | 211 | 262 | 71 | ||
| 2026-02-01T12:06 | 11488 | 204 | 262 | 65 | ||
| 2026-02-01T12:06 | 11546 | 202 | -44.8 | |||
| 2026-02-01T12:07 | 11798 | 195 | 258 | 70 | ||
| 2026-02-01T12:07 | 11887 | 192 | -45.4 | |||
| 2026-02-01T12:07 | 12069 | 187 | -44.3 | |||
| 2026-02-01T12:08 | 12127 | 186 | 257 | 74 | ||
| 2026-02-01T12:08 | 12274 | 182 | 255 | 76 | ||
| 2026-02-01T12:09 | 12607 | 173 | -48.0 | |||
| 2026-02-01T12:09 | 12655 | 171 | 256 | 79 | ||
| 2026-02-01T12:10 | 12987 | 163 | -49.5 | |||
| 2026-02-01T12:10 | 13020 | 162 | 259 | 72 | ||
| 2026-02-01T12:11 | 13334 | 155 | -51.7 | |||
| 2026-02-01T12:11 | 13409 | 153 | 261 | 66 | ||
| 2026-02-01T12:12 | 13754 | 145 | 259 | 62 | ||
| 2026-02-01T12:12 | 13803 | 144 | -53.1 | |||
| 2026-02-01T12:13 | 14093 | 137 | 262 | 60 | ||
| 2026-02-01T12:14 | 14353 | 132 | -55.1 | |||
| 2026-02-01T12:14 | 14414 | 131 | 265 | 57 | ||
| 2026-02-01T12:15 | 14653 | 126 | -57.1 | |||
| 2026-02-01T12:15 | 14719 | 124 | 264 | 59 | ||
| 2026-02-01T12:16 | 14970 | 120 | -57.6 | |||
| 2026-02-01T12:16 | 15033 | 118 | 263 | 56 | ||
| 2026-02-01T12:16 | 15177 | 116 | -57.9 | |||
| 2026-02-01T12:17 | 15300 | 113 | 264 | 50 | ||
| 2026-02-01T12:17 | 15406 | 112 | -58.1 | |||
| 2026-02-01T12:17 | 15445 | 111 | 259 | 47 | ||
| 2026-02-01T12:17 | 15534 | 109 | -57.5 | |||
| 2026-02-01T12:18 | 15750 | 106 | 251 | 49 | ||
| 2026-02-01T12:18 | 15828 | 104 | -58.8 | |||
| 2026-02-01T12:19 | 16027 | 101 | -59.4 | |||
| 2026-02-01T12:19 | 16049 | 101 | 250 | 56 | ||
| 2026-02-01T12:20 | 16275 | 97 | -60.6 | |||
| 2026-02-01T12:20 | 16384 | 95 | 259 | 56 | ||
| 2026-02-01T12:20 | 16442 | 95 | -60.3 | |||
| 2026-02-01T12:21 | 16535 | 93 | -59.5 | |||
| 2026-02-01T12:21 | 16719 | 90 | 267 | 48 | ||
| 2026-02-01T12:22 | 16866 | 88 | -57.2 | 271 | 40 | |
| 2026-02-01T23:33 | 26 | 1014 | 1.9 | -3.8 | 260 | 1 |
| 2026-02-01T23:33 | 32 | 1013 | 1.4 | -5.1 | 0 | 0 |
| 2026-02-01T23:33 | 59 | 1010 | 0.5 | -5.9 | ||
| 2026-02-01T23:33 | 71 | 1009 | 253 | 3 | ||
| 2026-02-01T23:33 | 116 | 1003 | 0.7 | -7.3 | ||
| 2026-02-01T23:33 | 143 | 1000 | 305 | 4 | ||
| 2026-02-01T23:33 | 176 | 995 | 3.4 | -8.6 | ||
| 2026-02-01T23:34 | 216 | 991 | 3.9 | -5.8 | ||
| 2026-02-01T23:34 | 262 | 985 | 4.5 | -8.9 | ||
| 2026-02-01T23:34 | 313 | 979 | 314 | 4 | ||
| 2026-02-01T23:35 | 593 | 946 | 2.5 | -11.8 | 300 | 10 |
| 2026-02-01T23:35 | 738 | 929 | 1.9 | -10.6 | ||
| 2026-02-01T23:35 | 820 | 919 | 302 | 4 | ||
| 2026-02-01T23:35 | 920 | 908 | 0.4 | -7.8 | ||
| 2026-02-01T23:36 | 1052 | 893 | -0.7 | -11.7 | ||
| 2026-02-01T23:36 | 1194 | 877 | 274 | 4 | ||
| 2026-02-01T23:36 | 1250 | 871 | -2.6 | -8.9 | ||
| 2026-02-01T23:37 | 1456 | 849 | -4.5 | -8.3 | ||
| 2026-02-01T23:37 | 1557 | 838 | 250 | 6 | ||
| 2026-02-01T23:38 | 1923 | 799 | 234 | 7 | ||
| 2026-02-01T23:39 | 2120 | 779 | -10.6 | -11.5 | ||
| 2026-02-01T23:39 | 2230 | 768 | -10.6 | -15.5 | ||
| 2026-02-01T23:39 | 2288 | 762 | -10.1 | -19.5 | ||
| 2026-02-01T23:39 | 2307 | 761 | 264 | 7 | ||
| 2026-02-01T23:40 | 2428 | 749 | -10.9 | -21.0 | ||
| 2026-02-01T23:40 | 2524 | 739 | 244 | 9 | ||
| 2026-02-01T23:40 | 2581 | 734 | -11.4 | -21.8 | ||
| 2026-02-01T23:40 | 2655 | 727 | -11.2 | -22.7 | ||
| 2026-02-01T23:40 | 2748 | 718 | 259 | 13 | ||
| 2026-02-01T23:41 | 2820 | 712 | -12.1 | -23.8 | ||
| 2026-02-01T23:41 | 2896 | 704 | -11.9 | -25.3 | ||
| 2026-02-01T23:41 | 2937 | 701 | 264 | 15 | ||
| 2026-02-01T23:42 | 3274 | 670 | -13.4 | -31.1 | ||
| 2026-02-01T23:42 | 3292 | 669 | 267 | 21 | ||
| 2026-02-01T23:43 | 3658 | 637 | 267 | 22 | ||
| 2026-02-01T23:43 | 3875 | 619 | -18.1 | -36.7 | ||
| 2026-02-01T23:44 | 4039 | 605 | 261 | 23 | ||
| 2026-02-01T23:45 | 4335 | 582 | -21.8 | -38.3 | ||
| 2026-02-01T23:45 | 4401 | 576 | 255 | 24 | ||
| 2026-02-01T23:46 | 4758 | 549 | 259 | 25 | ||
| 2026-02-01T23:47 | 5109 | 523 | 261 | 26 | ||
| 2026-02-01T23:48 | 5392 | 503 | -30.4 | -46.6 | ||
| 2026-02-01T23:48 | 5478 | 497 | 265 | 28 | ||
| 2026-02-01T23:49 | 5842 | 472 | 263 | 30 | ||
| 2026-02-01T23:50 | 6084 | 456 | -34.9 | -53.7 | ||
| 2026-02-01T23:50 | 6208 | 448 | 262 | 35 | ||
| 2026-02-01T23:51 | 6479 | 431 | -37.5 | -57.2 | ||
| 2026-02-01T23:51 | 6577 | 424 | 261 | 36 | ||
| 2026-02-01T23:51 | 6614 | 422 | -37.9 | -59.1 | ||
| 2026-02-01T23:52 | 6956 | 402 | 260 | 39 | ||
| 2026-02-01T23:52 | 6982 | 400 | -40.0 | -60.8 | ||
| 2026-02-01T23:52 | 7125 | 392 | 262 | 42 | ||
| 2026-02-01T23:53 | 7254 | 384 | -41.3 | |||
| 2026-02-01T23:53 | 7260 | 384 | 263 | 43 | ||
| 2026-02-01T23:53 | 7522 | 370 | 264 | 51 | ||
| 2026-02-01T23:54 | 7681 | 361 | 264 | 51 | ||
| 2026-02-01T23:54 | 7896 | 349 | -43.4 | |||
| 2026-02-01T23:55 | 8069 | 341 | -43.1 | |||
| 2026-02-01T23:55 | 8096 | 339 | 264 | 62 | ||
| 2026-02-01T23:55 | 8385 | 325 | 262 | 65 | ||
| 2026-02-01T23:56 | 8577 | 316 | -45.5 | |||
| 2026-02-01T23:56 | 8666 | 312 | -44.8 | |||
| 2026-02-01T23:56 | 8696 | 310 | 262 | 61 | ||
| 2026-02-01T23:56 | 8757 | 307 | -44.5 | |||
| 2026-02-01T23:57 | 8816 | 305 | 260 | 63 | ||
| 2026-02-01T23:57 | 8870 | 302 | -45.1 | |||
| 2026-02-01T23:57 | 9129 | 291 | 262 | 67 | ||
| 2026-02-01T23:58 | 9310 | 283 | -46.3 | |||
| 2026-02-01T23:58 | 9378 | 280 | -45.4 | |||
| 2026-02-01T23:58 | 9457 | 277 | 257 | 61 | ||
| 2026-02-01T23:59 | 9658 | 268 | 253 | 64 | ||
| 2026-02-01T23:59 | 9686 | 267 | -46.7 | |||
| 2026-02-01T23:59 | 9843 | 261 | -46.9 | |||
| 2026-02-01T23:59 | 9880 | 260 | 250 | 69 | ||
| 2026-02-02T00:00 | 10023 | 254 | -45.8 | |||
| 2026-02-02T00:00 | 10079 | 252 | 249 | 73 | ||
| 2026-02-02T00:01 | 10475 | 237 | 255 | 69 | ||
| 2026-02-02T00:01 | 10559 | 234 | -47.6 | |||
| 2026-02-02T00:02 | 10832 | 225 | 258 | 66 | ||
| 2026-02-02T00:02 | 10944 | 221 | -46.9 | |||
| 2026-02-02T00:03 | 11186 | 213 | 253 | 71 | ||
| 2026-02-02T00:04 | 11482 | 204 | 252 | 73 | ||
| 2026-02-02T00:04 | 11488 | 204 | -49.2 | |||
| 2026-02-02T00:04 | 11731 | 196 | -47.2 | |||
| 2026-02-02T00:05 | 11886 | 192 | 257 | 75 | ||
| 2026-02-02T00:05 | 12161 | 184 | 256 | 74 | ||
| 2026-02-02T00:06 | 12272 | 181 | -50.4 | |||
| 2026-02-02T00:06 | 12555 | 173 | 256 | 65 | ||
| 2026-02-02T00:07 | 12791 | 167 | -52.7 | |||
| 2026-02-02T00:07 | 12841 | 166 | 256 | 65 | ||
| 2026-02-02T00:07 | 12972 | 162 | 257 | 71 | ||
| 2026-02-02T00:08 | 13294 | 154 | -53.2 | 260 | 66 | |
| 2026-02-02T00:09 | 13673 | 146 | 263 | 68 | ||
| 2026-02-02T00:09 | 13691 | 145 | -52.9 | |||
| 2026-02-02T00:10 | 14017 | 138 | 261 | 60 | ||
| 2026-02-02T00:10 | 14028 | 138 | -53.4 | |||
| 2026-02-02T00:11 | 14313 | 132 | -53.8 | |||
| 2026-02-02T00:11 | 14323 | 131 | 263 | 60 | ||
| 2026-02-02T00:12 | 14666 | 125 | 258 | 55 | ||
| 2026-02-02T00:12 | 14689 | 124 | -55.1 | |||
| 2026-02-02T00:13 | 14810 | 122 | -55.1 | |||
| 2026-02-02T00:13 | 14997 | 118 | 256 | 56 | ||
| 2026-02-02T00:14 | 15125 | 116 | -57.6 | |||
| 2026-02-02T00:14 | 15248 | 114 | -56.9 | |||
| 2026-02-02T00:14 | 15261 | 114 | 259 | 55 | ||
| 2026-02-02T00:15 | 15510 | 109 | -57.9 | |||
| 2026-02-02T00:15 | 15583 | 108 | 259 | 49 | ||
| 2026-02-02T00:16 | 15791 | 104 | -57.9 | |||
| 2026-02-02T00:16 | 15884 | 103 | 258 | 47 | ||
| 2026-02-02T00:16 | 15928 | 102 | -57.5 | |||
| 2026-02-02T00:17 | 16072 | 100 | 258 | 46 | ||
| 2026-02-02T00:17 | 16174 | 98 | -57.0 | |||
| 2026-02-02T00:18 | 16335 | 96 | -55.9 | |||
| 2026-02-02T00:18 | 16349 | 96 | 259 | 42 | ||
| 2026-02-02T00:19 | 16634 | 91 | 261 | 39 | ||
| 2026-02-02T00:19 | 16741 | 90 | -56.3 | |||
| 2026-02-02T00:19 | 16818 | 89 | 264 | 37 | ||
| 2026-02-02T00:20 | 17110 | 85 | 260 | 37 | ||
| 2026-02-02T00:21 | 17276 | 83 | -58.5 | |||
| 2026-02-02T00:21 | 17454 | 80 | 255 | 38 | ||
| 2026-02-02T00:22 | 17708 | 77 | -60.3 | |||
| 2026-02-02T00:22 | 17756 | 76 | 260 | 35 | ||
| 2026-02-02T00:23 | 17904 | 75 | 259 | 29 | ||
| 2026-02-02T00:23 | 17974 | 74 | -58.5 | |||
| 2026-02-02T00:23 | 18093 | 72 | -58.2 | |||
| 2026-02-02T00:24 | 18235 | 71 | 253 | 30 | ||
| 2026-02-02T00:24 | 18243 | 71 | -56.6 | |||
| 2026-02-02T00:25 | 18577 | 67 | 246 | 28 | ||
| 2026-02-02T00:26 | 18932 | 63 | 247 | 21 | ||
| 2026-02-02T00:26 | 19095 | 62 | -58.1 | |||
| 2026-02-02T00:27 | 19280 | 60 | 257 | 20 | ||
| 2026-02-02T00:28 | 19514 | 58 | -58.9 | |||
| 2026-02-02T00:28 | 19623 | 57 | 267 | 17 | ||
| 2026-02-02T00:28 | 19838 | 55 | -59.3 | |||
| 2026-02-02T00:28 | 19848 | 55 | 275 | 13 | ||
| 2026-02-02T00:29 | 20012 | 53 | -58.3 | |||
| 2026-02-02T00:29 | 20119 | 53 | 266 | 4 | ||
| 2026-02-02T00:30 | 20310 | 51 | 268 | 4 | ||
| 2026-02-02T00:30 | 20575 | 49 | 266 | 7 | ||
| 2026-02-02T00:31 | 20738 | 48 | -62.2 | 273 | 11 | |
| 2026-02-02T00:31 | 20833 | 47 | 264 | 4 | ||
| 2026-02-02T00:31 | 20887 | 46 | -57.1 | |||
| 2026-02-02T00:31 | 20915 | 46 | 220 | 6 | ||
| 2026-02-02T00:32 | 21136 | 45 | 220 | 13 | ||
| 2026-02-02T00:33 | 21426 | 43 | 252 | 8 | ||
| 2026-02-02T00:33 | 21532 | 42 | -56.3 | |||
| 2026-02-02T00:33 | 21653 | 41 | 259 | 7 | ||
| 2026-02-02T00:34 | 21778 | 40 | 238 | 6 | ||
| 2026-02-02T00:34 | 21855 | 40 | -56.8 | |||
| 2026-02-02T00:34 | 22036 | 39 | 275 | 6 | ||
| 2026-02-02T00:35 | 22100 | 38 | -57.3 | |||
| 2026-02-02T00:35 | 22352 | 37 | 266 | 2 | ||
| 2026-02-02T00:36 | 22471 | 36 | -58.9 | |||
| 2026-02-02T00:36 | 22506 | 36 | 263 | 6 | ||
| 2026-02-02T00:36 | 22592 | 35 | 272 | 6 | ||
| 2026-02-02T00:36 | 22794 | 34 | 223 | 6 | ||
| 2026-02-02T00:37 | 22854 | 34 | -53.6 | |||
| 2026-02-02T00:37 | 23042 | 33 | 255 | 2 | ||
| 2026-02-02T00:38 | 23201 | 32 | 246 | 5 | ||
| 2026-02-02T00:38 | 23442 | 31 | 289 | 7 | ||
| 2026-02-02T00:39 | 23758 | 30 | 324 | 4 | ||
| 2026-02-02T00:39 | 23866 | 29 | 326 | 3 | ||
| 2026-02-02T00:39 | 23932 | 29 | -55.7 | |||
| 2026-02-02T00:40 | 24160 | 28 | 98 | 3 | ||
| 2026-02-02T00:40 | 24252 | 27 | -54.6 | |||
| 2026-02-02T00:40 | 24299 | 27 | 97 | 2 | ||
| 2026-02-02T00:41 | 24588 | 26 | 151 | 5 | ||
| 2026-02-02T00:42 | 24763 | 25 | 160 | 4 | ||
| 2026-02-02T00:42 | 24916 | 25 | 150 | 3 | ||
| 2026-02-02T00:43 | 25078 | 24 | -54.3 | |||
| 2026-02-02T00:43 | 25156 | 24 | 64 | 4 | ||
| 2026-02-02T00:43 | 25376 | 23 | 60 | 2 | ||
| 2026-02-02T00:44 | 25492 | 23 | 106 | 4 | ||
| 2026-02-02T00:44 | 25691 | 22 | 93 | 7 | ||
| 2026-02-02T00:45 | 25900 | 21 | 98 | 5 | ||
| 2026-02-02T00:45 | 25993 | 21 | -53.5 | |||
| 2026-02-02T00:45 | 26214 | 20 | 107 | 8 | ||
| 2026-02-02T00:46 | 26407 | 20 | -51.9 | |||
| 2026-02-02T00:46 | 26440 | 19 | 129 | 5 | ||
| 2026-02-02T00:47 | 26646 | 19 | 109 | 7 | ||
| 2026-02-02T00:47 | 26750 | 19 | -50.4 | |||
| 2026-02-02T00:47 | 26893 | 18 | 111 | 13 | ||
| 2026-02-02T00:48 | 27112 | 18 | 115 | 11 | ||
| 2026-02-02T00:49 | 27496 | 17 | -50.7 | 98 | 14 | |
| 2026-02-02T00:49 | 27697 | 16 | 105 | 18 | ||
| 2026-02-02T00:50 | 28031 | 15 | 109 | 18 | ||
| 2026-02-02T00:50 | 28201 | 15 | 113 | 18 | ||
| 2026-02-02T00:51 | 28336 | 15 | 104 | 17 | ||
| 2026-02-02T00:51 | 28382 | 14 | -50.8 | |||
| 2026-02-02T00:51 | 28470 | 14 | 109 | 17 | ||
| 2026-02-02T00:52 | 28900 | 13 | 98 | 15 | ||
| 2026-02-02T00:53 | 29144 | 13 | 98 | 17 | ||
| 2026-02-02T00:54 | 29567 | 12 | 100 | 12 | ||
| 2026-02-02T00:54 | 29788 | 12 | 109 | 16 | ||
| 2026-02-02T00:55 | 29900 | 11 | 99 | 12 | ||
| 2026-02-02T00:55 | 29957 | 11 | -50.8 | |||
| 2026-02-02T00:55 | 30130 | 11 | 98 | 18 | ||
| 2026-02-02T00:56 | 30498 | 10 | 110 | 12 | ||
| 2026-02-02T00:56 | 30625 | 10 | 105 | 16 | ||
| 2026-02-02T00:57 | 30889 | 10 | 110 | 15 | ||
| 2026-02-02T00:58 | 31093 | 10 | 111 | 17 | ||
| 2026-02-02T00:58 | 31232 | 9 | -48.6 | |||
| 2026-02-02T00:58 | 31301 | 9 | 104 | 10 | ||
| 2026-02-02T00:59 | 31523 | 9 | 93 | 15 | ||
| 2026-02-02T00:59 | 31746 | 9 | 73 | 15 | ||
| 2026-02-02T00:59 | 31821 | 9 | 68 | 18 | ||
| 2026-02-02T01:00 | 31981 | 8 | -47.3 | 93 | 16 | |
| 2026-02-02T01:00 | 32072 | 8 | -46.0 | 93 | 21 | |
| 2026-02-02T11:33 | 26 | 1013 | 4.9 | -4.4 | 50 | 2 |
| 2026-02-02T11:33 | 31 | 1013 | 5.4 | -4.2 | 0 | 0 |
| 2026-02-02T11:33 | 63 | 1009 | 27 | 3 | ||
| 2026-02-02T11:34 | 220 | 990 | 38 | 11 | ||
| 2026-02-02T11:34 | 236 | 988 | 4.4 | -5.9 | ||
| 2026-02-02T11:34 | 332 | 976 | 3.9 | -2.1 | ||
| 2026-02-02T11:34 | 380 | 970 | 3.5 | 0.2 | ||
| 2026-02-02T11:34 | 434 | 964 | 68 | 9 | ||
| 2026-02-02T11:35 | 675 | 935 | 1.4 | -1.3 | ||
| 2026-02-02T11:35 | 738 | 928 | 72 | 8 | ||
| 2026-02-02T11:36 | 850 | 915 | 0.1 | -3.1 | ||
| 2026-02-02T11:36 | 861 | 914 | 76 | 4 | ||
| 2026-02-02T11:36 | 911 | 908 | 0.1 | -4.5 | ||
| 2026-02-02T11:36 | 928 | 906 | 84 | 2 | ||
| 2026-02-02T11:36 | 1017 | 896 | -0.8 | -6.2 | 158 | 3 |
| 2026-02-02T11:36 | 1142 | 882 | -1.8 | -6.4 | ||
| 2026-02-02T11:37 | 1216 | 874 | 264 | 3 | ||
| 2026-02-02T11:37 | 1350 | 860 | 272 | 3 | ||
| 2026-02-02T11:37 | 1387 | 855 | -3.8 | -8.3 | ||
| 2026-02-02T11:38 | 1583 | 835 | 293 | 4 | ||
| 2026-02-02T11:38 | 1603 | 832 | -5.7 | -11.6 | ||
| 2026-02-02T11:38 | 1666 | 826 | 289 | 4 | ||
| 2026-02-02T11:38 | 1745 | 817 | 308 | 4 | ||
| 2026-02-02T11:39 | 1840 | 807 | 302 | 4 | ||
| 2026-02-02T11:39 | 1952 | 796 | 319 | 3 | ||
| 2026-02-02T11:39 | 2072 | 784 | 293 | 4 | ||
| 2026-02-02T11:40 | 2226 | 768 | 299 | 5 | ||
| 2026-02-02T11:40 | 2316 | 759 | -12.0 | -15.5 | ||
| 2026-02-02T11:41 | 2486 | 743 | 287 | 8 | ||
| 2026-02-02T11:41 | 2740 | 718 | -15.6 | -19.3 | ||
| 2026-02-02T11:42 | 2821 | 710 | 291 | 9 | ||
| 2026-02-02T11:42 | 2850 | 708 | -16.5 | -21.0 | ||
| 2026-02-02T11:42 | 2984 | 695 | -17.9 | -22.5 | ||
| 2026-02-02T11:43 | 3152 | 680 | 292 | 13 | ||
| 2026-02-02T11:43 | 3158 | 679 | -19.3 | -28.0 | ||
| 2026-02-02T11:44 | 3465 | 652 | -21.6 | -30.9 | ||
| 2026-02-02T11:44 | 3476 | 651 | 288 | 12 | ||
| 2026-02-02T11:44 | 3736 | 628 | 275 | 11 | ||
| 2026-02-02T11:45 | 3774 | 625 | -23.4 | -30.9 | ||
| 2026-02-02T11:45 | 3968 | 609 | -24.5 | -27.7 | ||
| 2026-02-02T11:45 | 4032 | 603 | 239 | 14 | ||
| 2026-02-02T11:46 | 4097 | 598 | -24.8 | -28.2 | ||
| 2026-02-02T11:46 | 4181 | 591 | 245 | 18 | ||
| 2026-02-02T11:46 | 4198 | 590 | -25.7 | -29.6 | ||
| 2026-02-02T11:46 | 4275 | 583 | -26.4 | -30.7 | ||
| 2026-02-02T11:46 | 4358 | 577 | -27.1 | -33.2 | ||
| 2026-02-02T11:46 | 4427 | 571 | 259 | 18 | ||
| 2026-02-02T11:47 | 4508 | 565 | -28.6 | -34.1 | ||
| 2026-02-02T11:47 | 4727 | 548 | -30.5 | -36.3 | ||
| 2026-02-02T11:47 | 4737 | 547 | 267 | 20 | ||
| 2026-02-02T11:48 | 4861 | 538 | 273 | 23 | ||
| 2026-02-02T11:48 | 4866 | 537 | -30.5 | -42.2 | ||
| 2026-02-02T11:48 | 4910 | 534 | -29.4 | -49.8 | ||
| 2026-02-02T11:48 | 4990 | 528 | 266 | 32 | ||
| 2026-02-02T11:48 | 4995 | 528 | -28.9 | -55.3 | ||
| 2026-02-02T11:49 | 5153 | 516 | 265 | 30 | ||
| 2026-02-02T11:49 | 5221 | 511 | -29.9 | -57.5 | ||
| 2026-02-02T11:49 | 5356 | 501 | -30.6 | -51.6 | ||
| 2026-02-02T11:50 | 5504 | 491 | 254 | 34 | ||
| 2026-02-02T11:50 | 5699 | 478 | -32.9 | -55.1 | ||
| 2026-02-02T11:51 | 5769 | 473 | 251 | 36 | ||
| 2026-02-02T11:51 | 6002 | 458 | 250 | 38 | ||
| 2026-02-02T11:51 | 6014 | 457 | -34.5 | -58.4 | ||
| 2026-02-02T11:52 | 6134 | 449 | 249 | 41 | ||
| 2026-02-02T11:53 | 6483 | 427 | 251 | 38 | ||
| 2026-02-02T11:53 | 6524 | 424 | -36.8 | -64.5 | ||
| 2026-02-02T11:53 | 6667 | 416 | 257 | 42 | ||
| 2026-02-02T11:53 | 6673 | 415 | -37.1 | -64.7 | ||
| 2026-02-02T11:54 | 6990 | 397 | -38.4 | -64.0 | ||
| 2026-02-02T11:54 | 7006 | 396 | 255 | 42 | ||
| 2026-02-02T11:55 | 7204 | 385 | -40.0 | -63.9 | ||
| 2026-02-02T11:55 | 7327 | 378 | 257 | 44 | ||
| 2026-02-02T11:56 | 7502 | 368 | 256 | 47 | ||
| 2026-02-02T11:56 | 7616 | 362 | -41.3 | |||
| 2026-02-02T11:57 | 7868 | 349 | 254 | 51 | ||
| 2026-02-02T11:57 | 7900 | 347 | -42.0 | |||
| 2026-02-02T11:57 | 8069 | 339 | 255 | 51 | ||
| 2026-02-02T11:57 | 8121 | 336 | -43.0 | |||
| 2026-02-02T11:57 | 8181 | 333 | -42.6 | |||
| 2026-02-02T11:58 | 8452 | 320 | 253 | 55 | ||
| 2026-02-02T11:58 | 8513 | 317 | -45.1 | |||
| 2026-02-02T11:59 | 8623 | 312 | -44.9 | |||
| 2026-02-02T11:59 | 8753 | 306 | 257 | 51 | ||
| 2026-02-02T11:59 | 8787 | 304 | -44.4 | |||
| 2026-02-02T11:59 | 8887 | 300 | -43.9 | |||
| 2026-02-02T12:00 | 9059 | 292 | 254 | 54 | ||
| 2026-02-02T12:00 | 9109 | 290 | -42.8 | |||
| 2026-02-02T12:01 | 9419 | 277 | 254 | 58 | ||
| 2026-02-02T12:01 | 9425 | 277 | -44.8 | |||
| 2026-02-02T12:02 | 9739 | 264 | -43.5 | |||
| 2026-02-02T12:02 | 9782 | 262 | 255 | 58 | ||
| 2026-02-02T12:03 | 10136 | 249 | 253 | 58 | ||
| 2026-02-02T12:03 | 10154 | 248 | -43.0 | |||
| 2026-02-02T12:03 | 10353 | 241 | -43.3 | |||
| 2026-02-02T12:04 | 10413 | 239 | 253 | 59 | ||
| 2026-02-02T12:04 | 10696 | 229 | 254 | 62 | ||
| 2026-02-02T12:05 | 10776 | 226 | -43.5 | |||
| 2026-02-02T12:05 | 11112 | 215 | 250 | 59 | ||
| 2026-02-02T12:06 | 11319 | 209 | -45.5 | |||
| 2026-02-02T12:06 | 11488 | 203 | 255 | 62 | ||
| 2026-02-02T12:07 | 11821 | 193 | 256 | 64 | ||
| 2026-02-02T12:07 | 11879 | 192 | -48.4 | |||
| 2026-02-02T12:08 | 12035 | 187 | 258 | 63 | ||
| 2026-02-02T12:08 | 12166 | 183 | -47.9 | |||
| 2026-02-02T12:09 | 12321 | 179 | 259 | 63 | ||
| 2026-02-02T12:10 | 12619 | 171 | 260 | 64 | ||
| 2026-02-02T12:10 | 12700 | 169 | -49.2 | |||
| 2026-02-02T12:11 | 12819 | 166 | 260 | 58 | ||
| 2026-02-02T12:11 | 12978 | 162 | -49.0 | |||
| 2026-02-02T12:12 | 13153 | 158 | 258 | 54 | ||
| 2026-02-02T12:12 | 13418 | 152 | -51.0 | |||
| 2026-02-02T12:13 | 13515 | 149 | 251 | 52 | ||
| 2026-02-02T12:14 | 13853 | 142 | 250 | 52 | ||
| 2026-02-02T12:14 | 13931 | 140 | -54.3 | |||
| 2026-02-02T12:14 | 14086 | 137 | 252 | 55 | ||
| 2026-02-02T12:15 | 14269 | 133 | -55.4 | |||
| 2026-02-02T12:15 | 14377 | 131 | 252 | 58 | ||
| 2026-02-02T12:16 | 14667 | 125 | 258 | 58 | ||
| 2026-02-02T12:16 | 14717 | 124 | -56.7 | |||
| 2026-02-02T12:17 | 14972 | 119 | 253 | 55 | ||
| 2026-02-02T12:17 | 14998 | 118 | -57.8 | |||
| 2026-02-02T12:18 | 15287 | 113 | 260 | 54 | ||
| 2026-02-02T12:19 | 15368 | 112 | -58.8 | |||
| 2026-02-02T12:19 | 15617 | 107 | 261 | 49 | ||
| 2026-02-02T12:20 | 15831 | 104 | -59.3 | |||
| 2026-02-02T12:20 | 15952 | 102 | 259 | 49 | ||
| 2026-02-02T12:20 | 15996 | 101 | -59.6 | |||
| 2026-02-02T12:21 | 16281 | 97 | 261 | 49 | ||
| 2026-02-02T12:22 | 16414 | 95 | -59.6 | |||
| 2026-02-02T12:22 | 16608 | 92 | 263 | 52 | ||
| 2026-02-02T12:23 | 16931 | 87 | 267 | 44 | ||
| 2026-02-02T12:23 | 16965 | 87 | -59.7 | |||
| 2026-02-02T12:24 | 17151 | 84 | 268 | 40 | ||
| 2026-02-02T12:25 | 17467 | 80 | -57.8 | |||
| 2026-02-02T12:25 | 17491 | 80 | 267 | 41 | ||
| 2026-02-02T12:25 | 17635 | 78 | -56.1 | |||
| 2026-02-02T12:25 | 17692 | 77 | 270 | 36 | ||
| 2026-02-02T12:26 | 17734 | 77 | -54.5 | |||
| 2026-02-02T12:26 | 17997 | 74 | 262 | 29 | ||
| 2026-02-02T12:27 | 18181 | 71 | 247 | 30 | ||
| 2026-02-02T12:28 | 18527 | 68 | 253 | 34 | ||
| 2026-02-02T12:28 | 18620 | 67 | -58.5 | |||
| 2026-02-02T12:28 | 18732 | 65 | 255 | 27 | ||
| 2026-02-02T12:29 | 18831 | 64 | 243 | 22 | ||
| 2026-02-02T12:29 | 18860 | 64 | -56.2 | |||
| 2026-02-02T12:30 | 19095 | 62 | -55.7 | |||
| 2026-02-02T12:30 | 19144 | 61 | 233 | 24 | ||
| 2026-02-02T12:30 | 19262 | 60 | 252 | 20 | ||
| 2026-02-02T12:30 | 19294 | 60 | -51.7 | |||
| 2026-02-02T12:31 | 19583 | 57 | 260 | 21 | ||
| 2026-02-02T12:32 | 19880 | 55 | 275 | 18 | ||
| 2026-02-02T12:32 | 20009 | 54 | -55.1 | |||
| 2026-02-02T12:33 | 20169 | 52 | 289 | 13 | ||
| 2026-02-02T12:33 | 20400 | 50 | 305 | 11 | ||
| 2026-02-02T12:34 | 20615 | 49 | -60.0 | |||
| 2026-02-02T12:34 | 20693 | 48 | 296 | 9 | ||
| 2026-02-02T12:34 | 20769 | 48 | -58.6 | |||
| 2026-02-02T12:34 | 20823 | 47 | 328 | 9 | ||
| 2026-02-02T12:35 | 21122 | 45 | 295 | 10 | ||
| 2026-02-02T12:35 | 21168 | 45 | -59.4 | |||
| 2026-02-02T12:35 | 21291 | 44 | -58.4 | 280 | 13 | |
| 2026-02-02T12:36 | 21408 | 43 | -57.5 | |||
| 2026-02-02T12:36 | 21466 | 43 | 285 | 12 | ||
| 2026-02-02T12:37 | 21740 | 41 | -57.2 | |||
| 2026-02-02T12:37 | 21771 | 41 | 290 | 8 | ||
| 2026-02-02T12:37 | 22013 | 39 | -57.5 | |||
| 2026-02-02T12:38 | 22125 | 38 | 264 | 5 | ||
| 2026-02-02T12:38 | 22343 | 37 | 261 | 6 | ||
| 2026-02-02T12:39 | 22534 | 36 | -58.7 | |||
| 2026-02-02T12:39 | 22638 | 35 | 261 | 16 | ||
| 2026-02-02T12:39 | 22677 | 35 | -56.4 | |||
| 2026-02-02T12:40 | 22841 | 34 | -54.3 | |||
| 2026-02-02T12:40 | 22876 | 34 | 300 | 8 | ||
| 2026-02-02T12:40 | 23049 | 33 | 310 | 6 | ||
| 2026-02-02T12:41 | 23247 | 32 | 281 | 7 | ||
| 2026-02-02T12:41 | 23365 | 32 | -54.8 | |||
| 2026-02-02T12:41 | 23406 | 31 | 271 | 6 | ||
| 2026-02-02T12:42 | 23530 | 31 | 312 | 4 | ||
| 2026-02-02T12:42 | 23681 | 30 | 301 | 7 | ||
| 2026-02-02T12:42 | 23783 | 30 | -55.1 | |||
| 2026-02-02T12:43 | 23914 | 29 | 316 | 8 | ||
| 2026-02-02T12:44 | 24256 | 27 | 317 | 8 | ||
| 2026-02-02T12:44 | 24396 | 27 | 347 | 6 | ||
| 2026-02-02T12:44 | 24545 | 26 | 346 | 5 | ||
| 2026-02-02T12:45 | 24818 | 25 | 67 | 4 | ||
| 2026-02-02T12:45 | 24946 | 25 | 93 | 3 | ||
| 2026-02-02T12:46 | 24971 | 25 | -54.5 | |||
| 2026-02-02T12:46 | 25077 | 24 | 153 | 1 | ||
| 2026-02-02T12:46 | 25158 | 24 | 182 | 3 | ||
| 2026-02-02T12:46 | 25296 | 23 | 186 | 6 | ||
| 2026-02-02T12:47 | 25433 | 23 | 198 | 2 | ||
| 2026-02-02T12:47 | 25661 | 22 | 140 | 2 | ||
| 2026-02-02T12:48 | 25993 | 21 | 163 | 6 | ||
| 2026-02-02T12:48 | 26054 | 21 | 149 | 4 | ||
| 2026-02-02T12:48 | 26114 | 21 | 107 | 4 | ||
| 2026-02-02T12:49 | 26141 | 20 | -53.8 | 103 | 5 | |
| 2026-02-02T23:33 | 26 | 1019 | 3.2 | -4.7 | 300 | 1 |
| 2026-02-02T23:33 | 32 | 1018 | 2.8 | -5.8 | 342 | 1 |
| 2026-02-02T23:33 | 162 | 1002 | 1.1 | -6.9 | ||
| 2026-02-02T23:34 | 224 | 994 | 310 | 3 | ||
| 2026-02-02T23:34 | 356 | 978 | 356 | 2 | ||
| 2026-02-02T23:34 | 397 | 973 | 0.2 | -8.3 | ||
| 2026-02-02T23:34 | 484 | 962 | 48 | 3 | ||
| 2026-02-02T23:35 | 678 | 939 | 49 | 3 | ||
| 2026-02-02T23:35 | 803 | 925 | 28 | 4 | ||
| 2026-02-02T23:35 | 836 | 921 | -3.0 | -10.8 | ||
| 2026-02-02T23:36 | 936 | 909 | 343 | 6 | ||
| 2026-02-02T23:36 | 1143 | 886 | 335 | 6 | ||
| 2026-02-02T23:37 | 1220 | 877 | -6.4 | -12.5 | ||
| 2026-02-02T23:37 | 1393 | 858 | 315 | 6 | ||
| 2026-02-02T23:37 | 1444 | 852 | -7.3 | -16.0 | ||
| 2026-02-02T23:37 | 1534 | 842 | 339 | 5 | ||
| 2026-02-02T23:38 | 1625 | 833 | 326 | 3 | ||
| 2026-02-02T23:38 | 1654 | 829 | -8.4 | -18.5 | ||
| 2026-02-02T23:38 | 1729 | 821 | 71 | 3 | ||
| 2026-02-02T23:38 | 1796 | 814 | -8.1 | -22.3 | ||
| 2026-02-02T23:39 | 1954 | 798 | 78 | 5 | ||
| 2026-02-02T23:39 | 2028 | 790 | -9.4 | -24.6 | ||
| 2026-02-02T23:39 | 2074 | 786 | 71 | 1 | ||
| 2026-02-02T23:39 | 2183 | 775 | 15 | 4 | ||
| 2026-02-02T23:40 | 2303 | 763 | 352 | 5 | ||
| 2026-02-02T23:40 | 2391 | 754 | -12.0 | -26.5 | ||
| 2026-02-02T23:40 | 2454 | 748 | 357 | 10 | ||
| 2026-02-02T23:40 | 2474 | 746 | -11.8 | -29.3 | ||
| 2026-02-02T23:40 | 2512 | 742 | -11.6 | -30.1 | ||
| 2026-02-02T23:40 | 2588 | 735 | -10.6 | -33.8 | ||
| 2026-02-02T23:41 | 2749 | 720 | 351 | 10 | ||
| 2026-02-02T23:41 | 2842 | 711 | -12.0 | -36.6 | ||
| 2026-02-02T23:42 | 3045 | 692 | 343 | 9 | ||
| 2026-02-02T23:42 | 3154 | 682 | -14.2 | -32.3 | ||
| 2026-02-02T23:42 | 3222 | 676 | 336 | 10 | ||
| 2026-02-02T23:43 | 3432 | 658 | 331 | 9 | ||
| 2026-02-02T23:43 | 3592 | 644 | 335 | 10 | ||
| 2026-02-02T23:44 | 3737 | 631 | -19.3 | -37.2 | ||
| 2026-02-02T23:44 | 3807 | 626 | 320 | 8 | ||
| 2026-02-02T23:44 | 3916 | 616 | 324 | 7 | ||
| 2026-02-02T23:45 | 4024 | 607 | 337 | 6 | ||
| 2026-02-02T23:45 | 4129 | 599 | 332 | 7 | ||
| 2026-02-02T23:45 | 4253 | 589 | 309 | 8 | ||
| 2026-02-02T23:45 | 4288 | 586 | -24.2 | -40.4 | ||
| 2026-02-02T23:46 | 4353 | 581 | 325 | 9 | ||
| 2026-02-02T23:46 | 4468 | 572 | 310 | 13 | ||
| 2026-02-02T23:46 | 4530 | 567 | -25.1 | -44.9 | ||
| 2026-02-02T23:47 | 4700 | 554 | 297 | 13 | ||
| 2026-02-02T23:47 | 4765 | 549 | -26.7 | -47.6 | ||
| 2026-02-02T23:47 | 4858 | 542 | 306 | 12 | ||
| 2026-02-02T23:47 | 4949 | 535 | -27.6 | -50.9 | ||
| 2026-02-02T23:48 | 5203 | 516 | 317 | 15 | ||
| 2026-02-02T23:49 | 5428 | 500 | -30.8 | -51.7 | ||
| 2026-02-02T23:49 | 5573 | 490 | 307 | 17 | ||
| 2026-02-02T23:49 | 5748 | 478 | -33.0 | -56.1 | ||
| 2026-02-02T23:49 | 5800 | 474 | 297 | 14 | ||
| 2026-02-02T23:50 | 6071 | 457 | 298 | 16 | ||
| 2026-02-02T23:51 | 6254 | 445 | 301 | 18 | ||
| 2026-02-02T23:51 | 6427 | 434 | -37.8 | -59.0 | ||
| 2026-02-02T23:51 | 6433 | 433 | 284 | 18 | ||
| 2026-02-02T23:52 | 6714 | 416 | 287 | 20 | ||
| 2026-02-02T23:53 | 6847 | 408 | -40.0 | -63.9 | ||
| 2026-02-02T23:53 | 6882 | 406 | 282 | 22 | ||
| 2026-02-02T23:53 | 7037 | 397 | 289 | 22 | ||
| 2026-02-02T23:53 | 7090 | 394 | -41.6 | |||
| 2026-02-02T23:54 | 7378 | 377 | 296 | 25 | ||
| 2026-02-02T23:55 | 7567 | 367 | 285 | 23 | ||
| 2026-02-02T23:55 | 7884 | 350 | -45.7 | |||
| 2026-02-02T23:56 | 7976 | 345 | 277 | 26 | ||
| 2026-02-02T23:56 | 8126 | 337 | 281 | 25 | ||
| 2026-02-02T23:56 | 8280 | 329 | 281 | 26 | ||
| 2026-02-02T23:57 | 8357 | 326 | -49.0 | |||
| 2026-02-02T23:57 | 8634 | 312 | -50.9 | |||
| 2026-02-02T23:57 | 8704 | 309 | 286 | 30 | ||
| 2026-02-02T23:58 | 8858 | 302 | 281 | 29 | ||
| 2026-02-02T23:58 | 8890 | 300 | -52.4 | |||
| 2026-02-02T23:59 | 9223 | 285 | 283 | 27 | ||
| 2026-02-02T23:59 | 9336 | 280 | 277 | 28 | ||
| 2026-02-02T23:59 | 9367 | 279 | -50.9 | |||
| 2026-02-03T00:00 | 9661 | 266 | 277 | 33 | ||
| 2026-02-03T00:01 | 9896 | 257 | -48.3 | |||
| 2026-02-03T00:01 | 10046 | 251 | 271 | 35 | ||
| 2026-02-03T00:01 | 10060 | 251 | -47.6 | |||
| 2026-02-03T00:02 | 10294 | 242 | 270 | 37 | ||
| 2026-02-03T00:02 | 10480 | 235 | -46.8 | |||
| 2026-02-03T00:02 | 10590 | 232 | 263 | 38 | ||
| 2026-02-03T00:03 | 10919 | 220 | 268 | 43 | ||
| 2026-02-03T00:03 | 10945 | 219 | -48.8 | |||
| 2026-02-03T00:04 | 11260 | 209 | -48.3 | |||
| 2026-02-03T00:04 | 11311 | 208 | 263 | 43 | ||
| 2026-02-03T00:05 | 11552 | 200 | -49.1 | |||
| 2026-02-03T00:05 | 11697 | 196 | 266 | 46 | ||
| 2026-02-03T00:05 | 11808 | 192 | -49.5 | |||
| 2026-02-03T00:06 | 11914 | 189 | 263 | 49 | ||
| 2026-02-03T00:06 | 12122 | 183 | -50.6 | |||
| 2026-02-03T00:07 | 12313 | 178 | 268 | 53 | ||
| 2026-02-03T00:07 | 12511 | 173 | -51.3 | |||
| 2026-02-03T00:08 | 12750 | 166 | 269 | 51 | ||
| 2026-02-03T00:09 | 13127 | 157 | 272 | 48 | ||
| 2026-02-03T00:09 | 13255 | 154 | -51.3 | |||
| 2026-02-03T00:10 | 13433 | 150 | -50.5 | |||
| 2026-02-03T00:10 | 13497 | 148 | 269 | 48 | ||
| 2026-02-03T00:11 | 13802 | 142 | -52.0 | |||
| 2026-02-03T00:11 | 13818 | 141 | 270 | 48 | ||
| 2026-02-03T00:11 | 14060 | 136 | -52.5 | |||
| 2026-02-03T00:12 | 14075 | 136 | 267 | 47 | ||
| 2026-02-03T00:12 | 14188 | 133 | 268 | 44 | ||
| 2026-02-03T00:12 | 14253 | 132 | -52.3 | |||
| 2026-02-03T00:13 | 14510 | 127 | 271 | 46 | ||
| 2026-02-03T00:13 | 14545 | 126 | -53.8 | |||
| 2026-02-03T00:14 | 14844 | 120 | -54.4 | 263 | 42 | |
| 2026-02-03T00:14 | 15173 | 114 | -55.7 | |||
| 2026-02-03T00:15 | 15289 | 112 | 266 | 42 | ||
| 2026-02-03T00:15 | 15491 | 109 | -56.7 | |||
| 2026-02-03T00:15 | 15534 | 108 | 267 | 41 | ||
| 2026-02-03T00:16 | 15833 | 103 | 262 | 37 | ||
| 2026-02-03T00:17 | 15950 | 101 | -56.2 | |||
| 2026-02-03T00:17 | 16149 | 98 | 258 | 37 | ||
| 2026-02-03T00:18 | 16451 | 93 | 267 | 39 | ||
| 2026-02-03T00:19 | 16654 | 90 | -59.6 | |||
| 2026-02-03T00:19 | 16724 | 89 | 266 | 35 | ||
| 2026-02-03T00:20 | 17047 | 85 | -60.7 | |||
| 2026-02-03T00:20 | 17061 | 85 | 272 | 34 | ||
| 2026-02-03T00:21 | 17225 | 83 | -60.4 | |||
| 2026-02-03T00:21 | 17247 | 82 | 272 | 35 | ||
| 2026-02-03T00:21 | 17424 | 80 | -59.3 | 275 | 35 | |
| 2026-02-03T00:22 | 17560 | 78 | 281 | 30 | ||
| 2026-02-03T00:22 | 17584 | 78 | -57.1 | |||
| 2026-02-03T00:23 | 17815 | 75 | 276 | 23 | ||
| 2026-02-03T00:24 | 18136 | 71 | -55.8 | |||
| 2026-02-03T00:24 | 18171 | 71 | 244 | 23 | ||
| 2026-02-03T00:25 | 18546 | 67 | 233 | 25 | ||
| 2026-02-03T00:26 | 18911 | 63 | 243 | 27 | ||
| 2026-02-03T00:26 | 19039 | 62 | -61.4 | |||
| 2026-02-03T00:27 | 19282 | 59 | 259 | 29 | ||
| 2026-02-03T00:27 | 19433 | 58 | -60.7 | |||
| 2026-02-03T00:28 | 19531 | 57 | 266 | 27 | ||
| 2026-02-03T00:28 | 19581 | 57 | -59.0 | |||
| 2026-02-03T00:28 | 19696 | 56 | -57.7 | |||
| 2026-02-03T00:29 | 19858 | 54 | -58.0 | 291 | 23 | |
| 2026-02-03T00:29 | 20021 | 53 | -56.5 | |||
| 2026-02-03T00:29 | 20056 | 53 | 280 | 17 | ||
| 2026-02-03T00:30 | 20203 | 51 | -55.5 | |||
| 2026-02-03T00:30 | 20392 | 50 | 252 | 13 | ||
| 2026-02-03T00:31 | 20744 | 47 | 260 | 16 | ||
| 2026-02-03T00:32 | 21057 | 45 | -58.5 | 261 | 15 | |
| 2026-02-03T00:33 | 21287 | 43 | 278 | 10 | ||
| 2026-02-03T00:34 | 21568 | 41 | 283 | 11 | ||
| 2026-02-03T00:35 | 21915 | 39 | -59.7 | |||
| 2026-02-03T00:35 | 21930 | 39 | 273 | 16 | ||
| 2026-02-03T00:35 | 22108 | 38 | 285 | 14 | ||
| 2026-02-03T00:36 | 22241 | 37 | -58.4 | |||
| 2026-02-03T00:36 | 22259 | 37 | 313 | 9 | ||
| 2026-02-03T00:36 | 22344 | 37 | -57.5 | |||
| 2026-02-03T00:36 | 22554 | 35 | 336 | 4 | ||
| 2026-02-03T00:37 | 22732 | 34 | 327 | 3 | ||
| 2026-02-03T00:37 | 22953 | 33 | -59.9 | 240 | 5 | |
| 2026-02-03T00:38 | 23090 | 32 | 242 | 9 | ||
| 2026-02-03T00:38 | 23189 | 32 | -57.0 | |||
| 2026-02-03T00:38 | 23328 | 31 | 288 | 11 | ||
| 2026-02-03T00:39 | 23515 | 30 | 335 | 9 | ||
| 2026-02-03T00:39 | 23728 | 29 | 290 | 6 | ||
| 2026-02-03T00:40 | 24061 | 28 | 346 | 3 | ||
| 2026-02-03T00:41 | 24202 | 27 | 186 | 1 | ||
| 2026-02-03T00:41 | 24442 | 26 | -53.8 | |||
| 2026-02-03T00:42 | 24589 | 26 | 6 | 2 | ||
| 2026-02-03T00:42 | 24692 | 25 | 40 | 4 | ||
| 2026-02-03T00:43 | 24873 | 25 | -54.6 | |||
| 2026-02-03T00:43 | 24979 | 24 | 98 | 7 | ||
| 2026-02-03T00:43 | 25223 | 23 | 122 | 7 | ||
| 2026-02-03T00:44 | 25363 | 23 | 131 | 4 | ||
| 2026-02-03T00:44 | 25481 | 22 | 94 | 7 | ||
| 2026-02-03T00:44 | 25569 | 22 | -53.6 | |||
| 2026-02-03T00:45 | 25746 | 21 | 79 | 9 | ||
| 2026-02-03T00:45 | 25924 | 21 | 113 | 8 | ||
| 2026-02-03T00:46 | 26049 | 20 | -54.1 | |||
| 2026-02-03T00:46 | 26149 | 20 | 85 | 10 | ||
| 2026-02-03T00:47 | 26410 | 19 | 111 | 9 | ||
| 2026-02-03T00:47 | 26578 | 19 | 121 | 8 | ||
| 2026-02-03T00:47 | 26718 | 18 | 145 | 8 | ||
| 2026-02-03T00:48 | 26895 | 18 | 121 | 6 | ||
| 2026-02-03T00:48 | 27077 | 17 | 153 | 10 | ||
| 2026-02-03T00:49 | 27303 | 17 | 130 | 10 | ||
| 2026-02-03T00:49 | 27457 | 16 | 138 | 13 | ||
| 2026-02-03T00:50 | 27658 | 16 | -52.6 | |||
| 2026-02-03T00:50 | 27781 | 16 | 136 | 16 | ||
| 2026-02-03T00:51 | 27948 | 15 | 138 | 10 | ||
| 2026-02-03T00:51 | 28042 | 15 | -50.9 | 126 | 9 | |
| 2026-02-03T11:33 | 26 | 1020 | 1.2 | -6.6 | 100 | 0 |
| 2026-02-03T11:33 | 34 | 1019 | 1.7 | -7.6 | 0 | 0 |
| 2026-02-03T11:33 | 80 | 1013 | 4.5 | -7.3 | ||
| 2026-02-03T11:33 | 88 | 1012 | 149 | 2 | ||
| 2026-02-03T11:33 | 158 | 1004 | 5.6 | -6.6 | ||
| 2026-02-03T11:33 | 168 | 1003 | 171 | 8 | ||
| 2026-02-03T11:34 | 438 | 970 | 3.6 | -8.8 | ||
| 2026-02-03T11:34 | 497 | 963 | 179 | 8 | ||
| 2026-02-03T11:35 | 637 | 946 | 195 | 6 | ||
| 2026-02-03T11:35 | 759 | 932 | 206 | 4 | ||
| 2026-02-03T11:36 | 911 | 914 | 220 | 4 | ||
| 2026-02-03T11:36 | 1006 | 904 | 231 | 4 | ||
| 2026-02-03T11:36 | 1177 | 885 | 257 | 4 | ||
| 2026-02-03T11:36 | 1220 | 880 | -2.7 | -13.3 | ||
| 2026-02-03T11:37 | 1461 | 853 | 283 | 7 | ||
| 2026-02-03T11:38 | 1815 | 815 | 250 | 7 | ||
| 2026-02-03T11:38 | 1849 | 812 | -8.2 | -14.2 | ||
| 2026-02-03T11:39 | 1984 | 798 | 254 | 7 | ||
| 2026-02-03T11:39 | 2001 | 796 | -9.2 | -14.9 | ||
| 2026-02-03T11:39 | 2102 | 786 | -9.0 | -19.3 | ||
| 2026-02-03T11:39 | 2165 | 779 | 289 | 8 | ||
| 2026-02-03T11:39 | 2207 | 775 | -9.3 | -22.6 | ||
| 2026-02-03T11:39 | 2247 | 771 | -8.9 | -26.3 | ||
| 2026-02-03T11:40 | 2393 | 757 | -8.9 | -30.9 | ||
| 2026-02-03T11:40 | 2434 | 753 | -7.5 | -40.8 | ||
| 2026-02-03T11:40 | 2465 | 750 | 300 | 12 | ||
| 2026-02-03T11:40 | 2492 | 747 | -7.2 | -31.8 | ||
| 2026-02-03T11:41 | 2626 | 734 | -7.8 | -24.9 | ||
| 2026-02-03T11:41 | 2791 | 719 | 296 | 12 | ||
| 2026-02-03T11:42 | 2993 | 700 | 285 | 12 | ||
| 2026-02-03T11:42 | 3017 | 698 | -8.9 | -31.6 | ||
| 2026-02-03T11:43 | 3351 | 669 | 288 | 12 | ||
| 2026-02-03T11:43 | 3534 | 653 | 269 | 14 | ||
| 2026-02-03T11:44 | 3745 | 635 | -13.0 | -37.4 | ||
| 2026-02-03T11:44 | 3920 | 621 | 273 | 15 | ||
| 2026-02-03T11:45 | 4293 | 591 | 276 | 16 | ||
| 2026-02-03T11:46 | 4576 | 569 | 281 | 18 | ||
| 2026-02-03T11:46 | 4624 | 565 | -19.3 | -42.4 | ||
| 2026-02-03T11:47 | 4929 | 542 | 282 | 19 | ||
| 2026-02-03T11:48 | 5156 | 526 | 286 | 19 | ||
| 2026-02-03T11:48 | 5247 | 519 | 281 | 18 | ||
| 2026-02-03T11:48 | 5402 | 508 | -25.6 | -46.7 | ||
| 2026-02-03T11:49 | 5457 | 504 | 283 | 20 | ||
| 2026-02-03T11:50 | 5815 | 480 | 282 | 22 | ||
| 2026-02-03T11:51 | 6186 | 455 | 286 | 23 | ||
| 2026-02-03T11:51 | 6326 | 447 | 278 | 21 | ||
| 2026-02-03T11:52 | 6704 | 423 | -35.3 | -60.2 | 280 | 23 |
| 2026-02-03T11:53 | 6987 | 406 | -37.2 | -61.7 | ||
| 2026-02-03T11:53 | 7073 | 401 | 275 | 22 | ||
| 2026-02-03T11:53 | 7216 | 393 | 276 | 23 | ||
| 2026-02-03T11:54 | 7363 | 385 | -39.8 | -61.6 | ||
| 2026-02-03T11:54 | 7402 | 382 | -40.0 | -61.7 | ||
| 2026-02-03T11:54 | 7554 | 374 | 281 | 25 | ||
| 2026-02-03T11:55 | 7898 | 355 | -43.6 | |||
| 2026-02-03T11:55 | 7910 | 355 | 281 | 25 | ||
| 2026-02-03T11:56 | 8122 | 344 | 285 | 27 | ||
| 2026-02-03T11:57 | 8385 | 330 | -46.5 | |||
| 2026-02-03T11:57 | 8498 | 325 | 283 | 24 | ||
| 2026-02-03T11:57 | 8655 | 317 | -48.2 | |||
| 2026-02-03T11:58 | 8776 | 311 | 285 | 26 | ||
| 2026-02-03T11:59 | 9157 | 294 | 283 | 25 | ||
| 2026-02-03T11:59 | 9307 | 287 | -53.0 | |||
| 2026-02-03T12:00 | 9549 | 276 | 280 | 27 | ||
| 2026-02-03T12:00 | 9746 | 268 | 278 | 30 | ||
| 2026-02-03T12:00 | 9809 | 265 | -54.0 | |||
| 2026-02-03T12:00 | 9877 | 262 | 280 | 33 | ||
| 2026-02-03T12:01 | 10027 | 256 | 285 | 30 | ||
| 2026-02-03T12:01 | 10177 | 250 | -55.0 | |||
| 2026-02-03T12:01 | 10206 | 249 | 283 | 33 | ||
| 2026-02-03T12:02 | 10341 | 244 | -54.2 | |||
| 2026-02-03T12:02 | 10374 | 243 | 283 | 34 | ||
| 2026-02-03T12:03 | 10692 | 231 | -53.6 | |||
| 2026-02-03T12:03 | 10709 | 231 | 285 | 40 | ||
| 2026-02-03T12:04 | 11036 | 219 | 280 | 41 | ||
| 2026-02-03T12:04 | 11074 | 218 | -53.5 | |||
| 2026-02-03T12:04 | 11160 | 215 | -52.2 | |||
| 2026-02-03T12:05 | 11292 | 211 | 284 | 41 | ||
| 2026-02-03T12:05 | 11326 | 210 | -51.9 | |||
| 2026-02-03T12:05 | 11554 | 202 | -50.6 | |||
| 2026-02-03T12:06 | 11629 | 200 | 276 | 42 | ||
| 2026-02-03T12:06 | 11889 | 192 | -50.6 | |||
| 2026-02-03T12:07 | 11952 | 190 | 273 | 45 | ||
| 2026-02-03T12:08 | 12257 | 182 | 272 | 48 | ||
| 2026-02-03T12:08 | 12298 | 180 | -52.2 | |||
| 2026-02-03T12:08 | 12513 | 175 | -53.0 | |||
| 2026-02-03T12:09 | 12587 | 173 | 270 | 46 | ||
| 2026-02-03T12:10 | 12885 | 165 | 272 | 48 | ||
| 2026-02-03T12:10 | 13031 | 161 | -53.6 | |||
| 2026-02-03T12:11 | 13246 | 156 | 280 | 51 | ||
| 2026-02-03T12:11 | 13300 | 154 | -54.1 | |||
| 2026-02-03T12:12 | 13584 | 148 | 274 | 45 | ||
| 2026-02-03T12:12 | 13888 | 141 | 279 | 48 | ||
| 2026-02-03T12:13 | 13974 | 139 | -56.6 | |||
| 2026-02-03T12:13 | 14032 | 138 | 284 | 47 | ||
| 2026-02-03T12:13 | 14114 | 136 | -56.3 | |||
| 2026-02-03T12:14 | 14335 | 131 | 275 | 44 | ||
| 2026-02-03T12:15 | 14633 | 125 | -56.6 | |||
| 2026-02-03T12:15 | 14644 | 125 | 278 | 44 | ||
| 2026-02-03T12:16 | 14977 | 119 | 278 | 41 | ||
| 2026-02-03T12:16 | 15103 | 116 | -58.4 | |||
| 2026-02-03T12:17 | 15204 | 114 | 278 | 43 | ||
| 2026-02-03T12:17 | 15304 | 113 | -58.7 | |||
| 2026-02-03T12:18 | 15529 | 109 | 273 | 44 | ||
| 2026-02-03T12:18 | 15662 | 106 | -59.1 | |||
| 2026-02-03T12:18 | 15764 | 105 | -58.6 | |||
| 2026-02-03T12:19 | 15851 | 103 | 276 | 41 | ||
| 2026-02-03T12:20 | 16171 | 98 | 277 | 43 | ||
| 2026-02-03T12:20 | 16373 | 95 | 282 | 42 | ||
| 2026-02-03T12:20 | 16434 | 94 | -57.8 | |||
| 2026-02-03T12:21 | 16679 | 90 | 279 | 40 | ||
| 2026-02-03T12:22 | 16896 | 87 | -58.7 | |||
| 2026-02-03T12:22 | 16955 | 87 | 278 | 36 | ||
| 2026-02-03T12:23 | 17081 | 85 | 278 | 32 | ||
| 2026-02-03T12:23 | 17254 | 83 | 281 | 34 | ||
| 2026-02-03T12:23 | 17386 | 81 | -57.6 | |||
| 2026-02-03T12:24 | 17559 | 79 | 276 | 27 | ||
| 2026-02-03T12:25 | 17855 | 75 | 276 | 23 | ||
| 2026-02-03T12:26 | 18199 | 71 | 274 | 24 | ||
| 2026-02-03T12:27 | 18545 | 67 | 257 | 18 | ||
| 2026-02-03T12:27 | 18630 | 66 | -59.0 | |||
| 2026-02-03T12:28 | 18887 | 64 | 260 | 24 | ||
| 2026-02-03T12:29 | 19221 | 60 | 272 | 27 | ||
| 2026-02-03T12:29 | 19379 | 59 | -60.2 | |||
| 2026-02-03T12:30 | 19477 | 58 | 284 | 25 | ||
| 2026-02-03T12:30 | 19627 | 57 | -58.0 | |||
| 2026-02-03T12:30 | 19751 | 55 | 276 | 15 | ||
| 2026-02-03T12:31 | 19880 | 54 | -58.3 | |||
| 2026-02-03T12:31 | 19960 | 54 | 260 | 17 | ||
| 2026-02-03T12:32 | 20126 | 52 | 270 | 22 | ||
| 2026-02-03T12:32 | 20139 | 52 | -57.8 | |||
| 2026-02-03T12:32 | 20225 | 51 | -55.5 | |||
| 2026-02-03T12:32 | 20413 | 50 | 273 | 11 | ||
| 2026-02-03T12:33 | 20766 | 47 | 229 | 12 | ||
| 2026-02-03T12:34 | 21122 | 45 | 257 | 16 | ||
| 2026-02-03T12:35 | 21150 | 44 | -58.5 | |||
| 2026-02-03T12:35 | 21266 | 44 | 273 | 15 | ||
| 2026-02-03T12:35 | 21458 | 42 | -56.0 | |||
| 2026-02-03T12:36 | 21611 | 41 | 291 | 7 | ||
| 2026-02-03T12:36 | 21827 | 40 | 294 | 4 | ||
| 2026-02-03T12:37 | 21974 | 39 | 273 | 4 | ||
| 2026-02-03T12:37 | 21990 | 39 | -57.4 | |||
| 2026-02-03T12:37 | 22039 | 39 | 261 | 1 | ||
| 2026-02-03T12:37 | 22121 | 38 | -56.3 | |||
| 2026-02-03T12:37 | 22206 | 38 | 172 | 3 | ||
| 2026-02-03T12:38 | 22427 | 36 | 221 | 6 | ||
| 2026-02-03T12:38 | 22444 | 36 | -57.2 | |||
| 2026-02-03T12:39 | 22640 | 35 | 276 | 7 | ||
| 2026-02-03T12:39 | 22735 | 35 | -56.0 | |||
| 2026-02-03T12:40 | 22972 | 33 | 293 | 8 | ||
| 2026-02-03T12:40 | 23246 | 32 | 269 | 5 | ||
| 2026-02-03T12:41 | 23304 | 32 | -58.0 | |||
| 2026-02-03T12:41 | 23384 | 31 | 201 | 5 | ||
| 2026-02-03T12:41 | 23655 | 30 | 235 | 11 | ||
| 2026-02-03T12:43 | 24048 | 28 | 273 | 3 | ||
| 2026-02-03T12:43 | 24303 | 27 | 344 | 3 | ||
| 2026-02-03T12:44 | 24692 | 25 | 292 | 6 | ||
| 2026-02-03T12:45 | 25003 | 24 | -54.5 | |||
| 2026-02-03T12:45 | 25084 | 24 | 333 | 10 | ||
| 2026-02-03T12:46 | 25300 | 23 | -54.5 | |||
| 2026-02-03T12:46 | 25468 | 23 | 7 | 4 | ||
| 2026-02-03T12:47 | 25639 | 22 | 342 | 7 | ||
| 2026-02-03T12:47 | 25668 | 22 | -53.6 | |||
| 2026-02-03T12:48 | 25970 | 21 | 20 | 7 | ||
| 2026-02-03T12:48 | 26127 | 20 | 13 | 8 | ||
| 2026-02-03T12:48 | 26323 | 20 | 40 | 7 | ||
| 2026-02-03T12:49 | 26487 | 19 | 60 | 7 | ||
| 2026-02-03T12:50 | 26831 | 18 | 84 | 9 | ||
| 2026-02-03T12:51 | 27121 | 17 | -52.6 | 73 | 12 | |
| 2026-02-03T12:51 | 27313 | 17 | 89 | 10 | ||
| 2026-02-03T12:52 | 27664 | 16 | 90 | 10 | ||
| 2026-02-03T12:52 | 27745 | 16 | -51.8 | |||
| 2026-02-03T12:53 | 27998 | 15 | 101 | 8 | ||
| 2026-02-03T12:53 | 28091 | 15 | -49.6 | 111 | 12 | |
| 2026-02-03T12:53 | 28264 | 15 | 89 | 7 | ||
| 2026-02-03T12:54 | 28448 | 14 | 106 | 13 | ||
| 2026-02-03T12:54 | 28634 | 14 | 114 | 11 | ||
| 2026-02-03T12:55 | 28778 | 14 | -48.2 | |||
| 2026-02-03T12:55 | 28926 | 13 | 114 | 13 | ||
| 2026-02-03T12:56 | 29232 | 13 | 106 | 15 | ||
| 2026-02-03T12:56 | 29337 | 12 | 97 | 13 | ||
| 2026-02-03T12:57 | 29665 | 12 | 114 | 13 | ||
| 2026-02-03T12:57 | 29898 | 11 | 133 | 9 | ||
| 2026-02-03T12:58 | 30131 | 11 | 100 | 11 | ||
| 2026-02-03T12:58 | 30192 | 11 | -46.9 | |||
| 2026-02-03T12:59 | 30437 | 11 | 95 | 18 | ||
| 2026-02-03T12:59 | 30632 | 10 | -46.0 | |||
| 2026-02-03T13:00 | 30766 | 10 | 111 | 19 | ||
| 2026-02-03T13:00 | 30967 | 10 | 119 | 14 | ||
| 2026-02-03T13:01 | 31392 | 9 | 114 | 16 | ||
| 2026-02-03T13:02 | 31774 | 9 | -42.4 | 103 | 16 | |
| 2026-02-03T13:02 | 31955 | 8 | -41.9 | 103 | 19 | |
| 2026-02-03T23:44 | 26 | 1019 | 1.6 | -5.3 | 290 | 2 |
| 2026-02-03T23:44 | 28 | 1019 | 1.6 | -6.0 | 0 | 0 |
| 2026-02-03T23:44 | 39 | 1018 | 0.6 | -6.7 | ||
| 2026-02-03T23:44 | 50 | 1016 | 317 | 3 | ||
| 2026-02-03T23:45 | 163 | 1002 | 313 | 3 | ||
| 2026-02-03T23:45 | 173 | 1001 | -0.3 | -7.3 | ||
| 2026-02-03T23:45 | 214 | 996 | 2.5 | -7.7 | ||
| 2026-02-03T23:45 | 250 | 991 | 318 | 4 | ||
| 2026-02-03T23:45 | 369 | 977 | 268 | 2 | ||
| 2026-02-03T23:45 | 395 | 974 | 3.1 | -9.5 | ||
| 2026-02-03T23:45 | 438 | 969 | 265 | 2 | ||
| 2026-02-03T23:46 | 508 | 960 | 2.6 | -6.0 | ||
| 2026-02-03T23:46 | 540 | 956 | 214 | 4 | ||
| 2026-02-03T23:46 | 611 | 948 | 2.2 | -5.4 | ||
| 2026-02-03T23:46 | 775 | 929 | 241 | 6 | ||
| 2026-02-03T23:47 | 1043 | 898 | 248 | 6 | ||
| 2026-02-03T23:48 | 1141 | 888 | -2.5 | -5.5 | ||
| 2026-02-03T23:48 | 1279 | 872 | -1.7 | -10.5 | ||
| 2026-02-03T23:48 | 1290 | 871 | 262 | 5 | ||
| 2026-02-03T23:48 | 1405 | 859 | 0.0 | -18.7 | ||
| 2026-02-03T23:48 | 1410 | 858 | 273 | 2 | ||
| 2026-02-03T23:48 | 1432 | 856 | 0.5 | -20.5 | ||
| 2026-02-03T23:49 | 1538 | 844 | 294 | 7 | ||
| 2026-02-03T23:50 | 1820 | 815 | -2.0 | -22.0 | ||
| 2026-02-03T23:50 | 1826 | 814 | 268 | 9 | ||
| 2026-02-03T23:51 | 2150 | 782 | 277 | 10 | ||
| 2026-02-03T23:51 | 2293 | 768 | -5.1 | -24.1 | ||
| 2026-02-03T23:51 | 2346 | 762 | 282 | 8 | ||
| 2026-02-03T23:51 | 2389 | 758 | -5.3 | -25.4 | ||
| 2026-02-03T23:52 | 2674 | 731 | 283 | 11 | ||
| 2026-02-03T23:53 | 2864 | 713 | -9.5 | -25.9 | ||
| 2026-02-03T23:53 | 2944 | 706 | 288 | 13 | ||
| 2026-02-03T23:53 | 3040 | 697 | -10.1 | -27.3 | ||
| 2026-02-03T23:54 | 3123 | 690 | 286 | 13 | ||
| 2026-02-03T23:54 | 3254 | 678 | -11.2 | -29.8 | ||
| 2026-02-03T23:54 | 3347 | 670 | 286 | 17 | ||
| 2026-02-03T23:55 | 3497 | 657 | -12.8 | -34.1 | ||
| 2026-02-03T23:55 | 3666 | 642 | 288 | 17 | ||
| 2026-02-03T23:56 | 3990 | 615 | 285 | 19 | ||
| 2026-02-03T23:56 | 4006 | 614 | -16.6 | -42.2 | ||
| 2026-02-03T23:57 | 4173 | 601 | -17.1 | -46.3 | ||
| 2026-02-03T23:57 | 4210 | 598 | -16.8 | -52.1 | ||
| 2026-02-03T23:57 | 4312 | 590 | 284 | 23 | ||
| 2026-02-03T23:58 | 4548 | 571 | -17.9 | -56.3 | ||
| 2026-02-03T23:58 | 4595 | 568 | 287 | 28 | ||
| 2026-02-03T23:59 | 4703 | 560 | 289 | 29 | ||
| 2026-02-03T23:59 | 4842 | 549 | -20.1 | -41.5 | ||
| 2026-02-04T00:00 | 5042 | 535 | 289 | 28 | ||
| 2026-02-04T00:00 | 5215 | 522 | 287 | 31 | ||
| 2026-02-04T00:01 | 5575 | 497 | 285 | 30 | ||
| 2026-02-04T00:02 | 5918 | 473 | 289 | 26 | ||
| 2026-02-04T00:02 | 5995 | 468 | -31.2 | -45.2 | ||
| 2026-02-04T00:03 | 6062 | 464 | -31.3 | -47.4 | ||
| 2026-02-04T00:03 | 6245 | 452 | -31.0 | -55.7 | 284 | 32 |
| 2026-02-04T00:04 | 6555 | 433 | 285 | 31 | ||
| 2026-02-04T00:05 | 6719 | 423 | 288 | 34 | ||
| 2026-02-04T00:06 | 7046 | 403 | 289 | 33 | ||
| 2026-02-04T00:06 | 7100 | 400 | -37.4 | -58.7 | ||
| 2026-02-04T00:06 | 7273 | 390 | 285 | 37 | ||
| 2026-02-04T00:06 | 7309 | 388 | -38.9 | -60.8 | ||
| 2026-02-04T00:07 | 7507 | 377 | -39.3 | -62.2 | ||
| 2026-02-04T00:07 | 7524 | 376 | 285 | 45 | ||
| 2026-02-04T00:07 | 7614 | 371 | -40.0 | -61.7 | ||
| 2026-02-04T00:08 | 7876 | 357 | 282 | 47 | ||
| 2026-02-04T00:09 | 8065 | 347 | -43.6 | |||
| 2026-02-04T00:09 | 8088 | 346 | 277 | 45 | ||
| 2026-02-04T00:09 | 8243 | 338 | -44.5 | |||
| 2026-02-04T00:09 | 8376 | 331 | 281 | 45 | ||
| 2026-02-04T00:10 | 8740 | 314 | 274 | 46 | ||
| 2026-02-04T00:11 | 8832 | 309 | -49.6 | |||
| 2026-02-04T00:11 | 9097 | 297 | 276 | 45 | ||
| 2026-02-04T00:12 | 9419 | 283 | 276 | 48 | ||
| 2026-02-04T00:13 | 9754 | 268 | 274 | 48 | ||
| 2026-02-04T00:14 | 9860 | 264 | -57.2 | |||
| 2026-02-04T00:14 | 9935 | 260 | 270 | 49 | ||
| 2026-02-04T00:14 | 9987 | 258 | -56.4 | |||
| 2026-02-04T00:14 | 10122 | 253 | -55.8 | |||
| 2026-02-04T00:15 | 10297 | 246 | 274 | 49 | ||
| 2026-02-04T00:15 | 10494 | 239 | -55.8 | |||
| 2026-02-04T00:16 | 10652 | 233 | 280 | 47 | ||
| 2026-02-04T00:16 | 10837 | 226 | 276 | 48 | ||
| 2026-02-04T00:17 | 10961 | 222 | -53.8 | |||
| 2026-02-04T00:17 | 11087 | 217 | -53.3 | |||
| 2026-02-04T00:17 | 11099 | 217 | 271 | 49 | ||
| 2026-02-04T00:18 | 11420 | 207 | -52.3 | |||
| 2026-02-04T00:18 | 11449 | 206 | 274 | 53 | ||
| 2026-02-04T00:19 | 11664 | 199 | -51.9 | |||
| 2026-02-04T00:19 | 11765 | 196 | 276 | 49 | ||
| 2026-02-04T00:20 | 11940 | 191 | 274 | 46 | ||
| 2026-02-04T00:20 | 11971 | 190 | -51.1 | |||
| 2026-02-04T00:20 | 12192 | 183 | 272 | 50 | ||
| 2026-02-04T00:21 | 12321 | 180 | -51.1 | |||
| 2026-02-04T00:21 | 12543 | 174 | -50.3 | |||
| 2026-02-04T00:21 | 12574 | 173 | 273 | 50 | ||
| 2026-02-04T00:22 | 12962 | 163 | 274 | 49 | ||
| 2026-02-04T00:22 | 12975 | 162 | -52.0 | |||
| 2026-02-04T00:23 | 13240 | 156 | -53.6 | |||
| 2026-02-04T00:23 | 13273 | 155 | 274 | 46 | ||
| 2026-02-04T00:23 | 13378 | 153 | -53.4 | |||
| 2026-02-04T00:24 | 13635 | 147 | 275 | 41 | ||
| 2026-02-04T00:24 | 13753 | 144 | -54.0 | |||
| 2026-02-04T00:25 | 13965 | 139 | -53.8 | |||
| 2026-02-04T00:25 | 13980 | 139 | 273 | 42 | ||
| 2026-02-04T00:26 | 14288 | 132 | 272 | 41 | ||
| 2026-02-04T00:26 | 14353 | 131 | -56.7 | |||
| 2026-02-04T00:27 | 14646 | 125 | 279 | 41 | ||
| 2026-02-04T00:28 | 14923 | 120 | -59.7 | |||
| 2026-02-04T00:28 | 14947 | 119 | 279 | 38 | ||
| 2026-02-04T00:29 | 15229 | 114 | -59.7 | |||
| 2026-02-04T00:29 | 15302 | 113 | 275 | 38 | ||
| 2026-02-04T00:30 | 15614 | 107 | 272 | 38 | ||
| 2026-02-04T00:31 | 15826 | 104 | -60.3 | |||
| 2026-02-04T00:31 | 15900 | 102 | 283 | 41 | ||
| 2026-02-04T00:32 | 16179 | 98 | 281 | 33 | ||
| 2026-02-04T00:32 | 16218 | 97 | -58.9 | |||
| 2026-02-04T00:33 | 16454 | 94 | 272 | 31 | ||
| 2026-02-04T00:33 | 16659 | 91 | 268 | 34 | ||
| 2026-02-04T00:34 | 16883 | 88 | -60.6 | |||
| 2026-02-04T00:34 | 16992 | 86 | 271 | 34 | ||
| 2026-02-04T00:35 | 17253 | 82 | -62.6 | |||
| 2026-02-04T00:35 | 17284 | 82 | 281 | 38 | ||
| 2026-02-04T00:36 | 17477 | 80 | 280 | 34 | ||
| 2026-02-04T00:36 | 17586 | 78 | -62.8 | |||
| 2026-02-04T00:37 | 17761 | 76 | -62.7 | |||
| 2026-02-04T00:37 | 17800 | 75 | 277 | 30 | ||
| 2026-02-04T00:37 | 17966 | 73 | -62.5 | |||
| 2026-02-04T00:38 | 18113 | 72 | 288 | 31 | ||
| 2026-02-04T00:38 | 18130 | 72 | -62.0 | |||
| 2026-02-04T00:38 | 18263 | 70 | -61.3 | |||
| 2026-02-04T00:39 | 18424 | 68 | 296 | 28 | ||
| 2026-02-04T00:40 | 18747 | 65 | 289 | 21 | ||
| 2026-02-04T00:40 | 18873 | 63 | -61.8 | |||
| 2026-02-04T00:41 | 18991 | 62 | -61.9 | |||
| 2026-02-04T00:41 | 19062 | 62 | 281 | 23 | ||
| 2026-02-04T00:41 | 19082 | 61 | -60.8 | |||
| 2026-02-04T00:42 | 19250 | 60 | -60.3 | |||
| 2026-02-04T00:42 | 19330 | 59 | -58.5 | |||
| 2026-02-04T00:42 | 19365 | 59 | 269 | 20 | ||
| 2026-02-04T00:42 | 19525 | 57 | 262 | 15 | ||
| 2026-02-04T00:42 | 19535 | 57 | -58.9 | |||
| 2026-02-04T00:43 | 19774 | 55 | -58.4 | |||
| 2026-02-04T00:43 | 19845 | 54 | 248 | 15 | ||
| 2026-02-04T00:44 | 19985 | 53 | -58.6 | |||
| 2026-02-04T00:44 | 20140 | 52 | -56.5 | |||
| 2026-02-04T00:44 | 20177 | 52 | 277 | 17 | ||
| 2026-02-04T00:44 | 20188 | 51 | -56.6 | 279 | 17 | |
| 2026-02-04T12:30 | 26 | 1015 | 3.5 | -2.7 | 0 | 0 |
| 2026-02-04T12:30 | 32 | 1014 | 4.0 | -3.3 | 0 | 0 |
| 2026-02-04T12:30 | 80 | 1008 | 7.4 | -5.3 | ||
| 2026-02-04T12:30 | 102 | 1005 | 8.1 | -5.7 | ||
| 2026-02-04T12:30 | 113 | 1004 | 27 | 3 | ||
| 2026-02-04T12:30 | 194 | 994 | 21 | 2 | ||
| 2026-02-04T12:31 | 337 | 977 | 6.8 | -7.2 | ||
| 2026-02-04T12:31 | 528 | 954 | 13 | 1 | ||
| 2026-02-04T12:32 | 631 | 942 | 53 | 3 | ||
| 2026-02-04T12:32 | 732 | 931 | 0 | 0 | ||
| 2026-02-04T12:32 | 744 | 929 | 3.7 | -5.8 | ||
| 2026-02-04T12:32 | 816 | 921 | 3.2 | -4.5 | ||
| 2026-02-04T12:32 | 875 | 914 | 3.2 | -7.6 | ||
| 2026-02-04T12:33 | 945 | 906 | 68 | 3 | ||
| 2026-02-04T12:33 | 1067 | 893 | 62 | 2 | ||
| 2026-02-04T12:33 | 1118 | 887 | 1.5 | -12.3 | ||
| 2026-02-04T12:34 | 1250 | 873 | 1.2 | -13.3 | ||
| 2026-02-04T12:34 | 1279 | 870 | 78 | 4 | ||
| 2026-02-04T12:34 | 1353 | 862 | 80 | 3 | ||
| 2026-02-04T12:34 | 1432 | 854 | 347 | 3 | ||
| 2026-02-04T12:35 | 1591 | 837 | 0.5 | -15.5 | ||
| 2026-02-04T12:35 | 1666 | 829 | 277 | 5 | ||
| 2026-02-04T12:35 | 1672 | 828 | 0.5 | -17.8 | ||
| 2026-02-04T12:36 | 1924 | 803 | 215 | 5 | ||
| 2026-02-04T12:36 | 1999 | 795 | -1.8 | -23.7 | ||
| 2026-02-04T12:36 | 2096 | 786 | 237 | 7 | ||
| 2026-02-04T12:37 | 2293 | 766 | -4.0 | -18.7 | ||
| 2026-02-04T12:37 | 2316 | 764 | 228 | 6 | ||
| 2026-02-04T12:37 | 2449 | 751 | -4.8 | -20.5 | ||
| 2026-02-04T12:38 | 2662 | 731 | 247 | 7 | ||
| 2026-02-04T12:39 | 3041 | 696 | -8.9 | -32.4 | 265 | 13 |
| 2026-02-04T12:39 | 3211 | 681 | -9.6 | -34.7 | ||
| 2026-02-04T12:39 | 3245 | 678 | 277 | 15 | ||
| 2026-02-04T12:40 | 3509 | 655 | -9.9 | -44.6 | ||
| 2026-02-04T12:40 | 3579 | 649 | 263 | 14 | ||
| 2026-02-04T12:40 | 3600 | 648 | -10.4 | -38.5 | ||
| 2026-02-04T12:40 | 3648 | 644 | -10.6 | -19.5 | ||
| 2026-02-04T12:41 | 3702 | 639 | -11.0 | -18.1 | ||
| 2026-02-04T12:41 | 3734 | 636 | -11.2 | -18.5 | ||
| 2026-02-04T12:41 | 3778 | 633 | -11.4 | -26.7 | ||
| 2026-02-04T12:41 | 3841 | 628 | -11.9 | -18.1 | ||
| 2026-02-04T12:41 | 3909 | 622 | 265 | 16 | ||
| 2026-02-04T12:42 | 4200 | 599 | -15.1 | -19.7 | ||
| 2026-02-04T12:42 | 4232 | 596 | 269 | 18 | ||
| 2026-02-04T12:43 | 4329 | 589 | -16.1 | -22.9 | ||
| 2026-02-04T12:43 | 4431 | 581 | -16.9 | -28.2 | ||
| 2026-02-04T12:43 | 4534 | 573 | -17.6 | -32.1 | ||
| 2026-02-04T12:43 | 4562 | 571 | 263 | 18 | ||
| 2026-02-04T12:44 | 4770 | 555 | -19.8 | -26.7 | ||
| 2026-02-04T12:44 | 4920 | 544 | 264 | 17 | ||
| 2026-02-04T12:45 | 5024 | 536 | -21.9 | -26.9 | ||
| 2026-02-04T12:45 | 5060 | 533 | -20.8 | -24.5 | ||
| 2026-02-04T12:45 | 5220 | 522 | 246 | 22 | ||
| 2026-02-04T12:45 | 5350 | 513 | -22.7 | -25.9 | ||
| 2026-02-04T12:46 | 5598 | 496 | 266 | 21 | ||
| 2026-02-04T12:47 | 5810 | 481 | 261 | 22 | ||
| 2026-02-04T12:47 | 6122 | 461 | -28.7 | -31.6 | ||
| 2026-02-04T12:48 | 6184 | 457 | 270 | 23 | ||
| 2026-02-04T12:49 | 6545 | 434 | 275 | 25 | ||
| 2026-02-04T12:49 | 6800 | 419 | 274 | 23 | ||
| 2026-02-04T12:50 | 6904 | 413 | -35.4 | -37.9 | ||
| 2026-02-04T12:50 | 7160 | 398 | 272 | 25 | ||
| 2026-02-04T12:50 | 7183 | 396 | -37.3 | -40.0 | ||
| 2026-02-04T12:51 | 7511 | 378 | 270 | 29 | ||
| 2026-02-04T12:51 | 7548 | 376 | -40.0 | -43.1 | ||
| 2026-02-04T12:52 | 7876 | 358 | 272 | 32 | ||
| 2026-02-04T12:53 | 8241 | 339 | 271 | 33 | ||
| 2026-02-04T12:54 | 8402 | 331 | 269 | 35 | ||
| 2026-02-04T12:54 | 8414 | 331 | -48.0 | |||
| 2026-02-04T12:55 | 8755 | 314 | 270 | 36 | ||
| 2026-02-04T12:56 | 9113 | 297 | 269 | 35 | ||
| 2026-02-04T12:56 | 9303 | 288 | 267 | 33 | ||
| 2026-02-04T12:57 | 9421 | 283 | 264 | 35 | ||
| 2026-02-04T12:57 | 9575 | 276 | -58.0 | |||
| 2026-02-04T12:57 | 9613 | 274 | 266 | 36 | ||
| 2026-02-04T12:57 | 9725 | 269 | 270 | 40 | ||
| 2026-02-04T12:58 | 9744 | 269 | -56.1 | |||
| 2026-02-04T12:58 | 9881 | 263 | -54.5 | |||
| 2026-02-04T12:58 | 10110 | 254 | 280 | 40 | ||
| 2026-02-04T12:59 | 10176 | 251 | -54.3 | |||
| 2026-02-04T12:59 | 10325 | 245 | -52.8 | |||
| 2026-02-04T12:59 | 10453 | 241 | -52.7 | 283 | 42 | |
| 2026-02-04T13:00 | 10615 | 235 | 276 | 42 | ||
| 2026-02-04T13:00 | 10726 | 231 | -50.8 | |||
| 2026-02-04T13:01 | 10867 | 226 | 275 | 45 | ||
| 2026-02-04T13:01 | 10941 | 223 | -49.7 | |||
| 2026-02-04T13:01 | 11110 | 217 | -50.5 | |||
| 2026-02-04T13:02 | 11242 | 213 | 283 | 46 | ||
| 2026-02-04T13:02 | 11469 | 206 | -48.8 | |||
| 2026-02-04T13:03 | 11556 | 203 | 278 | 41 | ||
| 2026-02-04T13:04 | 11814 | 195 | -48.4 | |||
| 2026-02-04T13:04 | 11836 | 195 | 276 | 38 | ||
| 2026-02-04T13:04 | 11938 | 192 | 275 | 41 | ||
| 2026-02-04T13:04 | 12011 | 190 | 272 | 44 | ||
| 2026-02-04T13:04 | 12108 | 187 | 268 | 41 | ||
| 2026-02-04T13:05 | 12142 | 186 | -50.4 | |||
| 2026-02-04T13:05 | 12439 | 178 | 270 | 46 | ||
| 2026-02-04T13:06 | 12508 | 176 | -51.3 | |||
| 2026-02-04T13:06 | 12768 | 169 | 269 | 46 | ||
| 2026-02-04T13:07 | 13029 | 162 | -50.9 | |||
| 2026-02-04T13:07 | 13095 | 160 | 271 | 46 | ||
| 2026-02-04T13:08 | 13388 | 153 | 275 | 49 | ||
| 2026-02-04T13:09 | 13556 | 149 | -51.7 | |||
| 2026-02-04T13:09 | 13683 | 147 | 277 | 46 | ||
| 2026-02-04T13:10 | 13960 | 140 | 275 | 47 | ||
| 2026-02-04T13:11 | 14009 | 139 | -54.2 | |||
| 2026-02-04T13:11 | 14227 | 135 | 276 | 46 | ||
| 2026-02-04T13:11 | 14231 | 135 | -55.1 | |||
| 2026-02-04T13:12 | 14439 | 130 | -55.3 | |||
| 2026-02-04T13:12 | 14494 | 129 | 278 | 47 | ||
| 2026-02-04T13:13 | 14681 | 125 | 282 | 46 | ||
| 2026-02-04T13:14 | 14949 | 120 | 287 | 42 | ||
| 2026-02-04T13:14 | 15079 | 118 | -55.6 | |||
| 2026-02-04T13:15 | 15266 | 114 | 293 | 38 | ||
| 2026-02-04T13:16 | 15448 | 111 | -57.4 | |||
| 2026-02-04T13:16 | 15561 | 109 | 282 | 33 | ||
| 2026-02-04T13:16 | 15699 | 107 | -57.4 | |||
| 2026-02-04T13:17 | 15840 | 104 | 278 | 33 | ||
| 2026-02-04T13:17 | 15968 | 102 | 277 | 32 | ||
| 2026-02-04T13:18 | 16270 | 98 | 278 | 32 | ||
| 2026-02-04T13:19 | 16481 | 94 | 275 | 27 | ||
| 2026-02-04T13:20 | 16719 | 91 | -59.6 | |||
| 2026-02-04T13:20 | 16783 | 90 | 281 | 30 | ||
| 2026-02-04T13:21 | 17075 | 86 | 279 | 28 | ||
| 2026-02-04T13:22 | 17228 | 84 | 275 | 30 | ||
| 2026-02-04T13:22 | 17439 | 81 | 280 | 35 | ||
| 2026-02-04T13:23 | 17683 | 78 | -60.6 | |||
| 2026-02-04T13:23 | 17723 | 77 | 272 | 27 | ||
| 2026-02-04T13:24 | 18000 | 74 | -60.7 | 280 | 29 | |
| 2026-02-04T13:25 | 18216 | 71 | 269 | 25 | ||
| 2026-02-04T13:26 | 18499 | 68 | -61.1 | |||
| 2026-02-04T13:26 | 18506 | 68 | 275 | 27 | ||
| 2026-02-04T13:27 | 18791 | 65 | 278 | 19 | ||
| 2026-02-04T13:27 | 18868 | 64 | -62.3 | |||
| 2026-02-04T13:28 | 19090 | 62 | 269 | 20 | ||
| 2026-02-04T13:29 | 19288 | 60 | -64.9 | |||
| 2026-02-04T13:29 | 19410 | 59 | 280 | 24 | ||
| 2026-02-04T13:29 | 19539 | 58 | -63.7 | |||
| 2026-02-04T13:30 | 19734 | 56 | 302 | 15 | ||
| 2026-02-04T13:30 | 19747 | 56 | -62.4 | |||
| 2026-02-04T13:31 | 19971 | 54 | 292 | 11 | ||
| 2026-02-04T13:31 | 20007 | 53 | -61.1 | |||
| 2026-02-04T13:31 | 20100 | 53 | -60.2 | |||
| 2026-02-04T13:32 | 20282 | 51 | 279 | 20 | ||
| 2026-02-04T13:32 | 20455 | 50 | -60.7 | |||
| 2026-02-04T13:33 | 20617 | 48 | 294 | 24 | ||
| 2026-02-04T13:34 | 20936 | 46 | 307 | 11 | ||
| 2026-02-04T13:34 | 21061 | 45 | 294 | 6 | ||
| 2026-02-04T13:35 | 21258 | 44 | 265 | 8 | ||
| 2026-02-04T13:35 | 21344 | 43 | -58.8 | |||
| 2026-02-04T13:35 | 21491 | 42 | 275 | 12 | ||
| 2026-02-04T13:36 | 21598 | 41 | -56.7 | |||
| 2026-02-04T13:36 | 21643 | 41 | 301 | 6 | ||
| 2026-02-04T13:36 | 21753 | 40 | 4 | 5 | ||
| 2026-02-04T13:36 | 21848 | 40 | 28 | 3 | ||
| 2026-02-04T13:37 | 21928 | 39 | 72 | 4 | ||
| 2026-02-04T13:37 | 22008 | 39 | 107 | 2 | ||
| 2026-02-04T13:38 | 22259 | 37 | 244 | 4 | ||
| 2026-02-04T13:38 | 22380 | 37 | -55.4 | |||
| 2026-02-04T13:38 | 22431 | 36 | 284 | 7 | ||
| 2026-02-04T13:39 | 22593 | 35 | 267 | 7 | ||
| 2026-02-04T13:39 | 22719 | 35 | 294 | 5 | ||
| 2026-02-04T13:39 | 22870 | 34 | -55.0 | |||
| 2026-02-04T13:40 | 23062 | 33 | 298 | 5 | ||
| 2026-02-04T13:41 | 23302 | 32 | 294 | 7 | ||
| 2026-02-04T13:41 | 23525 | 31 | 357 | 7 | ||
| 2026-02-04T13:42 | 23693 | 30 | 359 | 5 | ||
| 2026-02-04T13:42 | 23781 | 29 | 356 | 5 | ||
| 2026-02-04T13:42 | 23825 | 29 | -54.8 | |||
| 2026-02-04T13:43 | 23935 | 29 | 41 | 4 | ||
| 2026-02-04T13:43 | 24185 | 28 | 52 | 2 | ||
| 2026-02-04T13:44 | 24395 | 27 | 104 | 5 | ||
| 2026-02-04T13:44 | 24491 | 26 | -57.4 | |||
| 2026-02-04T13:45 | 24634 | 26 | 82 | 2 | ||
| 2026-02-04T13:45 | 24884 | 25 | 103 | 7 | ||
| 2026-02-04T13:46 | 25068 | 24 | 148 | 9 | ||
| 2026-02-04T13:47 | 25417 | 23 | 172 | 5 | ||
| 2026-02-04T13:48 | 25645 | 22 | -57.0 | |||
| 2026-02-04T13:48 | 25794 | 21 | 173 | 6 | ||
| 2026-02-04T13:49 | 26098 | 20 | 210 | 8 | ||
| 2026-02-04T13:49 | 26255 | 20 | 177 | 8 | ||
| 2026-02-04T13:50 | 26352 | 20 | 197 | 5 | ||
| 2026-02-04T13:50 | 26450 | 19 | 240 | 6 | ||
| 2026-02-04T13:50 | 26552 | 19 | -54.4 | |||
| 2026-02-04T13:51 | 26722 | 19 | 278 | 4 | ||
| 2026-02-04T13:51 | 26863 | 18 | 352 | 4 | ||
| 2026-02-04T13:51 | 26897 | 18 | 14 | 4 | ||
| 2026-02-04T13:51 | 27008 | 18 | 56 | 5 | ||
| 2026-02-04T13:52 | 27156 | 17 | 80 | 4 | ||
| 2026-02-04T13:52 | 27267 | 17 | 105 | 5 | ||
| 2026-02-04T13:53 | 27421 | 17 | 87 | 7 | ||
| 2026-02-04T13:53 | 27619 | 16 | 89 | 6 | ||
| 2026-02-04T13:53 | 27745 | 16 | 56 | 6 | ||
| 2026-02-04T13:54 | 27910 | 15 | 73 | 6 | ||
| 2026-02-04T13:55 | 28170 | 15 | 65 | 9 | ||
| 2026-02-04T13:55 | 28351 | 14 | -49.5 | 60 | 9 | |
| 2026-02-04T13:56 | 28724 | 14 | 93 | 12 | ||
| 2026-02-04T13:57 | 28971 | 13 | 98 | 15 | ||
| 2026-02-04T13:58 | 29228 | 13 | 108 | 14 | ||
| 2026-02-04T13:58 | 29495 | 12 | 94 | 16 | ||
| 2026-02-04T13:59 | 29553 | 12 | -46.5 | 98 | 16 | |
| 2026-02-04T23:33 | 26 | 1015 | 4.5 | -2.1 | 290 | 2 |
| 2026-02-04T23:33 | 32 | 1014 | 4.3 | -3.2 | 0 | 0 |
| 2026-02-04T23:33 | 63 | 1010 | 3.4 | -4.5 | ||
| 2026-02-04T23:33 | 89 | 1007 | 3.9 | -5.8 | ||
| 2026-02-04T23:33 | 100 | 1006 | 297 | 3 | ||
| 2026-02-04T23:33 | 127 | 1002 | 7.1 | -7.0 | ||
| 2026-02-04T23:34 | 210 | 992 | 320 | 8 | ||
| 2026-02-04T23:34 | 231 | 990 | 7.1 | -6.6 | ||
| 2026-02-04T23:34 | 325 | 978 | 7.2 | -6.9 | ||
| 2026-02-04T23:34 | 388 | 971 | 293 | 2 | ||
| 2026-02-04T23:34 | 480 | 960 | 6.2 | -4.9 | ||
| 2026-02-04T23:35 | 621 | 943 | 5.3 | -1.2 | ||
| 2026-02-04T23:35 | 654 | 940 | 125 | 3 | ||
| 2026-02-04T23:35 | 729 | 931 | 4.7 | -3.6 | ||
| 2026-02-04T23:35 | 792 | 924 | 4.0 | -1.6 | ||
| 2026-02-04T23:36 | 834 | 919 | 127 | 5 | ||
| 2026-02-04T23:36 | 1019 | 899 | 2.2 | -3.5 | ||
| 2026-02-04T23:37 | 1153 | 884 | 150 | 6 | ||
| 2026-02-04T23:37 | 1203 | 878 | 0.8 | -6.5 | ||
| 2026-02-04T23:37 | 1247 | 873 | 0.5 | -8.7 | ||
| 2026-02-04T23:37 | 1291 | 869 | 0.4 | -12.3 | ||
| 2026-02-04T23:37 | 1468 | 850 | 179 | 2 | ||
| 2026-02-04T23:38 | 1517 | 844 | -1.2 | -12.8 | ||
| 2026-02-04T23:38 | 1639 | 831 | 207 | 4 | ||
| 2026-02-04T23:38 | 1679 | 827 | -1.5 | -16.1 | ||
| 2026-02-04T23:38 | 1724 | 823 | 213 | 5 | ||
| 2026-02-04T23:39 | 1892 | 805 | 202 | 5 | ||
| 2026-02-04T23:39 | 1920 | 803 | -3.4 | -15.7 | ||
| 2026-02-04T23:39 | 2074 | 787 | -3.6 | -19.5 | ||
| 2026-02-04T23:40 | 2238 | 771 | 247 | 11 | ||
| 2026-02-04T23:40 | 2262 | 769 | -3.3 | -26.3 | ||
| 2026-02-04T23:41 | 2581 | 738 | 262 | 11 | ||
| 2026-02-04T23:41 | 2739 | 723 | -7.1 | -35.9 | ||
| 2026-02-04T23:42 | 2925 | 706 | 272 | 15 | ||
| 2026-02-04T23:43 | 3203 | 681 | -10.5 | -39.8 | ||
| 2026-02-04T23:43 | 3279 | 674 | 270 | 16 | ||
| 2026-02-04T23:43 | 3447 | 660 | -12.3 | -39.9 | ||
| 2026-02-04T23:44 | 3558 | 650 | -12.6 | -28.6 | ||
| 2026-02-04T23:44 | 3612 | 646 | 267 | 19 | ||
| 2026-02-04T23:44 | 3628 | 644 | -13.0 | -21.5 | ||
| 2026-02-04T23:45 | 3950 | 617 | 270 | 18 | ||
| 2026-02-04T23:45 | 4083 | 607 | -17.3 | -23.2 | ||
| 2026-02-04T23:45 | 4119 | 604 | -17.5 | -25.7 | ||
| 2026-02-04T23:45 | 4172 | 600 | -15.8 | -38.8 | ||
| 2026-02-04T23:46 | 4280 | 591 | -16.2 | -44.2 | ||
| 2026-02-04T23:46 | 4310 | 589 | 266 | 19 | ||
| 2026-02-04T23:46 | 4537 | 571 | 265 | 20 | ||
| 2026-02-04T23:46 | 4543 | 571 | -18.2 | -48.7 | ||
| 2026-02-04T23:47 | 4673 | 561 | -18.3 | -56.6 | ||
| 2026-02-04T23:47 | 4719 | 557 | 269 | 22 | ||
| 2026-02-04T23:48 | 5059 | 532 | 272 | 27 | ||
| 2026-02-04T23:49 | 5360 | 511 | -22.8 | -52.2 | ||
| 2026-02-04T23:49 | 5394 | 509 | 276 | 31 | ||
| 2026-02-04T23:50 | 5745 | 485 | 277 | 29 | ||
| 2026-02-04T23:50 | 5835 | 479 | -27.0 | -46.5 | ||
| 2026-02-04T23:51 | 6010 | 467 | 277 | 33 | ||
| 2026-02-04T23:51 | 6155 | 458 | -27.8 | -60.0 | ||
| 2026-02-04T23:51 | 6279 | 450 | 278 | 42 | ||
| 2026-02-04T23:52 | 6417 | 441 | -29.5 | -55.8 | ||
| 2026-02-04T23:52 | 6459 | 439 | 279 | 43 | ||
| 2026-02-04T23:53 | 6749 | 421 | -32.3 | -46.9 | ||
| 2026-02-04T23:53 | 6811 | 417 | 280 | 49 | ||
| 2026-02-04T23:53 | 6836 | 416 | -32.8 | -41.6 | ||
| 2026-02-04T23:53 | 6910 | 412 | 278 | 51 | ||
| 2026-02-04T23:53 | 6916 | 411 | -32.7 | -59.7 | ||
| 2026-02-04T23:54 | 7131 | 399 | 282 | 48 | ||
| 2026-02-04T23:55 | 7437 | 382 | -36.9 | -60.3 | ||
| 2026-02-04T23:55 | 7504 | 378 | 280 | 52 | ||
| 2026-02-04T23:55 | 7725 | 366 | 279 | 49 | ||
| 2026-02-04T23:56 | 7870 | 358 | -39.5 | -64.9 | ||
| 2026-02-04T23:56 | 7981 | 353 | -40.0 | -66.9 | ||
| 2026-02-04T23:56 | 8040 | 350 | 281 | 53 | ||
| 2026-02-04T23:57 | 8320 | 335 | 285 | 58 | ||
| 2026-02-04T23:57 | 8424 | 330 | 282 | 61 | ||
| 2026-02-04T23:57 | 8491 | 327 | -42.5 | |||
| 2026-02-04T23:58 | 8777 | 313 | 280 | 62 | ||
| 2026-02-04T23:59 | 9118 | 298 | 280 | 62 | ||
| 2026-02-05T00:00 | 9462 | 282 | 282 | 63 | ||
| 2026-02-05T00:01 | 9806 | 268 | 282 | 61 | ||
| 2026-02-05T00:01 | 9906 | 264 | -55.3 | |||
| 2026-02-05T00:02 | 10030 | 258 | 285 | 61 | ||
| 2026-02-05T00:02 | 10265 | 249 | -57.4 | |||
| 2026-02-05T00:03 | 10277 | 249 | 284 | 59 | ||
| 2026-02-05T00:03 | 10585 | 237 | -53.3 | |||
| 2026-02-05T00:03 | 10590 | 237 | 286 | 59 | ||
| 2026-02-05T00:04 | 10788 | 230 | 284 | 54 | ||
| 2026-02-05T00:04 | 10834 | 228 | -54.0 | |||
| 2026-02-05T00:04 | 10932 | 224 | 284 | 58 | ||
| 2026-02-05T00:05 | 11117 | 218 | 279 | 53 | ||
| 2026-02-05T00:05 | 11138 | 217 | -52.0 | |||
| 2026-02-05T00:06 | 11528 | 205 | 280 | 53 | ||
| 2026-02-05T00:06 | 11554 | 204 | -50.9 | |||
| 2026-02-05T00:07 | 11819 | 196 | -51.1 | |||
| 2026-02-05T00:07 | 11867 | 194 | 282 | 54 | ||
| 2026-02-05T00:07 | 12011 | 190 | -50.0 | |||
| 2026-02-05T00:08 | 12160 | 186 | 274 | 52 | ||
| 2026-02-05T00:08 | 12447 | 178 | -51.3 | |||
| 2026-02-05T00:09 | 12497 | 176 | 271 | 48 | ||
| 2026-02-05T00:09 | 12583 | 174 | -51.5 | |||
| 2026-02-05T00:10 | 12809 | 168 | 271 | 56 | ||
| 2026-02-05T00:10 | 12904 | 166 | -53.0 | |||
| 2026-02-05T00:10 | 13104 | 161 | 280 | 54 | ||
| 2026-02-05T00:11 | 13289 | 156 | 278 | 53 | ||
| 2026-02-05T00:11 | 13355 | 154 | -53.2 | |||
| 2026-02-05T00:12 | 13474 | 152 | 276 | 47 | ||
| 2026-02-05T00:13 | 13780 | 145 | 267 | 51 | ||
| 2026-02-05T00:13 | 13825 | 144 | -54.0 | |||
| 2026-02-05T00:13 | 14003 | 140 | -53.8 | |||
| 2026-02-05T00:13 | 14020 | 139 | 275 | 55 | ||
| 2026-02-05T00:14 | 14224 | 135 | 277 | 51 | ||
| 2026-02-05T00:14 | 14254 | 134 | -53.0 | |||
| 2026-02-05T00:15 | 14525 | 129 | 280 | 49 | ||
| 2026-02-05T00:15 | 14540 | 128 | -53.5 | |||
| 2026-02-05T00:16 | 14828 | 123 | 285 | 49 | ||
| 2026-02-05T00:16 | 14903 | 121 | -55.6 | |||
| 2026-02-05T00:17 | 15090 | 118 | 289 | 39 | ||
| 2026-02-05T00:17 | 15095 | 118 | -54.0 | |||
| 2026-02-05T00:18 | 15393 | 112 | 278 | 35 | ||
| 2026-02-05T00:19 | 15587 | 109 | -56.0 | |||
| 2026-02-05T00:19 | 15702 | 107 | 272 | 35 | ||
| 2026-02-05T00:20 | 16013 | 102 | 280 | 32 | ||
| 2026-02-05T00:20 | 16087 | 101 | -58.1 | |||
| 2026-02-05T00:21 | 16323 | 97 | 281 | 27 | ||
| 2026-02-05T00:22 | 16666 | 92 | -60.4 | 278 | 26 | |
| 2026-02-05T00:23 | 17015 | 87 | 281 | 26 | ||
| 2026-02-05T00:24 | 17268 | 83 | 286 | 28 | ||
| 2026-02-05T00:25 | 17555 | 80 | -63.4 | |||
| 2026-02-05T00:25 | 17571 | 79 | 287 | 23 | ||
| 2026-02-05T00:25 | 17783 | 77 | 288 | 25 | ||
| 2026-02-05T00:26 | 18019 | 74 | 288 | 19 | ||
| 2026-02-05T00:27 | 18211 | 71 | -65.3 | |||
| 2026-02-05T00:27 | 18270 | 71 | 301 | 21 | ||
| 2026-02-05T00:27 | 18411 | 69 | -64.6 | |||
| 2026-02-05T00:28 | 18597 | 67 | 316 | 19 | ||
| 2026-02-05T00:28 | 18679 | 66 | -64.7 | |||
| 2026-02-05T00:29 | 18867 | 64 | 300 | 13 | ||
| 2026-02-05T00:29 | 18965 | 63 | -62.9 | |||
| 2026-02-05T00:30 | 19194 | 61 | 272 | 15 | ||
| 2026-02-05T00:30 | 19429 | 59 | -65.4 | |||
| 2026-02-05T00:30 | 19483 | 58 | 269 | 23 | ||
| 2026-02-05T00:31 | 19727 | 56 | -64.4 | |||
| 2026-02-05T00:31 | 19815 | 55 | 271 | 17 | ||
| 2026-02-05T00:32 | 20043 | 53 | 284 | 14 | ||
| 2026-02-05T00:33 | 20173 | 52 | -61.3 | |||
| 2026-02-05T00:33 | 20284 | 51 | 272 | 13 | ||
| 2026-02-05T00:33 | 20483 | 49 | -60.7 | 265 | 13 | |
| 2026-02-05T00:34 | 20612 | 48 | 275 | 12 | ||
| 2026-02-05T00:34 | 20662 | 48 | -57.0 | |||
| 2026-02-05T00:35 | 20961 | 46 | 264 | 8 | ||
| 2026-02-05T00:35 | 21169 | 44 | 272 | 6 | ||
| 2026-02-05T00:36 | 21396 | 43 | 269 | 7 | ||
| 2026-02-05T00:36 | 21456 | 42 | -61.8 | |||
| 2026-02-05T00:37 | 21619 | 41 | -60.0 | |||
| 2026-02-05T00:37 | 21758 | 40 | 289 | 7 | ||
| 2026-02-05T00:38 | 21996 | 39 | 300 | 5 | ||
| 2026-02-05T00:38 | 22143 | 38 | -60.1 | |||
| 2026-02-05T00:38 | 22225 | 37 | 257 | 8 | ||
| 2026-02-05T00:39 | 22343 | 37 | -58.0 | |||
| 2026-02-05T00:39 | 22411 | 36 | 235 | 2 | ||
| 2026-02-05T00:40 | 22699 | 35 | -58.0 | |||
| 2026-02-05T00:40 | 22717 | 35 | 54 | 3 | ||
| 2026-02-05T00:40 | 22887 | 34 | -57.2 | |||
| 2026-02-05T00:41 | 23096 | 33 | 158 | 5 | ||
| 2026-02-05T00:42 | 23411 | 31 | -58.4 | |||
| 2026-02-05T00:42 | 23432 | 31 | 213 | 2 | ||
| 2026-02-05T00:42 | 23554 | 30 | 185 | 3 | ||
| 2026-02-05T00:43 | 23745 | 29 | 233 | 3 | ||
| 2026-02-05T00:43 | 23879 | 29 | 222 | 2 | ||
| 2026-02-05T00:43 | 23944 | 28 | -56.6 | |||
| 2026-02-05T00:44 | 24244 | 27 | 326 | 2 | ||
| 2026-02-05T00:45 | 24480 | 26 | -56.3 | |||
| 2026-02-05T00:45 | 24629 | 26 | 195 | 1 | ||
| 2026-02-05T00:46 | 24886 | 25 | 63 | 3 | ||
| 2026-02-05T00:46 | 25092 | 24 | 49 | 4 | ||
| 2026-02-05T00:47 | 25231 | 23 | 108 | 7 | ||
| 2026-02-05T00:48 | 25629 | 22 | 137 | 9 | ||
| 2026-02-05T00:49 | 26023 | 21 | 162 | 10 | ||
| 2026-02-05T00:49 | 26215 | 20 | 190 | 10 | ||
| 2026-02-05T00:50 | 26409 | 19 | -54.2 | |||
| 2026-02-05T00:50 | 26478 | 19 | 150 | 11 | ||
| 2026-02-05T00:51 | 26785 | 18 | 160 | 10 | ||
| 2026-02-05T00:51 | 26966 | 18 | -53.2 | 171 | 13 | |
| 2026-02-05T00:51 | 27076 | 17 | 187 | 8 | ||
| 2026-02-05T00:52 | 27185 | 17 | 182 | 8 | ||
| 2026-02-05T00:52 | 27342 | 17 | 195 | 8 | ||
| 2026-02-05T00:53 | 27577 | 16 | 188 | 12 | ||
| 2026-02-05T00:53 | 27699 | 16 | 183 | 10 | ||
| 2026-02-05T00:53 | 27781 | 16 | 187 | 15 | ||
| 2026-02-05T00:54 | 27947 | 15 | 172 | 11 | ||
| 2026-02-05T00:54 | 28211 | 15 | -52.1 | |||
| 2026-02-05T00:55 | 28342 | 14 | 157 | 11 | ||
| 2026-02-05T00:55 | 28434 | 14 | 173 | 15 | ||
| 2026-02-05T00:55 | 28573 | 14 | 168 | 11 | ||
| 2026-02-05T00:56 | 28669 | 14 | 177 | 10 | ||
| 2026-02-05T00:56 | 28765 | 13 | -51.1 | 178 | 7 | |
| 2026-02-05T00:56 | 28915 | 13 | 163 | 6 | ||
| 2026-02-05T00:56 | 29017 | 13 | 141 | 5 | ||
| 2026-02-05T00:57 | 29065 | 13 | -46.4 | |||
| 2026-02-05T00:57 | 29117 | 13 | 151 | 6 | ||
| 2026-02-05T00:57 | 29438 | 12 | 141 | 11 | ||
| 2026-02-05T00:58 | 29607 | 12 | 105 | 6 | ||
| 2026-02-05T00:58 | 29777 | 12 | -46.5 | |||
| 2026-02-05T00:58 | 29836 | 11 | 115 | 7 | ||
| 2026-02-05T00:59 | 30012 | 11 | 123 | 10 | ||
| 2026-02-05T00:59 | 30193 | 11 | -45.2 | |||
| 2026-02-05T00:59 | 30255 | 11 | 113 | 13 | ||
| 2026-02-05T01:00 | 30445 | 10 | 127 | 11 | ||
| 2026-02-05T01:00 | 30576 | 10 | 135 | 16 | ||
| 2026-02-05T01:01 | 30780 | 10 | 139 | 14 | ||
| 2026-02-05T01:02 | 31126 | 9 | 123 | 14 | ||
| 2026-02-05T01:02 | 31172 | 9 | -42.2 | 120 | 12 | |
| 2026-02-05T11:33 | 26 | 1011 | 3.0 | -0.1 | 130 | 0 |
| 2026-02-05T11:33 | 31 | 1010 | 3.5 | -0.3 | 0 | 0 |
| 2026-02-05T11:33 | 47 | 1008 | 5.4 | -2.2 | ||
| 2026-02-05T11:33 | 72 | 1005 | 7.4 | -0.8 | ||
| 2026-02-05T11:33 | 94 | 1002 | 9.4 | -2.9 | ||
| 2026-02-05T11:33 | 143 | 997 | 9.5 | -4.1 | ||
| 2026-02-05T11:34 | 202 | 989 | 200 | 3 | ||
| 2026-02-05T11:34 | 289 | 979 | 176 | 5 | ||
| 2026-02-05T11:34 | 310 | 977 | 8.4 | -2.8 | ||
| 2026-02-05T11:34 | 391 | 967 | 7.7 | -0.5 | ||
| 2026-02-05T11:34 | 413 | 964 | 184 | 5 | ||
| 2026-02-05T11:35 | 576 | 946 | 6.4 | -3.8 | ||
| 2026-02-05T11:35 | 712 | 930 | 5.5 | -5.2 | ||
| 2026-02-05T11:35 | 722 | 929 | 197 | 5 | ||
| 2026-02-05T11:36 | 834 | 916 | 5.0 | -8.8 | ||
| 2026-02-05T11:36 | 873 | 912 | 6.0 | -12.6 | ||
| 2026-02-05T11:36 | 944 | 904 | 182 | 4 | ||
| 2026-02-05T11:36 | 997 | 898 | 183 | 2 | ||
| 2026-02-05T11:36 | 1026 | 895 | 5.0 | -12.5 | ||
| 2026-02-05T11:37 | 1103 | 886 | 5.1 | -13.8 | ||
| 2026-02-05T11:37 | 1113 | 885 | 204 | 3 | ||
| 2026-02-05T11:37 | 1183 | 878 | 5.4 | -14.6 | ||
| 2026-02-05T11:37 | 1199 | 876 | 201 | 6 | ||
| 2026-02-05T11:37 | 1257 | 870 | 5.0 | -12.9 | ||
| 2026-02-05T11:37 | 1290 | 866 | 5.5 | -12.0 | ||
| 2026-02-05T11:37 | 1335 | 862 | 242 | 6 | ||
| 2026-02-05T11:38 | 1507 | 844 | 3.4 | -12.1 | ||
| 2026-02-05T11:38 | 1623 | 832 | 239 | 8 | ||
| 2026-02-05T11:39 | 1928 | 801 | 254 | 9 | ||
| 2026-02-05T11:40 | 2229 | 771 | 260 | 9 | ||
| 2026-02-05T11:41 | 2416 | 753 | -4.6 | -14.7 | 250 | 8 |
| 2026-02-05T11:42 | 2744 | 722 | 278 | 12 | ||
| 2026-02-05T11:42 | 2805 | 716 | -7.6 | -20.1 | ||
| 2026-02-05T11:42 | 2910 | 707 | -7.5 | -24.2 | ||
| 2026-02-05T11:42 | 2959 | 702 | -6.5 | -28.9 | ||
| 2026-02-05T11:42 | 2985 | 700 | 284 | 19 | ||
| 2026-02-05T11:42 | 3006 | 698 | -6.6 | -31.4 | ||
| 2026-02-05T11:43 | 3111 | 689 | 283 | 22 | ||
| 2026-02-05T11:43 | 3207 | 680 | -7.1 | -35.9 | ||
| 2026-02-05T11:43 | 3348 | 668 | -7.9 | -45.8 | ||
| 2026-02-05T11:44 | 3433 | 661 | 286 | 20 | ||
| 2026-02-05T11:44 | 3443 | 660 | -8.2 | -46.1 | ||
| 2026-02-05T11:45 | 3715 | 637 | 284 | 23 | ||
| 2026-02-05T11:45 | 3811 | 629 | -11.1 | -45.5 | ||
| 2026-02-05T11:46 | 4059 | 609 | 284 | 23 | ||
| 2026-02-05T11:46 | 4129 | 604 | -12.5 | -58.3 | ||
| 2026-02-05T11:46 | 4219 | 596 | 290 | 25 | ||
| 2026-02-05T11:46 | 4323 | 588 | -13.8 | -59.1 | ||
| 2026-02-05T11:47 | 4482 | 576 | 281 | 23 | ||
| 2026-02-05T11:47 | 4567 | 570 | -15.0 | -59.9 | ||
| 2026-02-05T11:47 | 4682 | 561 | 283 | 27 | ||
| 2026-02-05T11:48 | 4815 | 551 | 284 | 24 | ||
| 2026-02-05T11:48 | 4986 | 539 | -18.1 | -56.4 | ||
| 2026-02-05T11:49 | 5170 | 526 | 280 | 25 | ||
| 2026-02-05T11:49 | 5356 | 512 | -21.1 | -55.2 | ||
| 2026-02-05T11:50 | 5446 | 506 | 277 | 27 | ||
| 2026-02-05T11:50 | 5733 | 487 | -22.9 | -56.5 | ||
| 2026-02-05T11:51 | 5821 | 481 | 274 | 29 | ||
| 2026-02-05T11:52 | 6184 | 458 | 272 | 34 | ||
| 2026-02-05T11:52 | 6513 | 437 | -29.2 | -61.1 | ||
| 2026-02-05T11:53 | 6564 | 434 | 276 | 36 | ||
| 2026-02-05T11:53 | 6842 | 417 | -31.4 | -56.0 | ||
| 2026-02-05T11:54 | 6946 | 411 | 267 | 35 | ||
| 2026-02-05T11:54 | 7011 | 408 | -32.3 | -53.7 | ||
| 2026-02-05T11:54 | 7088 | 403 | -32.9 | -45.9 | ||
| 2026-02-05T11:54 | 7158 | 399 | -33.6 | -46.2 | ||
| 2026-02-05T11:54 | 7215 | 396 | 269 | 38 | ||
| 2026-02-05T11:54 | 7228 | 395 | -34.2 | -39.9 | ||
| 2026-02-05T11:55 | 7436 | 384 | -35.9 | -42.1 | ||
| 2026-02-05T11:55 | 7480 | 381 | 268 | 38 | ||
| 2026-02-05T11:56 | 7679 | 370 | 263 | 39 | ||
| 2026-02-05T11:56 | 7796 | 364 | -39.1 | -41.7 | ||
| 2026-02-05T11:56 | 7909 | 358 | -40.0 | -42.6 | ||
| 2026-02-05T11:56 | 7999 | 353 | 267 | 41 | ||
| 2026-02-05T11:57 | 8118 | 347 | 268 | 41 | ||
| 2026-02-05T11:58 | 8476 | 329 | 266 | 42 | ||
| 2026-02-05T11:59 | 8827 | 312 | 265 | 41 | ||
| 2026-02-05T11:59 | 9007 | 304 | -50.0 | |||
| 2026-02-05T12:00 | 9157 | 297 | 265 | 43 | ||
| 2026-02-05T12:00 | 9325 | 289 | 265 | 45 | ||
| 2026-02-05T12:00 | 9354 | 288 | -52.6 | |||
| 2026-02-05T12:01 | 9665 | 274 | 270 | 46 | ||
| 2026-02-05T12:01 | 9775 | 270 | -55.1 | |||
| 2026-02-05T12:02 | 9841 | 267 | 278 | 47 | ||
| 2026-02-05T12:02 | 9928 | 263 | -54.6 | |||
| 2026-02-05T12:02 | 10065 | 258 | 280 | 50 | ||
| 2026-02-05T12:03 | 10230 | 251 | -56.8 | |||
| 2026-02-05T12:03 | 10403 | 244 | 282 | 51 | ||
| 2026-02-05T12:03 | 10415 | 244 | -55.6 | |||
| 2026-02-05T12:04 | 10546 | 239 | -54.7 | |||
| 2026-02-05T12:04 | 10653 | 235 | -52.7 | |||
| 2026-02-05T12:04 | 10699 | 233 | 284 | 57 | ||
| 2026-02-05T12:04 | 10797 | 230 | -53.2 | |||
| 2026-02-05T12:05 | 10870 | 227 | 285 | 57 | ||
| 2026-02-05T12:05 | 11027 | 222 | -52.5 | |||
| 2026-02-05T12:06 | 11197 | 216 | 284 | 56 | ||
| 2026-02-05T12:07 | 11461 | 208 | 279 | 56 | ||
| 2026-02-05T12:07 | 11539 | 205 | -48.8 | |||
| 2026-02-05T12:07 | 11627 | 202 | 279 | 62 | ||
| 2026-02-05T12:07 | 11679 | 201 | -48.6 | |||
| 2026-02-05T12:07 | 11765 | 198 | 281 | 61 | ||
| 2026-02-05T12:08 | 11936 | 193 | 279 | 58 | ||
| 2026-02-05T12:09 | 12115 | 188 | -48.1 | |||
| 2026-02-05T12:09 | 12250 | 184 | 276 | 58 | ||
| 2026-02-05T12:09 | 12404 | 180 | -49.1 | |||
| 2026-02-05T12:10 | 12562 | 176 | 272 | 60 | ||
| 2026-02-05T12:11 | 12876 | 167 | 270 | 58 | ||
| 2026-02-05T12:11 | 12887 | 167 | -50.0 | |||
| 2026-02-05T12:12 | 13168 | 160 | 271 | 58 | ||
| 2026-02-05T12:13 | 13453 | 153 | 274 | 59 | ||
| 2026-02-05T12:13 | 13581 | 150 | -51.0 | |||
| 2026-02-05T12:14 | 13715 | 147 | 275 | 59 | ||
| 2026-02-05T12:15 | 14013 | 141 | -52.4 | |||
| 2026-02-05T12:15 | 14029 | 140 | 275 | 52 | ||
| 2026-02-05T12:16 | 14349 | 133 | 272 | 50 | ||
| 2026-02-05T12:17 | 14629 | 128 | -56.3 | |||
| 2026-02-05T12:17 | 14678 | 127 | 268 | 52 | ||
| 2026-02-05T12:17 | 14784 | 125 | -56.0 | |||
| 2026-02-05T12:18 | 14974 | 121 | 269 | 54 | ||
| 2026-02-05T12:18 | 15065 | 119 | -56.8 | |||
| 2026-02-05T12:18 | 15175 | 117 | 271 | 51 | ||
| 2026-02-05T12:19 | 15330 | 114 | -57.2 | |||
| 2026-02-05T12:19 | 15376 | 113 | 276 | 53 | ||
| 2026-02-05T12:20 | 15698 | 108 | 283 | 53 | ||
| 2026-02-05T12:20 | 15709 | 108 | -59.3 | |||
| 2026-02-05T12:21 | 16003 | 103 | -60.1 | |||
| 2026-02-05T12:21 | 16038 | 102 | 284 | 44 | ||
| 2026-02-05T12:21 | 16123 | 101 | -60.0 | |||
| 2026-02-05T12:22 | 16308 | 98 | 294 | 37 | ||
| 2026-02-05T12:22 | 16322 | 98 | -58.3 | |||
| 2026-02-05T12:23 | 16673 | 92 | 282 | 26 | ||
| 2026-02-05T12:24 | 16944 | 88 | -61.0 | |||
| 2026-02-05T12:24 | 16994 | 88 | 265 | 26 | ||
| 2026-02-05T12:25 | 17315 | 83 | 264 | 32 | ||
| 2026-02-05T12:25 | 17435 | 82 | -63.5 | |||
| 2026-02-05T12:25 | 17549 | 80 | 269 | 34 | ||
| 2026-02-05T12:26 | 17826 | 77 | 259 | 23 | ||
| 2026-02-05T12:26 | 17866 | 76 | -61.2 | |||
| 2026-02-05T12:27 | 18159 | 73 | 240 | 26 | ||
| 2026-02-05T12:28 | 18463 | 69 | 255 | 28 | ||
| 2026-02-05T12:28 | 18516 | 68 | -64.6 | |||
| 2026-02-05T12:29 | 18698 | 66 | 259 | 22 | ||
| 2026-02-05T12:29 | 18717 | 66 | -63.8 | |||
| 2026-02-05T12:30 | 19000 | 63 | 259 | 26 | ||
| 2026-02-05T12:31 | 19299 | 60 | 260 | 25 | ||
| 2026-02-05T12:32 | 19536 | 58 | 256 | 19 | ||
| 2026-02-05T12:33 | 19854 | 55 | 253 | 16 | ||
| 2026-02-05T12:33 | 19943 | 54 | -63.8 | |||
| 2026-02-05T12:33 | 20047 | 53 | 243 | 17 | ||
| 2026-02-05T12:34 | 20081 | 53 | -62.6 | |||
| 2026-02-05T12:34 | 20139 | 53 | 247 | 17 | ||
| 2026-02-05T12:34 | 20201 | 52 | -60.9 | |||
| 2026-02-05T12:35 | 20405 | 50 | 246 | 11 | ||
| 2026-02-05T12:35 | 20416 | 50 | -61.7 | |||
| 2026-02-05T12:35 | 20567 | 49 | -60.3 | |||
| 2026-02-05T12:35 | 20630 | 49 | 272 | 17 | ||
| 2026-02-05T12:36 | 20800 | 47 | -58.0 | |||
| 2026-02-05T12:36 | 20907 | 46 | 282 | 12 | ||
| 2026-02-05T12:37 | 21255 | 44 | 280 | 11 | ||
| 2026-02-05T12:38 | 21548 | 42 | 270 | 7 | ||
| 2026-02-05T12:38 | 21684 | 41 | -58.1 | |||
| 2026-02-05T12:38 | 21731 | 41 | 230 | 8 | ||
| 2026-02-05T12:39 | 21826 | 40 | -57.1 | |||
| 2026-02-05T12:39 | 22084 | 39 | 254 | 13 | ||
| 2026-02-05T12:40 | 22300 | 37 | 261 | 7 | ||
| 2026-02-05T12:40 | 22471 | 36 | 258 | 7 | ||
| 2026-02-05T12:41 | 22702 | 35 | -57.9 | |||
| 2026-02-05T12:42 | 22832 | 34 | 290 | 9 | ||
| 2026-02-05T12:42 | 23035 | 33 | -57.4 | |||
| 2026-02-05T12:42 | 23077 | 33 | 265 | 5 | ||
| 2026-02-05T12:43 | 23191 | 32 | 235 | 2 | ||
| 2026-02-05T12:43 | 23292 | 32 | 172 | 3 | ||
| 2026-02-05T12:43 | 23371 | 31 | -55.1 | |||
| 2026-02-05T12:43 | 23415 | 31 | 163 | 3 | ||
| 2026-02-05T12:43 | 23495 | 31 | 173 | 3 | ||
| 2026-02-05T12:44 | 23684 | 30 | 217 | 6 | ||
| 2026-02-05T12:45 | 24029 | 28 | 244 | 13 | ||
| 2026-02-05T12:45 | 24074 | 28 | -58.0 | |||
| 2026-02-05T12:45 | 24187 | 28 | 239 | 7 | ||
| 2026-02-05T12:46 | 24350 | 27 | 226 | 8 | ||
| 2026-02-05T12:46 | 24536 | 26 | -57.9 | |||
| 2026-02-05T12:47 | 24712 | 25 | 245 | 5 | ||
| 2026-02-05T12:47 | 24912 | 25 | 250 | 6 | ||
| 2026-02-05T12:48 | 25069 | 24 | 279 | 5 | ||
| 2026-02-05T12:48 | 25202 | 24 | 243 | 6 | ||
| 2026-02-05T12:48 | 25369 | 23 | -53.5 | |||
| 2026-02-05T12:48 | 25397 | 23 | 291 | 3 | ||
| 2026-02-05T12:49 | 25621 | 22 | -51.9 | 158 | 2 | |
| 2026-02-05T23:33 | 26 | 1008 | 4.3 | -0.3 | 310 | 2 |
| 2026-02-05T23:33 | 31 | 1007 | 3.9 | -1.9 | 290 | 1 |
| 2026-02-05T23:33 | 57 | 1004 | 3.2 | -3.0 | ||
| 2026-02-05T23:33 | 63 | 1003 | 272 | 5 | ||
| 2026-02-05T23:33 | 108 | 998 | 3.1 | -3.7 | ||
| 2026-02-05T23:33 | 142 | 993 | 4.3 | -3.7 | 290 | 2 |
| 2026-02-05T23:33 | 168 | 990 | 4.7 | -3.8 | ||
| 2026-02-05T23:34 | 199 | 987 | 6.8 | -4.9 | ||
| 2026-02-05T23:34 | 215 | 985 | 253 | 3 | ||
| 2026-02-05T23:34 | 343 | 969 | 7.0 | -6.7 | ||
| 2026-02-05T23:34 | 403 | 962 | 7.6 | -6.9 | 269 | 6 |
| 2026-02-05T23:35 | 521 | 949 | 259 | 2 | ||
| 2026-02-05T23:35 | 583 | 941 | 6.5 | -8.2 | ||
| 2026-02-05T23:35 | 676 | 931 | 14 | 3 | ||
| 2026-02-05T23:35 | 792 | 918 | 342 | 3 | ||
| 2026-02-05T23:36 | 818 | 915 | 5.6 | -9.4 | ||
| 2026-02-05T23:36 | 1005 | 894 | 322 | 7 | ||
| 2026-02-05T23:37 | 1151 | 878 | 4.2 | -10.7 | ||
| 2026-02-05T23:37 | 1231 | 869 | 282 | 7 | ||
| 2026-02-05T23:37 | 1304 | 862 | 3.5 | -12.5 | ||
| 2026-02-05T23:37 | 1393 | 852 | 256 | 5 | ||
| 2026-02-05T23:37 | 1438 | 847 | 2.9 | -14.7 | ||
| 2026-02-05T23:38 | 1519 | 839 | 231 | 8 | ||
| 2026-02-05T23:38 | 1645 | 826 | 3.8 | -23.1 | ||
| 2026-02-05T23:39 | 1798 | 811 | 246 | 12 | ||
| 2026-02-05T23:39 | 1950 | 796 | 241 | 9 | ||
| 2026-02-05T23:39 | 2018 | 789 | 2.0 | -27.7 | ||
| 2026-02-05T23:40 | 2274 | 764 | 261 | 12 | ||
| 2026-02-05T23:40 | 2407 | 751 | -0.6 | -26.6 | ||
| 2026-02-05T23:41 | 2606 | 733 | 264 | 18 | ||
| 2026-02-05T23:41 | 2645 | 729 | -2.0 | -26.8 | ||
| 2026-02-05T23:42 | 2891 | 707 | -3.2 | -31.7 | ||
| 2026-02-05T23:42 | 2947 | 702 | 254 | 18 | ||
| 2026-02-05T23:43 | 3266 | 674 | 265 | 19 | ||
| 2026-02-05T23:44 | 3412 | 661 | -7.5 | -32.1 | ||
| 2026-02-05T23:44 | 3583 | 647 | 260 | 20 | ||
| 2026-02-05T23:45 | 3890 | 621 | 251 | 22 | ||
| 2026-02-05T23:46 | 4212 | 596 | 256 | 24 | ||
| 2026-02-05T23:46 | 4302 | 589 | -14.4 | -53.9 | ||
| 2026-02-05T23:47 | 4541 | 570 | 254 | 26 | ||
| 2026-02-05T23:48 | 4874 | 545 | -18.7 | -56.8 | ||
| 2026-02-05T23:48 | 4886 | 545 | 257 | 26 | ||
| 2026-02-05T23:49 | 5104 | 529 | -20.0 | -47.1 | ||
| 2026-02-05T23:49 | 5231 | 520 | 260 | 29 | ||
| 2026-02-05T23:49 | 5248 | 519 | -21.0 | -34.4 | ||
| 2026-02-05T23:49 | 5357 | 511 | -21.8 | -35.4 | ||
| 2026-02-05T23:50 | 5401 | 508 | -21.5 | -25.7 | ||
| 2026-02-05T23:50 | 5446 | 505 | 257 | 31 | ||
| 2026-02-05T23:50 | 5513 | 500 | -21.8 | -23.6 | ||
| 2026-02-05T23:50 | 5585 | 496 | 258 | 34 | ||
| 2026-02-05T23:51 | 5899 | 475 | 264 | 34 | ||
| 2026-02-05T23:51 | 6027 | 466 | -25.1 | -28.0 | ||
| 2026-02-05T23:52 | 6148 | 459 | -25.5 | -28.2 | ||
| 2026-02-05T23:52 | 6175 | 457 | 262 | 39 | ||
| 2026-02-05T23:52 | 6223 | 454 | -25.3 | -28.9 | ||
| 2026-02-05T23:52 | 6303 | 449 | 264 | 43 | ||
| 2026-02-05T23:53 | 6625 | 430 | 263 | 43 | ||
| 2026-02-05T23:54 | 6918 | 412 | -31.3 | -34.4 | ||
| 2026-02-05T23:54 | 6939 | 411 | 260 | 43 | ||
| 2026-02-05T23:55 | 7261 | 393 | 263 | 44 | ||
| 2026-02-05T23:56 | 7392 | 385 | -34.4 | -37.7 | ||
| 2026-02-05T23:56 | 7536 | 377 | 267 | 43 | ||
| 2026-02-05T23:57 | 7689 | 369 | -36.9 | -40.7 | ||
| 2026-02-05T23:57 | 7719 | 368 | 265 | 43 | ||
| 2026-02-05T23:57 | 7901 | 358 | -37.7 | -41.0 | ||
| 2026-02-05T23:58 | 8084 | 349 | 261 | 47 | ||
| 2026-02-05T23:58 | 8166 | 344 | -40.0 | -43.5 | ||
| 2026-02-05T23:58 | 8278 | 339 | 262 | 48 | ||
| 2026-02-05T23:58 | 8288 | 338 | -40.9 | |||
| 2026-02-05T23:59 | 8461 | 330 | -42.1 | |||
| 2026-02-05T23:59 | 8558 | 325 | 266 | 50 | ||
| 2026-02-05T23:59 | 8683 | 319 | -43.2 | |||
| 2026-02-05T23:59 | 8694 | 319 | 268 | 53 | ||
| 2026-02-06T00:00 | 9026 | 303 | 269 | 57 | ||
| 2026-02-06T00:01 | 9169 | 297 | -47.0 | |||
| 2026-02-06T00:01 | 9371 | 288 | 272 | 60 | ||
| 2026-02-06T00:02 | 9564 | 279 | 270 | 63 | ||
| 2026-02-06T00:03 | 9891 | 266 | -51.1 | |||
| 2026-02-06T00:03 | 9927 | 264 | 273 | 68 | ||
| 2026-02-06T00:04 | 10121 | 257 | 274 | 72 | ||
| 2026-02-06T00:04 | 10389 | 246 | 274 | 75 | ||
| 2026-02-06T00:05 | 10480 | 243 | -51.1 | |||
| 2026-02-06T00:05 | 10750 | 233 | 273 | 81 | ||
| 2026-02-06T00:05 | 10784 | 232 | -50.4 | |||
| 2026-02-06T00:06 | 10954 | 226 | -51.3 | |||
| 2026-02-06T00:06 | 11067 | 222 | 277 | 79 | ||
| 2026-02-06T00:07 | 11245 | 216 | -50.4 | |||
| 2026-02-06T00:07 | 11303 | 214 | 273 | 81 | ||
| 2026-02-06T00:08 | 11519 | 207 | 274 | 87 | ||
| 2026-02-06T00:08 | 11667 | 202 | -50.7 | |||
| 2026-02-06T00:09 | 11877 | 196 | 277 | 78 | ||
| 2026-02-06T00:09 | 12013 | 192 | -52.0 | |||
| 2026-02-06T00:10 | 12235 | 185 | 277 | 67 | ||
| 2026-02-06T00:10 | 12416 | 180 | -52.7 | |||
| 2026-02-06T00:10 | 12509 | 178 | 274 | 67 | ||
| 2026-02-06T00:11 | 12852 | 168 | 270 | 71 | ||
| 2026-02-06T00:12 | 13113 | 162 | 273 | 72 | ||
| 2026-02-06T00:12 | 13134 | 161 | -55.2 | |||
| 2026-02-06T00:13 | 13226 | 159 | 273 | 75 | ||
| 2026-02-06T00:13 | 13356 | 156 | 272 | 71 | ||
| 2026-02-06T00:14 | 13561 | 151 | -55.9 | |||
| 2026-02-06T00:14 | 13647 | 149 | 272 | 65 | ||
| 2026-02-06T00:15 | 13933 | 142 | 270 | 64 | ||
| 2026-02-06T00:16 | 14202 | 136 | 269 | 62 | ||
| 2026-02-06T00:16 | 14293 | 134 | -58.6 | |||
| 2026-02-06T00:17 | 14470 | 131 | 268 | 60 | ||
| 2026-02-06T00:18 | 14728 | 125 | -59.0 | |||
| 2026-02-06T00:18 | 14742 | 125 | 272 | 60 | ||
| 2026-02-06T00:19 | 14949 | 121 | -59.2 | |||
| 2026-02-06T00:19 | 15018 | 120 | 273 | 54 | ||
| 2026-02-06T00:20 | 15284 | 115 | 278 | 55 | ||
| 2026-02-06T00:20 | 15301 | 114 | -60.1 | |||
| 2026-02-06T00:21 | 15461 | 111 | -59.5 | |||
| 2026-02-06T00:21 | 15537 | 110 | -58.5 | |||
| 2026-02-06T00:21 | 15600 | 109 | 268 | 45 | ||
| 2026-02-06T00:22 | 15769 | 106 | 266 | 46 | ||
| 2026-02-06T00:23 | 16111 | 100 | 263 | 50 | ||
| 2026-02-06T00:23 | 16313 | 97 | -65.1 | |||
| 2026-02-06T00:23 | 16370 | 96 | 268 | 52 | ||
| 2026-02-06T00:24 | 16631 | 92 | 275 | 40 | ||
| 2026-02-06T00:25 | 16834 | 89 | -61.9 | |||
| 2026-02-06T00:25 | 16919 | 88 | 279 | 38 | ||
| 2026-02-06T00:26 | 17155 | 85 | -61.1 | |||
| 2026-02-06T00:26 | 17235 | 84 | 279 | 27 | ||
| 2026-02-06T00:27 | 17546 | 79 | 257 | 24 | ||
| 2026-02-06T00:28 | 17815 | 76 | 268 | 27 | ||
| 2026-02-06T00:29 | 17956 | 74 | -64.0 | |||
| 2026-02-06T00:29 | 18081 | 73 | 263 | 23 | ||
| 2026-02-06T00:30 | 18122 | 72 | -63.5 | |||
| 2026-02-06T00:30 | 18374 | 69 | 258 | 26 | ||
| 2026-02-06T00:31 | 18582 | 67 | 263 | 25 | ||
| 2026-02-06T00:32 | 18737 | 65 | 269 | 25 | ||
| 2026-02-06T00:32 | 18823 | 65 | -62.7 | |||
| 2026-02-06T00:32 | 18891 | 64 | 276 | 28 | ||
| 2026-02-06T00:32 | 19007 | 63 | -61.3 | |||
| 2026-02-06T00:33 | 19220 | 61 | 288 | 21 | ||
| 2026-02-06T00:34 | 19532 | 58 | 280 | 14 | ||
| 2026-02-06T00:35 | 19796 | 55 | 268 | 15 | ||
| 2026-02-06T00:36 | 20104 | 52 | 277 | 15 | ||
| 2026-02-06T00:36 | 20296 | 51 | -64.3 | |||
| 2026-02-06T00:37 | 20396 | 50 | 280 | 9 | ||
| 2026-02-06T00:38 | 20680 | 48 | -64.0 | |||
| 2026-02-06T00:38 | 20706 | 48 | 279 | 17 | ||
| 2026-02-06T00:39 | 21014 | 45 | 286 | 12 | ||
| 2026-02-06T00:39 | 21028 | 45 | -59.0 | |||
| 2026-02-06T00:39 | 21225 | 44 | -58.9 | |||
| 2026-02-06T00:40 | 21265 | 43 | 235 | 15 | ||
| 2026-02-06T00:41 | 21565 | 41 | 270 | 15 | ||
| 2026-02-06T00:41 | 21579 | 41 | -55.6 | |||
| 2026-02-06T00:42 | 21878 | 39 | 274 | 5 | ||
| 2026-02-06T00:42 | 22172 | 38 | 234 | 8 | ||
| 2026-02-06T00:43 | 22497 | 36 | 257 | 16 | ||
| 2026-02-06T00:44 | 22587 | 35 | -58.3 | |||
| 2026-02-06T00:44 | 22696 | 35 | 277 | 11 | ||
| 2026-02-06T00:44 | 22714 | 35 | -55.9 | |||
| 2026-02-06T00:45 | 22843 | 34 | 264 | 8 | ||
| 2026-02-06T00:45 | 23039 | 33 | -57.2 | 247 | 10 | |
| 2026-02-06T11:30 | 26 | 1007 | 6.2 | -1.5 | 20 | 1 |
| 2026-02-06T11:30 | 29 | 1007 | 6.2 | -2.4 | 0 | 0 |
| 2026-02-06T11:30 | 56 | 1004 | 28 | 3 | ||
| 2026-02-06T11:30 | 65 | 1003 | 6.8 | -2.9 | ||
| 2026-02-06T11:30 | 115 | 996 | 6.7 | -3.3 | ||
| 2026-02-06T11:31 | 166 | 990 | 8.8 | -1.9 | ||
| 2026-02-06T11:31 | 231 | 983 | 27 | 7 | ||
| 2026-02-06T11:31 | 381 | 965 | 6.8 | -0.2 | ||
| 2026-02-06T11:32 | 474 | 954 | 6.2 | 1.7 | ||
| 2026-02-06T11:32 | 542 | 946 | 78 | 6 | ||
| 2026-02-06T11:32 | 666 | 932 | 5.0 | 2.2 | ||
| 2026-02-06T11:32 | 738 | 924 | 91 | 5 | ||
| 2026-02-06T11:33 | 858 | 910 | 4.2 | -1.2 | ||
| 2026-02-06T11:33 | 864 | 909 | 120 | 1 | ||
| 2026-02-06T11:33 | 968 | 898 | 4.2 | -5.3 | ||
| 2026-02-06T11:33 | 1037 | 890 | 254 | 3 | ||
| 2026-02-06T11:34 | 1377 | 854 | 303 | 6 | ||
| 2026-02-06T11:35 | 1692 | 820 | 302 | 8 | ||
| 2026-02-06T11:35 | 1730 | 816 | -2.2 | -7.7 | ||
| 2026-02-06T11:36 | 1808 | 808 | -2.1 | -7.8 | ||
| 2026-02-06T11:36 | 1934 | 795 | 269 | 6 | ||
| 2026-02-06T11:36 | 1973 | 792 | -2.4 | -8.7 | ||
| 2026-02-06T11:36 | 2064 | 783 | 236 | 8 | ||
| 2026-02-06T11:36 | 2121 | 777 | -2.6 | -11.1 | ||
| 2026-02-06T11:37 | 2395 | 751 | 257 | 10 | ||
| 2026-02-06T11:38 | 2518 | 739 | -5.9 | -13.9 | ||
| 2026-02-06T11:38 | 2705 | 721 | 257 | 13 | ||
| 2026-02-06T11:39 | 2841 | 709 | -7.9 | -17.5 | ||
| 2026-02-06T11:39 | 3046 | 690 | 267 | 17 | ||
| 2026-02-06T11:40 | 3368 | 662 | -12.4 | -21.4 | ||
| 2026-02-06T11:40 | 3419 | 657 | 276 | 23 | ||
| 2026-02-06T11:40 | 3482 | 652 | -12.6 | -25.9 | ||
| 2026-02-06T11:41 | 3592 | 643 | -12.0 | -32.1 | ||
| 2026-02-06T11:41 | 3791 | 626 | 272 | 26 | ||
| 2026-02-06T11:42 | 4021 | 607 | -14.0 | -34.4 | ||
| 2026-02-06T11:42 | 4126 | 599 | 262 | 28 | ||
| 2026-02-06T11:42 | 4137 | 598 | -14.8 | -29.3 | ||
| 2026-02-06T11:43 | 4341 | 582 | -16.1 | -24.6 | ||
| 2026-02-06T11:43 | 4471 | 572 | 264 | 31 | ||
| 2026-02-06T11:43 | 4536 | 567 | -17.1 | -27.5 | ||
| 2026-02-06T11:44 | 4666 | 557 | -17.9 | -24.6 | ||
| 2026-02-06T11:44 | 4803 | 547 | -17.8 | -25.9 | ||
| 2026-02-06T11:44 | 4827 | 546 | 264 | 37 | ||
| 2026-02-06T11:44 | 4851 | 544 | -17.6 | -28.0 | ||
| 2026-02-06T11:45 | 4911 | 540 | -17.6 | -30.7 | ||
| 2026-02-06T11:45 | 5171 | 521 | 267 | 43 | ||
| 2026-02-06T11:46 | 5301 | 512 | -20.3 | -27.6 | ||
| 2026-02-06T11:46 | 5385 | 506 | -20.7 | -29.1 | ||
| 2026-02-06T11:46 | 5525 | 496 | 262 | 45 | ||
| 2026-02-06T11:46 | 5575 | 493 | -22.4 | -34.3 | ||
| 2026-02-06T11:47 | 5668 | 487 | -22.5 | -44.2 | ||
| 2026-02-06T11:47 | 5902 | 472 | 260 | 45 | ||
| 2026-02-06T11:47 | 5921 | 470 | -24.0 | -41.7 | ||
| 2026-02-06T11:48 | 6276 | 448 | 263 | 43 | ||
| 2026-02-06T11:48 | 6335 | 444 | -27.6 | -53.0 | ||
| 2026-02-06T11:49 | 6559 | 430 | -29.2 | -47.1 | ||
| 2026-02-06T11:49 | 6639 | 426 | 264 | 44 | ||
| 2026-02-06T11:50 | 6889 | 411 | -32.3 | -42.1 | ||
| 2026-02-06T11:50 | 6998 | 405 | 264 | 45 | ||
| 2026-02-06T11:51 | 7089 | 399 | -33.8 | -37.8 | ||
| 2026-02-06T11:51 | 7150 | 396 | -33.5 | -37.0 | ||
| 2026-02-06T11:51 | 7222 | 392 | -33.4 | -39.4 | ||
| 2026-02-06T11:51 | 7244 | 391 | 264 | 53 | ||
| 2026-02-06T11:51 | 7307 | 387 | -33.7 | -42.2 | ||
| 2026-02-06T11:52 | 7428 | 381 | -34.6 | -42.8 | ||
| 2026-02-06T11:52 | 7554 | 374 | 264 | 55 | ||
| 2026-02-06T11:52 | 7560 | 373 | -35.5 | -41.5 | ||
| 2026-02-06T11:53 | 7868 | 357 | 265 | 57 | ||
| 2026-02-06T11:53 | 7973 | 352 | -39.1 | -42.9 | ||
| 2026-02-06T11:54 | 8075 | 347 | -40.0 | -43.8 | ||
| 2026-02-06T11:54 | 8161 | 342 | 267 | 57 | ||
| 2026-02-06T11:55 | 8492 | 326 | 271 | 60 | ||
| 2026-02-06T11:55 | 8562 | 322 | -43.8 | |||
| 2026-02-06T11:56 | 8735 | 314 | 271 | 62 | ||
| 2026-02-06T11:56 | 8768 | 313 | -44.8 | |||
| 2026-02-06T11:57 | 9008 | 302 | -42.7 | 271 | 72 | |
| 2026-02-06T11:58 | 9296 | 289 | 270 | 77 | ||
| 2026-02-06T11:58 | 9392 | 285 | -45.0 | |||
| 2026-02-06T11:58 | 9605 | 276 | 270 | 79 | ||
| 2026-02-06T11:59 | 9755 | 270 | -44.2 | |||
| 2026-02-06T11:59 | 9921 | 263 | 270 | 82 | ||
| 2026-02-06T12:00 | 9950 | 262 | -43.1 | |||
| 2026-02-06T12:00 | 10104 | 256 | 269 | 87 | ||
| 2026-02-06T12:00 | 10270 | 250 | 270 | 89 | ||
| 2026-02-06T12:00 | 10294 | 249 | -43.3 | |||
| 2026-02-06T12:01 | 10481 | 242 | 271 | 92 | ||
| 2026-02-06T12:02 | 10824 | 230 | 269 | 94 | ||
| 2026-02-06T12:03 | 11150 | 219 | -46.5 | |||
| 2026-02-06T12:03 | 11155 | 219 | 267 | 94 | ||
| 2026-02-06T12:04 | 11486 | 208 | 269 | 93 | ||
| 2026-02-06T12:04 | 11639 | 203 | -47.9 | |||
| 2026-02-06T12:05 | 11809 | 198 | 267 | 91 | ||
| 2026-02-06T12:06 | 11981 | 193 | -50.3 | |||
| 2026-02-06T12:06 | 12153 | 188 | 267 | 90 | ||
| 2026-02-06T12:07 | 12505 | 178 | 267 | 88 | ||
| 2026-02-06T12:08 | 12923 | 167 | -55.9 | 266 | 84 | |
| 2026-02-06T12:09 | 13263 | 158 | -57.6 | |||
| 2026-02-06T12:09 | 13291 | 157 | 264 | 79 | ||
| 2026-02-06T12:09 | 13362 | 156 | -57.0 | |||
| 2026-02-06T12:09 | 13474 | 153 | -56.7 | |||
| 2026-02-06T12:10 | 13605 | 150 | 268 | 74 | ||
| 2026-02-06T12:10 | 13765 | 146 | 269 | 68 | ||
| 2026-02-06T12:10 | 13831 | 145 | -57.8 | |||
| 2026-02-06T12:11 | 14107 | 138 | 266 | 66 | ||
| 2026-02-06T12:12 | 14433 | 131 | 263 | 63 | ||
| 2026-02-06T12:12 | 14615 | 127 | -62.6 | |||
| 2026-02-06T12:13 | 14784 | 124 | -62.4 | |||
| 2026-02-06T12:13 | 14850 | 123 | 263 | 61 | ||
| 2026-02-06T12:13 | 15104 | 118 | -64.2 | |||
| 2026-02-06T12:14 | 15299 | 114 | 262 | 63 | ||
| 2026-02-06T12:14 | 15406 | 112 | -64.3 | |||
| 2026-02-06T12:15 | 15641 | 108 | 269 | 56 | ||
| 2026-02-06T12:15 | 15811 | 105 | 269 | 52 | ||
| 2026-02-06T12:15 | 15825 | 105 | -64.5 | |||
| 2026-02-06T12:15 | 15946 | 103 | -61.9 | |||
| 2026-02-06T12:16 | 16203 | 98 | 271 | 53 | ||
| 2026-02-06T12:16 | 16376 | 96 | -63.5 | |||
| 2026-02-06T12:17 | 16441 | 95 | 277 | 50 | ||
| 2026-02-06T12:17 | 16632 | 92 | -62.3 | |||
| 2026-02-06T12:17 | 16707 | 91 | -60.4 | |||
| 2026-02-06T12:17 | 16801 | 89 | 266 | 34 | ||
| 2026-02-06T12:18 | 16973 | 87 | -61.2 | |||
| 2026-02-06T12:18 | 17145 | 84 | 249 | 36 | ||
| 2026-02-06T12:18 | 17209 | 84 | -60.4 | |||
| 2026-02-06T12:19 | 17300 | 82 | 247 | 40 | ||
| 2026-02-06T12:19 | 17703 | 77 | 247 | 41 | ||
| 2026-02-06T12:21 | 18135 | 72 | 258 | 46 | ||
| 2026-02-06T12:21 | 18146 | 72 | -64.4 | |||
| 2026-02-06T12:21 | 18361 | 69 | -63.3 | |||
| 2026-02-06T12:21 | 18388 | 69 | 268 | 43 | ||
| 2026-02-06T12:22 | 18572 | 67 | -59.8 | |||
| 2026-02-06T12:22 | 18657 | 66 | 273 | 33 | ||
| 2026-02-06T12:22 | 18926 | 63 | -60.2 | |||
| 2026-02-06T12:23 | 19007 | 63 | 265 | 25 | ||
| 2026-02-06T12:23 | 19056 | 62 | -59.5 | 267 | 27 | |
| 2026-02-06T23:33 | 26 | 1011 | 2.8 | -6.3 | 70 | 1 |
| 2026-02-06T23:33 | 32 | 1010 | 3.0 | -6.9 | 0 | 0 |
| 2026-02-06T23:33 | 130 | 998 | 82 | 3 | ||
| 2026-02-06T23:34 | 318 | 975 | 63 | 4 | ||
| 2026-02-06T23:34 | 357 | 970 | -0.2 | -9.4 | ||
| 2026-02-06T23:34 | 460 | 958 | -0.2 | -10.7 | ||
| 2026-02-06T23:34 | 491 | 954 | 13 | 4 | ||
| 2026-02-06T23:34 | 562 | 946 | 43 | 1 | ||
| 2026-02-06T23:35 | 606 | 940 | -1.6 | -9.7 | ||
| 2026-02-06T23:35 | 854 | 911 | 0 | 0 | ||
| 2026-02-06T23:36 | 868 | 910 | -3.8 | -9.0 | ||
| 2026-02-06T23:36 | 1090 | 884 | 267 | 3 | ||
| 2026-02-06T23:36 | 1140 | 879 | -6.1 | -8.8 | ||
| 2026-02-06T23:36 | 1165 | 876 | 307 | 5 | ||
| 2026-02-06T23:37 | 1268 | 864 | 273 | 4 | ||
| 2026-02-06T23:37 | 1329 | 858 | -7.5 | -9.1 | 309 | 5 |
| 2026-02-06T23:37 | 1406 | 849 | 290 | 12 | ||
| 2026-02-06T23:38 | 1502 | 839 | -6.6 | -7.8 | ||
| 2026-02-06T23:38 | 1526 | 836 | -6.3 | -7.4 | ||
| 2026-02-06T23:38 | 1541 | 835 | 251 | 7 | ||
| 2026-02-06T23:38 | 1622 | 826 | -6.0 | -6.8 | ||
| 2026-02-06T23:38 | 1692 | 819 | -5.9 | -6.7 | ||
| 2026-02-06T23:38 | 1730 | 815 | 208 | 9 | ||
| 2026-02-06T23:39 | 1810 | 806 | 209 | 13 | ||
| 2026-02-06T23:39 | 1899 | 797 | -5.0 | -5.8 | ||
| 2026-02-06T23:39 | 1924 | 795 | 215 | 17 | ||
| 2026-02-06T23:40 | 2108 | 776 | 222 | 17 | ||
| 2026-02-06T23:40 | 2129 | 774 | -6.1 | -7.3 | ||
| 2026-02-06T23:41 | 2430 | 745 | 236 | 15 | ||
| 2026-02-06T23:42 | 2771 | 713 | 249 | 16 | ||
| 2026-02-06T23:43 | 3072 | 686 | 266 | 18 | ||
| 2026-02-06T23:44 | 3393 | 657 | 272 | 19 | ||
| 2026-02-06T23:44 | 3514 | 647 | -15.1 | -17.5 | ||
| 2026-02-06T23:45 | 3718 | 630 | 261 | 19 | ||
| 2026-02-06T23:46 | 4053 | 602 | 244 | 19 | ||
| 2026-02-06T23:46 | 4070 | 601 | -17.6 | -19.8 | ||
| 2026-02-06T23:46 | 4377 | 577 | -16.7 | -18.8 | ||
| 2026-02-06T23:47 | 4389 | 576 | 233 | 29 | ||
| 2026-02-06T23:47 | 4559 | 563 | -15.9 | -17.8 | ||
| 2026-02-06T23:47 | 4588 | 561 | 241 | 38 | ||
| 2026-02-06T23:48 | 4782 | 546 | 242 | 41 | ||
| 2026-02-06T23:48 | 4944 | 535 | -17.7 | -19.7 | ||
| 2026-02-06T23:49 | 5123 | 522 | 243 | 43 | ||
| 2026-02-06T23:49 | 5169 | 519 | -18.8 | -21.1 | ||
| 2026-02-06T23:50 | 5470 | 498 | 246 | 44 | ||
| 2026-02-06T23:50 | 5476 | 498 | -20.3 | -22.9 | ||
| 2026-02-06T23:51 | 5793 | 477 | -22.3 | -24.9 | ||
| 2026-02-06T23:51 | 5816 | 475 | 248 | 48 | ||
| 2026-02-06T23:52 | 6163 | 453 | 248 | 48 | ||
| 2026-02-06T23:53 | 6514 | 432 | 252 | 55 | ||
| 2026-02-06T23:53 | 6775 | 416 | 251 | 57 | ||
| 2026-02-06T23:54 | 6964 | 405 | -31.7 | -35.1 | ||
| 2026-02-06T23:54 | 7097 | 398 | 252 | 58 | ||
| 2026-02-06T23:55 | 7243 | 390 | 253 | 61 | ||
| 2026-02-06T23:55 | 7408 | 380 | 251 | 57 | ||
| 2026-02-06T23:55 | 7483 | 376 | -35.8 | -39.3 | ||
| 2026-02-06T23:56 | 7626 | 369 | 251 | 65 | ||
| 2026-02-06T23:56 | 7660 | 367 | -36.3 | -39.7 | ||
| 2026-02-06T23:56 | 7783 | 360 | 248 | 68 | ||
| 2026-02-06T23:57 | 8104 | 344 | -40.0 | -43.8 | ||
| 2026-02-06T23:57 | 8132 | 342 | 247 | 68 | ||
| 2026-02-06T23:58 | 8473 | 326 | 247 | 69 | ||
| 2026-02-06T23:59 | 8602 | 320 | -44.2 | |||
| 2026-02-06T23:59 | 8647 | 317 | 251 | 74 | ||
| 2026-02-06T23:59 | 8760 | 312 | -44.9 | |||
| 2026-02-07T00:00 | 8873 | 307 | -45.1 | |||
| 2026-02-07T00:00 | 8983 | 302 | 255 | 74 | ||
| 2026-02-07T00:01 | 9276 | 289 | 255 | 74 | ||
| 2026-02-07T00:01 | 9346 | 286 | -46.6 | |||
| 2026-02-07T00:01 | 9469 | 281 | 255 | 76 | ||
| 2026-02-07T00:02 | 9676 | 272 | 255 | 82 | ||
| 2026-02-07T00:03 | 10041 | 257 | 258 | 83 | ||
| 2026-02-07T00:03 | 10089 | 255 | -48.4 | |||
| 2026-02-07T00:04 | 10263 | 249 | -48.7 | |||
| 2026-02-07T00:04 | 10281 | 248 | 261 | 88 | ||
| 2026-02-07T00:04 | 10423 | 243 | -47.3 | |||
| 2026-02-07T00:05 | 10568 | 237 | 260 | 96 | ||
| 2026-02-07T00:05 | 10626 | 235 | -47.0 | |||
| 2026-02-07T00:05 | 10718 | 232 | 258 | 97 | ||
| 2026-02-07T00:05 | 10749 | 231 | -46.4 | |||
| 2026-02-07T00:06 | 11038 | 221 | -47.6 | 259 | 104 | |
| 2026-02-07T00:07 | 11363 | 211 | 260 | 102 | ||
| 2026-02-07T00:08 | 11636 | 202 | 260 | 100 | ||
| 2026-02-07T00:09 | 11863 | 195 | -50.5 | |||
| 2026-02-07T00:09 | 11888 | 194 | 259 | 98 | ||
| 2026-02-07T00:10 | 12139 | 187 | -52.0 | |||
| 2026-02-07T00:10 | 12144 | 187 | 260 | 99 | ||
| 2026-02-07T00:11 | 12430 | 179 | 262 | 96 | ||
| 2026-02-07T00:12 | 12729 | 171 | 263 | 87 | ||
| 2026-02-07T00:12 | 12922 | 166 | -54.3 | |||
| 2026-02-07T00:13 | 12967 | 164 | 261 | 84 | ||
| 2026-02-07T00:13 | 13223 | 158 | 260 | 79 | ||
| 2026-02-07T00:14 | 13313 | 156 | -54.7 | |||
| 2026-02-07T00:14 | 13423 | 153 | 260 | 75 | ||
| 2026-02-07T00:14 | 13474 | 152 | -54.1 | |||
| 2026-02-07T00:15 | 13730 | 146 | 263 | 74 | ||
| 2026-02-07T00:16 | 13964 | 141 | 264 | 73 | ||
| 2026-02-07T00:16 | 14034 | 139 | -57.9 | |||
| 2026-02-07T00:17 | 14286 | 134 | 262 | 67 | ||
| 2026-02-07T00:17 | 14393 | 131 | -59.6 | |||
| 2026-02-07T00:18 | 14587 | 127 | 262 | 66 | ||
| 2026-02-07T00:19 | 14862 | 122 | 264 | 64 | ||
| 2026-02-07T00:19 | 14987 | 119 | -61.9 | |||
| 2026-02-07T00:20 | 15117 | 117 | 263 | 61 | ||
| 2026-02-07T00:20 | 15365 | 112 | -63.1 | |||
| 2026-02-07T00:21 | 15414 | 111 | 262 | 60 | ||
| 2026-02-07T00:21 | 15593 | 108 | -63.5 | |||
| 2026-02-07T00:22 | 15719 | 106 | 265 | 54 | ||
| 2026-02-07T00:22 | 15961 | 102 | -63.2 | |||
| 2026-02-07T00:23 | 16016 | 101 | 259 | 57 | ||
| 2026-02-07T00:23 | 16107 | 100 | -61.8 | |||
| 2026-02-07T00:24 | 16310 | 96 | -62.0 | |||
| 2026-02-07T00:24 | 16317 | 96 | 261 | 54 | ||
| 2026-02-07T00:24 | 16525 | 93 | 257 | 47 | ||
| 2026-02-07T00:25 | 16823 | 89 | 258 | 48 | ||
| 2026-02-07T00:26 | 16894 | 88 | -59.6 | |||
| 2026-02-07T00:26 | 16952 | 87 | -57.2 | |||
| 2026-02-07T00:26 | 17069 | 85 | -56.2 | |||
| 2026-02-07T00:26 | 17119 | 85 | 257 | 41 | ||
| 2026-02-07T00:27 | 17307 | 82 | -57.2 | |||
| 2026-02-07T00:27 | 17416 | 81 | 256 | 43 | ||
| 2026-02-07T00:28 | 17667 | 78 | -55.7 | 267 | 39 | |
| 2026-02-07T00:29 | 17951 | 74 | 258 | 27 | ||
| 2026-02-07T00:29 | 18065 | 73 | -53.2 | |||
| 2026-02-07T00:29 | 18073 | 73 | 251 | 26 | ||
| 2026-02-07T00:30 | 18416 | 69 | 244 | 18 | ||
| 2026-02-07T00:31 | 18446 | 69 | -54.7 | |||
| 2026-02-07T00:31 | 18597 | 67 | 220 | 13 | ||
| 2026-02-07T00:31 | 18710 | 66 | -53.8 | |||
| 2026-02-07T00:32 | 18789 | 65 | 216 | 12 | ||
| 2026-02-07T00:32 | 18887 | 64 | -53.9 | |||
| 2026-02-07T00:33 | 19101 | 62 | 218 | 16 | ||
| 2026-02-07T00:34 | 19406 | 59 | 230 | 19 | ||
| 2026-02-07T00:34 | 19470 | 59 | -58.0 | |||
| 2026-02-07T00:34 | 19589 | 57 | 242 | 18 | ||
| 2026-02-07T00:35 | 19702 | 56 | -57.3 | |||
| 2026-02-07T00:35 | 19893 | 55 | 238 | 14 | ||
| 2026-02-07T00:36 | 20247 | 52 | 230 | 18 | ||
| 2026-02-07T00:37 | 20369 | 51 | -60.9 | |||
| 2026-02-07T00:37 | 20593 | 49 | 220 | 17 | ||
| 2026-02-07T00:37 | 20644 | 49 | -58.8 | |||
| 2026-02-07T00:38 | 20922 | 46 | 240 | 16 | ||
| 2026-02-07T00:39 | 21240 | 44 | 250 | 14 | ||
| 2026-02-07T00:40 | 21560 | 42 | 244 | 15 | ||
| 2026-02-07T00:40 | 21634 | 41 | -60.2 | |||
| 2026-02-07T00:41 | 21914 | 40 | 305 | 10 | ||
| 2026-02-07T00:41 | 21960 | 39 | -59.5 | |||
| 2026-02-07T00:42 | 22205 | 38 | 312 | 2 | ||
| 2026-02-07T00:43 | 22370 | 37 | 275 | 3 | ||
| 2026-02-07T00:43 | 22508 | 36 | 261 | 3 | ||
| 2026-02-07T00:43 | 22598 | 36 | 301 | 3 | ||
| 2026-02-07T00:43 | 22647 | 35 | -57.8 | |||
| 2026-02-07T00:44 | 22667 | 35 | 300 | 2 | ||
| 2026-02-07T00:44 | 22776 | 35 | 52 | 3 | ||
| 2026-02-07T00:44 | 22963 | 34 | 58 | 5 | ||
| 2026-02-07T00:45 | 23138 | 33 | 106 | 5 | ||
| 2026-02-07T00:45 | 23294 | 32 | -54.7 | |||
| 2026-02-07T00:46 | 23459 | 31 | 214 | 7 | ||
| 2026-02-07T00:47 | 23736 | 30 | 223 | 9 | ||
| 2026-02-07T00:47 | 23883 | 29 | 207 | 7 | ||
| 2026-02-07T00:48 | 24063 | 28 | -56.6 | |||
| 2026-02-07T00:48 | 24180 | 28 | 202 | 8 | ||
| 2026-02-07T00:48 | 24364 | 27 | -55.5 | 200 | 9 | |
| 2026-02-07T00:49 | 24607 | 26 | 238 | 8 | ||
| 2026-02-07T00:49 | 24731 | 25 | 218 | 9 | ||
| 2026-02-07T00:50 | 24961 | 25 | 219 | 12 | ||
| 2026-02-07T00:50 | 24988 | 24 | -53.6 | |||
| 2026-02-07T00:51 | 25229 | 24 | 233 | 11 | ||
| 2026-02-07T00:52 | 25512 | 23 | 267 | 6 | ||
| 2026-02-07T00:52 | 25599 | 22 | -51.5 | |||
| 2026-02-07T00:52 | 25657 | 22 | 291 | 5 | ||
| 2026-02-07T00:53 | 25927 | 21 | 278 | 1 | ||
| 2026-02-07T00:53 | 26176 | 20 | 190 | 4 | ||
| 2026-02-07T00:54 | 26597 | 19 | -54.1 | 248 | 9 | |
| 2026-02-07T00:55 | 26770 | 19 | 253 | 8 | ||
| 2026-02-07T00:55 | 26910 | 18 | 267 | 3 | ||
| 2026-02-07T00:56 | 27089 | 18 | 82 | 1 | ||
| 2026-02-07T00:56 | 27202 | 17 | 153 | 3 | ||
| 2026-02-07T00:56 | 27277 | 17 | -51.0 | |||
| 2026-02-07T00:57 | 27353 | 17 | 84 | 3 | ||
| 2026-02-07T00:57 | 27468 | 17 | 83 | 4 | ||
| 2026-02-07T00:57 | 27591 | 16 | -51.0 | |||
| 2026-02-07T00:58 | 27751 | 16 | 135 | 6 | ||
| 2026-02-07T00:58 | 27833 | 16 | -50.8 | |||
| 2026-02-07T00:58 | 27958 | 15 | 175 | 8 | ||
| 2026-02-07T00:59 | 28176 | 15 | 164 | 9 | ||
| 2026-02-07T00:59 | 28357 | 15 | 175 | 8 | ||
| 2026-02-07T00:59 | 28401 | 14 | -48.0 | |||
| 2026-02-07T01:00 | 28489 | 14 | 145 | 5 | ||
| 2026-02-07T01:00 | 28538 | 14 | 113 | 5 | ||
| 2026-02-07T01:00 | 28682 | 14 | 115 | 8 | ||
| 2026-02-07T01:00 | 28825 | 14 | 143 | 7 | ||
| 2026-02-07T01:01 | 28924 | 13 | 129 | 6 | ||
| 2026-02-07T01:01 | 29022 | 13 | 146 | 7 | ||
| 2026-02-07T01:01 | 29176 | 13 | -47.5 | |||
| 2026-02-07T01:02 | 29278 | 13 | 133 | 5 | ||
| 2026-02-07T01:02 | 29386 | 12 | 107 | 8 | ||
| 2026-02-07T01:02 | 29548 | 12 | 115 | 5 | ||
| 2026-02-07T01:03 | 29658 | 12 | 90 | 6 | ||
| 2026-02-07T01:03 | 29946 | 11 | -47.6 | 116 | 8 | |
| 2026-02-07T11:33 | 26 | 1008 | 0.8 | -0.4 | 290 | 1 |
| 2026-02-07T11:33 | 32 | 1007 | 1.2 | -0.6 | 0 | 0 |
| 2026-02-07T11:33 | 169 | 990 | -0.1 | -1.4 | ||
| 2026-02-07T11:34 | 294 | 975 | 174 | 3 | ||
| 2026-02-07T11:34 | 316 | 972 | -1.2 | -1.9 | ||
| 2026-02-07T11:34 | 373 | 965 | -0.5 | -2.2 | ||
| 2026-02-07T11:34 | 481 | 952 | 119 | 7 | ||
| 2026-02-07T11:35 | 556 | 943 | -1.6 | -3.6 | ||
| 2026-02-07T11:35 | 567 | 942 | 111 | 6 | ||
| 2026-02-07T11:35 | 669 | 930 | 118 | 8 | ||
| 2026-02-07T11:36 | 851 | 909 | -4.0 | -5.8 | ||
| 2026-02-07T11:36 | 890 | 904 | 98 | 7 | ||
| 2026-02-07T11:36 | 951 | 897 | -4.9 | -7.0 | ||
| 2026-02-07T11:37 | 1183 | 871 | 84 | 5 | ||
| 2026-02-07T11:37 | 1284 | 860 | -7.8 | -9.3 | 76 | 3 |
| 2026-02-07T11:37 | 1409 | 846 | -8.5 | -10.1 | 245 | 1 |
| 2026-02-07T11:38 | 1565 | 829 | 293 | 3 | ||
| 2026-02-07T11:38 | 1598 | 826 | -9.0 | -10.8 | ||
| 2026-02-07T11:38 | 1641 | 821 | 229 | 6 | ||
| 2026-02-07T11:38 | 1669 | 818 | -8.5 | -10.0 | ||
| 2026-02-07T11:39 | 1731 | 811 | 233 | 7 | ||
| 2026-02-07T11:39 | 1820 | 802 | 199 | 10 | ||
| 2026-02-07T11:39 | 1925 | 791 | -9.1 | -10.2 | ||
| 2026-02-07T11:40 | 2144 | 769 | 222 | 15 | ||
| 2026-02-07T11:40 | 2322 | 752 | 223 | 19 | ||
| 2026-02-07T11:41 | 2468 | 738 | -12.0 | -13.4 | ||
| 2026-02-07T11:41 | 2651 | 720 | 232 | 17 | ||
| 2026-02-07T11:42 | 2809 | 705 | 236 | 16 | ||
| 2026-02-07T11:43 | 3149 | 674 | 237 | 15 | ||
| 2026-02-07T11:44 | 3478 | 645 | 250 | 18 | ||
| 2026-02-07T11:44 | 3576 | 637 | -20.4 | -23.0 | ||
| 2026-02-07T11:44 | 3684 | 627 | 254 | 22 | ||
| 2026-02-07T11:45 | 3890 | 610 | -23.2 | -27.2 | ||
| 2026-02-07T11:45 | 3963 | 604 | 260 | 27 | ||
| 2026-02-07T11:46 | 4067 | 596 | -24.7 | -32.1 | ||
| 2026-02-07T11:46 | 4192 | 585 | -25.4 | -35.6 | ||
| 2026-02-07T11:46 | 4277 | 579 | 261 | 30 | ||
| 2026-02-07T11:46 | 4304 | 576 | -26.0 | -38.8 | ||
| 2026-02-07T11:47 | 4602 | 553 | 257 | 35 | ||
| 2026-02-07T11:48 | 4769 | 541 | -27.0 | -44.7 | ||
| 2026-02-07T11:48 | 4900 | 531 | 259 | 37 | ||
| 2026-02-07T11:49 | 5024 | 522 | -28.2 | -48.1 | ||
| 2026-02-07T11:49 | 5184 | 510 | 257 | 40 | ||
| 2026-02-07T11:50 | 5448 | 492 | -29.7 | -57.4 | ||
| 2026-02-07T11:50 | 5499 | 488 | 255 | 45 | ||
| 2026-02-07T11:51 | 5639 | 479 | -29.9 | -64.6 | ||
| 2026-02-07T11:51 | 5818 | 467 | 261 | 52 | ||
| 2026-02-07T11:51 | 5930 | 459 | -31.3 | -70.6 | ||
| 2026-02-07T11:52 | 6047 | 452 | 259 | 58 | ||
| 2026-02-07T11:52 | 6073 | 450 | -30.7 | -70.2 | ||
| 2026-02-07T11:52 | 6228 | 441 | 262 | 63 | ||
| 2026-02-07T11:53 | 6444 | 427 | -31.7 | -70.8 | ||
| 2026-02-07T11:53 | 6455 | 427 | 264 | 69 | ||
| 2026-02-07T11:53 | 6605 | 418 | 263 | 74 | ||
| 2026-02-07T11:54 | 6896 | 401 | 264 | 76 | ||
| 2026-02-07T11:55 | 7114 | 388 | -36.0 | -73.7 | ||
| 2026-02-07T11:55 | 7198 | 384 | 263 | 79 | ||
| 2026-02-07T11:55 | 7296 | 378 | -36.9 | -74.3 | ||
| 2026-02-07T11:56 | 7533 | 365 | 263 | 81 | ||
| 2026-02-07T11:56 | 7608 | 362 | -39.4 | -76.0 | ||
| 2026-02-07T11:57 | 7734 | 355 | -40.0 | -71.8 | ||
| 2026-02-07T11:57 | 7845 | 349 | 262 | 81 | ||
| 2026-02-07T11:58 | 8025 | 340 | 260 | 83 | ||
| 2026-02-07T11:58 | 8138 | 334 | -41.9 | |||
| 2026-02-07T11:59 | 8339 | 325 | 259 | 84 | ||
| 2026-02-07T11:59 | 8441 | 320 | -43.5 | |||
| 2026-02-07T12:00 | 8619 | 311 | 256 | 84 | ||
| 2026-02-07T12:00 | 8782 | 304 | -46.0 | |||
| 2026-02-07T12:01 | 8970 | 295 | 258 | 86 | ||
| 2026-02-07T12:01 | 9124 | 289 | -48.0 | |||
| 2026-02-07T12:02 | 9308 | 281 | 261 | 85 | ||
| 2026-02-07T12:02 | 9388 | 277 | -48.8 | |||
| 2026-02-07T12:02 | 9469 | 274 | 261 | 88 | ||
| 2026-02-07T12:02 | 9547 | 271 | -47.5 | |||
| 2026-02-07T12:03 | 9672 | 265 | -45.6 | |||
| 2026-02-07T12:03 | 9810 | 260 | 263 | 88 | ||
| 2026-02-07T12:04 | 10057 | 251 | 260 | 85 | ||
| 2026-02-07T12:04 | 10086 | 249 | -44.6 | |||
| 2026-02-07T12:05 | 10381 | 239 | 258 | 90 | ||
| 2026-02-07T12:05 | 10462 | 236 | -45.8 | |||
| 2026-02-07T12:06 | 10717 | 227 | 258 | 91 | ||
| 2026-02-07T12:06 | 10853 | 222 | 259 | 91 | ||
| 2026-02-07T12:07 | 11117 | 214 | 259 | 87 | ||
| 2026-02-07T12:07 | 11131 | 213 | -45.6 | |||
| 2026-02-07T12:07 | 11381 | 205 | -46.8 | |||
| 2026-02-07T12:08 | 11523 | 201 | 258 | 91 | ||
| 2026-02-07T12:09 | 11932 | 189 | 261 | 93 | ||
| 2026-02-07T12:09 | 11993 | 187 | -50.2 | |||
| 2026-02-07T12:09 | 12106 | 184 | 262 | 91 | ||
| 2026-02-07T12:10 | 12252 | 180 | 262 | 88 | ||
| 2026-02-07T12:10 | 12453 | 174 | -51.2 | |||
| 2026-02-07T12:10 | 12514 | 173 | 263 | 86 | ||
| 2026-02-07T12:11 | 12730 | 167 | 261 | 82 | ||
| 2026-02-07T12:11 | 12817 | 165 | -51.3 | |||
| 2026-02-07T12:12 | 13107 | 158 | 264 | 79 | ||
| 2026-02-07T12:12 | 13267 | 154 | -52.9 | |||
| 2026-02-07T12:13 | 13459 | 149 | 258 | 74 | ||
| 2026-02-07T12:13 | 13576 | 147 | -53.7 | |||
| 2026-02-07T12:14 | 13755 | 143 | 258 | 74 | ||
| 2026-02-07T12:15 | 14051 | 136 | 260 | 73 | ||
| 2026-02-07T12:16 | 14233 | 132 | -55.9 | |||
| 2026-02-07T12:16 | 14267 | 132 | 261 | 69 | ||
| 2026-02-07T12:17 | 14503 | 127 | -55.9 | |||
| 2026-02-07T12:17 | 14560 | 126 | 264 | 64 | ||
| 2026-02-07T12:18 | 14781 | 121 | -56.5 | |||
| 2026-02-07T12:18 | 14849 | 120 | 262 | 61 | ||
| 2026-02-07T12:19 | 15152 | 114 | 259 | 59 | ||
| 2026-02-07T12:20 | 15425 | 110 | -57.2 | |||
| 2026-02-07T12:20 | 15455 | 109 | 258 | 56 | ||
| 2026-02-07T12:21 | 15719 | 105 | -57.2 | |||
| 2026-02-07T12:21 | 15745 | 104 | 261 | 56 | ||
| 2026-02-07T12:22 | 15949 | 101 | -58.1 | |||
| 2026-02-07T12:22 | 16010 | 100 | 261 | 56 | ||
| 2026-02-07T12:23 | 16287 | 96 | 257 | 49 | ||
| 2026-02-07T12:24 | 16507 | 92 | -60.0 | |||
| 2026-02-07T12:24 | 16571 | 91 | 254 | 49 | ||
| 2026-02-07T12:25 | 16904 | 87 | 249 | 49 | ||
| 2026-02-07T12:25 | 16984 | 86 | -58.9 | |||
| 2026-02-07T12:26 | 17216 | 82 | 246 | 50 | ||
| 2026-02-07T12:26 | 17298 | 81 | -61.0 | |||
| 2026-02-07T12:27 | 17420 | 80 | 252 | 50 | ||
| 2026-02-07T12:27 | 17643 | 77 | -60.3 | |||
| 2026-02-07T12:27 | 17661 | 77 | 259 | 46 | ||
| 2026-02-07T12:28 | 17809 | 75 | 264 | 42 | ||
| 2026-02-07T12:28 | 17860 | 74 | -57.2 | |||
| 2026-02-07T12:29 | 18052 | 72 | 270 | 32 | ||
| 2026-02-07T12:29 | 18179 | 71 | -52.2 | |||
| 2026-02-07T12:30 | 18327 | 69 | 258 | 22 | ||
| 2026-02-07T12:31 | 18709 | 65 | 239 | 22 | ||
| 2026-02-07T12:31 | 18828 | 64 | -56.7 | |||
| 2026-02-07T12:31 | 18998 | 62 | 233 | 24 | ||
| 2026-02-07T12:32 | 19278 | 60 | 228 | 22 | ||
| 2026-02-07T12:33 | 19558 | 57 | -59.2 | |||
| 2026-02-07T12:33 | 19567 | 57 | 244 | 22 | ||
| 2026-02-07T12:34 | 19756 | 55 | 262 | 20 | ||
| 2026-02-07T12:34 | 19906 | 54 | -57.7 | |||
| 2026-02-07T12:35 | 20027 | 53 | -55.5 | |||
| 2026-02-07T12:35 | 20062 | 53 | 242 | 18 | ||
| 2026-02-07T12:36 | 20397 | 50 | 237 | 19 | ||
| 2026-02-07T12:37 | 20720 | 47 | -59.5 | |||
| 2026-02-07T12:37 | 20746 | 47 | 253 | 22 | ||
| 2026-02-07T12:38 | 21087 | 45 | 250 | 21 | ||
| 2026-02-07T12:38 | 21226 | 44 | -61.6 | |||
| 2026-02-07T12:39 | 21343 | 43 | 232 | 22 | ||
| 2026-02-07T12:39 | 21357 | 43 | -58.5 | |||
| 2026-02-07T12:40 | 21647 | 41 | 232 | 29 | ||
| 2026-02-07T12:40 | 21819 | 40 | 238 | 28 | ||
| 2026-02-07T12:40 | 21846 | 40 | -56.5 | |||
| 2026-02-07T12:41 | 22065 | 38 | 247 | 20 | ||
| 2026-02-07T12:41 | 22081 | 38 | -54.9 | |||
| 2026-02-07T12:42 | 22421 | 36 | 268 | 22 | ||
| 2026-02-07T12:43 | 22809 | 34 | 283 | 21 | ||
| 2026-02-07T12:44 | 23131 | 32 | -56.3 | |||
| 2026-02-07T12:44 | 23152 | 32 | 288 | 11 | ||
| 2026-02-07T12:45 | 23413 | 31 | 249 | 10 | ||
| 2026-02-07T12:45 | 23516 | 30 | -56.7 | |||
| 2026-02-07T12:45 | 23536 | 30 | 237 | 10 | ||
| 2026-02-07T12:46 | 23708 | 30 | -54.5 | |||
| 2026-02-07T12:46 | 23729 | 29 | 265 | 14 | ||
| 2026-02-07T12:46 | 23932 | 29 | -53.3 | |||
| 2026-02-07T12:47 | 24067 | 28 | 310 | 5 | ||
| 2026-02-07T12:47 | 24157 | 28 | 294 | 3 | ||
| 2026-02-07T12:47 | 24253 | 27 | -54.9 | |||
| 2026-02-07T12:47 | 24373 | 27 | 44 | 4 | ||
| 2026-02-07T12:48 | 24420 | 26 | -52.4 | |||
| 2026-02-07T12:48 | 24644 | 26 | 107 | 3 | ||
| 2026-02-07T12:49 | 24771 | 25 | 182 | 4 | ||
| 2026-02-07T12:49 | 24797 | 25 | -53.7 | |||
| 2026-02-07T12:49 | 24928 | 24 | 206 | 6 | ||
| 2026-02-07T12:49 | 25089 | 24 | -52.8 | 163 | 5 | |
| 2026-02-07T12:50 | 25392 | 23 | 183 | 11 | ||
| 2026-02-07T12:51 | 25623 | 22 | 213 | 9 | ||
| 2026-02-07T12:51 | 25771 | 21 | -54.2 | |||
| 2026-02-07T12:51 | 25831 | 21 | 229 | 9 | ||
| 2026-02-07T12:52 | 26049 | 21 | 252 | 8 | ||
| 2026-02-07T12:52 | 26083 | 20 | -52.0 | |||
| 2026-02-07T12:52 | 26177 | 20 | 256 | 6 | ||
| 2026-02-07T12:53 | 26277 | 20 | 226 | 6 | ||
| 2026-02-07T12:53 | 26407 | 19 | 230 | 9 | ||
| 2026-02-07T12:53 | 26576 | 19 | 223 | 6 | ||
| 2026-02-07T12:54 | 26787 | 18 | 217 | 5 | ||
| 2026-02-07T12:54 | 26894 | 18 | 219 | 6 | ||
| 2026-02-07T12:55 | 27077 | 18 | 237 | 6 | ||
| 2026-02-07T12:55 | 27153 | 17 | 255 | 3 | ||
| 2026-02-07T12:55 | 27230 | 17 | 287 | 4 | ||
| 2026-02-07T12:56 | 27460 | 17 | 234 | 3 | ||
| 2026-02-07T12:56 | 27500 | 16 | -50.8 | |||
| 2026-02-07T12:56 | 27619 | 16 | 216 | 6 | ||
| 2026-02-07T12:57 | 27825 | 16 | 248 | 5 | ||
| 2026-02-07T12:57 | 27950 | 15 | 276 | 2 | ||
| 2026-02-07T12:58 | 28125 | 15 | -50.0 | |||
| 2026-02-07T12:58 | 28170 | 15 | 245 | 4 | ||
| 2026-02-07T12:58 | 28258 | 15 | 219 | 3 | ||
| 2026-02-07T12:58 | 28301 | 15 | 233 | 3 | ||
| 2026-02-07T12:58 | 28441 | 14 | -49.7 | |||
| 2026-02-07T12:59 | 28532 | 14 | 241 | 3 | ||
| 2026-02-07T12:59 | 28772 | 14 | -47.6 | 236 | 3 | |
| 2026-02-07T13:00 | 29073 | 13 | 104 | 3 | ||
| 2026-02-07T13:00 | 29225 | 13 | -49.2 | |||
| 2026-02-07T13:01 | 29278 | 13 | 123 | 1 | ||
| 2026-02-07T13:01 | 29382 | 12 | 16 | 4 | ||
| 2026-02-07T13:01 | 29491 | 12 | 6 | 3 | ||
| 2026-02-07T13:01 | 29549 | 12 | -48.1 | |||
| 2026-02-07T13:01 | 29661 | 12 | 51 | 3 | ||
| 2026-02-07T13:02 | 29770 | 12 | 98 | 5 | ||
| 2026-02-07T13:02 | 29884 | 11 | -49.7 | 104 | 5 | |
| 2026-02-07T13:02 | 30058 | 11 | 58 | 7 | ||
| 2026-02-07T13:03 | 30364 | 11 | 58 | 7 | ||
| 2026-02-07T13:04 | 30553 | 10 | 56 | 14 | ||
| 2026-02-07T13:04 | 30679 | 10 | -47.6 | |||
| 2026-02-07T13:04 | 30794 | 10 | -48.1 | 80 | 13 | |
| 2026-02-07T23:33 | 26 | 1005 | -2.1 | -2.9 | 360 | 2 |
| 2026-02-07T23:33 | 31 | 1004 | -2.0 | -3.3 | 0 | 0 |
| 2026-02-07T23:33 | 53 | 1001 | 31 | 4 | ||
| 2026-02-07T23:33 | 78 | 998 | -2.8 | -4.7 | ||
| 2026-02-07T23:33 | 143 | 990 | 9 | 7 | ||
| 2026-02-07T23:34 | 189 | 984 | 15 | 4 | ||
| 2026-02-07T23:34 | 233 | 979 | 49 | 6 | ||
| 2026-02-07T23:34 | 302 | 970 | -4.7 | -5.9 | ||
| 2026-02-07T23:34 | 306 | 970 | 21 | 9 | ||
| 2026-02-07T23:34 | 407 | 957 | 32 | 8 | ||
| 2026-02-07T23:35 | 545 | 941 | -6.4 | -7.5 | ||
| 2026-02-07T23:35 | 662 | 927 | -6.6 | -9.2 | ||
| 2026-02-07T23:35 | 685 | 924 | 11 | 11 | ||
| 2026-02-07T23:36 | 974 | 890 | 7 | 7 | ||
| 2026-02-07T23:36 | 993 | 888 | -8.6 | -10.2 | ||
| 2026-02-07T23:37 | 1079 | 878 | 38 | 7 | ||
| 2026-02-07T23:37 | 1246 | 860 | 69 | 8 | ||
| 2026-02-07T23:38 | 1354 | 848 | 72 | 10 | ||
| 2026-02-07T23:38 | 1360 | 847 | -10.1 | -11.8 | ||
| 2026-02-07T23:38 | 1559 | 825 | 104 | 12 | ||
| 2026-02-07T23:38 | 1630 | 818 | -10.6 | -11.5 | ||
| 2026-02-07T23:39 | 1877 | 792 | -10.9 | -11.9 | ||
| 2026-02-07T23:39 | 1896 | 790 | 159 | 10 | ||
| 2026-02-07T23:39 | 2037 | 776 | 187 | 10 | ||
| 2026-02-07T23:40 | 2167 | 763 | 194 | 15 | ||
| 2026-02-07T23:40 | 2304 | 749 | -14.1 | -15.4 | ||
| 2026-02-07T23:40 | 2328 | 747 | 211 | 15 | ||
| 2026-02-07T23:41 | 2516 | 728 | -15.7 | -17.9 | ||
| 2026-02-07T23:41 | 2668 | 714 | 220 | 15 | ||
| 2026-02-07T23:41 | 2700 | 711 | -17.2 | -19.3 | ||
| 2026-02-07T23:42 | 2912 | 691 | 216 | 12 | ||
| 2026-02-07T23:42 | 2967 | 686 | -19.5 | -22.1 | ||
| 2026-02-07T23:43 | 3216 | 663 | 226 | 16 | ||
| 2026-02-07T23:43 | 3227 | 662 | -21.6 | -23.6 | ||
| 2026-02-07T23:43 | 3301 | 655 | -22.3 | -24.4 | ||
| 2026-02-07T23:44 | 3384 | 648 | 229 | 16 | ||
| 2026-02-07T23:44 | 3415 | 645 | -23.4 | -25.3 | ||
| 2026-02-07T23:44 | 3535 | 635 | -24.1 | -27.6 | ||
| 2026-02-07T23:44 | 3636 | 626 | 229 | 18 | ||
| 2026-02-07T23:45 | 3697 | 621 | -24.7 | -31.3 | ||
| 2026-02-07T23:45 | 3722 | 619 | 225 | 22 | ||
| 2026-02-07T23:45 | 3799 | 612 | 218 | 19 | ||
| 2026-02-07T23:45 | 3880 | 605 | 216 | 25 | ||
| 2026-02-07T23:46 | 4005 | 595 | -24.8 | -34.3 | ||
| 2026-02-07T23:46 | 4238 | 576 | -25.5 | -35.2 | ||
| 2026-02-07T23:46 | 4245 | 576 | 245 | 24 | ||
| 2026-02-07T23:47 | 4548 | 552 | -26.5 | -38.9 | ||
| 2026-02-07T23:47 | 4614 | 547 | 246 | 31 | ||
| 2026-02-07T23:48 | 4791 | 534 | 249 | 35 | ||
| 2026-02-07T23:48 | 4974 | 520 | -28.2 | -43.4 | ||
| 2026-02-07T23:48 | 4981 | 520 | 247 | 40 | ||
| 2026-02-07T23:48 | 5090 | 512 | -27.7 | -45.9 | ||
| 2026-02-07T23:49 | 5172 | 506 | 248 | 47 | ||
| 2026-02-07T23:49 | 5243 | 501 | -28.0 | -48.7 | ||
| 2026-02-07T23:49 | 5282 | 498 | 248 | 48 | ||
| 2026-02-07T23:49 | 5321 | 496 | -27.7 | -51.0 | ||
| 2026-02-07T23:49 | 5406 | 490 | -27.2 | -57.3 | ||
| 2026-02-07T23:50 | 5511 | 483 | 250 | 57 | ||
| 2026-02-07T23:50 | 5565 | 479 | -28.3 | -60.4 | ||
| 2026-02-07T23:50 | 5714 | 469 | -28.1 | -68.4 | 249 | 64 |
| 2026-02-07T23:51 | 5964 | 453 | -29.9 | -69.6 | ||
| 2026-02-07T23:51 | 6130 | 443 | 252 | 66 | ||
| 2026-02-07T23:52 | 6384 | 427 | -31.8 | -70.9 | ||
| 2026-02-07T23:52 | 6458 | 423 | -31.6 | -70.8 | ||
| 2026-02-07T23:52 | 6544 | 418 | 250 | 77 | ||
| 2026-02-07T23:52 | 6666 | 410 | -32.2 | -71.2 | ||
| 2026-02-07T23:53 | 6774 | 404 | 251 | 79 | ||
| 2026-02-07T23:53 | 6918 | 396 | -34.1 | -72.4 | ||
| 2026-02-07T23:54 | 7091 | 386 | 252 | 81 | ||
| 2026-02-07T23:54 | 7192 | 381 | 253 | 78 | ||
| 2026-02-07T23:54 | 7349 | 372 | 253 | 81 | ||
| 2026-02-07T23:54 | 7355 | 372 | -36.7 | -74.2 | ||
| 2026-02-07T23:55 | 7538 | 362 | 254 | 79 | ||
| 2026-02-07T23:55 | 7641 | 357 | 255 | 80 | ||
| 2026-02-07T23:55 | 7677 | 355 | -38.0 | -75.0 | ||
| 2026-02-07T23:56 | 7962 | 340 | -40.0 | -68.9 | ||
| 2026-02-07T23:56 | 8007 | 338 | 252 | 83 | ||
| 2026-02-07T23:56 | 8143 | 331 | 255 | 85 | ||
| 2026-02-07T23:57 | 8176 | 330 | -40.5 | |||
| 2026-02-07T23:57 | 8343 | 322 | 256 | 82 | ||
| 2026-02-07T23:57 | 8470 | 316 | -41.8 | |||
| 2026-02-07T23:58 | 8572 | 311 | -41.2 | |||
| 2026-02-07T23:58 | 8680 | 306 | 255 | 82 | ||
| 2026-02-07T23:58 | 8718 | 305 | -41.8 | |||
| 2026-02-07T23:58 | 8892 | 297 | 256 | 90 | ||
| 2026-02-07T23:59 | 8954 | 294 | -41.3 | |||
| 2026-02-07T23:59 | 9139 | 286 | -41.0 | |||
| 2026-02-07T23:59 | 9233 | 282 | 253 | 97 | ||
| 2026-02-08T00:00 | 9363 | 277 | -40.1 | |||
| 2026-02-08T00:00 | 9530 | 270 | -40.1 | |||
| 2026-02-08T00:00 | 9602 | 267 | 255 | 104 | ||
| 2026-02-08T00:01 | 9743 | 262 | -40.6 | |||
| 2026-02-08T00:01 | 9802 | 260 | 257 | 99 | ||
| 2026-02-08T00:01 | 9999 | 252 | 257 | 98 | ||
| 2026-02-08T00:02 | 10177 | 246 | -41.6 | |||
| 2026-02-08T00:02 | 10251 | 243 | 255 | 99 | ||
| 2026-02-08T00:02 | 10360 | 239 | -41.4 | |||
| 2026-02-08T00:03 | 10612 | 231 | 257 | 99 | ||
| 2026-02-08T00:04 | 10897 | 221 | -44.0 | |||
| 2026-02-08T00:04 | 10993 | 218 | 256 | 96 | ||
| 2026-02-08T00:05 | 11216 | 211 | -43.9 | |||
| 2026-02-08T00:05 | 11300 | 208 | 255 | 91 | ||
| 2026-02-08T00:05 | 11346 | 207 | -44.3 | |||
| 2026-02-08T00:06 | 11655 | 197 | 254 | 98 | ||
| 2026-02-08T00:06 | 11778 | 194 | -47.1 | |||
| 2026-02-08T00:06 | 11934 | 189 | 253 | 97 | ||
| 2026-02-08T00:07 | 12142 | 183 | -47.6 | |||
| 2026-02-08T00:07 | 12380 | 177 | 256 | 97 | ||
| 2026-02-08T00:08 | 12686 | 169 | -50.9 | |||
| 2026-02-08T00:08 | 12818 | 165 | 259 | 93 | ||
| 2026-02-08T00:09 | 13238 | 155 | 260 | 91 | ||
| 2026-02-08T00:10 | 13364 | 152 | -55.0 | |||
| 2026-02-08T00:10 | 13632 | 146 | 260 | 83 | ||
| 2026-02-08T00:11 | 13704 | 144 | -56.2 | |||
| 2026-02-08T00:11 | 14000 | 137 | 261 | 82 | ||
| 2026-02-08T00:12 | 14326 | 130 | -59.2 | 262 | 78 | |
| 2026-02-08T00:13 | 14604 | 125 | 261 | 77 | ||
| 2026-02-08T00:13 | 14617 | 124 | -59.9 | 261 | 76 | |
| 2026-02-08T11:33 | 26 | 1006 | -2.6 | -6.9 | 270 | 3 |
| 2026-02-08T11:33 | 32 | 1006 | -2.2 | -8.7 | 0 | 0 |
| 2026-02-08T11:33 | 47 | 1004 | -1.8 | -10.1 | ||
| 2026-02-08T11:33 | 70 | 1001 | 297 | 4 | ||
| 2026-02-08T11:33 | 94 | 998 | -1.4 | -11.8 | ||
| 2026-02-08T11:34 | 266 | 977 | -2.0 | -14.8 | ||
| 2026-02-08T11:34 | 278 | 975 | 298 | 17 | ||
| 2026-02-08T11:34 | 511 | 947 | -3.8 | -17.7 | ||
| 2026-02-08T11:34 | 535 | 944 | 308 | 20 | ||
| 2026-02-08T11:35 | 788 | 914 | -5.9 | -21.1 | ||
| 2026-02-08T11:35 | 889 | 902 | 314 | 20 | ||
| 2026-02-08T11:36 | 1246 | 862 | 310 | 20 | ||
| 2026-02-08T11:36 | 1263 | 860 | -10.1 | -23.0 | ||
| 2026-02-08T11:37 | 1525 | 831 | -12.3 | -25.3 | ||
| 2026-02-08T11:37 | 1553 | 828 | 315 | 16 | ||
| 2026-02-08T11:38 | 1936 | 787 | 308 | 14 | ||
| 2026-02-08T11:38 | 1982 | 782 | -16.1 | -29.0 | ||
| 2026-02-08T11:39 | 2319 | 748 | 316 | 15 | ||
| 2026-02-08T11:40 | 2676 | 713 | -22.6 | -32.8 | ||
| 2026-02-08T11:40 | 2682 | 712 | 306 | 14 | ||
| 2026-02-08T11:41 | 3029 | 679 | 308 | 17 | ||
| 2026-02-08T11:42 | 3142 | 668 | -26.4 | -41.8 | ||
| 2026-02-08T11:42 | 3169 | 666 | 297 | 16 | ||
| 2026-02-08T11:42 | 3191 | 664 | -25.1 | -46.3 | ||
| 2026-02-08T11:42 | 3350 | 649 | -25.6 | -46.0 | ||
| 2026-02-08T11:43 | 3497 | 636 | 267 | 14 | ||
| 2026-02-08T11:44 | 3843 | 606 | 256 | 16 | ||
| 2026-02-08T11:44 | 3970 | 596 | -31.0 | -42.9 | ||
| 2026-02-08T11:45 | 4145 | 581 | -32.7 | -40.2 | ||
| 2026-02-08T11:45 | 4207 | 576 | 239 | 16 | ||
| 2026-02-08T11:45 | 4277 | 570 | -33.5 | -37.8 | ||
| 2026-02-08T11:46 | 4553 | 548 | 223 | 17 | ||
| 2026-02-08T11:46 | 4825 | 527 | -38.2 | -42.5 | ||
| 2026-02-08T11:47 | 4937 | 518 | 222 | 18 | ||
| 2026-02-08T11:47 | 5006 | 513 | -39.3 | -44.0 | ||
| 2026-02-08T11:47 | 5116 | 505 | -38.7 | -47.5 | ||
| 2026-02-08T11:47 | 5213 | 498 | 248 | 22 | ||
| 2026-02-08T11:48 | 5332 | 489 | -40.0 | -52.2 | ||
| 2026-02-08T11:48 | 5466 | 480 | -39.8 | |||
| 2026-02-08T11:48 | 5546 | 474 | -38.6 | |||
| 2026-02-08T11:48 | 5563 | 473 | 259 | 19 | ||
| 2026-02-08T11:49 | 5692 | 464 | -39.2 | |||
| 2026-02-08T11:49 | 5768 | 459 | 253 | 16 | ||
| 2026-02-08T11:49 | 5891 | 451 | -36.7 | 251 | 23 | |
| 2026-02-08T11:50 | 6119 | 436 | -37.6 | |||
| 2026-02-08T11:50 | 6170 | 433 | 261 | 25 | ||
| 2026-02-08T11:50 | 6232 | 429 | -37.6 | |||
| 2026-02-08T11:51 | 6433 | 417 | 267 | 27 | ||
| 2026-02-08T11:51 | 6644 | 404 | 268 | 27 | ||
| 2026-02-08T11:52 | 6857 | 392 | -37.8 | |||
| 2026-02-08T11:52 | 6933 | 388 | -37.8 | |||
| 2026-02-08T11:52 | 6994 | 384 | 262 | 34 | ||
| 2026-02-08T11:53 | 7022 | 383 | -36.8 | |||
| 2026-02-08T11:53 | 7210 | 373 | -37.3 | |||
| 2026-02-08T11:53 | 7277 | 369 | 258 | 39 | ||
| 2026-02-08T11:53 | 7296 | 368 | -36.4 | |||
| 2026-02-08T11:54 | 7443 | 360 | -36.7 | |||
| 2026-02-08T11:54 | 7534 | 355 | -36.9 | |||
| 2026-02-08T11:54 | 7690 | 348 | 257 | 44 | ||
| 2026-02-08T11:54 | 7704 | 347 | -36.6 | |||
| 2026-02-08T11:55 | 7823 | 341 | -36.8 | |||
| 2026-02-08T11:55 | 7945 | 335 | 257 | 49 | ||
| 2026-02-08T11:55 | 8120 | 327 | 255 | 49 | ||
| 2026-02-08T11:55 | 8135 | 326 | -38.2 | |||
| 2026-02-08T11:56 | 8284 | 319 | -39.1 | |||
| 2026-02-08T11:56 | 8465 | 311 | -39.8 | |||
| 2026-02-08T11:56 | 8509 | 309 | 256 | 58 | ||
| 2026-02-08T11:57 | 8624 | 303 | 257 | 56 | ||
| 2026-02-08T11:57 | 8639 | 303 | -37.4 | |||
| 2026-02-08T11:57 | 8762 | 297 | 256 | 61 | ||
| 2026-02-08T11:57 | 8854 | 294 | -36.5 | |||
| 2026-02-08T11:58 | 9062 | 285 | 256 | 59 | ||
| 2026-02-08T11:59 | 9236 | 278 | -35.8 | |||
| 2026-02-08T11:59 | 9401 | 271 | 254 | 61 | ||
| 2026-02-08T12:00 | 9609 | 263 | 251 | 65 | ||
| 2026-02-08T12:00 | 9721 | 259 | -36.3 | |||
| 2026-02-08T12:00 | 9866 | 254 | 249 | 67 | ||
| 2026-02-08T12:01 | 10213 | 241 | -39.8 | |||
| 2026-02-08T12:01 | 10252 | 240 | 248 | 71 | ||
| 2026-02-08T12:02 | 10628 | 227 | 249 | 72 | ||
| 2026-02-08T12:02 | 10677 | 225 | -42.9 | |||
| 2026-02-08T12:03 | 10974 | 216 | 254 | 77 | ||
| 2026-02-08T12:03 | 11007 | 214 | -43.6 | |||
| 2026-02-08T12:04 | 11268 | 206 | 252 | 72 | ||
| 2026-02-08T12:05 | 11367 | 203 | -42.8 | |||
| 2026-02-08T12:05 | 11590 | 197 | 252 | 74 | ||
| 2026-02-08T12:06 | 11737 | 192 | -45.3 | |||
| 2026-02-08T12:06 | 11929 | 187 | 252 | 73 | ||
| 2026-02-08T12:07 | 12143 | 181 | -46.8 | |||
| 2026-02-08T12:07 | 12313 | 176 | 258 | 73 | ||
| 2026-02-08T12:08 | 12548 | 170 | -48.9 | |||
| 2026-02-08T12:08 | 12577 | 169 | 259 | 73 | ||
| 2026-02-08T12:09 | 12773 | 164 | -47.6 | |||
| 2026-02-08T12:09 | 12858 | 162 | 260 | 69 | ||
| 2026-02-08T12:09 | 12915 | 161 | -46.0 | |||
| 2026-02-08T12:10 | 13141 | 156 | 256 | 64 | ||
| 2026-02-08T12:10 | 13318 | 151 | -46.9 | |||
| 2026-02-08T12:11 | 13414 | 149 | 256 | 64 | ||
| 2026-02-08T12:12 | 13731 | 142 | 254 | 65 | ||
| 2026-02-08T12:13 | 14078 | 135 | 257 | 65 | ||
| 2026-02-08T12:14 | 14470 | 127 | 260 | 65 | ||
| 2026-02-08T12:14 | 14528 | 126 | -55.7 | |||
| 2026-02-08T12:15 | 14833 | 120 | -57.5 | |||
| 2026-02-08T12:15 | 14852 | 119 | 261 | 61 | ||
| 2026-02-08T12:16 | 15189 | 113 | 259 | 58 | ||
| 2026-02-08T12:17 | 15490 | 108 | 255 | 60 | ||
| 2026-02-08T12:17 | 15572 | 106 | -61.0 | |||
| 2026-02-08T12:18 | 15715 | 104 | -60.1 | |||
| 2026-02-08T12:18 | 15756 | 103 | 255 | 62 | ||
| 2026-02-08T12:19 | 16015 | 99 | 261 | 62 | ||
| 2026-02-08T12:19 | 16046 | 99 | -61.0 | |||
| 2026-02-08T12:20 | 16265 | 95 | 263 | 55 | ||
| 2026-02-08T12:20 | 16434 | 93 | -59.3 | |||
| 2026-02-08T12:21 | 16556 | 91 | 263 | 54 | ||
| 2026-02-08T12:22 | 16815 | 87 | -59.2 | |||
| 2026-02-08T12:22 | 16888 | 86 | 262 | 47 | ||
| 2026-02-08T12:23 | 17232 | 82 | 265 | 46 | ||
| 2026-02-08T12:24 | 17454 | 79 | -61.5 | |||
| 2026-02-08T12:24 | 17541 | 78 | 266 | 45 | ||
| 2026-02-08T12:24 | 17712 | 76 | -61.7 | |||
| 2026-02-08T12:25 | 17801 | 74 | 270 | 44 | ||
| 2026-02-08T12:26 | 18059 | 71 | 265 | 41 | ||
| 2026-02-08T12:26 | 18189 | 70 | -60.8 | |||
| 2026-02-08T12:27 | 18272 | 69 | 264 | 42 | ||
| 2026-02-08T12:27 | 18417 | 67 | 268 | 42 | ||
| 2026-02-08T12:28 | 18691 | 65 | -59.5 | |||
| 2026-02-08T12:28 | 18741 | 64 | 271 | 37 | ||
| 2026-02-08T12:28 | 18808 | 63 | -58.6 | |||
| 2026-02-08T12:29 | 19094 | 61 | 272 | 37 | ||
| 2026-02-08T12:29 | 19135 | 60 | -57.7 | |||
| 2026-02-08T12:30 | 19394 | 58 | -58.2 | |||
| 2026-02-08T12:30 | 19426 | 57 | 271 | 36 | ||
| 2026-02-08T12:31 | 19730 | 55 | 277 | 31 | ||
| 2026-02-08T12:32 | 20000 | 52 | -58.0 | |||
| 2026-02-08T12:32 | 20245 | 50 | 279 | 32 | ||
| 2026-02-08T12:33 | 20528 | 48 | -57.0 | |||
| 2026-02-08T12:33 | 20582 | 48 | 270 | 23 | ||
| 2026-02-08T12:33 | 20894 | 46 | 246 | 17 | ||
| 2026-02-08T12:34 | 21207 | 43 | -59.2 | |||
| 2026-02-08T12:34 | 21292 | 43 | 239 | 23 | ||
| 2026-02-08T12:35 | 21455 | 42 | -57.8 | |||
| 2026-02-08T12:35 | 21501 | 41 | 237 | 25 | ||
| 2026-02-08T12:36 | 21815 | 39 | -58.7 | |||
| 2026-02-08T12:36 | 21879 | 39 | 221 | 28 | ||
| 2026-02-08T12:36 | 22091 | 38 | -58.8 | |||
| 2026-02-08T12:37 | 22203 | 37 | -57.8 | 238 | 28 | |
| 2026-02-08T23:33 | 26 | 1014 | 0.0 | -9.4 | 280 | 1 |
| 2026-02-08T23:33 | 32 | 1013 | -0.1 | -10.9 | 0 | 0 |
| 2026-02-08T23:33 | 68 | 1008 | 276 | 3 | ||
| 2026-02-08T23:34 | 188 | 993 | -1.3 | -12.6 | ||
| 2026-02-08T23:34 | 375 | 970 | 280 | 8 | ||
| 2026-02-08T23:34 | 468 | 959 | -3.2 | -12.9 | ||
| 2026-02-08T23:35 | 557 | 948 | 283 | 15 | ||
| 2026-02-08T23:35 | 691 | 932 | -5.0 | -13.3 | ||
| 2026-02-08T23:35 | 810 | 918 | -5.4 | -13.5 | ||
| 2026-02-08T23:36 | 927 | 905 | 302 | 17 | ||
| 2026-02-08T23:36 | 1202 | 873 | -8.5 | -15.5 | ||
| 2026-02-08T23:37 | 1252 | 868 | 306 | 15 | ||
| 2026-02-08T23:37 | 1511 | 839 | 310 | 13 | ||
| 2026-02-08T23:38 | 1607 | 828 | -12.2 | -17.6 | ||
| 2026-02-08T23:38 | 1722 | 816 | 310 | 13 | ||
| 2026-02-08T23:38 | 1824 | 805 | -13.7 | -19.4 | ||
| 2026-02-08T23:39 | 1994 | 787 | 311 | 16 | ||
| 2026-02-08T23:40 | 2274 | 759 | -16.8 | -22.6 | ||
| 2026-02-08T23:40 | 2280 | 758 | 319 | 19 | ||
| 2026-02-08T23:40 | 2502 | 736 | -16.5 | -25.9 | ||
| 2026-02-08T23:41 | 2533 | 733 | 326 | 24 | ||
| 2026-02-08T23:41 | 2558 | 731 | -15.9 | -27.6 | ||
| 2026-02-08T23:41 | 2624 | 724 | -14.3 | -30.1 | ||
| 2026-02-08T23:41 | 2650 | 722 | -13.5 | -30.7 | ||
| 2026-02-08T23:41 | 2655 | 721 | 324 | 31 | ||
| 2026-02-08T23:41 | 2767 | 711 | -13.2 | -31.0 | ||
| 2026-02-08T23:42 | 2911 | 697 | -13.8 | -31.0 | 328 | 27 |
| 2026-02-08T23:42 | 3126 | 678 | -13.9 | -39.0 | ||
| 2026-02-08T23:43 | 3236 | 668 | 330 | 26 | ||
| 2026-02-08T23:43 | 3387 | 655 | -14.7 | -50.7 | ||
| 2026-02-08T23:44 | 3568 | 639 | 331 | 28 | ||
| 2026-02-08T23:44 | 3659 | 632 | -17.2 | -36.5 | ||
| 2026-02-08T23:44 | 3692 | 629 | 328 | 28 | ||
| 2026-02-08T23:45 | 3864 | 615 | -18.7 | -40.4 | ||
| 2026-02-08T23:45 | 4009 | 603 | -19.6 | -35.1 | ||
| 2026-02-08T23:45 | 4032 | 601 | 328 | 28 | ||
| 2026-02-08T23:46 | 4282 | 581 | 332 | 31 | ||
| 2026-02-08T23:46 | 4368 | 574 | -21.9 | -36.7 | ||
| 2026-02-08T23:46 | 4379 | 573 | 331 | 34 | ||
| 2026-02-08T23:47 | 4689 | 549 | 329 | 33 | ||
| 2026-02-08T23:47 | 4709 | 548 | -24.3 | -40.9 | ||
| 2026-02-08T23:48 | 4979 | 528 | 330 | 34 | ||
| 2026-02-08T23:49 | 5103 | 519 | -27.4 | -43.1 | ||
| 2026-02-08T23:49 | 5233 | 510 | -27.5 | -45.7 | ||
| 2026-02-08T23:49 | 5255 | 508 | 329 | 37 | ||
| 2026-02-08T23:50 | 5516 | 490 | -27.8 | -48.5 | ||
| 2026-02-08T23:50 | 5521 | 490 | 335 | 35 | ||
| 2026-02-08T23:51 | 5820 | 470 | 334 | 36 | ||
| 2026-02-08T23:52 | 5981 | 459 | -30.4 | -52.2 | ||
| 2026-02-08T23:52 | 6165 | 447 | 334 | 38 | ||
| 2026-02-08T23:53 | 6345 | 436 | -32.9 | -56.1 | ||
| 2026-02-08T23:53 | 6562 | 423 | 333 | 36 | ||
| 2026-02-08T23:54 | 6995 | 397 | 335 | 38 | ||
| 2026-02-08T23:55 | 7205 | 385 | -40.0 | -60.0 | ||
| 2026-02-08T23:55 | 7424 | 373 | 330 | 39 | ||
| 2026-02-08T23:56 | 7817 | 352 | 328 | 41 | ||
| 2026-02-08T23:57 | 8159 | 334 | 326 | 42 | ||
| 2026-02-08T23:58 | 8434 | 320 | 327 | 40 | ||
| 2026-02-08T23:59 | 8649 | 310 | -51.8 | |||
| 2026-02-08T23:59 | 8722 | 307 | 323 | 39 | ||
| 2026-02-08T23:59 | 8751 | 305 | -52.2 | |||
| 2026-02-08T23:59 | 8833 | 301 | -51.7 | |||
| 2026-02-09T00:00 | 9007 | 293 | 318 | 40 | ||
| 2026-02-09T00:01 | 9173 | 286 | -53.0 | |||
| 2026-02-09T00:01 | 9206 | 284 | 319 | 40 | ||
| 2026-02-09T00:01 | 9290 | 281 | -52.5 | |||
| 2026-02-09T00:01 | 9343 | 278 | 315 | 35 | ||
| 2026-02-09T00:02 | 9721 | 263 | -52.9 | |||
| 2026-02-09T00:02 | 9727 | 262 | 301 | 44 | ||
| 2026-02-09T00:03 | 9988 | 252 | -52.7 | |||
| 2026-02-09T00:03 | 10120 | 247 | 293 | 45 | ||
| 2026-02-09T00:03 | 10301 | 240 | -54.2 | |||
| 2026-02-09T00:04 | 10499 | 233 | -52.7 | |||
| 2026-02-09T00:04 | 10504 | 232 | 286 | 52 | ||
| 2026-02-09T00:05 | 10656 | 227 | -53.1 | |||
| 2026-02-09T00:05 | 10769 | 223 | 282 | 56 | ||
| 2026-02-09T00:06 | 10874 | 220 | 283 | 60 | ||
| 2026-02-09T00:06 | 10878 | 219 | -48.7 | |||
| 2026-02-09T00:06 | 11116 | 212 | -46.9 | |||
| 2026-02-09T00:07 | 11160 | 210 | 281 | 61 | ||
| 2026-02-09T00:07 | 11362 | 204 | -47.3 | |||
| 2026-02-09T00:07 | 11490 | 200 | -46.3 | |||
| 2026-02-09T00:08 | 11651 | 195 | 284 | 62 | ||
| 2026-02-09T00:08 | 11872 | 189 | -48.9 | |||
| 2026-02-09T00:08 | 12028 | 184 | -49.3 | |||
| 2026-02-09T00:09 | 12095 | 182 | 284 | 61 | ||
| 2026-02-09T00:09 | 12124 | 182 | -49.0 | |||
| 2026-02-09T00:09 | 12258 | 178 | 283 | 58 | ||
| 2026-02-09T00:10 | 12299 | 177 | -45.6 | |||
| 2026-02-09T00:10 | 12406 | 174 | 278 | 54 | ||
| 2026-02-09T00:10 | 12416 | 174 | -44.5 | |||
| 2026-02-09T00:11 | 12513 | 171 | -43.7 | |||
| 2026-02-09T00:11 | 12578 | 170 | 277 | 50 | ||
| 2026-02-09T00:11 | 12713 | 166 | -44.5 | |||
| 2026-02-09T00:12 | 12966 | 160 | 280 | 54 | ||
| 2026-02-09T00:12 | 13295 | 152 | 278 | 51 | ||
| 2026-02-09T00:13 | 13645 | 145 | 272 | 50 | ||
| 2026-02-09T00:13 | 13680 | 144 | -48.1 | |||
| 2026-02-09T00:14 | 13819 | 141 | 268 | 47 | ||
| 2026-02-09T00:14 | 14020 | 137 | -49.3 | |||
| 2026-02-09T00:14 | 14108 | 135 | -49.0 | |||
| 2026-02-09T00:15 | 14141 | 134 | 260 | 49 | ||
| 2026-02-09T00:16 | 14334 | 130 | 263 | 47 | ||
| 2026-02-09T00:16 | 14374 | 129 | -49.6 | |||
| 2026-02-09T00:16 | 14556 | 126 | 258 | 45 | ||
| 2026-02-09T00:17 | 14752 | 122 | -51.7 | |||
| 2026-02-09T00:17 | 14905 | 119 | 256 | 49 | ||
| 2026-02-09T00:18 | 15332 | 112 | 259 | 51 | ||
| 2026-02-09T00:19 | 15632 | 106 | -58.4 | |||
| 2026-02-09T00:19 | 15773 | 104 | 260 | 52 | ||
| 2026-02-09T00:20 | 15890 | 102 | -59.4 | |||
| 2026-02-09T00:20 | 15961 | 101 | 266 | 51 | ||
| 2026-02-09T00:20 | 16103 | 99 | 267 | 47 | ||
| 2026-02-09T00:20 | 16214 | 97 | -60.8 | |||
| 2026-02-09T00:21 | 16466 | 93 | 266 | 47 | ||
| 2026-02-09T00:21 | 16475 | 93 | -59.9 | |||
| 2026-02-09T00:22 | 16790 | 88 | 273 | 42 | ||
| 2026-02-09T00:23 | 17103 | 84 | 270 | 45 | ||
| 2026-02-09T00:24 | 17431 | 80 | 268 | 47 | ||
| 2026-02-09T00:24 | 17486 | 79 | -64.9 | |||
| 2026-02-09T00:25 | 17636 | 77 | -64.5 | |||
| 2026-02-09T00:25 | 17684 | 76 | 267 | 47 | ||
| 2026-02-09T00:25 | 17852 | 74 | 270 | 46 | ||
| 2026-02-09T00:25 | 17868 | 74 | -64.0 | |||
| 2026-02-09T00:26 | 18045 | 72 | 272 | 42 | ||
| 2026-02-09T00:27 | 18314 | 69 | 278 | 42 | ||
| 2026-02-09T00:28 | 18573 | 66 | 276 | 40 | ||
| 2026-02-09T00:28 | 18619 | 65 | -67.1 | |||
| 2026-02-09T00:29 | 18752 | 64 | -63.8 | |||
| 2026-02-09T00:29 | 18859 | 63 | 271 | 40 | ||
| 2026-02-09T00:29 | 18935 | 62 | -63.7 | |||
| 2026-02-09T00:30 | 19199 | 60 | 279 | 36 | ||
| 2026-02-09T00:31 | 19556 | 56 | 269 | 33 | ||
| 2026-02-09T00:31 | 19623 | 56 | -65.4 | |||
| 2026-02-09T00:32 | 19904 | 53 | 271 | 31 | ||
| 2026-02-09T00:33 | 20187 | 51 | 265 | 31 | ||
| 2026-02-09T00:34 | 20358 | 49 | 273 | 32 | ||
| 2026-02-09T00:34 | 20434 | 49 | -62.7 | |||
| 2026-02-09T00:35 | 20616 | 47 | 274 | 33 | ||
| 2026-02-09T00:35 | 20779 | 46 | -56.8 | |||
| 2026-02-09T00:36 | 20945 | 45 | 261 | 18 | ||
| 2026-02-09T00:37 | 21270 | 43 | -54.4 | |||
| 2026-02-09T00:37 | 21331 | 42 | 240 | 23 | ||
| 2026-02-09T00:38 | 21717 | 40 | 248 | 27 | ||
| 2026-02-09T00:38 | 21994 | 38 | -58.0 | |||
| 2026-02-09T00:39 | 22077 | 38 | 257 | 29 | ||
| 2026-02-09T00:40 | 22410 | 36 | -56.0 | |||
| 2026-02-09T00:40 | 22427 | 36 | 248 | 19 | ||
| 2026-02-09T00:41 | 22793 | 34 | 225 | 21 | ||
| 2026-02-09T00:41 | 23045 | 32 | 232 | 23 | ||
| 2026-02-09T00:42 | 23142 | 32 | -57.4 | |||
| 2026-02-09T00:42 | 23340 | 31 | -57.4 | 249 | 24 | |
| 2026-02-09T11:33 | 26 | 1019 | 1.6 | -5.8 | 240 | 2 |
| 2026-02-09T11:33 | 32 | 1018 | 2.0 | -6.3 | 0 | 0 |
| 2026-02-09T11:33 | 47 | 1016 | 3.4 | -6.3 | ||
| 2026-02-09T11:33 | 53 | 1016 | 221 | 3 | ||
| 2026-02-09T11:33 | 91 | 1011 | 237 | 7 | ||
| 2026-02-09T11:33 | 180 | 1000 | 3.6 | -7.8 | ||
| 2026-02-09T11:34 | 331 | 981 | 274 | 7 | ||
| 2026-02-09T11:34 | 505 | 960 | 1.4 | -9.5 | ||
| 2026-02-09T11:34 | 511 | 960 | 292 | 8 | ||
| 2026-02-09T11:35 | 544 | 956 | 1.7 | -10.2 | ||
| 2026-02-09T11:35 | 611 | 948 | 289 | 13 | ||
| 2026-02-09T11:36 | 895 | 915 | -1.4 | -11.0 | ||
| 2026-02-09T11:36 | 901 | 914 | 275 | 14 | ||
| 2026-02-09T11:37 | 1238 | 876 | 269 | 14 | ||
| 2026-02-09T11:37 | 1444 | 853 | 272 | 14 | ||
| 2026-02-09T11:37 | 1462 | 851 | -5.8 | -12.7 | ||
| 2026-02-09T11:38 | 1702 | 825 | -7.6 | -13.8 | ||
| 2026-02-09T11:38 | 1815 | 813 | 284 | 15 | ||
| 2026-02-09T11:39 | 1945 | 800 | -7.4 | -16.8 | ||
| 2026-02-09T11:39 | 1988 | 796 | 290 | 9 | ||
| 2026-02-09T11:39 | 2019 | 792 | -6.3 | -18.9 | ||
| 2026-02-09T11:39 | 2137 | 781 | 322 | 9 | ||
| 2026-02-09T11:39 | 2230 | 771 | -5.7 | -20.2 | ||
| 2026-02-09T11:40 | 2318 | 763 | -5.6 | -22.1 | ||
| 2026-02-09T11:40 | 2336 | 761 | 316 | 17 | ||
| 2026-02-09T11:40 | 2404 | 754 | -5.0 | -19.2 | ||
| 2026-02-09T11:40 | 2593 | 736 | -6.2 | -21.0 | ||
| 2026-02-09T11:40 | 2630 | 733 | 318 | 21 | ||
| 2026-02-09T11:41 | 2831 | 714 | -8.6 | -22.7 | ||
| 2026-02-09T11:41 | 2876 | 710 | -6.8 | -35.7 | ||
| 2026-02-09T11:41 | 2925 | 706 | 326 | 20 | ||
| 2026-02-09T11:42 | 3072 | 692 | -6.6 | -44.9 | ||
| 2026-02-09T11:42 | 3151 | 685 | 319 | 22 | ||
| 2026-02-09T11:42 | 3315 | 671 | -6.6 | -48.6 | ||
| 2026-02-09T11:43 | 3486 | 657 | 319 | 21 | ||
| 2026-02-09T11:43 | 3530 | 653 | -7.6 | -49.3 | ||
| 2026-02-09T11:43 | 3676 | 641 | -7.8 | -49.4 | ||
| 2026-02-09T11:44 | 3822 | 629 | 306 | 23 | ||
| 2026-02-09T11:45 | 4161 | 602 | 304 | 23 | ||
| 2026-02-09T11:45 | 4257 | 594 | -12.8 | -49.3 | ||
| 2026-02-09T11:46 | 4521 | 574 | 312 | 23 | ||
| 2026-02-09T11:47 | 4737 | 557 | 310 | 23 | ||
| 2026-02-09T11:47 | 4871 | 548 | 312 | 23 | ||
| 2026-02-09T11:47 | 5070 | 533 | 304 | 25 | ||
| 2026-02-09T11:48 | 5154 | 527 | 307 | 21 | ||
| 2026-02-09T11:48 | 5278 | 518 | 311 | 25 | ||
| 2026-02-09T11:48 | 5388 | 511 | -20.9 | -58.4 | ||
| 2026-02-09T11:49 | 5517 | 502 | 305 | 25 | ||
| 2026-02-09T11:50 | 5875 | 478 | 301 | 26 | ||
| 2026-02-09T11:50 | 5978 | 471 | -25.1 | -61.3 | ||
| 2026-02-09T11:50 | 6099 | 463 | 302 | 26 | ||
| 2026-02-09T11:51 | 6231 | 455 | 302 | 27 | ||
| 2026-02-09T11:52 | 6609 | 432 | 298 | 27 | ||
| 2026-02-09T11:52 | 6662 | 428 | -30.9 | -62.3 | ||
| 2026-02-09T11:53 | 6999 | 408 | 297 | 27 | ||
| 2026-02-09T11:54 | 7350 | 388 | -36.8 | -64.5 | ||
| 2026-02-09T11:54 | 7362 | 387 | 299 | 29 | ||
| 2026-02-09T11:54 | 7604 | 374 | 297 | 29 | ||
| 2026-02-09T11:55 | 7754 | 366 | -40.0 | -65.3 | ||
| 2026-02-09T11:55 | 7976 | 354 | 297 | 31 | ||
| 2026-02-09T11:56 | 8258 | 340 | 293 | 31 | ||
| 2026-02-09T11:56 | 8347 | 335 | -44.7 | |||
| 2026-02-09T11:57 | 8631 | 321 | 294 | 35 | ||
| 2026-02-09T11:58 | 8847 | 311 | -48.5 | |||
| 2026-02-09T11:58 | 8967 | 305 | 285 | 35 | ||
| 2026-02-09T11:59 | 9342 | 288 | 291 | 35 | ||
| 2026-02-09T12:00 | 9649 | 275 | -55.3 | |||
| 2026-02-09T12:00 | 9723 | 271 | 286 | 35 | ||
| 2026-02-09T12:01 | 10126 | 255 | 283 | 38 | ||
| 2026-02-09T12:02 | 10343 | 246 | -60.3 | |||
| 2026-02-09T12:02 | 10541 | 238 | 283 | 44 | ||
| 2026-02-09T12:03 | 10719 | 231 | -58.9 | |||
| 2026-02-09T12:03 | 10869 | 226 | -56.3 | |||
| 2026-02-09T12:03 | 10918 | 224 | 275 | 49 | ||
| 2026-02-09T12:03 | 10966 | 223 | -56.3 | |||
| 2026-02-09T12:04 | 11094 | 218 | -55.7 | |||
| 2026-02-09T12:04 | 11181 | 215 | 276 | 54 | ||
| 2026-02-09T12:04 | 11383 | 209 | -54.5 | |||
| 2026-02-09T12:05 | 11510 | 204 | 275 | 58 | ||
| 2026-02-09T12:05 | 11516 | 204 | -52.8 | |||
| 2026-02-09T12:05 | 11749 | 197 | -53.7 | |||
| 2026-02-09T12:06 | 11827 | 195 | 273 | 65 | ||
| 2026-02-09T12:06 | 12046 | 188 | 274 | 62 | ||
| 2026-02-09T12:07 | 12210 | 183 | -54.1 | |||
| 2026-02-09T12:07 | 12431 | 177 | 269 | 65 | ||
| 2026-02-09T12:08 | 12573 | 173 | -54.5 | |||
| 2026-02-09T12:08 | 12805 | 167 | 268 | 64 | ||
| 2026-02-09T12:08 | 12818 | 167 | -53.6 | |||
| 2026-02-09T12:09 | 13079 | 160 | 273 | 58 | ||
| 2026-02-09T12:09 | 13090 | 160 | -55.1 | |||
| 2026-02-09T12:10 | 13368 | 153 | 268 | 60 | ||
| 2026-02-09T12:11 | 13620 | 147 | -55.8 | |||
| 2026-02-09T12:11 | 13654 | 146 | 272 | 60 | ||
| 2026-02-09T12:12 | 13939 | 140 | -57.8 | |||
| 2026-02-09T12:12 | 13944 | 140 | 271 | 59 | ||
| 2026-02-09T12:12 | 14067 | 137 | -57.4 | |||
| 2026-02-09T12:13 | 14218 | 134 | 269 | 59 | ||
| 2026-02-09T12:14 | 14393 | 130 | -58.4 | |||
| 2026-02-09T12:14 | 14462 | 129 | 266 | 55 | ||
| 2026-02-09T12:14 | 14564 | 127 | -57.2 | |||
| 2026-02-09T12:14 | 14662 | 125 | -57.2 | |||
| 2026-02-09T12:15 | 14732 | 123 | -56.1 | |||
| 2026-02-09T12:15 | 14768 | 123 | 262 | 59 | ||
| 2026-02-09T12:15 | 14878 | 121 | -55.6 | |||
| 2026-02-09T12:16 | 15034 | 118 | -55.6 | |||
| 2026-02-09T12:16 | 15066 | 117 | 268 | 59 | ||
| 2026-02-09T12:17 | 15368 | 112 | 264 | 62 | ||
| 2026-02-09T12:17 | 15517 | 109 | -58.6 | |||
| 2026-02-09T12:17 | 15546 | 108 | 267 | 66 | ||
| 2026-02-09T12:18 | 15863 | 103 | 274 | 60 | ||
| 2026-02-09T12:18 | 15943 | 102 | -59.8 | |||
| 2026-02-09T12:19 | 16098 | 99 | 274 | 49 | ||
| 2026-02-09T12:19 | 16252 | 97 | -61.1 | |||
| 2026-02-09T12:20 | 16484 | 93 | 275 | 42 | ||
| 2026-02-09T12:21 | 16783 | 89 | 275 | 44 | ||
| 2026-02-09T12:21 | 16944 | 87 | -61.9 | |||
| 2026-02-09T12:22 | 17067 | 85 | 266 | 35 | ||
| 2026-02-09T12:22 | 17076 | 85 | -61.5 | |||
| 2026-02-09T12:23 | 17375 | 81 | 274 | 37 | ||
| 2026-02-09T12:23 | 17514 | 79 | -59.7 | |||
| 2026-02-09T12:24 | 17692 | 77 | 267 | 31 | ||
| 2026-02-09T12:24 | 17772 | 76 | -58.2 | |||
| 2026-02-09T12:24 | 17985 | 73 | -59.2 | |||
| 2026-02-09T12:25 | 18088 | 72 | 260 | 33 | ||
| 2026-02-09T12:26 | 18437 | 68 | 261 | 28 | ||
| 2026-02-09T12:26 | 18502 | 68 | -59.7 | |||
| 2026-02-09T12:27 | 18716 | 65 | -60.5 | |||
| 2026-02-09T12:27 | 18764 | 65 | 255 | 23 | ||
| 2026-02-09T12:27 | 18940 | 63 | -61.3 | |||
| 2026-02-09T12:28 | 19071 | 62 | 252 | 26 | ||
| 2026-02-09T12:29 | 19389 | 59 | 246 | 30 | ||
| 2026-02-09T12:29 | 19429 | 58 | -62.5 | |||
| 2026-02-09T12:29 | 19658 | 56 | -62.8 | |||
| 2026-02-09T12:30 | 19736 | 55 | 258 | 30 | ||
| 2026-02-09T12:31 | 20005 | 53 | -63.8 | 260 | 27 | |
| 2026-02-09T12:32 | 20314 | 50 | 269 | 32 | ||
| 2026-02-09T12:32 | 20374 | 50 | -65.1 | |||
| 2026-02-09T12:33 | 20612 | 48 | 269 | 27 | ||
| 2026-02-09T12:33 | 20900 | 46 | -64.1 | |||
| 2026-02-09T12:34 | 20926 | 46 | 270 | 28 | ||
| 2026-02-09T12:34 | 21217 | 43 | 279 | 27 | ||
| 2026-02-09T12:35 | 21554 | 41 | 280 | 23 | ||
| 2026-02-09T12:36 | 21708 | 40 | -57.9 | |||
| 2026-02-09T12:36 | 21740 | 40 | 281 | 25 | ||
| 2026-02-09T12:37 | 21884 | 39 | 273 | 21 | ||
| 2026-02-09T12:37 | 21900 | 39 | -55.6 | |||
| 2026-02-09T12:37 | 21999 | 38 | -53.1 | |||
| 2026-02-09T12:37 | 22101 | 38 | 274 | 22 | ||
| 2026-02-09T12:38 | 22205 | 37 | 275 | 25 | ||
| 2026-02-09T12:39 | 22529 | 35 | 277 | 17 | ||
| 2026-02-09T12:39 | 22549 | 35 | -50.0 | |||
| 2026-02-09T12:40 | 22892 | 33 | 267 | 17 | ||
| 2026-02-09T12:40 | 23089 | 32 | 262 | 15 | ||
| 2026-02-09T12:41 | 23401 | 31 | -49.1 | 212 | 8 | |
| 2026-02-09T12:42 | 23658 | 30 | 199 | 8 | ||
| 2026-02-09T12:43 | 23994 | 28 | -53.4 | |||
| 2026-02-09T12:43 | 24063 | 28 | 222 | 13 | ||
| 2026-02-09T12:43 | 24294 | 27 | 241 | 15 | ||
| 2026-02-09T12:44 | 24692 | 25 | 281 | 14 | ||
| 2026-02-09T12:45 | 24923 | 24 | -53.5 | |||
| 2026-02-09T12:45 | 25057 | 24 | 278 | 15 | ||
| 2026-02-09T12:46 | 25112 | 24 | -53.2 | |||
| 2026-02-09T12:46 | 25220 | 23 | 285 | 19 | ||
| 2026-02-09T12:47 | 25478 | 22 | 269 | 13 | ||
| 2026-02-09T12:47 | 25600 | 22 | -45.1 | |||
| 2026-02-09T12:48 | 25848 | 21 | 313 | 11 | ||
| 2026-02-09T12:49 | 26332 | 20 | 321 | 12 | ||
| 2026-02-09T12:50 | 26667 | 19 | 305 | 8 | ||
| 2026-02-09T12:50 | 26882 | 18 | 305 | 4 | ||
| 2026-02-09T12:51 | 27022 | 18 | 286 | 5 | ||
| 2026-02-09T12:51 | 27134 | 17 | -54.6 | 266 | 5 | |
| 2026-02-09T12:51 | 27176 | 17 | -53.8 | 280 | 5 | |
| 2026-02-09T23:33 | 26 | 1023 | 0.6 | -3.9 | 240 | 1 |
| 2026-02-09T23:33 | 33 | 1022 | 0.4 | -4.8 | 0 | 0 |
| 2026-02-09T23:33 | 57 | 1019 | 180 | 3 | ||
| 2026-02-09T23:33 | 101 | 1014 | -0.4 | -6.6 | ||
| 2026-02-09T23:33 | 106 | 1013 | 203 | 2 | ||
| 2026-02-09T23:33 | 139 | 1009 | 2.6 | -8.4 | ||
| 2026-02-09T23:34 | 249 | 995 | 2.8 | -9.2 | ||
| 2026-02-09T23:34 | 282 | 991 | 50 | 3 | ||
| 2026-02-09T23:34 | 343 | 984 | 2.8 | -9.5 | ||
| 2026-02-09T23:34 | 387 | 978 | 86 | 1 | ||
| 2026-02-09T23:35 | 544 | 959 | 2.7 | -9.6 | ||
| 2026-02-09T23:35 | 607 | 952 | 179 | 3 | ||
| 2026-02-09T23:35 | 827 | 926 | 188 | 8 | ||
| 2026-02-09T23:35 | 833 | 926 | 0.9 | -4.0 | ||
| 2026-02-09T23:36 | 955 | 912 | 0.4 | -3.5 | ||
| 2026-02-09T23:36 | 1164 | 888 | 210 | 10 | ||
| 2026-02-09T23:37 | 1334 | 869 | -2.8 | -5.0 | ||
| 2026-02-09T23:37 | 1504 | 851 | -4.3 | -6.0 | ||
| 2026-02-09T23:37 | 1510 | 850 | 201 | 10 | ||
| 2026-02-09T23:38 | 1607 | 840 | -3.9 | -11.6 | ||
| 2026-02-09T23:38 | 1661 | 834 | -2.9 | -18.1 | ||
| 2026-02-09T23:38 | 1776 | 822 | 177 | 9 | ||
| 2026-02-09T23:38 | 1805 | 819 | -2.8 | -21.1 | ||
| 2026-02-09T23:38 | 1888 | 811 | -1.2 | -23.9 | ||
| 2026-02-09T23:39 | 1930 | 807 | 182 | 12 | ||
| 2026-02-09T23:39 | 2181 | 781 | -2.0 | -24.5 | ||
| 2026-02-09T23:39 | 2211 | 778 | 224 | 6 | ||
| 2026-02-09T23:39 | 2247 | 775 | -1.3 | -28.1 | ||
| 2026-02-09T23:40 | 2368 | 763 | 232 | 9 | ||
| 2026-02-09T23:40 | 2419 | 758 | -2.2 | -28.8 | ||
| 2026-02-09T23:40 | 2481 | 752 | -2.1 | -30.8 | ||
| 2026-02-09T23:41 | 2711 | 731 | 248 | 9 | ||
| 2026-02-09T23:41 | 2786 | 724 | -3.0 | -39.7 | ||
| 2026-02-09T23:42 | 3058 | 699 | 265 | 12 | ||
| 2026-02-09T23:42 | 3124 | 694 | -4.5 | -43.5 | ||
| 2026-02-09T23:43 | 3419 | 668 | 262 | 13 | ||
| 2026-02-09T23:43 | 3648 | 649 | 255 | 14 | ||
| 2026-02-09T23:44 | 3713 | 643 | -8.5 | -46.3 | ||
| 2026-02-09T23:44 | 3995 | 620 | 254 | 14 | ||
| 2026-02-09T23:45 | 4344 | 592 | 271 | 12 | ||
| 2026-02-09T23:46 | 4416 | 587 | -14.3 | -45.8 | ||
| 2026-02-09T23:46 | 4699 | 565 | 262 | 16 | ||
| 2026-02-09T23:47 | 4998 | 543 | 265 | 18 | ||
| 2026-02-09T23:48 | 5163 | 531 | -19.0 | -62.5 | ||
| 2026-02-09T23:48 | 5360 | 517 | 271 | 19 | ||
| 2026-02-09T23:48 | 5372 | 517 | -20.4 | -63.4 | ||
| 2026-02-09T23:49 | 5720 | 493 | 271 | 20 | ||
| 2026-02-09T23:50 | 6085 | 469 | -25.3 | -66.6 | 275 | 22 |
| 2026-02-09T23:51 | 6358 | 451 | -27.6 | -68.1 | ||
| 2026-02-09T23:51 | 6433 | 447 | -27.7 | -54.4 | ||
| 2026-02-09T23:51 | 6458 | 445 | 277 | 23 | ||
| 2026-02-09T23:51 | 6514 | 442 | -28.1 | -44.2 | ||
| 2026-02-09T23:52 | 6803 | 424 | 274 | 25 | ||
| 2026-02-09T23:53 | 6924 | 417 | -31.8 | -45.0 | ||
| 2026-02-09T23:53 | 6948 | 416 | 275 | 25 | ||
| 2026-02-09T23:53 | 7004 | 412 | -31.3 | -54.8 | ||
| 2026-02-09T23:54 | 7325 | 394 | 282 | 26 | ||
| 2026-02-09T23:54 | 7451 | 387 | -34.3 | -56.2 | ||
| 2026-02-09T23:55 | 7697 | 373 | 272 | 27 | ||
| 2026-02-09T23:56 | 8065 | 354 | 270 | 25 | ||
| 2026-02-09T23:56 | 8090 | 353 | -40.0 | -58.5 | ||
| 2026-02-09T23:57 | 8430 | 335 | 275 | 24 | ||
| 2026-02-09T23:58 | 8787 | 318 | 273 | 25 | ||
| 2026-02-09T23:58 | 8858 | 315 | -46.3 | |||
| 2026-02-09T23:58 | 9102 | 303 | 271 | 27 | ||
| 2026-02-09T23:59 | 9324 | 293 | 269 | 29 | ||
| 2026-02-10T00:00 | 9700 | 277 | 266 | 31 | ||
| 2026-02-10T00:00 | 9854 | 270 | -55.3 | |||
| 2026-02-10T00:01 | 10081 | 261 | 268 | 31 | ||
| 2026-02-10T00:02 | 10456 | 245 | -60.0 | |||
| 2026-02-10T00:02 | 10462 | 245 | 269 | 31 | ||
| 2026-02-10T00:03 | 10778 | 233 | -60.8 | |||
| 2026-02-10T00:03 | 10804 | 232 | 267 | 36 | ||
| 2026-02-10T00:03 | 10868 | 230 | -59.8 | |||
| 2026-02-10T00:03 | 10957 | 226 | -57.9 | |||
| 2026-02-10T00:03 | 10982 | 226 | 265 | 43 | ||
| 2026-02-10T00:04 | 11087 | 222 | -57.6 | |||
| 2026-02-10T00:04 | 11166 | 219 | 265 | 49 | ||
| 2026-02-10T00:04 | 11230 | 217 | -56.8 | |||
| 2026-02-10T00:04 | 11360 | 212 | 266 | 52 | ||
| 2026-02-10T00:04 | 11379 | 212 | -56.2 | |||
| 2026-02-10T00:05 | 11553 | 206 | 267 | 57 | ||
| 2026-02-10T00:06 | 11927 | 194 | 263 | 58 | ||
| 2026-02-10T00:07 | 12157 | 187 | -56.0 | |||
| 2026-02-10T00:07 | 12284 | 184 | 266 | 59 | ||
| 2026-02-10T00:08 | 12510 | 177 | 263 | 59 | ||
| 2026-02-10T00:08 | 12726 | 171 | 265 | 66 | ||
| 2026-02-10T00:09 | 12966 | 165 | -56.3 | |||
| 2026-02-10T00:09 | 13048 | 163 | 264 | 62 | ||
| 2026-02-10T00:10 | 13193 | 159 | -56.5 | |||
| 2026-02-10T00:10 | 13380 | 155 | 262 | 63 | ||
| 2026-02-10T00:10 | 13452 | 153 | -57.7 | |||
| 2026-02-10T00:11 | 13652 | 148 | -56.5 | |||
| 2026-02-10T00:11 | 13700 | 147 | 260 | 53 | ||
| 2026-02-10T00:12 | 13821 | 144 | -56.8 | |||
| 2026-02-10T00:12 | 13989 | 140 | -57.7 | |||
| 2026-02-10T00:12 | 14047 | 139 | 258 | 61 | ||
| 2026-02-10T00:12 | 14150 | 137 | -57.7 | |||
| 2026-02-10T00:13 | 14347 | 133 | -59.0 | |||
| 2026-02-10T00:13 | 14421 | 131 | 265 | 57 | ||
| 2026-02-10T00:14 | 14731 | 125 | 269 | 53 | ||
| 2026-02-10T00:14 | 14741 | 125 | -60.4 | |||
| 2026-02-10T00:15 | 15027 | 119 | 266 | 55 | ||
| 2026-02-10T00:16 | 15142 | 117 | -61.1 | |||
| 2026-02-10T00:16 | 15234 | 115 | 265 | 54 | ||
| 2026-02-10T00:16 | 15312 | 114 | -61.5 | |||
| 2026-02-10T00:17 | 15547 | 109 | 260 | 48 | ||
| 2026-02-10T00:17 | 15639 | 108 | -63.6 | |||
| 2026-02-10T00:18 | 15778 | 105 | 258 | 48 | ||
| 2026-02-10T00:18 | 15904 | 103 | -63.0 | |||
| 2026-02-10T00:18 | 15924 | 103 | 257 | 50 | ||
| 2026-02-10T00:19 | 16047 | 101 | 258 | 52 | ||
| 2026-02-10T00:19 | 16265 | 97 | -61.9 | |||
| 2026-02-10T00:19 | 16283 | 97 | 270 | 50 | ||
| 2026-02-10T00:20 | 16578 | 93 | -60.2 | |||
| 2026-02-10T00:20 | 16606 | 92 | 275 | 42 | ||
| 2026-02-10T00:21 | 16932 | 87 | 283 | 37 | ||
| 2026-02-10T00:22 | 17214 | 84 | 271 | 30 | ||
| 2026-02-10T00:22 | 17303 | 82 | -61.1 | |||
| 2026-02-10T00:23 | 17479 | 80 | -59.8 | |||
| 2026-02-10T00:23 | 17549 | 79 | 264 | 29 | ||
| 2026-02-10T00:24 | 17795 | 76 | -60.5 | |||
| 2026-02-10T00:24 | 17904 | 75 | 256 | 27 | ||
| 2026-02-10T00:25 | 18064 | 73 | -60.1 | |||
| 2026-02-10T00:25 | 18168 | 72 | 253 | 31 | ||
| 2026-02-10T00:26 | 18514 | 68 | 265 | 29 | ||
| 2026-02-10T00:27 | 18852 | 64 | 277 | 26 | ||
| 2026-02-10T00:27 | 18927 | 63 | -63.7 | |||
| 2026-02-10T00:28 | 19181 | 61 | 265 | 26 | ||
| 2026-02-10T00:28 | 19274 | 60 | -61.0 | |||
| 2026-02-10T00:29 | 19443 | 58 | 273 | 26 | ||
| 2026-02-10T00:29 | 19465 | 58 | -61.7 | |||
| 2026-02-10T00:30 | 19762 | 55 | 262 | 24 | ||
| 2026-02-10T00:30 | 19807 | 55 | -60.5 | |||
| 2026-02-10T00:31 | 20086 | 53 | 268 | 25 | ||
| 2026-02-10T00:31 | 20236 | 51 | -60.1 | |||
| 2026-02-10T00:32 | 20363 | 50 | 265 | 22 | ||
| 2026-02-10T00:33 | 20707 | 48 | 264 | 21 | ||
| 2026-02-10T00:34 | 21060 | 45 | 267 | 18 | ||
| 2026-02-10T00:34 | 21230 | 44 | -58.7 | |||
| 2026-02-10T00:35 | 21420 | 43 | 256 | 17 | ||
| 2026-02-10T00:35 | 21709 | 41 | -57.9 | |||
| 2026-02-10T00:35 | 21740 | 40 | 264 | 17 | ||
| 2026-02-10T00:36 | 22010 | 39 | 266 | 20 | ||
| 2026-02-10T00:37 | 22323 | 37 | 261 | 20 | ||
| 2026-02-10T00:37 | 22390 | 36 | -59.1 | |||
| 2026-02-10T00:38 | 22620 | 35 | 270 | 15 | ||
| 2026-02-10T00:39 | 22988 | 33 | 276 | 17 | ||
| 2026-02-10T00:39 | 23006 | 33 | -60.1 | |||
| 2026-02-10T00:40 | 23235 | 32 | 287 | 17 | ||
| 2026-02-10T00:40 | 23457 | 31 | -58.5 | |||
| 2026-02-10T00:41 | 23604 | 30 | 289 | 19 | ||
| 2026-02-10T00:41 | 23753 | 29 | -55.5 | |||
| 2026-02-10T00:41 | 23796 | 29 | 270 | 16 | ||
| 2026-02-10T00:42 | 24162 | 28 | 271 | 13 | ||
| 2026-02-10T00:43 | 24331 | 27 | -50.2 | |||
| 2026-02-10T00:43 | 24405 | 27 | 273 | 12 | ||
| 2026-02-10T00:43 | 24602 | 26 | 276 | 8 | ||
| 2026-02-10T00:44 | 24780 | 25 | 292 | 12 | ||
| 2026-02-10T00:44 | 24994 | 24 | 310 | 8 | ||
| 2026-02-10T00:44 | 25024 | 24 | -51.2 | |||
| 2026-02-10T00:45 | 25351 | 23 | 305 | 4 | ||
| 2026-02-10T00:45 | 25382 | 23 | -52.1 | |||
| 2026-02-10T00:46 | 25642 | 22 | 238 | 6 | ||
| 2026-02-10T00:47 | 26037 | 21 | -52.4 | 235 | 14 | |
| 2026-02-10T00:48 | 26293 | 20 | 231 | 12 | ||
| 2026-02-10T00:48 | 26525 | 19 | 221 | 6 | ||
| 2026-02-10T00:48 | 26562 | 19 | -49.3 | |||
| 2026-02-10T00:49 | 26952 | 18 | 230 | 7 | ||
| 2026-02-10T00:50 | 27211 | 17 | -51.4 | |||
| 2026-02-10T00:50 | 27362 | 17 | 277 | 9 | ||
| 2026-02-10T00:51 | 27561 | 16 | 307 | 8 | ||
| 2026-02-10T00:51 | 27721 | 16 | 315 | 9 | ||
| 2026-02-10T00:52 | 27931 | 15 | 347 | 6 | ||
| 2026-02-10T00:52 | 28190 | 15 | 5 | 4 | ||
| 2026-02-10T00:53 | 28235 | 15 | -50.8 | |||
| 2026-02-10T00:53 | 28412 | 14 | 85 | 1 | ||
| 2026-02-10T00:54 | 28688 | 14 | -52.5 | 59 | 2 | |
| 2026-02-10T00:54 | 28736 | 14 | 51 | 4 | ||
| 2026-02-10T00:54 | 28833 | 13 | 79 | 4 | ||
| 2026-02-10T00:55 | 29030 | 13 | 15 | 5 | ||
| 2026-02-10T00:55 | 29081 | 13 | -50.6 | 16 | 3 | |
| 2026-02-10T00:55 | 29391 | 12 | -52.0 | 319 | 3 | |
| 2026-02-10T00:56 | 29497 | 12 | 318 | 5 | ||
| 2026-02-10T00:56 | 29551 | 12 | 301 | 4 | ||
| 2026-02-10T00:56 | 29656 | 12 | 7 | 3 | ||
| 2026-02-10T00:56 | 29820 | 12 | -50.4 | 5 | 3 | |
| 2026-02-10T11:33 | 26 | 1016 | 4.0 | 0.0 | 230 | 0 |
| 2026-02-10T11:33 | 32 | 1015 | 4.5 | -1.1 | 0 | 0 |
| 2026-02-10T11:33 | 48 | 1013 | 5.9 | -1.5 | 282 | 3 |
| 2026-02-10T11:33 | 71 | 1010 | 271 | 6 | ||
| 2026-02-10T11:33 | 125 | 1003 | 6.6 | -2.3 | ||
| 2026-02-10T11:33 | 148 | 1001 | 310 | 1 | ||
| 2026-02-10T11:33 | 170 | 998 | 7.2 | -1.5 | ||
| 2026-02-10T11:34 | 417 | 969 | 220 | 6 | ||
| 2026-02-10T11:34 | 462 | 963 | 5.5 | -2.6 | ||
| 2026-02-10T11:34 | 519 | 956 | 5.3 | -2.5 | ||
| 2026-02-10T11:35 | 732 | 932 | 4.5 | -3.8 | ||
| 2026-02-10T11:35 | 743 | 931 | 220 | 15 | ||
| 2026-02-10T11:36 | 955 | 907 | 3.0 | -5.9 | ||
| 2026-02-10T11:36 | 1004 | 901 | 215 | 12 | ||
| 2026-02-10T11:37 | 1260 | 873 | 240 | 9 | ||
| 2026-02-10T11:37 | 1304 | 868 | 2.4 | -11.5 | ||
| 2026-02-10T11:37 | 1370 | 861 | 2.4 | -12.6 | ||
| 2026-02-10T11:37 | 1430 | 855 | 250 | 9 | ||
| 2026-02-10T11:38 | 1658 | 831 | 0.7 | -15.3 | ||
| 2026-02-10T11:38 | 1707 | 826 | 1.7 | -17.2 | ||
| 2026-02-10T11:38 | 1756 | 821 | 246 | 10 | ||
| 2026-02-10T11:39 | 1969 | 800 | 1.0 | -18.9 | ||
| 2026-02-10T11:39 | 2044 | 792 | 249 | 17 | ||
| 2026-02-10T11:39 | 2160 | 781 | 0.1 | -13.2 | ||
| 2026-02-10T11:40 | 2177 | 779 | 250 | 20 | ||
| 2026-02-10T11:40 | 2280 | 769 | 248 | 21 | ||
| 2026-02-10T11:40 | 2368 | 761 | -1.1 | -11.8 | ||
| 2026-02-10T11:40 | 2434 | 755 | 246 | 25 | ||
| 2026-02-10T11:41 | 2690 | 731 | 243 | 27 | ||
| 2026-02-10T11:42 | 2929 | 709 | -4.8 | -14.4 | ||
| 2026-02-10T11:42 | 2999 | 703 | 244 | 28 | ||
| 2026-02-10T11:43 | 3327 | 674 | 244 | 30 | ||
| 2026-02-10T11:44 | 3476 | 661 | -9.5 | -17.5 | ||
| 2026-02-10T11:44 | 3599 | 650 | -10.3 | -16.6 | ||
| 2026-02-10T11:44 | 3665 | 645 | 238 | 29 | ||
| 2026-02-10T11:44 | 3768 | 636 | -11.5 | -16.8 | ||
| 2026-02-10T11:45 | 3996 | 617 | 249 | 30 | ||
| 2026-02-10T11:45 | 4050 | 613 | -13.7 | -17.5 | ||
| 2026-02-10T11:46 | 4314 | 592 | 256 | 32 | ||
| 2026-02-10T11:47 | 4509 | 577 | -17.4 | -18.9 | ||
| 2026-02-10T11:47 | 4578 | 572 | 254 | 30 | ||
| 2026-02-10T11:48 | 4831 | 553 | -19.2 | -21.4 | ||
| 2026-02-10T11:48 | 4947 | 544 | 252 | 22 | ||
| 2026-02-10T11:48 | 5129 | 531 | -20.6 | -23.1 | ||
| 2026-02-10T11:49 | 5165 | 528 | 251 | 23 | ||
| 2026-02-10T11:49 | 5261 | 521 | -20.7 | -23.2 | ||
| 2026-02-10T11:49 | 5404 | 511 | 256 | 25 | ||
| 2026-02-10T11:50 | 5761 | 487 | 254 | 28 | ||
| 2026-02-10T11:50 | 5774 | 486 | -24.4 | -26.9 | ||
| 2026-02-10T11:51 | 6044 | 468 | -27.1 | -30.9 | ||
| 2026-02-10T11:51 | 6105 | 464 | 247 | 32 | ||
| 2026-02-10T11:51 | 6128 | 463 | -26.8 | -29.5 | ||
| 2026-02-10T11:52 | 6450 | 443 | 250 | 29 | ||
| 2026-02-10T11:53 | 6588 | 434 | -30.0 | -32.7 | ||
| 2026-02-10T11:53 | 6765 | 424 | 247 | 31 | ||
| 2026-02-10T11:53 | 6828 | 420 | -31.1 | -34.1 | ||
| 2026-02-10T11:54 | 6977 | 411 | 244 | 36 | ||
| 2026-02-10T11:55 | 7309 | 392 | 240 | 33 | ||
| 2026-02-10T11:55 | 7382 | 388 | -35.4 | -38.7 | ||
| 2026-02-10T11:56 | 7654 | 373 | 236 | 35 | ||
| 2026-02-10T11:57 | 7962 | 357 | -40.0 | -43.0 | ||
| 2026-02-10T11:57 | 7996 | 355 | 234 | 36 | ||
| 2026-02-10T11:57 | 8232 | 343 | 232 | 40 | ||
| 2026-02-10T11:58 | 8323 | 338 | -42.9 | |||
| 2026-02-10T11:58 | 8584 | 325 | 234 | 40 | ||
| 2026-02-10T11:59 | 8982 | 306 | 233 | 41 | ||
| 2026-02-10T12:00 | 9061 | 303 | -49.9 | |||
| 2026-02-10T12:00 | 9362 | 289 | 230 | 41 | ||
| 2026-02-10T12:02 | 9729 | 273 | 233 | 41 | ||
| 2026-02-10T12:02 | 10040 | 260 | 233 | 41 | ||
| 2026-02-10T12:03 | 10143 | 256 | 233 | 43 | ||
| 2026-02-10T12:03 | 10218 | 252 | -60.5 | |||
| 2026-02-10T12:03 | 10270 | 250 | 239 | 43 | ||
| 2026-02-10T12:03 | 10359 | 247 | -58.1 | |||
| 2026-02-10T12:03 | 10369 | 246 | 242 | 45 | ||
| 2026-02-10T12:04 | 10612 | 237 | 249 | 45 | ||
| 2026-02-10T12:04 | 10722 | 233 | -56.1 | |||
| 2026-02-10T12:05 | 10962 | 224 | 251 | 49 | ||
| 2026-02-10T12:06 | 11100 | 220 | -55.2 | |||
| 2026-02-10T12:06 | 11337 | 212 | 248 | 50 | ||
| 2026-02-10T12:07 | 11620 | 203 | 252 | 53 | ||
| 2026-02-10T12:07 | 11679 | 201 | -53.0 | |||
| 2026-02-10T12:08 | 11892 | 194 | 253 | 55 | ||
| 2026-02-10T12:08 | 11940 | 193 | -52.9 | |||
| 2026-02-10T12:08 | 12135 | 187 | 256 | 60 | ||
| 2026-02-10T12:09 | 12252 | 184 | -53.1 | |||
| 2026-02-10T12:09 | 12431 | 179 | -53.1 | |||
| 2026-02-10T12:09 | 12528 | 176 | 254 | 52 | ||
| 2026-02-10T12:10 | 12647 | 173 | -53.6 | |||
| 2026-02-10T12:10 | 12861 | 167 | 260 | 56 | ||
| 2026-02-10T12:11 | 13094 | 161 | -56.2 | |||
| 2026-02-10T12:11 | 13158 | 159 | 262 | 58 | ||
| 2026-02-10T12:11 | 13251 | 157 | -55.9 | |||
| 2026-02-10T12:12 | 13455 | 152 | -56.3 | |||
| 2026-02-10T12:12 | 13505 | 151 | 253 | 53 | ||
| 2026-02-10T12:13 | 13828 | 143 | 258 | 57 | ||
| 2026-02-10T12:13 | 13905 | 142 | -57.7 | |||
| 2026-02-10T12:14 | 14048 | 139 | 256 | 54 | ||
| 2026-02-10T12:15 | 14192 | 135 | -55.8 | |||
| 2026-02-10T12:15 | 14219 | 135 | 253 | 54 | ||
| 2026-02-10T12:16 | 14373 | 132 | 253 | 58 | ||
| 2026-02-10T12:17 | 14498 | 129 | 253 | 62 | ||
| 2026-02-10T12:18 | 14557 | 128 | -57.2 | |||
| 2026-02-10T12:18 | 14606 | 127 | 252 | 64 | ||
| 2026-02-10T12:19 | 14732 | 124 | 252 | 64 | ||
| 2026-02-10T12:20 | 14845 | 122 | 250 | 62 | ||
| 2026-02-10T12:21 | 14936 | 120 | -58.1 | |||
| 2026-02-10T12:21 | 14946 | 120 | 251 | 63 | ||
| 2026-02-10T12:22 | 15015 | 119 | -59.0 | 251 | 64 | |
| 2026-02-10T23:33 | 26 | 1008 | 1.5 | 1.2 | 120 | 1 |
| 2026-02-10T23:33 | 32 | 1008 | 1.3 | 0.9 | 0 | 0 |
| 2026-02-10T23:33 | 60 | 1004 | 1.1 | -0.2 | ||
| 2026-02-10T23:33 | 117 | 997 | 1.4 | -0.7 | ||
| 2026-02-10T23:33 | 167 | 991 | 5.7 | 0.5 | ||
| 2026-02-10T23:34 | 314 | 973 | 228 | 3 | ||
| 2026-02-10T23:34 | 410 | 962 | 5.7 | 4.2 | ||
| 2026-02-10T23:34 | 472 | 955 | 6.3 | 5.7 | ||
| 2026-02-10T23:35 | 524 | 949 | 208 | 13 | ||
| 2026-02-10T23:35 | 610 | 939 | 6.2 | 5.3 | ||
| 2026-02-10T23:35 | 645 | 935 | 7.2 | 4.8 | ||
| 2026-02-10T23:35 | 748 | 923 | 212 | 13 | ||
| 2026-02-10T23:36 | 841 | 913 | 7.6 | 2.7 | ||
| 2026-02-10T23:36 | 949 | 901 | 7.4 | 1.7 | ||
| 2026-02-10T23:36 | 1073 | 888 | 227 | 12 | ||
| 2026-02-10T23:37 | 1386 | 854 | 234 | 12 | ||
| 2026-02-10T23:38 | 1687 | 823 | 251 | 15 | ||
| 2026-02-10T23:39 | 1943 | 797 | 268 | 16 | ||
| 2026-02-10T23:39 | 1973 | 794 | -1.0 | -2.3 | ||
| 2026-02-10T23:39 | 2065 | 785 | 271 | 18 | ||
| 2026-02-10T23:40 | 2349 | 758 | 257 | 16 | ||
| 2026-02-10T23:41 | 2589 | 735 | 252 | 21 | ||
| 2026-02-10T23:42 | 2772 | 718 | 248 | 24 | ||
| 2026-02-10T23:42 | 2941 | 703 | 245 | 22 | ||
| 2026-02-10T23:43 | 3036 | 694 | 244 | 23 | ||
| 2026-02-10T23:44 | 3340 | 668 | 234 | 23 | ||
| 2026-02-10T23:44 | 3440 | 659 | -8.5 | -9.3 | ||
| 2026-02-10T23:45 | 3653 | 641 | 236 | 26 | ||
| 2026-02-10T23:45 | 3805 | 629 | 242 | 26 | ||
| 2026-02-10T23:46 | 4019 | 611 | 247 | 27 | ||
| 2026-02-10T23:46 | 4096 | 605 | -12.8 | -14.5 | ||
| 2026-02-10T23:47 | 4182 | 598 | 242 | 30 | ||
| 2026-02-10T23:47 | 4312 | 588 | 237 | 26 | ||
| 2026-02-10T23:48 | 4471 | 576 | 231 | 26 | ||
| 2026-02-10T23:49 | 4748 | 555 | 228 | 27 | ||
| 2026-02-10T23:50 | 5008 | 536 | 223 | 29 | ||
| 2026-02-10T23:50 | 5217 | 521 | -20.3 | -21.9 | ||
| 2026-02-10T23:51 | 5311 | 515 | 225 | 29 | ||
| 2026-02-10T23:51 | 5543 | 499 | 222 | 29 | ||
| 2026-02-10T23:52 | 5653 | 491 | 227 | 30 | ||
| 2026-02-10T23:52 | 5911 | 474 | 226 | 32 | ||
| 2026-02-10T23:53 | 6093 | 462 | 225 | 32 | ||
| 2026-02-10T23:53 | 6135 | 460 | -27.1 | -29.1 | ||
| 2026-02-10T23:54 | 6415 | 442 | 229 | 32 | ||
| 2026-02-10T23:54 | 6546 | 434 | 227 | 36 | ||
| 2026-02-10T23:55 | 6836 | 416 | 227 | 32 | ||
| 2026-02-10T23:56 | 6948 | 410 | 231 | 38 | ||
| 2026-02-10T23:56 | 7184 | 396 | 237 | 40 | ||
| 2026-02-10T23:57 | 7357 | 387 | 239 | 42 | ||
| 2026-02-10T23:58 | 7605 | 373 | -38.1 | -40.3 | ||
| 2026-02-10T23:58 | 7697 | 368 | 242 | 47 | ||
| 2026-02-10T23:58 | 7839 | 361 | -39.8 | -42.4 | ||
| 2026-02-10T23:59 | 7867 | 359 | -40.0 | -42.9 | ||
| 2026-02-10T23:59 | 7953 | 355 | 246 | 52 | ||
| 2026-02-10T23:59 | 8101 | 347 | 246 | 52 | ||
| 2026-02-11T00:00 | 8451 | 329 | 248 | 54 | ||
| 2026-02-11T00:01 | 8779 | 313 | 247 | 55 | ||
| 2026-02-11T00:02 | 8877 | 309 | -49.5 | |||
| 2026-02-11T00:02 | 8977 | 304 | 250 | 56 | ||
| 2026-02-11T00:02 | 9203 | 294 | 253 | 58 | ||
| 2026-02-11T00:03 | 9486 | 281 | 255 | 61 | ||
| 2026-02-11T00:04 | 9603 | 276 | 255 | 64 | ||
| 2026-02-11T00:04 | 9619 | 275 | -55.3 | |||
| 2026-02-11T00:05 | 9913 | 263 | 258 | 66 | ||
| 2026-02-11T00:05 | 10016 | 259 | -57.5 | |||
| 2026-02-11T00:06 | 10205 | 251 | 259 | 70 | ||
| 2026-02-11T00:07 | 10557 | 237 | 261 | 70 | ||
| 2026-02-11T00:07 | 10798 | 228 | -62.3 | |||
| 2026-02-11T00:08 | 10930 | 223 | 265 | 69 | ||
| 2026-02-11T00:08 | 11012 | 220 | -62.3 | |||
| 2026-02-11T00:08 | 11159 | 215 | -58.9 | |||
| 2026-02-11T00:08 | 11255 | 212 | 265 | 67 | ||
| 2026-02-11T00:09 | 11299 | 210 | -57.8 | |||
| 2026-02-11T00:09 | 11474 | 205 | -56.4 | |||
| 2026-02-11T00:09 | 11504 | 204 | 265 | 70 | ||
| 2026-02-11T00:10 | 11784 | 195 | 266 | 68 | ||
| 2026-02-11T00:10 | 11920 | 191 | 265 | 68 | ||
| 2026-02-11T00:11 | 12029 | 188 | 265 | 68 | ||
| 2026-02-11T00:11 | 12034 | 187 | -53.5 | |||
| 2026-02-11T00:11 | 12204 | 183 | 264 | 64 | ||
| 2026-02-11T00:12 | 12551 | 173 | 265 | 61 | ||
| 2026-02-11T00:12 | 12574 | 172 | -53.3 | |||
| 2026-02-11T00:13 | 12851 | 165 | 264 | 61 | ||
| 2026-02-11T00:14 | 13173 | 157 | -54.4 | |||
| 2026-02-11T00:14 | 13207 | 156 | 265 | 60 | ||
| 2026-02-11T00:15 | 13484 | 150 | 262 | 61 | ||
| 2026-02-11T00:16 | 13808 | 142 | 262 | 62 | ||
| 2026-02-11T00:17 | 14134 | 135 | 262 | 56 | ||
| 2026-02-11T00:17 | 14324 | 131 | -56.8 | |||
| 2026-02-11T00:18 | 14424 | 129 | 260 | 57 | ||
| 2026-02-11T00:18 | 14590 | 126 | 262 | 57 | ||
| 2026-02-11T00:18 | 14668 | 124 | -58.2 | |||
| 2026-02-11T00:19 | 14902 | 120 | 259 | 50 | ||
| 2026-02-11T00:20 | 15141 | 115 | -59.0 | |||
| 2026-02-11T00:20 | 15212 | 114 | 261 | 52 | ||
| 2026-02-11T00:21 | 15468 | 109 | -60.3 | |||
| 2026-02-11T00:21 | 15536 | 108 | 258 | 49 | ||
| 2026-02-11T00:22 | 15845 | 103 | 258 | 47 | ||
| 2026-02-11T00:22 | 15967 | 101 | -61.7 | |||
| 2026-02-11T00:23 | 16130 | 98 | 254 | 45 | ||
| 2026-02-11T00:24 | 16380 | 94 | -61.8 | |||
| 2026-02-11T00:24 | 16405 | 94 | 259 | 47 | ||
| 2026-02-11T00:25 | 16716 | 89 | 265 | 41 | ||
| 2026-02-11T00:26 | 16920 | 86 | -62.6 | |||
| 2026-02-11T00:26 | 16947 | 86 | 258 | 41 | ||
| 2026-02-11T00:26 | 17064 | 84 | 258 | 40 | ||
| 2026-02-11T00:27 | 17204 | 83 | 260 | 40 | ||
| 2026-02-11T00:27 | 17450 | 79 | 258 | 42 | ||
| 2026-02-11T00:27 | 17511 | 79 | -60.1 | |||
| 2026-02-11T00:28 | 17600 | 77 | 252 | 40 | ||
| 2026-02-11T00:29 | 17912 | 74 | -62.1 | |||
| 2026-02-11T00:29 | 17928 | 73 | 253 | 40 | ||
| 2026-02-11T00:30 | 18240 | 70 | -58.5 | |||
| 2026-02-11T00:30 | 18251 | 70 | 261 | 39 | ||
| 2026-02-11T00:31 | 18483 | 67 | -58.4 | |||
| 2026-02-11T00:31 | 18557 | 66 | 261 | 41 | ||
| 2026-02-11T00:31 | 18614 | 66 | -57.6 | |||
| 2026-02-11T00:32 | 18779 | 64 | 271 | 43 | ||
| 2026-02-11T00:32 | 18848 | 63 | -53.5 | |||
| 2026-02-11T00:32 | 18920 | 63 | -51.8 | |||
| 2026-02-11T00:32 | 19037 | 62 | 266 | 30 | ||
| 2026-02-11T00:33 | 19142 | 61 | -52.2 | |||
| 2026-02-11T00:33 | 19271 | 59 | 261 | 30 | ||
| 2026-02-11T00:34 | 19538 | 57 | 261 | 35 | ||
| 2026-02-11T00:34 | 19569 | 57 | -54.3 | |||
| 2026-02-11T00:34 | 19694 | 56 | -53.5 | |||
| 2026-02-11T00:35 | 19883 | 54 | 264 | 23 | ||
| 2026-02-11T00:35 | 20013 | 53 | -52.7 | |||
| 2026-02-11T00:36 | 20274 | 51 | 256 | 15 | ||
| 2026-02-11T00:37 | 20613 | 48 | 243 | 15 | ||
| 2026-02-11T00:38 | 20940 | 46 | 242 | 18 | ||
| 2026-02-11T00:38 | 21021 | 45 | -56.4 | |||
| 2026-02-11T00:38 | 21178 | 44 | -56.4 | 236 | 24 | |
| 2026-02-11T11:33 | 26 | 1007 | 1.6 | 1.6 | 0 | 0 |
| 2026-02-11T11:33 | 32 | 1007 | 2.1 | 1.7 | 37 | 1 |
| 2026-02-11T11:33 | 85 | 1000 | 6.5 | 0.6 | ||
| 2026-02-11T11:33 | 87 | 1000 | 270 | 3 | ||
| 2026-02-11T11:33 | 98 | 998 | 7.6 | 1.2 | ||
| 2026-02-11T11:34 | 201 | 986 | 16 | 3 | ||
| 2026-02-11T11:34 | 289 | 975 | 6.8 | -3.2 | ||
| 2026-02-11T11:34 | 366 | 966 | 14 | 6 | ||
| 2026-02-11T11:35 | 556 | 944 | 347 | 3 | ||
| 2026-02-11T11:35 | 669 | 931 | 304 | 3 | ||
| 2026-02-11T11:35 | 743 | 923 | 3.7 | -4.0 | ||
| 2026-02-11T11:35 | 777 | 919 | 299 | 5 | ||
| 2026-02-11T11:36 | 947 | 900 | 270 | 6 | ||
| 2026-02-11T11:36 | 1086 | 884 | 1.2 | -5.1 | ||
| 2026-02-11T11:36 | 1102 | 882 | 297 | 7 | ||
| 2026-02-11T11:37 | 1223 | 869 | 0.1 | -6.1 | ||
| 2026-02-11T11:37 | 1318 | 859 | 299 | 10 | ||
| 2026-02-11T11:37 | 1340 | 856 | -0.7 | -7.9 | ||
| 2026-02-11T11:37 | 1427 | 847 | -1.0 | -9.9 | ||
| 2026-02-11T11:37 | 1432 | 847 | 312 | 14 | ||
| 2026-02-11T11:38 | 1733 | 815 | -3.2 | -12.2 | ||
| 2026-02-11T11:38 | 1760 | 812 | 307 | 17 | ||
| 2026-02-11T11:39 | 1948 | 793 | -3.9 | -14.9 | 306 | 15 |
| 2026-02-11T11:40 | 2166 | 771 | -4.6 | -16.5 | ||
| 2026-02-11T11:40 | 2260 | 762 | 289 | 14 | ||
| 2026-02-11T11:40 | 2271 | 761 | -5.3 | -16.2 | ||
| 2026-02-11T11:40 | 2323 | 756 | -5.0 | -18.1 | ||
| 2026-02-11T11:41 | 2576 | 732 | 278 | 12 | ||
| 2026-02-11T11:42 | 2886 | 703 | 272 | 10 | ||
| 2026-02-11T11:42 | 3079 | 686 | 283 | 10 | ||
| 2026-02-11T11:43 | 3089 | 685 | -11.2 | -23.3 | ||
| 2026-02-11T11:43 | 3389 | 659 | -13.5 | -24.8 | ||
| 2026-02-11T11:43 | 3394 | 658 | 282 | 8 | ||
| 2026-02-11T11:44 | 3610 | 640 | -15.3 | -25.9 | ||
| 2026-02-11T11:44 | 3620 | 639 | 282 | 8 | ||
| 2026-02-11T11:45 | 3817 | 622 | -16.4 | -28.3 | ||
| 2026-02-11T11:45 | 3838 | 621 | 288 | 12 | ||
| 2026-02-11T11:45 | 3858 | 619 | -16.5 | -29.7 | ||
| 2026-02-11T11:45 | 3945 | 612 | -16.4 | -37.1 | ||
| 2026-02-11T11:46 | 4127 | 597 | 297 | 15 | ||
| 2026-02-11T11:47 | 4337 | 581 | -19.0 | -45.1 | ||
| 2026-02-11T11:47 | 4432 | 573 | 287 | 18 | ||
| 2026-02-11T11:47 | 4469 | 571 | -18.5 | -50.9 | ||
| 2026-02-11T11:48 | 4756 | 549 | 287 | 21 | ||
| 2026-02-11T11:49 | 5085 | 525 | -23.0 | -52.3 | ||
| 2026-02-11T11:49 | 5103 | 524 | 283 | 21 | ||
| 2026-02-11T11:49 | 5221 | 515 | 274 | 23 | ||
| 2026-02-11T11:50 | 5582 | 490 | 276 | 25 | ||
| 2026-02-11T11:50 | 5623 | 487 | -26.9 | -53.8 | ||
| 2026-02-11T11:51 | 5933 | 467 | -28.6 | -63.7 | 275 | 25 |
| 2026-02-11T11:52 | 6290 | 444 | 275 | 25 | ||
| 2026-02-11T11:53 | 6557 | 427 | -33.1 | -66.9 | ||
| 2026-02-11T11:53 | 6653 | 422 | 275 | 25 | ||
| 2026-02-11T11:54 | 7017 | 400 | 270 | 25 | ||
| 2026-02-11T11:55 | 7359 | 381 | 266 | 26 | ||
| 2026-02-11T11:56 | 7461 | 375 | -40.0 | -68.9 | ||
| 2026-02-11T11:56 | 7539 | 371 | 269 | 26 | ||
| 2026-02-11T11:57 | 7837 | 355 | 268 | 29 | ||
| 2026-02-11T11:57 | 7992 | 347 | -44.0 | |||
| 2026-02-11T11:57 | 8025 | 345 | 269 | 31 | ||
| 2026-02-11T11:58 | 8292 | 332 | 267 | 32 | ||
| 2026-02-11T11:59 | 8494 | 322 | 269 | 34 | ||
| 2026-02-11T11:59 | 8656 | 314 | -47.3 | |||
| 2026-02-11T12:00 | 8829 | 306 | -47.4 | |||
| 2026-02-11T12:00 | 8835 | 305 | 263 | 38 | ||
| 2026-02-11T12:00 | 8953 | 300 | 262 | 43 | ||
| 2026-02-11T12:00 | 9080 | 294 | 259 | 40 | ||
| 2026-02-11T12:01 | 9153 | 291 | -48.5 | |||
| 2026-02-11T12:01 | 9273 | 286 | -47.5 | |||
| 2026-02-11T12:01 | 9487 | 277 | 261 | 46 | ||
| 2026-02-11T12:02 | 9645 | 270 | -45.0 | |||
| 2026-02-11T12:02 | 9815 | 263 | 259 | 52 | ||
| 2026-02-11T12:03 | 9927 | 259 | -45.0 | |||
| 2026-02-11T12:03 | 10004 | 256 | 259 | 55 | ||
| 2026-02-11T12:04 | 10354 | 243 | 258 | 56 | ||
| 2026-02-11T12:04 | 10474 | 239 | -45.0 | |||
| 2026-02-11T12:05 | 10666 | 232 | -45.2 | |||
| 2026-02-11T12:05 | 10684 | 231 | 262 | 56 | ||
| 2026-02-11T12:05 | 10880 | 225 | -44.8 | |||
| 2026-02-11T12:06 | 11011 | 220 | 260 | 59 | ||
| 2026-02-11T12:06 | 11211 | 214 | 259 | 61 | ||
| 2026-02-11T12:07 | 11433 | 207 | -45.4 | |||
| 2026-02-11T12:07 | 11556 | 203 | 260 | 64 | ||
| 2026-02-11T12:08 | 11910 | 192 | 261 | 65 | ||
| 2026-02-11T12:08 | 12048 | 189 | -47.8 | |||
| 2026-02-11T12:09 | 12263 | 182 | 257 | 70 | ||
| 2026-02-11T12:09 | 12369 | 180 | 259 | 68 | ||
| 2026-02-11T12:10 | 12450 | 177 | -49.3 | |||
| 2026-02-11T12:10 | 12483 | 176 | 261 | 73 | ||
| 2026-02-11T12:11 | 12819 | 168 | 263 | 72 | ||
| 2026-02-11T12:11 | 13082 | 161 | -53.0 | |||
| 2026-02-11T12:12 | 13192 | 158 | 265 | 67 | ||
| 2026-02-11T12:13 | 13523 | 150 | 262 | 67 | ||
| 2026-02-11T12:13 | 13531 | 150 | -53.5 | |||
| 2026-02-11T12:14 | 13851 | 143 | 261 | 68 | ||
| 2026-02-11T12:14 | 13994 | 140 | -55.1 | |||
| 2026-02-11T12:15 | 14195 | 135 | 266 | 68 | ||
| 2026-02-11T12:16 | 14452 | 130 | -57.8 | |||
| 2026-02-11T12:16 | 14510 | 129 | 267 | 69 | ||
| 2026-02-11T12:17 | 14835 | 122 | 269 | 66 | ||
| 2026-02-11T12:17 | 14943 | 120 | -61.3 | |||
| 2026-02-11T12:17 | 15072 | 118 | 269 | 63 | ||
| 2026-02-11T12:18 | 15255 | 114 | -62.3 | |||
| 2026-02-11T12:18 | 15273 | 114 | 271 | 63 | ||
| 2026-02-11T12:19 | 15432 | 111 | 276 | 62 | ||
| 2026-02-11T12:20 | 15740 | 106 | 275 | 56 | ||
| 2026-02-11T12:21 | 16035 | 101 | 276 | 54 | ||
| 2026-02-11T12:21 | 16070 | 100 | -62.0 | |||
| 2026-02-11T12:21 | 16100 | 100 | -62.1 | |||
| 2026-02-11T12:21 | 16310 | 96 | 279 | 52 | ||
| 2026-02-11T12:22 | 16485 | 94 | -62.8 | |||
| 2026-02-11T12:22 | 16649 | 91 | 278 | 48 | ||
| 2026-02-11T12:23 | 16987 | 86 | 279 | 41 | ||
| 2026-02-11T12:24 | 17064 | 85 | -60.4 | |||
| 2026-02-11T12:24 | 17334 | 82 | 271 | 34 | ||
| 2026-02-11T12:25 | 17668 | 77 | -59.8 | |||
| 2026-02-11T12:25 | 17749 | 76 | 256 | 34 | ||
| 2026-02-11T12:26 | 18131 | 72 | 249 | 32 | ||
| 2026-02-11T12:27 | 18369 | 69 | 249 | 35 | ||
| 2026-02-11T12:28 | 18727 | 65 | 247 | 37 | ||
| 2026-02-11T12:28 | 18736 | 65 | -64.6 | |||
| 2026-02-11T12:29 | 18993 | 62 | -65.2 | |||
| 2026-02-11T12:29 | 19002 | 62 | 256 | 40 | ||
| 2026-02-11T12:29 | 19141 | 61 | 263 | 44 | ||
| 2026-02-11T12:30 | 19315 | 59 | -63.0 | |||
| 2026-02-11T12:30 | 19432 | 58 | 271 | 40 | ||
| 2026-02-11T12:30 | 19527 | 57 | -63.7 | |||
| 2026-02-11T12:31 | 19610 | 56 | -61.3 | |||
| 2026-02-11T12:31 | 19713 | 55 | 283 | 39 | ||
| 2026-02-11T12:31 | 19785 | 55 | -56.3 | |||
| 2026-02-11T12:32 | 19910 | 54 | -53.5 | |||
| 2026-02-11T12:32 | 19938 | 54 | 273 | 28 | ||
| 2026-02-11T12:32 | 20081 | 52 | -52.8 | |||
| 2026-02-11T12:33 | 20245 | 51 | 270 | 26 | ||
| 2026-02-11T12:34 | 20597 | 48 | 245 | 20 | ||
| 2026-02-11T12:34 | 20636 | 48 | -52.1 | |||
| 2026-02-11T12:35 | 20953 | 46 | 234 | 22 | ||
| 2026-02-11T12:35 | 21206 | 44 | -55.5 | |||
| 2026-02-11T12:36 | 21252 | 44 | 246 | 24 | ||
| 2026-02-11T12:36 | 21492 | 42 | -54.7 | |||
| 2026-02-11T12:37 | 21630 | 41 | 255 | 34 | ||
| 2026-02-11T12:37 | 21675 | 41 | -54.9 | |||
| 2026-02-11T12:37 | 21754 | 40 | 258 | 30 | ||
| 2026-02-11T12:37 | 21788 | 40 | -52.6 | |||
| 2026-02-11T12:37 | 21918 | 39 | 266 | 23 | ||
| 2026-02-11T12:37 | 21953 | 39 | -49.7 | |||
| 2026-02-11T12:38 | 22226 | 38 | -49.9 | |||
| 2026-02-11T12:38 | 22278 | 37 | 268 | 25 | ||
| 2026-02-11T12:39 | 22618 | 35 | 272 | 23 | ||
| 2026-02-11T12:40 | 22714 | 35 | -49.3 | |||
| 2026-02-11T12:40 | 22962 | 34 | 277 | 27 | ||
| 2026-02-11T12:40 | 22981 | 33 | -50.3 | |||
| 2026-02-11T12:41 | 23303 | 32 | -48.3 | 278 | 24 | |
| 2026-02-11T12:42 | 23688 | 30 | 284 | 21 | ||
| 2026-02-11T12:43 | 24091 | 28 | 280 | 21 | ||
| 2026-02-11T12:44 | 24397 | 27 | -51.8 | |||
| 2026-02-11T12:45 | 24495 | 27 | 274 | 20 | ||
| 2026-02-11T12:45 | 24818 | 25 | -52.9 | |||
| 2026-02-11T12:46 | 24869 | 25 | 289 | 17 | ||
| 2026-02-11T12:46 | 25026 | 24 | 276 | 13 | ||
| 2026-02-11T12:46 | 25106 | 24 | -53.3 | |||
| 2026-02-11T12:47 | 25351 | 23 | 269 | 8 | ||
| 2026-02-11T12:48 | 25631 | 22 | 256 | 13 | ||
| 2026-02-11T12:48 | 25669 | 22 | -56.3 | 263 | 13 | |
| 2026-02-11T23:33 | 26 | 1013 | 0.7 | 0.7 | 270 | 0 |
| 2026-02-11T23:33 | 37 | 1012 | 1.1 | -0.1 | 0 | 0 |
| 2026-02-11T23:33 | 102 | 1004 | 2.0 | -2.7 | ||
| 2026-02-11T23:33 | 135 | 1000 | 3.6 | -6.1 | ||
| 2026-02-11T23:33 | 149 | 998 | 40 | 5 | ||
| 2026-02-11T23:34 | 387 | 969 | 35 | 3 | ||
| 2026-02-11T23:35 | 554 | 949 | 1.4 | -7.6 | ||
| 2026-02-11T23:35 | 683 | 934 | 282 | 1 | ||
| 2026-02-11T23:35 | 866 | 913 | 320 | 3 | ||
| 2026-02-11T23:36 | 1018 | 896 | -2.3 | -11.6 | ||
| 2026-02-11T23:36 | 1041 | 893 | 317 | 8 | ||
| 2026-02-11T23:36 | 1156 | 880 | -2.6 | -14.1 | ||
| 2026-02-11T23:37 | 1247 | 870 | 302 | 14 | ||
| 2026-02-11T23:37 | 1270 | 868 | -3.0 | -11.2 | ||
| 2026-02-11T23:37 | 1347 | 859 | -2.7 | -11.2 | ||
| 2026-02-11T23:37 | 1484 | 845 | 263 | 9 | ||
| 2026-02-11T23:37 | 1520 | 841 | -3.7 | -9.3 | ||
| 2026-02-11T23:38 | 1708 | 821 | 247 | 14 | ||
| 2026-02-11T23:38 | 1719 | 820 | -5.0 | -6.4 | ||
| 2026-02-11T23:38 | 1889 | 802 | 241 | 12 | ||
| 2026-02-11T23:39 | 1962 | 795 | -6.8 | -7.1 | ||
| 2026-02-11T23:39 | 2141 | 777 | -7.9 | -8.4 | ||
| 2026-02-11T23:39 | 2237 | 767 | 243 | 13 | ||
| 2026-02-11T23:40 | 2415 | 750 | -10.2 | -12.7 | ||
| 2026-02-11T23:40 | 2547 | 737 | -11.1 | -19.0 | ||
| 2026-02-11T23:40 | 2586 | 733 | 263 | 10 | ||
| 2026-02-11T23:41 | 2680 | 724 | -11.1 | -26.9 | ||
| 2026-02-11T23:41 | 2786 | 714 | -11.4 | -28.4 | 278 | 15 |
| 2026-02-11T23:41 | 2916 | 702 | -12.1 | -31.1 | ||
| 2026-02-11T23:41 | 2945 | 699 | 286 | 15 | ||
| 2026-02-11T23:42 | 2987 | 696 | -11.2 | -33.5 | ||
| 2026-02-11T23:42 | 3102 | 685 | -10.7 | -26.9 | ||
| 2026-02-11T23:42 | 3317 | 666 | 283 | 17 | ||
| 2026-02-11T23:43 | 3598 | 642 | -14.3 | -28.1 | ||
| 2026-02-11T23:43 | 3686 | 635 | 286 | 18 | ||
| 2026-02-11T23:44 | 3869 | 620 | -16.0 | -29.6 | ||
| 2026-02-11T23:44 | 4053 | 605 | 285 | 20 | ||
| 2026-02-11T23:45 | 4160 | 596 | -17.2 | -32.2 | ||
| 2026-02-11T23:45 | 4401 | 577 | 284 | 20 | ||
| 2026-02-11T23:46 | 4595 | 563 | -20.6 | -35.1 | ||
| 2026-02-11T23:46 | 4646 | 559 | 288 | 22 | ||
| 2026-02-11T23:47 | 4871 | 542 | -22.7 | -37.0 | ||
| 2026-02-11T23:47 | 4985 | 534 | 286 | 22 | ||
| 2026-02-11T23:48 | 5260 | 514 | 284 | 25 | ||
| 2026-02-11T23:49 | 5586 | 491 | -28.8 | -39.5 | ||
| 2026-02-11T23:49 | 5614 | 489 | 279 | 25 | ||
| 2026-02-11T23:50 | 5881 | 471 | -30.5 | -43.8 | ||
| 2026-02-11T23:50 | 5951 | 466 | 276 | 28 | ||
| 2026-02-11T23:51 | 6297 | 444 | 277 | 32 | ||
| 2026-02-11T23:52 | 6569 | 427 | -35.8 | -48.1 | ||
| 2026-02-11T23:52 | 6616 | 424 | 279 | 33 | ||
| 2026-02-11T23:53 | 6822 | 412 | 278 | 33 | ||
| 2026-02-11T23:53 | 7090 | 396 | -40.0 | -52.2 | ||
| 2026-02-11T23:53 | 7113 | 395 | -40.0 | -52.5 | ||
| 2026-02-11T23:54 | 7152 | 392 | 280 | 34 | ||
| 2026-02-11T23:54 | 7242 | 387 | 276 | 31 | ||
| 2026-02-11T23:55 | 7493 | 373 | -42.7 | |||
| 2026-02-11T23:55 | 7575 | 369 | 272 | 33 | ||
| 2026-02-11T23:56 | 7913 | 350 | 271 | 36 | ||
| 2026-02-11T23:56 | 8013 | 345 | -46.6 | |||
| 2026-02-11T23:57 | 8184 | 336 | 269 | 38 | ||
| 2026-02-11T23:57 | 8310 | 330 | -48.5 | |||
| 2026-02-11T23:58 | 8531 | 319 | 267 | 39 | ||
| 2026-02-11T23:58 | 8667 | 313 | -51.1 | |||
| 2026-02-11T23:59 | 8841 | 304 | -51.7 | |||
| 2026-02-11T23:59 | 8864 | 303 | 271 | 40 | ||
| 2026-02-11T23:59 | 8945 | 299 | -51.7 | |||
| 2026-02-12T00:00 | 9162 | 290 | 270 | 46 | ||
| 2026-02-12T00:00 | 9192 | 288 | -51.1 | |||
| 2026-02-12T00:00 | 9335 | 282 | -50.6 | |||
| 2026-02-12T00:00 | 9463 | 277 | -50.0 | |||
| 2026-02-12T00:01 | 9486 | 276 | 270 | 44 | ||
| 2026-02-12T00:01 | 9705 | 266 | -48.5 | |||
| 2026-02-12T00:01 | 9808 | 262 | -47.8 | |||
| 2026-02-12T00:02 | 9843 | 261 | 267 | 47 | ||
| 2026-02-12T00:02 | 9983 | 256 | 267 | 51 | ||
| 2026-02-12T00:02 | 10006 | 255 | -47.1 | |||
| 2026-02-12T00:02 | 10105 | 251 | -46.3 | |||
| 2026-02-12T00:02 | 10176 | 248 | -44.6 | |||
| 2026-02-12T00:03 | 10254 | 245 | 265 | 55 | ||
| 2026-02-12T00:03 | 10418 | 239 | -43.4 | |||
| 2026-02-12T00:03 | 10504 | 236 | 266 | 55 | ||
| 2026-02-12T00:04 | 10610 | 233 | -44.7 | |||
| 2026-02-12T00:04 | 10707 | 229 | -44.4 | |||
| 2026-02-12T00:04 | 10831 | 225 | -44.4 | |||
| 2026-02-12T00:04 | 10847 | 224 | 269 | 56 | ||
| 2026-02-12T00:05 | 10992 | 220 | -43.7 | |||
| 2026-02-12T00:05 | 11076 | 217 | 264 | 58 | ||
| 2026-02-12T00:05 | 11138 | 215 | -43.2 | |||
| 2026-02-12T00:06 | 11345 | 209 | -43.2 | |||
| 2026-02-12T00:06 | 11402 | 207 | 265 | 62 | ||
| 2026-02-12T00:07 | 11729 | 197 | 264 | 58 | ||
| 2026-02-12T00:07 | 11837 | 194 | -42.9 | |||
| 2026-02-12T00:08 | 12134 | 185 | 266 | 65 | ||
| 2026-02-12T00:08 | 12201 | 184 | -45.0 | |||
| 2026-02-12T00:08 | 12221 | 183 | -45.0 | 269 | 65 | |
| 2026-02-12T11:33 | 26 | 1013 | 2.9 | -3.7 | 200 | 0 |
| 2026-02-12T11:33 | 31 | 1013 | 3.4 | -6.0 | 0 | 0 |
| 2026-02-12T11:33 | 46 | 1011 | 299 | 3 | ||
| 2026-02-12T11:33 | 56 | 1009 | 5.8 | -8.1 | ||
| 2026-02-12T11:33 | 66 | 1008 | 6.3 | -8.0 | ||
| 2026-02-12T11:33 | 76 | 1007 | 287 | 7 | ||
| 2026-02-12T11:33 | 149 | 998 | 273 | 5 | ||
| 2026-02-12T11:34 | 202 | 992 | 7.2 | -9.2 | ||
| 2026-02-12T11:34 | 329 | 976 | 295 | 10 | ||
| 2026-02-12T11:34 | 445 | 963 | 5.5 | -10.3 | ||
| 2026-02-12T11:35 | 557 | 950 | 273 | 8 | ||
| 2026-02-12T11:36 | 844 | 916 | 289 | 13 | ||
| 2026-02-12T11:36 | 861 | 915 | 2.6 | -11.7 | ||
| 2026-02-12T11:37 | 1182 | 879 | 288 | 13 | ||
| 2026-02-12T11:37 | 1426 | 852 | -2.2 | -13.1 | ||
| 2026-02-12T11:38 | 1514 | 843 | 279 | 10 | ||
| 2026-02-12T11:39 | 1838 | 809 | 272 | 9 | ||
| 2026-02-12T11:39 | 1978 | 794 | -7.3 | -13.5 | ||
| 2026-02-12T11:40 | 2144 | 778 | -8.8 | -14.2 | ||
| 2026-02-12T11:40 | 2154 | 777 | 289 | 13 | ||
| 2026-02-12T11:40 | 2230 | 769 | -9.0 | -13.1 | ||
| 2026-02-12T11:41 | 2465 | 746 | 282 | 14 | ||
| 2026-02-12T11:41 | 2507 | 742 | -11.0 | -17.6 | ||
| 2026-02-12T11:41 | 2598 | 733 | -11.1 | -19.0 | ||
| 2026-02-12T11:41 | 2659 | 727 | -9.2 | -20.3 | ||
| 2026-02-12T11:41 | 2728 | 721 | -9.1 | -21.8 | ||
| 2026-02-12T11:42 | 2776 | 717 | 297 | 20 | ||
| 2026-02-12T11:42 | 2863 | 708 | -9.0 | -27.4 | ||
| 2026-02-12T11:42 | 2936 | 702 | -8.6 | -38.4 | ||
| 2026-02-12T11:43 | 3106 | 687 | 305 | 19 | ||
| 2026-02-12T11:43 | 3155 | 682 | -9.8 | -33.1 | ||
| 2026-02-12T11:44 | 3430 | 658 | 302 | 21 | ||
| 2026-02-12T11:44 | 3558 | 647 | -11.9 | -34.8 | ||
| 2026-02-12T11:45 | 3765 | 630 | 305 | 22 | ||
| 2026-02-12T11:45 | 3960 | 614 | -14.9 | -38.0 | ||
| 2026-02-12T11:46 | 4090 | 603 | 302 | 24 | ||
| 2026-02-12T11:46 | 4140 | 599 | -15.5 | -40.3 | ||
| 2026-02-12T11:46 | 4282 | 588 | 298 | 27 | ||
| 2026-02-12T11:46 | 4343 | 583 | -15.7 | -40.4 | ||
| 2026-02-12T11:47 | 4615 | 563 | 295 | 24 | ||
| 2026-02-12T11:48 | 4942 | 538 | 293 | 23 | ||
| 2026-02-12T11:48 | 5005 | 534 | -21.3 | -42.5 | ||
| 2026-02-12T11:49 | 5216 | 519 | 297 | 23 | ||
| 2026-02-12T11:50 | 5533 | 497 | 297 | 23 | ||
| 2026-02-12T11:51 | 5863 | 475 | 298 | 24 | ||
| 2026-02-12T11:52 | 6156 | 455 | 295 | 27 | ||
| 2026-02-12T11:52 | 6297 | 446 | -32.1 | -50.7 | ||
| 2026-02-12T11:53 | 6458 | 436 | 299 | 31 | ||
| 2026-02-12T11:53 | 6586 | 428 | -33.7 | -53.4 | ||
| 2026-02-12T11:54 | 6748 | 419 | -34.7 | -55.7 | ||
| 2026-02-12T11:54 | 6765 | 418 | 298 | 32 | ||
| 2026-02-12T11:55 | 7100 | 398 | 298 | 32 | ||
| 2026-02-12T11:55 | 7406 | 381 | -40.0 | -58.5 | 306 | 33 |
| 2026-02-12T11:56 | 7746 | 362 | 303 | 34 | ||
| 2026-02-12T11:58 | 8117 | 342 | 300 | 33 | ||
| 2026-02-12T11:59 | 8470 | 325 | 299 | 34 | ||
| 2026-02-12T12:00 | 8822 | 307 | 301 | 37 | ||
| 2026-02-12T12:00 | 9144 | 292 | -54.3 | 295 | 35 | |
| 2026-02-12T12:01 | 9445 | 279 | -55.6 | |||
| 2026-02-12T12:01 | 9456 | 278 | 289 | 41 | ||
| 2026-02-12T12:02 | 9797 | 264 | 295 | 41 | ||
| 2026-02-12T12:03 | 9919 | 259 | -55.1 | |||
| 2026-02-12T12:03 | 9946 | 258 | 287 | 44 | ||
| 2026-02-12T12:03 | 10023 | 255 | -51.2 | |||
| 2026-02-12T12:03 | 10060 | 253 | 285 | 49 | ||
| 2026-02-12T12:04 | 10190 | 248 | -50.2 | |||
| 2026-02-12T12:04 | 10232 | 247 | 286 | 49 | ||
| 2026-02-12T12:05 | 10498 | 237 | 284 | 50 | ||
| 2026-02-12T12:05 | 10545 | 235 | -49.8 | |||
| 2026-02-12T12:05 | 10725 | 229 | -48.9 | |||
| 2026-02-12T12:06 | 10862 | 224 | 286 | 48 | ||
| 2026-02-12T12:06 | 11015 | 219 | -48.4 | |||
| 2026-02-12T12:06 | 11022 | 219 | 282 | 49 | ||
| 2026-02-12T12:06 | 11164 | 214 | -47.2 | |||
| 2026-02-12T12:07 | 11422 | 206 | 281 | 50 | ||
| 2026-02-12T12:07 | 11491 | 204 | -47.2 | |||
| 2026-02-12T12:08 | 11760 | 196 | -46.3 | |||
| 2026-02-12T12:08 | 11835 | 193 | 273 | 55 | ||
| 2026-02-12T12:08 | 11963 | 190 | -46.7 | |||
| 2026-02-12T12:09 | 12089 | 186 | -46.7 | |||
| 2026-02-12T12:09 | 12102 | 186 | 272 | 53 | ||
| 2026-02-12T12:09 | 12207 | 183 | -47.0 | |||
| 2026-02-12T12:09 | 12311 | 180 | 271 | 55 | ||
| 2026-02-12T12:10 | 12516 | 175 | 268 | 51 | ||
| 2026-02-12T12:10 | 12547 | 174 | -44.5 | |||
| 2026-02-12T12:11 | 12825 | 167 | 268 | 52 | ||
| 2026-02-12T12:12 | 13123 | 159 | 270 | 52 | ||
| 2026-02-12T12:13 | 13448 | 152 | 266 | 50 | ||
| 2026-02-12T12:14 | 13742 | 145 | 263 | 51 | ||
| 2026-02-12T12:15 | 13971 | 140 | -51.5 | |||
| 2026-02-12T12:15 | 13998 | 139 | 266 | 52 | ||
| 2026-02-12T12:16 | 14308 | 133 | 272 | 50 | ||
| 2026-02-12T12:16 | 14525 | 129 | -53.1 | |||
| 2026-02-12T12:17 | 14550 | 128 | 274 | 47 | ||
| 2026-02-12T12:18 | 14848 | 122 | -54.1 | |||
| 2026-02-12T12:18 | 14853 | 122 | 280 | 45 | ||
| 2026-02-12T12:19 | 15148 | 117 | 275 | 39 | ||
| 2026-02-12T12:19 | 15237 | 115 | -55.0 | |||
| 2026-02-12T12:20 | 15465 | 111 | 262 | 38 | ||
| 2026-02-12T12:21 | 15802 | 105 | 258 | 40 | ||
| 2026-02-12T12:21 | 15980 | 102 | -57.2 | |||
| 2026-02-12T12:21 | 16072 | 101 | -55.6 | |||
| 2026-02-12T12:22 | 16131 | 100 | 254 | 34 | ||
| 2026-02-12T12:22 | 16459 | 95 | 252 | 35 | ||
| 2026-02-12T12:23 | 16728 | 91 | -59.5 | |||
| 2026-02-12T12:23 | 16774 | 90 | 256 | 39 | ||
| 2026-02-12T12:24 | 16929 | 88 | -60.0 | |||
| 2026-02-12T12:24 | 17138 | 85 | 251 | 33 | ||
| 2026-02-12T12:24 | 17145 | 85 | -61.2 | |||
| 2026-02-12T12:25 | 17398 | 82 | 257 | 30 | ||
| 2026-02-12T12:26 | 17643 | 78 | -62.5 | |||
| 2026-02-12T12:26 | 17652 | 78 | 264 | 26 | ||
| 2026-02-12T12:27 | 17839 | 76 | -58.9 | |||
| 2026-02-12T12:27 | 17955 | 75 | 274 | 25 | ||
| 2026-02-12T12:28 | 18298 | 71 | 274 | 25 | ||
| 2026-02-12T12:29 | 18492 | 68 | -62.9 | |||
| 2026-02-12T12:30 | 18621 | 67 | 270 | 23 | ||
| 2026-02-12T12:30 | 18758 | 66 | 273 | 22 | ||
| 2026-02-12T12:30 | 18892 | 64 | 276 | 17 | ||
| 2026-02-12T12:31 | 19051 | 63 | -62.3 | |||
| 2026-02-12T12:31 | 19198 | 61 | 272 | 22 | ||
| 2026-02-12T12:32 | 19414 | 59 | 278 | 22 | ||
| 2026-02-12T12:32 | 19574 | 57 | 280 | 24 | ||
| 2026-02-12T12:33 | 19771 | 56 | -62.4 | |||
| 2026-02-12T12:33 | 19852 | 55 | 266 | 18 | ||
| 2026-02-12T12:34 | 19975 | 54 | -63.3 | |||
| 2026-02-12T12:34 | 20138 | 52 | 263 | 24 | ||
| 2026-02-12T12:35 | 20429 | 50 | 260 | 24 | ||
| 2026-02-12T12:35 | 20439 | 50 | -61.9 | |||
| 2026-02-12T12:36 | 20752 | 47 | 266 | 30 | ||
| 2026-02-12T12:37 | 21104 | 45 | 263 | 26 | ||
| 2026-02-12T12:37 | 21130 | 45 | -61.3 | |||
| 2026-02-12T12:38 | 21357 | 43 | -58.8 | |||
| 2026-02-12T12:38 | 21417 | 43 | 280 | 27 | ||
| 2026-02-12T12:39 | 21654 | 41 | -51.6 | 286 | 19 | |
| 2026-02-12T23:30 | 26 | 1014 | 2.0 | -3.1 | 160 | 1 |
| 2026-02-12T23:30 | 30 | 1014 | 1.6 | -2.9 | 0 | 0 |
| 2026-02-12T23:30 | 78 | 1008 | 2.0 | -5.4 | ||
| 2026-02-12T23:30 | 109 | 1004 | 2.7 | -5.9 | ||
| 2026-02-12T23:30 | 157 | 998 | 5.9 | -5.7 | ||
| 2026-02-12T23:31 | 226 | 989 | 5.7 | -4.2 | ||
| 2026-02-12T23:31 | 254 | 986 | 66 | 6 | ||
| 2026-02-12T23:31 | 309 | 979 | 5.3 | -1.8 | ||
| 2026-02-12T23:31 | 386 | 970 | 5.0 | -6.5 | ||
| 2026-02-12T23:32 | 546 | 952 | 37 | 1 | ||
| 2026-02-12T23:32 | 686 | 935 | 322 | 4 | ||
| 2026-02-12T23:32 | 730 | 930 | 3.1 | -8.9 | ||
| 2026-02-12T23:33 | 910 | 910 | 2.2 | -9.7 | ||
| 2026-02-12T23:33 | 1030 | 896 | 272 | 5 | ||
| 2026-02-12T23:34 | 1364 | 860 | 237 | 5 | ||
| 2026-02-12T23:35 | 1561 | 839 | -3.3 | -7.6 | ||
| 2026-02-12T23:35 | 1695 | 825 | 217 | 8 | ||
| 2026-02-12T23:36 | 2032 | 790 | 222 | 11 | ||
| 2026-02-12T23:37 | 2191 | 774 | -8.9 | -9.7 | ||
| 2026-02-12T23:37 | 2225 | 771 | -8.8 | -11.8 | ||
| 2026-02-12T23:37 | 2242 | 769 | -8.3 | -15.5 | ||
| 2026-02-12T23:37 | 2270 | 766 | -5.9 | -24.2 | ||
| 2026-02-12T23:37 | 2282 | 765 | -4.9 | -25.0 | ||
| 2026-02-12T23:37 | 2316 | 762 | 252 | 8 | ||
| 2026-02-12T23:37 | 2434 | 750 | -5.0 | -28.4 | ||
| 2026-02-12T23:37 | 2511 | 743 | -5.1 | -30.2 | ||
| 2026-02-12T23:38 | 2551 | 739 | 253 | 8 | ||
| 2026-02-12T23:38 | 2596 | 735 | -5.1 | -31.1 | ||
| 2026-02-12T23:38 | 2733 | 722 | -5.8 | -32.6 | ||
| 2026-02-12T23:38 | 2764 | 720 | 255 | 13 | ||
| 2026-02-12T23:39 | 2874 | 709 | -6.5 | -35.4 | ||
| 2026-02-12T23:39 | 3107 | 688 | 270 | 14 | ||
| 2026-02-12T23:40 | 3218 | 679 | -9.5 | -37.8 | ||
| 2026-02-12T23:40 | 3379 | 664 | 265 | 17 | ||
| 2026-02-12T23:41 | 3720 | 635 | 265 | 18 | ||
| 2026-02-12T23:41 | 3866 | 623 | -14.0 | -47.6 | ||
| 2026-02-12T23:42 | 4072 | 607 | 265 | 18 | ||
| 2026-02-12T23:43 | 4378 | 582 | -17.3 | -55.9 | ||
| 2026-02-12T23:43 | 4432 | 578 | 273 | 22 | ||
| 2026-02-12T23:43 | 4571 | 568 | -18.8 | -56.9 | ||
| 2026-02-12T23:44 | 4674 | 560 | -18.8 | -53.6 | ||
| 2026-02-12T23:44 | 4797 | 551 | 277 | 24 | ||
| 2026-02-12T23:45 | 5017 | 534 | -20.9 | -58.4 | ||
| 2026-02-12T23:45 | 5164 | 524 | 278 | 27 | ||
| 2026-02-12T23:46 | 5392 | 508 | -23.3 | -60.0 | ||
| 2026-02-12T23:46 | 5415 | 506 | -23.2 | -45.6 | ||
| 2026-02-12T23:46 | 5455 | 504 | -23.3 | -30.2 | ||
| 2026-02-12T23:46 | 5511 | 500 | 279 | 28 | ||
| 2026-02-12T23:46 | 5596 | 494 | -24.6 | -30.3 | ||
| 2026-02-12T23:47 | 5693 | 487 | -25.4 | -32.2 | ||
| 2026-02-12T23:47 | 5770 | 482 | -26.0 | -32.2 | ||
| 2026-02-12T23:47 | 5848 | 477 | -26.6 | -32.2 | ||
| 2026-02-12T23:47 | 5860 | 476 | 277 | 31 | ||
| 2026-02-12T23:47 | 6008 | 466 | -28.0 | -33.5 | ||
| 2026-02-12T23:48 | 6058 | 463 | -28.3 | -37.2 | ||
| 2026-02-12T23:48 | 6083 | 462 | 274 | 32 | ||
| 2026-02-12T23:48 | 6355 | 444 | -30.7 | -38.4 | ||
| 2026-02-12T23:49 | 6455 | 438 | 272 | 33 | ||
| 2026-02-12T23:49 | 6587 | 430 | -32.2 | -42.0 | ||
| 2026-02-12T23:49 | 6656 | 426 | -32.5 | -41.8 | ||
| 2026-02-12T23:50 | 6823 | 416 | 276 | 35 | ||
| 2026-02-12T23:50 | 6829 | 416 | -34.1 | -39.0 | ||
| 2026-02-12T23:50 | 6988 | 406 | -35.3 | -41.7 | ||
| 2026-02-12T23:50 | 7109 | 399 | -36.0 | -45.5 | ||
| 2026-02-12T23:51 | 7183 | 395 | 278 | 37 | ||
| 2026-02-12T23:51 | 7202 | 394 | -36.5 | -50.6 | ||
| 2026-02-12T23:52 | 7521 | 376 | -39.6 | -51.2 | ||
| 2026-02-12T23:52 | 7559 | 374 | 279 | 36 | ||
| 2026-02-12T23:52 | 7572 | 373 | -40.0 | -50.7 | ||
| 2026-02-12T23:52 | 7862 | 358 | -42.6 | |||
| 2026-02-12T23:53 | 7937 | 354 | 280 | 37 | ||
| 2026-02-12T23:54 | 8314 | 335 | 276 | 39 | ||
| 2026-02-12T23:54 | 8391 | 331 | -46.8 | |||
| 2026-02-12T23:54 | 8608 | 320 | 279 | 43 | ||
| 2026-02-12T23:55 | 8656 | 318 | -48.5 | |||
| 2026-02-12T23:55 | 8972 | 303 | 280 | 46 | ||
| 2026-02-12T23:56 | 9118 | 296 | -52.2 | |||
| 2026-02-12T23:56 | 9335 | 286 | 278 | 47 | ||
| 2026-02-12T23:57 | 9697 | 270 | 280 | 46 | ||
| 2026-02-12T23:58 | 9868 | 263 | -57.8 | |||
| 2026-02-12T23:58 | 10058 | 255 | 273 | 45 | ||
| 2026-02-12T23:58 | 10070 | 255 | -57.3 | |||
| 2026-02-12T23:59 | 10175 | 251 | -56.1 | |||
| 2026-02-12T23:59 | 10414 | 241 | 279 | 55 | ||
| 2026-02-13T00:00 | 10499 | 238 | -53.0 | |||
| 2026-02-13T00:00 | 10643 | 233 | -51.7 | |||
| 2026-02-13T00:00 | 10778 | 228 | 279 | 51 | ||
| 2026-02-13T00:01 | 11037 | 219 | -52.6 | |||
| 2026-02-13T00:01 | 11129 | 216 | -52.0 | |||
| 2026-02-13T00:01 | 11148 | 215 | 275 | 53 | ||
| 2026-02-13T00:02 | 11303 | 210 | -52.9 | |||
| 2026-02-13T00:02 | 11341 | 209 | 278 | 59 | ||
| 2026-02-13T00:02 | 11568 | 202 | -51.3 | |||
| 2026-02-13T00:03 | 11690 | 198 | 278 | 53 | ||
| 2026-02-13T00:03 | 11809 | 195 | -50.5 | |||
| 2026-02-13T00:04 | 12120 | 186 | 276 | 54 | ||
| 2026-02-13T00:04 | 12314 | 180 | -51.1 | |||
| 2026-02-13T00:05 | 12541 | 174 | 279 | 55 | ||
| 2026-02-13T00:06 | 12866 | 165 | -52.6 | |||
| 2026-02-13T00:06 | 12977 | 163 | 279 | 52 | ||
| 2026-02-13T00:06 | 13169 | 158 | -53.3 | |||
| 2026-02-13T00:06 | 13279 | 155 | 278 | 56 | ||
| 2026-02-13T00:07 | 13306 | 154 | -52.8 | |||
| 2026-02-13T00:07 | 13662 | 146 | 279 | 49 | ||
| 2026-02-13T00:08 | 13717 | 145 | -52.4 | |||
| 2026-02-13T00:08 | 14051 | 138 | 281 | 41 | ||
| 2026-02-13T00:09 | 14239 | 134 | 274 | 42 | ||
| 2026-02-13T00:10 | 14458 | 129 | -54.6 | |||
| 2026-02-13T00:10 | 14623 | 126 | 276 | 44 | ||
| 2026-02-13T00:10 | 14761 | 123 | -55.4 | |||
| 2026-02-13T00:11 | 14996 | 119 | -55.9 | |||
| 2026-02-13T00:11 | 15016 | 118 | 267 | 48 | ||
| 2026-02-13T00:11 | 15140 | 116 | -55.4 | |||
| 2026-02-13T00:12 | 15226 | 114 | -55.0 | |||
| 2026-02-13T00:12 | 15414 | 111 | 276 | 46 | ||
| 2026-02-13T00:13 | 15778 | 105 | -57.5 | |||
| 2026-02-13T00:13 | 15805 | 104 | 278 | 46 | ||
| 2026-02-13T00:14 | 16088 | 100 | -56.7 | |||
| 2026-02-13T00:14 | 16147 | 99 | 278 | 36 | ||
| 2026-02-13T00:14 | 16328 | 96 | -56.5 | |||
| 2026-02-13T00:14 | 16338 | 96 | 271 | 33 | ||
| 2026-02-13T00:15 | 16713 | 91 | 266 | 33 | ||
| 2026-02-13T00:16 | 16824 | 89 | -58.0 | |||
| 2026-02-13T00:16 | 17017 | 86 | 273 | 39 | ||
| 2026-02-13T00:16 | 17120 | 85 | -58.6 | |||
| 2026-02-13T00:17 | 17258 | 83 | -58.6 | |||
| 2026-02-13T00:17 | 17284 | 83 | 274 | 36 | ||
| 2026-02-13T00:17 | 17471 | 80 | -58.3 | 275 | 34 | |
| 2026-02-13T00:18 | 17639 | 78 | 274 | 30 | ||
| 2026-02-13T00:19 | 17997 | 74 | 282 | 27 | ||
| 2026-02-13T00:19 | 18012 | 74 | -56.8 | |||
| 2026-02-13T00:19 | 18128 | 72 | -56.1 | |||
| 2026-02-13T00:20 | 18395 | 69 | 269 | 24 | ||
| 2026-02-13T00:20 | 18570 | 67 | -58.3 | |||
| 2026-02-13T00:20 | 18626 | 67 | 261 | 23 | ||
| 2026-02-13T00:21 | 18992 | 63 | 262 | 23 | ||
| 2026-02-13T00:22 | 19245 | 61 | -60.3 | |||
| 2026-02-13T00:22 | 19368 | 59 | 271 | 27 | ||
| 2026-02-13T00:23 | 19432 | 59 | -59.5 | |||
| 2026-02-13T00:23 | 19759 | 56 | 279 | 28 | ||
| 2026-02-13T00:24 | 19950 | 54 | -60.6 | 273 | 25 | |
| 2026-02-13T00:24 | 20141 | 52 | 260 | 20 | ||
| 2026-02-13T00:25 | 20382 | 50 | -60.8 | |||
| 2026-02-13T00:25 | 20455 | 50 | 260 | 23 | ||
| 2026-02-13T00:26 | 20607 | 49 | -60.0 | |||
| 2026-02-13T00:26 | 20739 | 48 | 267 | 20 | ||
| 2026-02-13T00:26 | 20883 | 47 | -58.3 | |||
| 2026-02-13T00:27 | 21091 | 45 | -54.4 | 267 | 19 | |
| 2026-02-13T00:28 | 21368 | 43 | 267 | 17 | ||
| 2026-02-13T00:29 | 21768 | 41 | 282 | 15 | ||
| 2026-02-13T00:29 | 21897 | 40 | -53.2 | |||
| 2026-02-13T00:30 | 22126 | 38 | 272 | 20 | ||
| 2026-02-13T00:30 | 22315 | 37 | -52.8 | |||
| 2026-02-13T00:31 | 22508 | 36 | 292 | 16 | ||
| 2026-02-13T00:31 | 22552 | 36 | -54.7 | 295 | 15 | |
| 2026-02-13T11:33 | 26 | 1015 | 3.8 | 3.4 | 0 | 0 |
| 2026-02-13T11:33 | 30 | 1014 | 4.3 | 3.4 | 0 | 0 |
| 2026-02-13T11:33 | 61 | 1011 | 7.4 | 4.5 | ||
| 2026-02-13T11:33 | 134 | 1002 | 149 | 3 | ||
| 2026-02-13T11:33 | 160 | 998 | 8.3 | 4.3 | ||
| 2026-02-13T11:34 | 208 | 993 | 155 | 4 | ||
| 2026-02-13T11:34 | 301 | 982 | 7.9 | 2.4 | ||
| 2026-02-13T11:34 | 328 | 978 | 199 | 6 | ||
| 2026-02-13T11:34 | 372 | 973 | 7.4 | 1.0 | ||
| 2026-02-13T11:35 | 536 | 954 | 223 | 4 | ||
| 2026-02-13T11:35 | 752 | 929 | 223 | 6 | ||
| 2026-02-13T11:36 | 889 | 913 | 2.9 | -2.2 | ||
| 2026-02-13T11:36 | 966 | 905 | 220 | 6 | ||
| 2026-02-13T11:36 | 1067 | 893 | 227 | 5 | ||
| 2026-02-13T11:37 | 1290 | 869 | 265 | 3 | ||
| 2026-02-13T11:37 | 1460 | 850 | 312 | 4 | ||
| 2026-02-13T11:38 | 1579 | 838 | -2.3 | -7.4 | ||
| 2026-02-13T11:38 | 1617 | 834 | 290 | 4 | ||
| 2026-02-13T11:38 | 1780 | 817 | -3.8 | -8.3 | ||
| 2026-02-13T11:39 | 1850 | 810 | 302 | 7 | ||
| 2026-02-13T11:39 | 1903 | 804 | -4.1 | -9.5 | ||
| 2026-02-13T11:39 | 1968 | 798 | 291 | 10 | ||
| 2026-02-13T11:39 | 2005 | 794 | -4.7 | -10.9 | ||
| 2026-02-13T11:40 | 2151 | 779 | -5.4 | -14.2 | ||
| 2026-02-13T11:40 | 2294 | 765 | 293 | 13 | ||
| 2026-02-13T11:40 | 2338 | 761 | -7.0 | -14.3 | ||
| 2026-02-13T11:41 | 2476 | 748 | -7.9 | -18.0 | ||
| 2026-02-13T11:41 | 2508 | 745 | 294 | 15 | ||
| 2026-02-13T11:41 | 2681 | 728 | 301 | 17 | ||
| 2026-02-13T11:41 | 2722 | 724 | -8.7 | -22.4 | ||
| 2026-02-13T11:42 | 2801 | 717 | -8.6 | -23.9 | ||
| 2026-02-13T11:42 | 2807 | 717 | 306 | 20 | ||
| 2026-02-13T11:42 | 2944 | 704 | -8.8 | -24.9 | ||
| 2026-02-13T11:42 | 2999 | 699 | -8.7 | -30.0 | ||
| 2026-02-13T11:42 | 3043 | 695 | -8.6 | -37.1 | ||
| 2026-02-13T11:43 | 3115 | 689 | 307 | 18 | ||
| 2026-02-13T11:43 | 3299 | 672 | 303 | 21 | ||
| 2026-02-13T11:43 | 3316 | 671 | -10.0 | -42.6 | ||
| 2026-02-13T11:43 | 3419 | 662 | -10.1 | -47.4 | ||
| 2026-02-13T11:44 | 3570 | 649 | -11.2 | -48.2 | ||
| 2026-02-13T11:44 | 3624 | 645 | 304 | 17 | ||
| 2026-02-13T11:45 | 3786 | 631 | -12.1 | -48.8 | ||
| 2026-02-13T11:45 | 3914 | 621 | 302 | 20 | ||
| 2026-02-13T11:45 | 4037 | 611 | -13.9 | -53.5 | ||
| 2026-02-13T11:46 | 4247 | 594 | 301 | 20 | ||
| 2026-02-13T11:47 | 4566 | 569 | 295 | 21 | ||
| 2026-02-13T11:48 | 4749 | 555 | -20.2 | -50.2 | ||
| 2026-02-13T11:48 | 4880 | 546 | 295 | 21 | ||
| 2026-02-13T11:49 | 5188 | 523 | 298 | 21 | ||
| 2026-02-13T11:50 | 5420 | 507 | -26.3 | -45.3 | ||
| 2026-02-13T11:50 | 5489 | 502 | 299 | 24 | ||
| 2026-02-13T11:51 | 5811 | 480 | 292 | 27 | ||
| 2026-02-13T11:51 | 5911 | 473 | -28.5 | -60.6 | ||
| 2026-02-13T11:51 | 5943 | 471 | 291 | 30 | ||
| 2026-02-13T11:52 | 6272 | 450 | 295 | 29 | ||
| 2026-02-13T11:53 | 6619 | 428 | 293 | 33 | ||
| 2026-02-13T11:54 | 6751 | 420 | -34.0 | -67.5 | ||
| 2026-02-13T11:54 | 6962 | 408 | 295 | 35 | ||
| 2026-02-13T11:55 | 7015 | 405 | -35.9 | -65.9 | ||
| 2026-02-13T11:55 | 7325 | 387 | 292 | 40 | ||
| 2026-02-13T11:56 | 7434 | 381 | -39.2 | -71.2 | ||
| 2026-02-13T11:56 | 7516 | 376 | 291 | 41 | ||
| 2026-02-13T11:56 | 7611 | 371 | -40.0 | -68.9 | ||
| 2026-02-13T11:57 | 7837 | 359 | 294 | 41 | ||
| 2026-02-13T11:58 | 8167 | 342 | 299 | 42 | ||
| 2026-02-13T11:59 | 8392 | 330 | -45.8 | |||
| 2026-02-13T11:59 | 8495 | 325 | 294 | 38 | ||
| 2026-02-13T11:59 | 8667 | 317 | 284 | 39 | ||
| 2026-02-13T12:00 | 8744 | 313 | -47.2 | |||
| 2026-02-13T12:00 | 8922 | 305 | 280 | 40 | ||
| 2026-02-13T12:01 | 9158 | 294 | -50.0 | |||
| 2026-02-13T12:01 | 9269 | 289 | 281 | 50 | ||
| 2026-02-13T12:01 | 9299 | 288 | -49.7 | |||
| 2026-02-13T12:02 | 9494 | 280 | -49.4 | |||
| 2026-02-13T12:02 | 9631 | 274 | 280 | 53 | ||
| 2026-02-13T12:03 | 9829 | 266 | -49.9 | |||
| 2026-02-13T12:03 | 9949 | 261 | 285 | 55 | ||
| 2026-02-13T12:03 | 10130 | 254 | 286 | 55 | ||
| 2026-02-13T12:03 | 10142 | 253 | -49.6 | |||
| 2026-02-13T12:04 | 10477 | 240 | 287 | 63 | ||
| 2026-02-13T12:05 | 10522 | 239 | -50.3 | |||
| 2026-02-13T12:05 | 10744 | 231 | -49.7 | |||
| 2026-02-13T12:05 | 10749 | 231 | 285 | 62 | ||
| 2026-02-13T12:06 | 10907 | 225 | -48.8 | |||
| 2026-02-13T12:06 | 11055 | 220 | 285 | 63 | ||
| 2026-02-13T12:06 | 11117 | 218 | -49.8 | |||
| 2026-02-13T12:06 | 11193 | 216 | 286 | 66 | ||
| 2026-02-13T12:07 | 11333 | 211 | 287 | 66 | ||
| 2026-02-13T12:08 | 11573 | 203 | 287 | 66 | ||
| 2026-02-13T12:08 | 11696 | 200 | -48.9 | |||
| 2026-02-13T12:09 | 11893 | 194 | 289 | 65 | ||
| 2026-02-13T12:09 | 12152 | 186 | -50.1 | |||
| 2026-02-13T12:09 | 12158 | 186 | 288 | 67 | ||
| 2026-02-13T12:10 | 12306 | 182 | 284 | 64 | ||
| 2026-02-13T12:11 | 12646 | 173 | 287 | 67 | ||
| 2026-02-13T12:11 | 12658 | 172 | -51.4 | |||
| 2026-02-13T12:11 | 12878 | 167 | -51.7 | 285 | 67 | |
| 2026-02-13T12:12 | 13133 | 160 | -52.6 | |||
| 2026-02-13T12:12 | 13233 | 158 | 285 | 63 | ||
| 2026-02-13T12:13 | 13366 | 154 | -53.4 | |||
| 2026-02-13T12:13 | 13525 | 151 | 284 | 63 | ||
| 2026-02-13T12:13 | 13609 | 149 | -54.6 | 283 | 63 | |
| 2026-02-13T23:33 | 26 | 1018 | 3.0 | 2.0 | 340 | 2 |
| 2026-02-13T23:33 | 32 | 1017 | 3.3 | 0.9 | 0 | 0 |
| 2026-02-13T23:33 | 49 | 1015 | 3.6 | -0.4 | ||
| 2026-02-13T23:33 | 61 | 1014 | 330 | 3 | ||
| 2026-02-13T23:33 | 79 | 1011 | 3.6 | -2.0 | ||
| 2026-02-13T23:33 | 92 | 1010 | 326 | 3 | ||
| 2026-02-13T23:33 | 115 | 1007 | 6.5 | -4.0 | ||
| 2026-02-13T23:33 | 163 | 1001 | 289 | 5 | ||
| 2026-02-13T23:34 | 281 | 987 | 279 | 4 | ||
| 2026-02-13T23:34 | 287 | 986 | 6.0 | -4.5 | ||
| 2026-02-13T23:34 | 322 | 982 | 7.1 | -5.0 | ||
| 2026-02-13T23:34 | 375 | 976 | 235 | 3 | ||
| 2026-02-13T23:34 | 528 | 957 | 248 | 4 | ||
| 2026-02-13T23:34 | 546 | 955 | 5.8 | -6.8 | ||
| 2026-02-13T23:35 | 652 | 943 | 233 | 3 | ||
| 2026-02-13T23:35 | 658 | 942 | 5.2 | -9.8 | ||
| 2026-02-13T23:35 | 753 | 931 | 5.1 | -10.7 | ||
| 2026-02-13T23:35 | 764 | 930 | 254 | 3 | ||
| 2026-02-13T23:36 | 946 | 909 | 205 | 5 | ||
| 2026-02-13T23:36 | 1073 | 895 | 2.8 | -8.3 | ||
| 2026-02-13T23:36 | 1157 | 886 | 3.0 | -9.3 | ||
| 2026-02-13T23:36 | 1168 | 885 | 222 | 5 | ||
| 2026-02-13T23:37 | 1285 | 872 | 3.4 | -16.9 | ||
| 2026-02-13T23:37 | 1290 | 872 | 250 | 6 | ||
| 2026-02-13T23:37 | 1565 | 842 | 236 | 10 | ||
| 2026-02-13T23:37 | 1571 | 842 | 1.9 | -15.6 | ||
| 2026-02-13T23:38 | 1810 | 817 | 0.7 | -23.0 | ||
| 2026-02-13T23:38 | 1833 | 815 | 258 | 8 | ||
| 2026-02-13T23:39 | 2118 | 786 | 0.4 | -28.9 | ||
| 2026-02-13T23:39 | 2159 | 782 | 279 | 11 | ||
| 2026-02-13T23:40 | 2369 | 762 | -0.5 | -30.8 | ||
| 2026-02-13T23:40 | 2392 | 760 | 294 | 12 | ||
| 2026-02-13T23:41 | 2642 | 736 | -1.7 | -28.4 | ||
| 2026-02-13T23:41 | 2676 | 733 | 296 | 13 | ||
| 2026-02-13T23:41 | 2802 | 722 | 297 | 15 | ||
| 2026-02-13T23:41 | 2854 | 717 | -1.8 | -38.8 | ||
| 2026-02-13T23:42 | 3003 | 704 | 307 | 15 | ||
| 2026-02-13T23:42 | 3094 | 696 | -3.3 | -34.3 | ||
| 2026-02-13T23:43 | 3362 | 672 | 299 | 15 | ||
| 2026-02-13T23:43 | 3399 | 669 | -5.9 | -27.7 | ||
| 2026-02-13T23:43 | 3688 | 645 | 308 | 16 | ||
| 2026-02-13T23:44 | 3925 | 625 | -8.6 | -41.6 | ||
| 2026-02-13T23:45 | 4055 | 615 | 304 | 15 | ||
| 2026-02-13T23:45 | 4283 | 597 | -11.5 | -43.8 | ||
| 2026-02-13T23:45 | 4421 | 586 | 310 | 17 | ||
| 2026-02-13T23:46 | 4781 | 559 | 316 | 18 | ||
| 2026-02-13T23:47 | 5040 | 540 | -17.9 | -46.9 | ||
| 2026-02-13T23:48 | 5141 | 533 | 308 | 19 | ||
| 2026-02-13T23:49 | 5503 | 508 | 299 | 19 | ||
| 2026-02-13T23:49 | 5818 | 486 | 302 | 21 | ||
| 2026-02-13T23:50 | 5912 | 480 | -25.6 | -50.3 | ||
| 2026-02-13T23:50 | 6180 | 462 | 289 | 22 | ||
| 2026-02-13T23:51 | 6442 | 446 | -29.7 | -61.4 | ||
| 2026-02-13T23:51 | 6548 | 439 | 285 | 24 | ||
| 2026-02-13T23:52 | 6822 | 422 | 284 | 25 | ||
| 2026-02-13T23:53 | 7036 | 410 | -34.4 | -62.7 | ||
| 2026-02-13T23:53 | 7083 | 407 | 293 | 25 | ||
| 2026-02-13T23:53 | 7265 | 397 | 289 | 29 | ||
| 2026-02-13T23:54 | 7378 | 390 | -36.4 | -59.9 | ||
| 2026-02-13T23:54 | 7485 | 384 | 294 | 35 | ||
| 2026-02-13T23:54 | 7515 | 382 | -37.1 | -49.3 | ||
| 2026-02-13T23:55 | 7716 | 372 | 296 | 36 | ||
| 2026-02-13T23:55 | 7838 | 365 | -39.8 | -50.2 | ||
| 2026-02-13T23:55 | 7917 | 361 | 294 | 38 | ||
| 2026-02-13T23:55 | 7942 | 359 | -40.0 | -53.6 | ||
| 2026-02-13T23:56 | 8082 | 352 | 294 | 43 | ||
| 2026-02-13T23:56 | 8251 | 343 | -42.0 | |||
| 2026-02-13T23:57 | 8402 | 336 | -43.0 | |||
| 2026-02-13T23:57 | 8449 | 334 | 287 | 46 | ||
| 2026-02-13T23:57 | 8531 | 329 | -42.7 | |||
| 2026-02-13T23:57 | 8583 | 327 | 289 | 49 | ||
| 2026-02-13T23:58 | 8817 | 316 | 291 | 51 | ||
| 2026-02-13T23:59 | 9187 | 299 | 292 | 49 | ||
| 2026-02-13T23:59 | 9277 | 294 | -49.1 | |||
| 2026-02-13T23:59 | 9426 | 288 | 289 | 52 | ||
| 2026-02-14T00:00 | 9617 | 280 | 285 | 54 | ||
| 2026-02-14T00:00 | 9647 | 278 | -49.6 | |||
| 2026-02-14T00:00 | 9737 | 274 | 284 | 60 | ||
| 2026-02-14T00:01 | 9917 | 267 | 282 | 66 | ||
| 2026-02-14T00:01 | 9935 | 266 | -47.9 | |||
| 2026-02-14T00:01 | 10032 | 262 | 282 | 74 | ||
| 2026-02-14T00:01 | 10125 | 259 | -46.4 | |||
| 2026-02-14T00:02 | 10402 | 248 | 282 | 83 | ||
| 2026-02-14T00:02 | 10515 | 244 | -46.4 | |||
| 2026-02-14T00:03 | 10769 | 235 | 281 | 91 | ||
| 2026-02-14T00:04 | 11076 | 224 | -48.9 | |||
| 2026-02-14T00:04 | 11102 | 223 | 282 | 89 | ||
| 2026-02-14T00:05 | 11334 | 216 | 282 | 97 | ||
| 2026-02-14T00:05 | 11340 | 215 | -49.1 | |||
| 2026-02-14T00:06 | 11714 | 203 | 283 | 95 | ||
| 2026-02-14T00:06 | 11856 | 199 | -52.6 | |||
| 2026-02-14T00:06 | 11930 | 197 | 285 | 92 | ||
| 2026-02-14T00:07 | 12272 | 186 | 284 | 90 | ||
| 2026-02-14T00:08 | 12593 | 177 | 286 | 84 | ||
| 2026-02-14T00:09 | 12806 | 171 | 286 | 82 | ||
| 2026-02-14T00:09 | 13119 | 163 | 286 | 77 | ||
| 2026-02-14T00:10 | 13162 | 162 | -58.0 | |||
| 2026-02-14T00:10 | 13350 | 157 | 285 | 77 | ||
| 2026-02-14T00:11 | 13569 | 152 | 288 | 76 | ||
| 2026-02-14T00:11 | 13738 | 148 | 288 | 72 | ||
| 2026-02-14T00:12 | 13979 | 142 | -59.5 | |||
| 2026-02-14T00:12 | 14065 | 140 | 287 | 65 | ||
| 2026-02-14T00:12 | 14157 | 138 | -59.3 | |||
| 2026-02-14T00:13 | 14251 | 136 | 282 | 60 | ||
| 2026-02-14T00:13 | 14452 | 132 | -59.3 | |||
| 2026-02-14T00:13 | 14520 | 131 | 285 | 63 | ||
| 2026-02-14T00:14 | 14780 | 125 | 282 | 54 | ||
| 2026-02-14T00:15 | 15138 | 118 | 285 | 46 | ||
| 2026-02-14T00:15 | 15144 | 118 | -60.4 | |||
| 2026-02-14T00:16 | 15525 | 111 | 289 | 46 | ||
| 2026-02-14T00:16 | 15532 | 111 | -61.5 | |||
| 2026-02-14T00:17 | 15721 | 108 | -60.9 | |||
| 2026-02-14T00:17 | 15875 | 105 | 283 | 38 | ||
| 2026-02-14T00:18 | 16051 | 102 | -61.2 | |||
| 2026-02-14T00:18 | 16118 | 101 | -60.9 | |||
| 2026-02-14T00:18 | 16197 | 100 | 277 | 39 | ||
| 2026-02-14T00:19 | 16494 | 95 | -62.6 | |||
| 2026-02-14T00:19 | 16515 | 95 | 281 | 38 | ||
| 2026-02-14T00:20 | 16828 | 90 | 284 | 33 | ||
| 2026-02-14T00:21 | 16950 | 88 | -64.2 | |||
| 2026-02-14T00:21 | 16977 | 88 | 283 | 32 | ||
| 2026-02-14T00:21 | 17192 | 85 | -64.2 | |||
| 2026-02-14T00:22 | 17294 | 83 | 275 | 31 | ||
| 2026-02-14T00:23 | 17603 | 79 | -62.9 | |||
| 2026-02-14T00:23 | 17628 | 79 | 261 | 29 | ||
| 2026-02-14T00:23 | 17849 | 76 | 259 | 27 | ||
| 2026-02-14T00:24 | 18113 | 73 | -64.0 | |||
| 2026-02-14T00:24 | 18183 | 72 | 266 | 24 | ||
| 2026-02-14T00:25 | 18234 | 72 | -62.0 | |||
| 2026-02-14T00:25 | 18506 | 68 | 271 | 24 | ||
| 2026-02-14T00:26 | 18716 | 66 | -61.8 | |||
| 2026-02-14T00:26 | 18822 | 65 | 265 | 14 | ||
| 2026-02-14T00:27 | 18899 | 64 | -61.7 | |||
| 2026-02-14T00:27 | 18976 | 63 | 257 | 15 | ||
| 2026-02-14T00:28 | 19197 | 61 | 259 | 20 | ||
| 2026-02-14T00:28 | 19207 | 61 | -62.7 | |||
| 2026-02-14T00:28 | 19439 | 59 | -63.7 | |||
| 2026-02-14T00:29 | 19513 | 58 | 280 | 21 | ||
| 2026-02-14T00:29 | 19567 | 58 | -61.9 | |||
| 2026-02-14T00:30 | 19841 | 55 | 297 | 18 | ||
| 2026-02-14T00:30 | 20072 | 53 | -61.2 | |||
| 2026-02-14T00:31 | 20155 | 52 | 293 | 12 | ||
| 2026-02-14T00:31 | 20423 | 50 | 269 | 15 | ||
| 2026-02-14T00:32 | 20748 | 48 | 277 | 18 | ||
| 2026-02-14T00:33 | 20934 | 46 | -61.3 | 280 | 20 | |
| 2026-02-14T00:33 | 21167 | 45 | -57.3 | |||
| 2026-02-14T00:34 | 21226 | 44 | 297 | 13 | ||
| 2026-02-14T00:34 | 21385 | 43 | -55.8 | |||
| 2026-02-14T00:35 | 21520 | 42 | 330 | 9 | ||
| 2026-02-14T00:35 | 21623 | 41 | 308 | 2 | ||
| 2026-02-14T00:35 | 21733 | 41 | 242 | 3 | ||
| 2026-02-14T00:35 | 21813 | 40 | -56.2 | |||
| 2026-02-14T00:36 | 21908 | 40 | 213 | 7 | ||
| 2026-02-14T00:37 | 22254 | 38 | 215 | 12 | ||
| 2026-02-14T00:38 | 22630 | 35 | 251 | 13 | ||
| 2026-02-14T00:39 | 22991 | 33 | 261 | 13 | ||
| 2026-02-14T00:39 | 23030 | 33 | -61.4 | |||
| 2026-02-14T00:39 | 23298 | 32 | 288 | 15 | ||
| 2026-02-14T00:40 | 23454 | 31 | 294 | 17 | ||
| 2026-02-14T00:41 | 23702 | 30 | -59.2 | |||
| 2026-02-14T00:41 | 23808 | 29 | 296 | 20 | ||
| 2026-02-14T00:42 | 24162 | 28 | 310 | 23 | ||
| 2026-02-14T00:42 | 24232 | 27 | -55.1 | |||
| 2026-02-14T00:42 | 24306 | 27 | 314 | 18 | ||
| 2026-02-14T00:42 | 24449 | 26 | -51.4 | 311 | 16 | |
| 2026-02-14T00:43 | 24523 | 26 | -48.4 | |||
| 2026-02-14T00:43 | 24752 | 25 | 320 | 2 | ||
| 2026-02-14T00:44 | 24912 | 25 | -49.3 | |||
| 2026-02-14T00:44 | 25183 | 24 | 105 | 1 | ||
| 2026-02-14T00:45 | 25324 | 23 | 129 | 5 | ||
| 2026-02-14T00:45 | 25608 | 22 | 172 | 8 | ||
| 2026-02-14T00:46 | 25723 | 22 | 143 | 9 | ||
| 2026-02-14T00:46 | 25843 | 21 | 143 | 11 | ||
| 2026-02-14T00:46 | 25961 | 21 | 166 | 7 | ||
| 2026-02-14T00:47 | 26116 | 20 | -56.5 | |||
| 2026-02-14T00:47 | 26147 | 20 | 204 | 10 | ||
| 2026-02-14T00:47 | 26308 | 20 | 223 | 7 | ||
| 2026-02-14T00:47 | 26406 | 20 | 202 | 4 | ||
| 2026-02-14T00:48 | 26536 | 19 | 270 | 7 | ||
| 2026-02-14T00:48 | 26600 | 19 | 255 | 4 | ||
| 2026-02-14T00:48 | 26671 | 19 | 199 | 4 | ||
| 2026-02-14T00:48 | 26773 | 18 | -55.0 | 197 | 4 | |
| 2026-02-14T00:49 | 26986 | 18 | 172 | 4 | ||
| 2026-02-14T00:49 | 27078 | 18 | -53.3 | 135 | 5 | |
| 2026-02-14T11:33 | 26 | 1015 | 9.0 | 6.4 | 110 | 0 |
| 2026-02-14T11:33 | 32 | 1014 | 9.5 | 6.4 | 0 | 0 |
| 2026-02-14T11:33 | 50 | 1012 | 11.0 | 6.5 | ||
| 2026-02-14T11:33 | 106 | 1005 | 196 | 3 | ||
| 2026-02-14T11:34 | 209 | 993 | 11.0 | 5.9 | ||
| 2026-02-14T11:34 | 282 | 984 | 214 | 8 | ||
| 2026-02-14T11:34 | 297 | 982 | 10.3 | 6.3 | ||
| 2026-02-14T11:34 | 415 | 969 | 196 | 7 | ||
| 2026-02-14T11:34 | 421 | 968 | 9.4 | 5.0 | ||
| 2026-02-14T11:35 | 607 | 947 | 7.6 | 5.2 | ||
| 2026-02-14T11:35 | 696 | 936 | 194 | 8 | ||
| 2026-02-14T11:35 | 768 | 928 | 198 | 6 | ||
| 2026-02-14T11:36 | 1072 | 894 | 208 | 4 | ||
| 2026-02-14T11:36 | 1082 | 893 | 3.6 | 2.6 | ||
| 2026-02-14T11:37 | 1264 | 873 | 2.4 | -0.2 | ||
| 2026-02-14T11:37 | 1317 | 868 | 206 | 4 | ||
| 2026-02-14T11:37 | 1332 | 866 | 1.9 | -1.5 | ||
| 2026-02-14T11:38 | 1454 | 853 | 197 | 3 | ||
| 2026-02-14T11:38 | 1475 | 851 | 0.9 | -2.7 | ||
| 2026-02-14T11:38 | 1537 | 844 | 2.2 | -6.9 | ||
| 2026-02-14T11:38 | 1610 | 837 | 2.5 | -8.2 | 205 | 7 |
| 2026-02-14T11:38 | 1703 | 827 | 2.8 | -9.2 | ||
| 2026-02-14T11:39 | 1896 | 808 | 4.0 | -28.8 | ||
| 2026-02-14T11:39 | 1906 | 807 | 215 | 12 | ||
| 2026-02-14T11:40 | 2199 | 778 | 3.8 | -41.6 | ||
| 2026-02-14T11:40 | 2226 | 775 | 213 | 13 | ||
| 2026-02-14T11:41 | 2549 | 745 | 218 | 12 | ||
| 2026-02-14T11:42 | 2782 | 724 | -0.4 | -44.4 | ||
| 2026-02-14T11:42 | 2835 | 719 | 221 | 10 | ||
| 2026-02-14T11:42 | 2940 | 709 | -1.1 | -34.3 | ||
| 2026-02-14T11:43 | 3071 | 698 | 225 | 12 | ||
| 2026-02-14T11:43 | 3276 | 680 | 232 | 12 | ||
| 2026-02-14T11:43 | 3303 | 678 | -3.3 | -34.3 | ||
| 2026-02-14T11:44 | 3411 | 669 | 239 | 11 | ||
| 2026-02-14T11:44 | 3541 | 658 | -5.0 | -25.7 | ||
| 2026-02-14T11:44 | 3645 | 649 | 258 | 9 | ||
| 2026-02-14T11:45 | 3871 | 630 | 268 | 12 | ||
| 2026-02-14T11:46 | 4012 | 619 | 252 | 8 | ||
| 2026-02-14T11:46 | 4198 | 604 | 264 | 13 | ||
| 2026-02-14T11:46 | 4248 | 600 | -10.7 | -25.7 | ||
| 2026-02-14T11:47 | 4299 | 596 | 265 | 10 | ||
| 2026-02-14T11:47 | 4550 | 577 | -13.5 | -28.5 | ||
| 2026-02-14T11:47 | 4560 | 576 | 256 | 13 | ||
| 2026-02-14T11:48 | 4737 | 563 | -14.9 | -27.3 | ||
| 2026-02-14T11:48 | 4865 | 554 | 255 | 15 | ||
| 2026-02-14T11:49 | 4927 | 549 | -16.8 | -26.4 | ||
| 2026-02-14T11:49 | 4961 | 547 | -17.1 | -25.5 | ||
| 2026-02-14T11:49 | 4999 | 544 | -17.4 | -23.5 | ||
| 2026-02-14T11:49 | 5193 | 530 | 255 | 17 | ||
| 2026-02-14T11:50 | 5420 | 514 | -21.3 | -25.2 | ||
| 2026-02-14T11:50 | 5545 | 505 | 258 | 18 | ||
| 2026-02-14T11:51 | 5632 | 499 | -23.3 | -25.8 | ||
| 2026-02-14T11:51 | 5769 | 490 | -23.9 | -25.7 | ||
| 2026-02-14T11:51 | 5815 | 487 | 262 | 22 | ||
| 2026-02-14T11:52 | 6013 | 474 | -25.3 | -27.3 | ||
| 2026-02-14T11:52 | 6029 | 473 | 259 | 23 | ||
| 2026-02-14T11:53 | 6361 | 451 | 253 | 24 | ||
| 2026-02-14T11:53 | 6596 | 437 | 249 | 25 | ||
| 2026-02-14T11:54 | 6607 | 436 | -29.8 | -31.8 | ||
| 2026-02-14T11:54 | 6744 | 428 | -30.7 | -31.9 | ||
| 2026-02-14T11:54 | 6798 | 425 | 254 | 25 | ||
| 2026-02-14T11:55 | 7023 | 411 | -32.5 | -33.6 | ||
| 2026-02-14T11:55 | 7111 | 406 | -32.8 | -34.5 | ||
| 2026-02-14T11:55 | 7140 | 404 | 265 | 25 | ||
| 2026-02-14T11:56 | 7326 | 394 | -34.3 | -35.9 | 269 | 24 |
| 2026-02-14T11:56 | 7457 | 387 | 272 | 25 | ||
| 2026-02-14T11:56 | 7500 | 384 | -34.8 | -37.5 | ||
| 2026-02-14T11:57 | 7653 | 376 | -36.1 | -38.9 | ||
| 2026-02-14T11:57 | 7753 | 370 | 272 | 30 | ||
| 2026-02-14T11:58 | 8089 | 353 | 272 | 29 | ||
| 2026-02-14T11:58 | 8140 | 350 | -40.0 | -43.2 | ||
| 2026-02-14T11:59 | 8366 | 339 | 270 | 31 | ||
| 2026-02-14T11:59 | 8543 | 330 | -42.9 | |||
| 2026-02-14T12:00 | 8703 | 322 | 273 | 31 | ||
| 2026-02-14T12:00 | 8892 | 313 | 275 | 33 | ||
| 2026-02-14T12:01 | 9202 | 299 | 278 | 35 | ||
| 2026-02-14T12:01 | 9236 | 297 | -48.4 | |||
| 2026-02-14T12:02 | 9553 | 283 | 276 | 46 | ||
| 2026-02-14T12:03 | 9794 | 273 | -50.2 | |||
| 2026-02-14T12:03 | 9806 | 273 | 275 | 53 | ||
| 2026-02-14T12:03 | 9980 | 265 | -48.5 | |||
| 2026-02-14T12:04 | 10065 | 262 | 276 | 61 | ||
| 2026-02-14T12:04 | 10313 | 252 | -47.2 | |||
| 2026-02-14T12:04 | 10330 | 252 | 271 | 66 | ||
| 2026-02-14T12:05 | 10553 | 243 | -47.7 | |||
| 2026-02-14T12:05 | 10604 | 241 | 272 | 70 | ||
| 2026-02-14T12:06 | 10734 | 237 | -46.3 | |||
| 2026-02-14T12:06 | 10822 | 234 | 275 | 71 | ||
| 2026-02-14T12:07 | 11083 | 225 | -47.7 | |||
| 2026-02-14T12:07 | 11148 | 222 | 275 | 76 | ||
| 2026-02-14T12:07 | 11336 | 216 | -47.3 | |||
| 2026-02-14T12:08 | 11522 | 210 | 273 | 84 | ||
| 2026-02-14T12:09 | 11727 | 204 | 274 | 87 | ||
| 2026-02-14T12:09 | 11958 | 197 | 276 | 85 | ||
| 2026-02-14T12:10 | 12075 | 193 | -51.0 | |||
| 2026-02-14T12:10 | 12242 | 188 | 274 | 80 | ||
| 2026-02-14T12:11 | 12559 | 179 | 274 | 80 | ||
| 2026-02-14T12:12 | 12587 | 178 | -52.0 | |||
| 2026-02-14T12:12 | 12834 | 172 | 274 | 74 | ||
| 2026-02-14T12:12 | 12929 | 169 | 275 | 70 | ||
| 2026-02-14T12:13 | 13173 | 163 | -54.9 | |||
| 2026-02-14T12:13 | 13280 | 160 | 273 | 74 | ||
| 2026-02-14T12:14 | 13663 | 151 | 279 | 71 | ||
| 2026-02-14T12:15 | 13714 | 150 | -57.5 | |||
| 2026-02-14T12:15 | 13919 | 145 | 279 | 62 | ||
| 2026-02-14T12:15 | 14029 | 142 | -57.5 | |||
| 2026-02-14T12:16 | 14191 | 139 | 276 | 57 | ||
| 2026-02-14T12:17 | 14447 | 133 | 269 | 53 | ||
| 2026-02-14T12:17 | 14598 | 130 | -61.2 | |||
| 2026-02-14T12:18 | 14837 | 125 | 261 | 55 | ||
| 2026-02-14T12:18 | 14855 | 125 | -62.9 | |||
| 2026-02-14T12:19 | 15131 | 119 | 266 | 56 | ||
| 2026-02-14T12:19 | 15158 | 119 | -63.4 | |||
| 2026-02-14T12:20 | 15442 | 113 | 275 | 56 | ||
| 2026-02-14T12:20 | 15746 | 108 | -62.9 | |||
| 2026-02-14T12:21 | 15767 | 107 | 283 | 48 | ||
| 2026-02-14T12:21 | 15872 | 106 | -62.3 | |||
| 2026-02-14T12:21 | 15959 | 104 | 281 | 42 | ||
| 2026-02-14T12:22 | 16243 | 99 | 275 | 43 | ||
| 2026-02-14T12:23 | 16387 | 97 | -65.4 | |||
| 2026-02-14T12:23 | 16411 | 97 | 279 | 43 | ||
| 2026-02-14T12:23 | 16648 | 93 | 282 | 37 | ||
| 2026-02-14T12:24 | 16799 | 91 | 282 | 42 | ||
| 2026-02-14T12:24 | 16839 | 90 | -65.4 | |||
| 2026-02-14T12:24 | 16955 | 88 | 277 | 34 | ||
| 2026-02-14T12:25 | 17018 | 88 | -62.0 | |||
| 2026-02-14T12:25 | 17239 | 84 | 280 | 40 | ||
| 2026-02-14T12:26 | 17313 | 83 | -62.7 | |||
| 2026-02-14T12:26 | 17336 | 83 | 284 | 40 | ||
| 2026-02-14T12:26 | 17426 | 82 | -61.2 | 281 | 34 | |
| 2026-02-14T23:33 | 26 | 1014 | 7.6 | 5.6 | 240 | 0 |
| 2026-02-14T23:33 | 33 | 1013 | 7.6 | 5.1 | 0 | 0 |
| 2026-02-14T23:33 | 128 | 1001 | 6.8 | 4.1 | ||
| 2026-02-14T23:33 | 161 | 997 | 8.9 | 5.1 | ||
| 2026-02-14T23:34 | 341 | 976 | 9.0 | 4.6 | ||
| 2026-02-14T23:34 | 375 | 972 | 260 | 1 | ||
| 2026-02-14T23:34 | 420 | 967 | 8.7 | 3.1 | ||
| 2026-02-14T23:34 | 470 | 961 | 8.9 | 0.6 | ||
| 2026-02-14T23:35 | 611 | 945 | 8.3 | 1.4 | ||
| 2026-02-14T23:35 | 668 | 939 | 8.5 | 2.3 | ||
| 2026-02-14T23:35 | 701 | 935 | 232 | 7 | ||
| 2026-02-14T23:35 | 785 | 926 | 8.5 | -5.4 | ||
| 2026-02-14T23:36 | 903 | 913 | 8.2 | -7.9 | 186 | 1 |
| 2026-02-14T23:36 | 1119 | 889 | 6.7 | -12.0 | ||
| 2026-02-14T23:37 | 1236 | 876 | 210 | 2 | ||
| 2026-02-14T23:37 | 1287 | 871 | 5.8 | -11.8 | ||
| 2026-02-14T23:37 | 1399 | 859 | 4.9 | -11.2 | ||
| 2026-02-14T23:37 | 1410 | 858 | 186 | 2 | ||
| 2026-02-14T23:38 | 1546 | 844 | 4.6 | -13.8 | ||
| 2026-02-14T23:38 | 1704 | 828 | 234 | 5 | ||
| 2026-02-14T23:38 | 1710 | 827 | 4.1 | -13.2 | ||
| 2026-02-14T23:38 | 1831 | 815 | 3.0 | -11.3 | ||
| 2026-02-14T23:39 | 1986 | 799 | 269 | 6 | ||
| 2026-02-14T23:39 | 1998 | 798 | 1.3 | -9.3 | ||
| 2026-02-14T23:39 | 2091 | 789 | 259 | 5 | ||
| 2026-02-14T23:39 | 2202 | 778 | 254 | 6 | ||
| 2026-02-14T23:40 | 2315 | 767 | -1.2 | -10.3 | ||
| 2026-02-14T23:40 | 2404 | 759 | -0.7 | -14.3 | ||
| 2026-02-14T23:40 | 2460 | 753 | -0.4 | -15.1 | 258 | 7 |
| 2026-02-14T23:40 | 2516 | 748 | 0.2 | -14.6 | ||
| 2026-02-14T23:41 | 2663 | 734 | 264 | 4 | ||
| 2026-02-14T23:41 | 2680 | 733 | -0.3 | -10.8 | ||
| 2026-02-14T23:41 | 2791 | 723 | -0.1 | -21.0 | ||
| 2026-02-14T23:41 | 2835 | 719 | 0.4 | -37.2 | 304 | 10 |
| 2026-02-14T23:42 | 3004 | 704 | -0.5 | -22.6 | ||
| 2026-02-14T23:42 | 3179 | 688 | 294 | 10 | ||
| 2026-02-14T23:43 | 3543 | 657 | 294 | 10 | ||
| 2026-02-14T23:44 | 3734 | 641 | 286 | 9 | ||
| 2026-02-14T23:44 | 3948 | 624 | 301 | 10 | ||
| 2026-02-14T23:45 | 4142 | 608 | -11.7 | -25.1 | ||
| 2026-02-14T23:45 | 4159 | 607 | 295 | 8 | ||
| 2026-02-14T23:45 | 4284 | 597 | 298 | 12 | ||
| 2026-02-14T23:46 | 4455 | 584 | -14.7 | -26.5 | ||
| 2026-02-14T23:46 | 4479 | 582 | 299 | 10 | ||
| 2026-02-14T23:46 | 4497 | 581 | -13.5 | -37.8 | ||
| 2026-02-14T23:46 | 4580 | 574 | -13.4 | -53.2 | ||
| 2026-02-14T23:46 | 4609 | 572 | 309 | 13 | ||
| 2026-02-14T23:47 | 4866 | 553 | 303 | 11 | ||
| 2026-02-14T23:47 | 4919 | 549 | -15.4 | -51.2 | ||
| 2026-02-14T23:48 | 5223 | 527 | 320 | 14 | ||
| 2026-02-14T23:48 | 5403 | 515 | -19.5 | -45.5 | ||
| 2026-02-14T23:49 | 5560 | 504 | 309 | 11 | ||
| 2026-02-14T23:49 | 5724 | 493 | 301 | 14 | ||
| 2026-02-14T23:50 | 6069 | 470 | -24.5 | -57.7 | ||
| 2026-02-14T23:50 | 6100 | 468 | 294 | 15 | ||
| 2026-02-14T23:51 | 6450 | 446 | 297 | 14 | ||
| 2026-02-14T23:52 | 6724 | 429 | -29.8 | -61.5 | ||
| 2026-02-14T23:52 | 6784 | 426 | 297 | 19 | ||
| 2026-02-14T23:53 | 6893 | 419 | 301 | 18 | ||
| 2026-02-14T23:53 | 7055 | 410 | 295 | 15 | ||
| 2026-02-14T23:53 | 7203 | 401 | -33.9 | -62.3 | ||
| 2026-02-14T23:54 | 7288 | 396 | 286 | 17 | ||
| 2026-02-14T23:55 | 7654 | 376 | 277 | 17 | ||
| 2026-02-14T23:55 | 7835 | 366 | 286 | 18 | ||
| 2026-02-14T23:56 | 7936 | 361 | -40.0 | -68.9 | ||
| 2026-02-14T23:56 | 8190 | 347 | 286 | 20 | ||
| 2026-02-14T23:56 | 8295 | 342 | 286 | 22 | ||
| 2026-02-14T23:57 | 8661 | 324 | 286 | 21 | ||
| 2026-02-14T23:58 | 8814 | 316 | -46.5 | 278 | 21 | |
| 2026-02-14T23:58 | 9024 | 307 | 282 | 23 | ||
| 2026-02-14T23:59 | 9309 | 294 | -50.4 | |||
| 2026-02-14T23:59 | 9418 | 289 | 279 | 25 | ||
| 2026-02-15T00:00 | 9650 | 278 | 279 | 31 | ||
| 2026-02-15T00:00 | 9683 | 277 | -52.1 | |||
| 2026-02-15T00:00 | 9784 | 273 | 281 | 34 | ||
| 2026-02-15T00:00 | 9790 | 273 | -51.8 | |||
| 2026-02-15T00:01 | 9976 | 265 | 274 | 31 | ||
| 2026-02-15T00:01 | 10019 | 263 | -52.7 | |||
| 2026-02-15T00:02 | 10337 | 250 | 271 | 41 | ||
| 2026-02-15T00:02 | 10437 | 247 | -51.8 | |||
| 2026-02-15T00:02 | 10497 | 244 | 271 | 45 | ||
| 2026-02-15T00:03 | 10822 | 232 | 272 | 50 | ||
| 2026-02-15T00:03 | 10829 | 232 | -51.8 | |||
| 2026-02-15T00:04 | 10964 | 227 | 269 | 55 | ||
| 2026-02-15T00:04 | 10977 | 227 | -51.8 | |||
| 2026-02-15T00:04 | 11326 | 215 | 272 | 55 | ||
| 2026-02-15T00:05 | 11429 | 212 | -52.0 | |||
| 2026-02-15T00:05 | 11711 | 203 | 271 | 57 | ||
| 2026-02-15T00:06 | 11766 | 201 | -51.6 | |||
| 2026-02-15T00:06 | 11938 | 196 | 270 | 62 | ||
| 2026-02-15T00:07 | 12267 | 186 | -53.3 | |||
| 2026-02-15T00:07 | 12302 | 185 | 277 | 63 | ||
| 2026-02-15T00:08 | 12504 | 179 | -52.3 | |||
| 2026-02-15T00:08 | 12631 | 176 | 278 | 62 | ||
| 2026-02-15T00:09 | 12982 | 166 | 275 | 61 | ||
| 2026-02-15T00:10 | 13165 | 162 | -53.6 | |||
| 2026-02-15T00:10 | 13328 | 158 | 275 | 60 | ||
| 2026-02-15T00:11 | 13660 | 150 | -54.3 | |||
| 2026-02-15T00:11 | 13713 | 148 | 281 | 51 | ||
| 2026-02-15T00:12 | 14070 | 140 | 277 | 49 | ||
| 2026-02-15T00:13 | 14425 | 133 | 270 | 49 | ||
| 2026-02-15T00:13 | 14566 | 130 | -58.1 | |||
| 2026-02-15T00:14 | 14779 | 126 | 267 | 49 | ||
| 2026-02-15T00:14 | 14914 | 123 | -59.7 | |||
| 2026-02-15T00:15 | 15093 | 119 | -60.2 | |||
| 2026-02-15T00:15 | 15106 | 119 | 271 | 46 | ||
| 2026-02-15T00:16 | 15354 | 115 | -59.5 | |||
| 2026-02-15T00:16 | 15457 | 113 | 273 | 43 | ||
| 2026-02-15T00:16 | 15504 | 112 | -59.1 | |||
| 2026-02-15T00:17 | 15820 | 106 | 275 | 43 | ||
| 2026-02-15T00:17 | 15893 | 105 | -61.7 | |||
| 2026-02-15T00:18 | 16150 | 101 | -62.1 | |||
| 2026-02-15T00:18 | 16156 | 101 | 274 | 35 | ||
| 2026-02-15T00:19 | 16524 | 95 | 262 | 32 | ||
| 2026-02-15T00:19 | 16737 | 92 | -65.6 | |||
| 2026-02-15T00:20 | 16965 | 88 | 256 | 33 | ||
| 2026-02-15T00:20 | 17118 | 86 | -68.1 | |||
| 2026-02-15T00:21 | 17252 | 84 | 256 | 34 | ||
| 2026-02-15T00:21 | 17486 | 81 | -67.2 | |||
| 2026-02-15T00:21 | 17504 | 81 | 260 | 37 | ||
| 2026-02-15T00:22 | 17618 | 79 | 263 | 33 | ||
| 2026-02-15T00:22 | 17732 | 78 | 262 | 32 | ||
| 2026-02-15T00:22 | 17741 | 78 | -64.3 | |||
| 2026-02-15T00:22 | 17852 | 76 | 268 | 26 | ||
| 2026-02-15T00:22 | 17878 | 76 | -62.8 | |||
| 2026-02-15T00:23 | 18109 | 73 | 266 | 24 | ||
| 2026-02-15T00:23 | 18118 | 73 | -63.0 | |||
| 2026-02-15T00:24 | 18455 | 69 | 275 | 29 | ||
| 2026-02-15T00:24 | 18580 | 68 | -66.1 | |||
| 2026-02-15T00:25 | 18636 | 67 | 281 | 31 | ||
| 2026-02-15T00:25 | 18727 | 66 | -63.7 | |||
| 2026-02-15T00:26 | 19013 | 63 | 273 | 18 | ||
| 2026-02-15T00:26 | 19221 | 61 | 253 | 19 | ||
| 2026-02-15T00:27 | 19509 | 58 | -63.2 | |||
| 2026-02-15T00:27 | 19540 | 58 | 277 | 23 | ||
| 2026-02-15T00:28 | 19659 | 57 | -60.7 | |||
| 2026-02-15T00:28 | 19761 | 56 | -60.3 | |||
| 2026-02-15T00:28 | 19863 | 55 | 258 | 17 | ||
| 2026-02-15T00:29 | 20177 | 52 | -59.0 | |||
| 2026-02-15T00:29 | 20215 | 52 | 259 | 17 | ||
| 2026-02-15T00:30 | 20482 | 50 | 262 | 15 | ||
| 2026-02-15T00:31 | 20756 | 48 | -58.4 | |||
| 2026-02-15T00:31 | 20796 | 47 | 265 | 14 | ||
| 2026-02-15T00:31 | 20918 | 46 | 254 | 11 | ||
| 2026-02-15T00:32 | 21054 | 45 | -56.9 | |||
| 2026-02-15T00:32 | 21222 | 44 | 227 | 10 | ||
| 2026-02-15T00:33 | 21606 | 42 | 227 | 12 | ||
| 2026-02-15T00:34 | 21848 | 40 | -59.4 | |||
| 2026-02-15T00:34 | 21976 | 39 | -57.1 | 256 | 14 | |
| 2026-02-15T00:35 | 22360 | 37 | 293 | 17 | ||
| 2026-02-15T00:36 | 22675 | 35 | 291 | 11 | ||
| 2026-02-15T00:36 | 22711 | 35 | -56.6 | |||
| 2026-02-15T00:36 | 22932 | 34 | 291 | 8 | ||
| 2026-02-15T00:37 | 23129 | 33 | 300 | 8 | ||
| 2026-02-15T00:37 | 23184 | 32 | -54.8 | |||
| 2026-02-15T00:38 | 23345 | 32 | 278 | 5 | ||
| 2026-02-15T00:39 | 23679 | 30 | -54.3 | |||
| 2026-02-15T00:39 | 23721 | 30 | 308 | 16 | ||
| 2026-02-15T00:40 | 24098 | 28 | 327 | 17 | ||
| 2026-02-15T00:41 | 24494 | 26 | 346 | 12 | ||
| 2026-02-15T00:41 | 24693 | 26 | -56.5 | |||
| 2026-02-15T00:42 | 24864 | 25 | 356 | 4 | ||
| 2026-02-15T00:42 | 25070 | 24 | 308 | 7 | ||
| 2026-02-15T00:43 | 25285 | 23 | -56.8 | |||
| 2026-02-15T00:43 | 25451 | 23 | 331 | 13 | ||
| 2026-02-15T00:44 | 25796 | 22 | -55.4 | |||
| 2026-02-15T00:44 | 25857 | 21 | 345 | 15 | ||
| 2026-02-15T00:45 | 26285 | 20 | 335 | 7 | ||
| 2026-02-15T00:46 | 26510 | 19 | -59.8 | |||
| 2026-02-15T00:46 | 26706 | 19 | 315 | 5 | ||
| 2026-02-15T00:47 | 26947 | 18 | 312 | 8 | ||
| 2026-02-15T00:48 | 27163 | 17 | 305 | 10 | ||
| 2026-02-15T00:48 | 27202 | 17 | -57.3 | |||
| 2026-02-15T00:48 | 27349 | 17 | -54.0 | |||
| 2026-02-15T00:48 | 27389 | 17 | 337 | 6 | ||
| 2026-02-15T00:48 | 27502 | 16 | 29 | 4 | ||
| 2026-02-15T00:49 | 27581 | 16 | 13 | 4 | ||
| 2026-02-15T00:49 | 27703 | 16 | 18 | 6 | ||
| 2026-02-15T00:49 | 27783 | 16 | 17 | 6 | ||
| 2026-02-15T00:50 | 27951 | 15 | -53.7 | 52 | 6 | |
| 2026-02-15T00:50 | 28123 | 15 | 56 | 3 | ||
| 2026-02-15T00:50 | 28293 | 15 | -53.9 | 78 | 3 | |
| 2026-02-15T00:51 | 28428 | 14 | 83 | 8 | ||
| 2026-02-15T00:51 | 28612 | 14 | 121 | 6 | ||
| 2026-02-15T00:52 | 28845 | 13 | 107 | 4 | ||
| 2026-02-15T00:52 | 28942 | 13 | 122 | 3 | ||
| 2026-02-15T00:52 | 29041 | 13 | 90 | 3 | ||
| 2026-02-15T00:52 | 29090 | 13 | 103 | 3 | ||
| 2026-02-15T00:53 | 29189 | 13 | 188 | 4 | ||
| 2026-02-15T00:53 | 29238 | 13 | -57.7 | |||
| 2026-02-15T00:53 | 29290 | 12 | 198 | 6 | ||
| 2026-02-15T00:53 | 29500 | 12 | -55.3 | |||
| 2026-02-15T00:54 | 29605 | 12 | 205 | 8 | ||
| 2026-02-15T00:54 | 29716 | 12 | 201 | 5 | ||
| 2026-02-15T00:54 | 29772 | 12 | -53.7 | |||
| 2026-02-15T00:54 | 29826 | 11 | 183 | 8 | ||
| 2026-02-15T00:55 | 30060 | 11 | 173 | 9 | ||
| 2026-02-15T00:55 | 30175 | 11 | 200 | 7 | ||
| 2026-02-15T00:55 | 30237 | 11 | 230 | 6 | ||
| 2026-02-15T00:56 | 30483 | 10 | -51.0 | |||
| 2026-02-15T00:56 | 30546 | 10 | 219 | 2 | ||
| 2026-02-15T00:56 | 30740 | 10 | 241 | 4 | ||
| 2026-02-15T00:57 | 30874 | 10 | 223 | 4 | ||
| 2026-02-15T00:57 | 31079 | 9 | 145 | 3 | ||
| 2026-02-15T00:57 | 31149 | 9 | 162 | 3 | ||
| 2026-02-15T00:57 | 31289 | 9 | 249 | 3 | ||
| 2026-02-15T00:58 | 31361 | 9 | 225 | 3 | ||
| 2026-02-15T00:58 | 31436 | 9 | -50.6 | |||
| 2026-02-15T00:59 | 31734 | 9 | 290 | 5 | ||
| 2026-02-15T00:59 | 31966 | 8 | -49.0 | 277 | 5 | |
| 2026-02-15T01:00 | 32185 | 8 | -48.7 | 309 | 6 | |
| 2026-02-15T11:33 | 26 | 1009 | 8.8 | 8.2 | 0 | 0 |
| 2026-02-15T11:33 | 32 | 1008 | 9.3 | 8.1 | 0 | 0 |
| 2026-02-15T11:33 | 65 | 1004 | 12.2 | 8.5 | ||
| 2026-02-15T11:33 | 78 | 1003 | 13.2 | 9.6 | ||
| 2026-02-15T11:33 | 182 | 990 | 210 | 3 | ||
| 2026-02-15T11:34 | 308 | 976 | 12.0 | 10.2 | ||
| 2026-02-15T11:34 | 373 | 968 | 218 | 5 | ||
| 2026-02-15T11:34 | 385 | 967 | 12.9 | 7.4 | ||
| 2026-02-15T11:35 | 592 | 943 | 270 | 4 | ||
| 2026-02-15T11:35 | 694 | 932 | 10.5 | 5.7 | ||
| 2026-02-15T11:35 | 799 | 920 | 261 | 3 | ||
| 2026-02-15T11:36 | 899 | 909 | 9.1 | 3.9 | ||
| 2026-02-15T11:36 | 943 | 904 | 256 | 5 | ||
| 2026-02-15T11:36 | 993 | 899 | 8.9 | 3.1 | ||
| 2026-02-15T11:36 | 1047 | 893 | 8.6 | 3.4 | ||
| 2026-02-15T11:36 | 1085 | 889 | 9.2 | -0.7 | ||
| 2026-02-15T11:36 | 1119 | 885 | 234 | 4 | ||
| 2026-02-15T11:36 | 1164 | 880 | 9.0 | -2.3 | ||
| 2026-02-15T11:36 | 1197 | 877 | 218 | 4 | ||
| 2026-02-15T11:36 | 1214 | 875 | 9.5 | -7.2 | ||
| 2026-02-15T11:37 | 1313 | 865 | 296 | 4 | ||
| 2026-02-15T11:37 | 1319 | 864 | 8.8 | -7.0 | ||
| 2026-02-15T11:37 | 1475 | 848 | 311 | 5 | ||
| 2026-02-15T11:37 | 1542 | 841 | 315 | 3 | ||
| 2026-02-15T11:37 | 1548 | 840 | 7.5 | -8.5 | ||
| 2026-02-15T11:38 | 1655 | 829 | 256 | 5 | ||
| 2026-02-15T11:38 | 1730 | 822 | 6.1 | -11.5 | ||
| 2026-02-15T11:38 | 1798 | 815 | 226 | 5 | ||
| 2026-02-15T11:38 | 1820 | 813 | 5.7 | -12.3 | ||
| 2026-02-15T11:39 | 1948 | 800 | 236 | 7 | ||
| 2026-02-15T11:39 | 1970 | 798 | 4.5 | -8.6 | ||
| 2026-02-15T11:39 | 2070 | 789 | 5.0 | -13.9 | ||
| 2026-02-15T11:39 | 2104 | 785 | 236 | 9 | ||
| 2026-02-15T11:40 | 2262 | 770 | 3.8 | -16.6 | ||
| 2026-02-15T11:40 | 2417 | 755 | 222 | 7 | ||
| 2026-02-15T11:41 | 2587 | 740 | 237 | 9 | ||
| 2026-02-15T11:41 | 2617 | 737 | 0.8 | -20.9 | ||
| 2026-02-15T11:41 | 2725 | 727 | 1.3 | -29.5 | ||
| 2026-02-15T11:41 | 2859 | 715 | 0.6 | -34.9 | ||
| 2026-02-15T11:42 | 2939 | 708 | 250 | 14 | ||
| 2026-02-15T11:42 | 3035 | 700 | -0.3 | -40.5 | ||
| 2026-02-15T11:43 | 3281 | 679 | 251 | 13 | ||
| 2026-02-15T11:43 | 3425 | 666 | -3.0 | -46.1 | ||
| 2026-02-15T11:44 | 3630 | 649 | 251 | 15 | ||
| 2026-02-15T11:44 | 3809 | 635 | -6.3 | -36.6 | ||
| 2026-02-15T11:45 | 3976 | 621 | 256 | 15 | ||
| 2026-02-15T11:45 | 4028 | 617 | -8.4 | -28.5 | ||
| 2026-02-15T11:45 | 4224 | 601 | -10.3 | -28.5 | ||
| 2026-02-15T11:46 | 4326 | 594 | 258 | 17 | ||
| 2026-02-15T11:47 | 4675 | 567 | 261 | 18 | ||
| 2026-02-15T11:47 | 4897 | 551 | -15.6 | -36.4 | ||
| 2026-02-15T11:47 | 4913 | 549 | 265 | 17 | ||
| 2026-02-15T11:48 | 5075 | 538 | 260 | 20 | ||
| 2026-02-15T11:48 | 5155 | 532 | -16.6 | -45.9 | ||
| 2026-02-15T11:49 | 5323 | 520 | 269 | 21 | ||
| 2026-02-15T11:50 | 5639 | 499 | -20.3 | -52.2 | 268 | 21 |
| 2026-02-15T11:50 | 5776 | 490 | 269 | 25 | ||
| 2026-02-15T11:51 | 5957 | 478 | -21.9 | -59.1 | ||
| 2026-02-15T11:51 | 6095 | 469 | 275 | 27 | ||
| 2026-02-15T11:52 | 6337 | 454 | 269 | 25 | ||
| 2026-02-15T11:53 | 6689 | 432 | 270 | 26 | ||
| 2026-02-15T11:53 | 6814 | 424 | -28.3 | -56.3 | ||
| 2026-02-15T11:54 | 7024 | 412 | 269 | 27 | ||
| 2026-02-15T11:54 | 7088 | 408 | -30.3 | -52.1 | ||
| 2026-02-15T11:54 | 7370 | 392 | 280 | 29 | ||
| 2026-02-15T11:55 | 7486 | 386 | -34.1 | -44.3 | ||
| 2026-02-15T11:55 | 7572 | 381 | 278 | 31 | ||
| 2026-02-15T11:55 | 7684 | 375 | 283 | 30 | ||
| 2026-02-15T11:56 | 7760 | 371 | -36.2 | -51.1 | ||
| 2026-02-15T11:56 | 7999 | 359 | -38.1 | -57.0 | ||
| 2026-02-15T11:56 | 8042 | 356 | 290 | 34 | ||
| 2026-02-15T11:57 | 8202 | 348 | -40.0 | -58.5 | ||
| 2026-02-15T11:57 | 8415 | 337 | 291 | 34 | ||
| 2026-02-15T11:58 | 8616 | 328 | -43.6 | |||
| 2026-02-15T11:58 | 8730 | 322 | 290 | 33 | ||
| 2026-02-15T11:59 | 9100 | 305 | 289 | 33 | ||
| 2026-02-15T12:00 | 9296 | 296 | 285 | 35 | ||
| 2026-02-15T12:00 | 9303 | 295 | -49.5 | |||
| 2026-02-15T12:01 | 9677 | 279 | 287 | 34 | ||
| 2026-02-15T12:02 | 9987 | 266 | -54.8 | |||
| 2026-02-15T12:02 | 10045 | 263 | 284 | 36 | ||
| 2026-02-15T12:02 | 10177 | 258 | 285 | 41 | ||
| 2026-02-15T12:03 | 10379 | 250 | 285 | 44 | ||
| 2026-02-15T12:04 | 10757 | 235 | 286 | 44 | ||
| 2026-02-15T12:04 | 11052 | 224 | -62.1 | |||
| 2026-02-15T12:05 | 11173 | 220 | 284 | 46 | ||
| 2026-02-15T12:05 | 11230 | 218 | -61.5 | |||
| 2026-02-15T12:05 | 11363 | 213 | -60.1 | |||
| 2026-02-15T12:05 | 11452 | 210 | -59.4 | |||
| 2026-02-15T12:06 | 11580 | 206 | 281 | 47 | ||
| 2026-02-15T12:06 | 11750 | 200 | 280 | 54 | ||
| 2026-02-15T12:06 | 11906 | 196 | -56.2 | |||
| 2026-02-15T12:06 | 11920 | 195 | 282 | 50 | ||
| 2026-02-15T12:07 | 12082 | 190 | 279 | 52 | ||
| 2026-02-15T12:08 | 12341 | 183 | -53.4 | |||
| 2026-02-15T12:08 | 12443 | 180 | 280 | 48 | ||
| 2026-02-15T12:09 | 12768 | 171 | -53.7 | |||
| 2026-02-15T12:09 | 12804 | 170 | 273 | 51 | ||
| 2026-02-15T12:10 | 13162 | 161 | 272 | 48 | ||
| 2026-02-15T12:10 | 13270 | 158 | -54.4 | |||
| 2026-02-15T12:11 | 13526 | 152 | 274 | 49 | ||
| 2026-02-15T12:12 | 13869 | 144 | 276 | 51 | ||
| 2026-02-15T12:12 | 14070 | 139 | -57.3 | |||
| 2026-02-15T12:13 | 14173 | 137 | 272 | 50 | ||
| 2026-02-15T12:14 | 14457 | 131 | 269 | 50 | ||
| 2026-02-15T12:14 | 14491 | 130 | -58.9 | |||
| 2026-02-15T12:15 | 14750 | 125 | 273 | 50 | ||
| 2026-02-15T12:16 | 15059 | 119 | 268 | 46 | ||
| 2026-02-15T12:16 | 15069 | 119 | -60.5 | |||
| 2026-02-15T12:17 | 15368 | 113 | 275 | 42 | ||
| 2026-02-15T12:17 | 15415 | 113 | -60.2 | |||
| 2026-02-15T12:18 | 15679 | 108 | 271 | 40 | ||
| 2026-02-15T12:19 | 15990 | 103 | 265 | 38 | ||
| 2026-02-15T12:19 | 16017 | 102 | -61.3 | |||
| 2026-02-15T12:19 | 16189 | 99 | -58.7 | |||
| 2026-02-15T12:20 | 16309 | 97 | 275 | 32 | ||
| 2026-02-15T12:21 | 16633 | 93 | 282 | 32 | ||
| 2026-02-15T12:22 | 16931 | 88 | 281 | 31 | ||
| 2026-02-15T12:22 | 17016 | 87 | -63.2 | |||
| 2026-02-15T12:23 | 17268 | 83 | 275 | 29 | ||
| 2026-02-15T12:23 | 17487 | 81 | -62.2 | |||
| 2026-02-15T12:24 | 17602 | 79 | 279 | 28 | ||
| 2026-02-15T12:24 | 17696 | 78 | -62.9 | |||
| 2026-02-15T12:25 | 17939 | 75 | 273 | 22 | ||
| 2026-02-15T12:25 | 18088 | 73 | -62.8 | |||
| 2026-02-15T12:26 | 18258 | 71 | 258 | 23 | ||
| 2026-02-15T12:26 | 18413 | 69 | -62.7 | |||
| 2026-02-15T12:27 | 18575 | 67 | 272 | 23 | ||
| 2026-02-15T12:27 | 18649 | 67 | -61.2 | |||
| 2026-02-15T12:27 | 18790 | 65 | -61.0 | |||
| 2026-02-15T12:27 | 18821 | 65 | 272 | 23 | ||
| 2026-02-15T12:28 | 18956 | 63 | -59.9 | |||
| 2026-02-15T12:28 | 19146 | 62 | -59.0 | |||
| 2026-02-15T12:28 | 19187 | 61 | 252 | 23 | ||
| 2026-02-15T12:29 | 19490 | 58 | 259 | 18 | ||
| 2026-02-15T12:29 | 19499 | 58 | -60.3 | |||
| 2026-02-15T12:30 | 19798 | 55 | 238 | 12 | ||
| 2026-02-15T12:31 | 19959 | 54 | -61.1 | |||
| 2026-02-15T12:31 | 19980 | 54 | -61.2 | 242 | 17 | |
| 2026-02-15T23:33 | 26 | 1011 | 5.5 | 4.0 | 240 | 1 |
| 2026-02-15T23:33 | 31 | 1010 | 5.7 | 3.4 | 0 | 0 |
| 2026-02-15T23:33 | 139 | 997 | 5.0 | 2.0 | ||
| 2026-02-15T23:33 | 173 | 993 | 5.4 | 2.2 | ||
| 2026-02-15T23:34 | 211 | 988 | 8.6 | 4.0 | ||
| 2026-02-15T23:34 | 256 | 983 | 9.2 | 3.2 | ||
| 2026-02-15T23:34 | 318 | 975 | 254 | 3 | ||
| 2026-02-15T23:34 | 408 | 965 | 290 | 2 | ||
| 2026-02-15T23:34 | 441 | 961 | 8.1 | 2.6 | ||
| 2026-02-15T23:34 | 491 | 955 | 350 | 3 | ||
| 2026-02-15T23:35 | 552 | 948 | 7.6 | 1.9 | ||
| 2026-02-15T23:35 | 618 | 941 | 7.7 | 3.2 | ||
| 2026-02-15T23:35 | 823 | 918 | 84 | 3 | ||
| 2026-02-15T23:36 | 883 | 911 | 5.8 | 2.1 | ||
| 2026-02-15T23:36 | 1030 | 894 | 103 | 3 | ||
| 2026-02-15T23:36 | 1063 | 891 | 4.6 | 2.9 | ||
| 2026-02-15T23:37 | 1347 | 860 | 2.2 | 1.2 | ||
| 2026-02-15T23:37 | 1369 | 858 | 276 | 1 | ||
| 2026-02-15T23:37 | 1402 | 854 | 1.9 | 0.7 | ||
| 2026-02-15T23:37 | 1487 | 845 | 1.2 | -0.1 | ||
| 2026-02-15T23:38 | 1534 | 840 | 1.1 | -1.0 | ||
| 2026-02-15T23:38 | 1663 | 827 | 316 | 4 | ||
| 2026-02-15T23:38 | 1717 | 822 | -0.3 | -3.2 | ||
| 2026-02-15T23:38 | 1827 | 811 | -0.9 | -5.1 | ||
| 2026-02-15T23:39 | 1882 | 805 | -0.6 | -5.8 | ||
| 2026-02-15T23:39 | 1888 | 804 | 301 | 8 | ||
| 2026-02-15T23:39 | 2035 | 790 | -1.4 | -5.8 | ||
| 2026-02-15T23:39 | 2094 | 784 | 257 | 6 | ||
| 2026-02-15T23:40 | 2215 | 772 | -2.2 | -7.5 | ||
| 2026-02-15T23:40 | 2308 | 763 | -0.6 | -12.9 | ||
| 2026-02-15T23:40 | 2326 | 761 | 240 | 12 | ||
| 2026-02-15T23:40 | 2433 | 751 | 0.5 | -18.3 | ||
| 2026-02-15T23:41 | 2587 | 737 | 0.4 | -21.9 | ||
| 2026-02-15T23:41 | 2593 | 736 | 245 | 18 | ||
| 2026-02-15T23:41 | 2882 | 710 | 247 | 16 | ||
| 2026-02-15T23:42 | 3135 | 688 | 254 | 19 | ||
| 2026-02-15T23:43 | 3468 | 659 | -7.2 | -26.4 | ||
| 2026-02-15T23:43 | 3506 | 656 | 256 | 23 | ||
| 2026-02-15T23:44 | 3683 | 641 | -8.6 | -30.0 | ||
| 2026-02-15T23:44 | 3824 | 630 | 265 | 25 | ||
| 2026-02-15T23:45 | 4007 | 615 | 266 | 29 | ||
| 2026-02-15T23:45 | 4025 | 613 | -10.4 | -28.1 | ||
| 2026-02-15T23:45 | 4084 | 609 | -10.8 | -18.1 | ||
| 2026-02-15T23:45 | 4138 | 604 | 263 | 26 | ||
| 2026-02-15T23:45 | 4150 | 604 | -11.4 | -17.4 | ||
| 2026-02-15T23:45 | 4222 | 598 | -12.1 | -15.3 | ||
| 2026-02-15T23:45 | 4295 | 592 | -12.2 | -16.6 | ||
| 2026-02-15T23:46 | 4392 | 585 | -11.4 | -22.0 | ||
| 2026-02-15T23:46 | 4501 | 576 | 260 | 29 | ||
| 2026-02-15T23:47 | 4837 | 551 | 259 | 30 | ||
| 2026-02-15T23:47 | 5015 | 539 | -15.9 | -29.9 | ||
| 2026-02-15T23:48 | 5158 | 529 | 254 | 29 | ||
| 2026-02-15T23:48 | 5339 | 516 | -18.5 | -34.1 | ||
| 2026-02-15T23:49 | 5488 | 506 | 251 | 28 | ||
| 2026-02-15T23:50 | 5807 | 484 | 249 | 29 | ||
| 2026-02-15T23:50 | 5900 | 478 | 252 | 29 | ||
| 2026-02-15T23:51 | 6002 | 472 | -24.7 | -37.7 | ||
| 2026-02-15T23:51 | 6096 | 466 | 253 | 29 | ||
| 2026-02-15T23:51 | 6131 | 463 | -25.4 | -45.2 | ||
| 2026-02-15T23:51 | 6228 | 457 | -25.7 | -58.5 | ||
| 2026-02-15T23:52 | 6391 | 447 | 255 | 30 | ||
| 2026-02-15T23:53 | 6605 | 434 | -28.0 | -53.3 | ||
| 2026-02-15T23:53 | 6688 | 429 | -28.1 | -43.3 | 257 | 32 |
| 2026-02-15T23:53 | 6763 | 424 | -28.8 | -38.2 | ||
| 2026-02-15T23:54 | 6920 | 415 | 254 | 30 | ||
| 2026-02-15T23:54 | 7087 | 406 | -31.5 | -41.1 | ||
| 2026-02-15T23:55 | 7222 | 398 | 260 | 30 | ||
| 2026-02-15T23:55 | 7414 | 387 | 264 | 31 | ||
| 2026-02-15T23:56 | 7536 | 381 | -34.5 | -44.6 | ||
| 2026-02-15T23:56 | 7628 | 376 | -34.4 | -50.5 | ||
| 2026-02-15T23:56 | 7673 | 373 | 268 | 36 | ||
| 2026-02-15T23:57 | 8003 | 356 | 275 | 37 | ||
| 2026-02-15T23:58 | 8137 | 349 | -38.6 | -61.6 | ||
| 2026-02-15T23:58 | 8157 | 348 | 273 | 36 | ||
| 2026-02-15T23:58 | 8286 | 341 | -40.0 | -61.7 | ||
| 2026-02-15T23:58 | 8460 | 333 | 275 | 37 | ||
| 2026-02-15T23:59 | 8784 | 317 | 274 | 37 | ||
| 2026-02-16T00:00 | 9066 | 304 | 272 | 38 | ||
| 2026-02-16T00:01 | 9286 | 294 | -49.7 | |||
| 2026-02-16T00:01 | 9400 | 289 | 282 | 42 | ||
| 2026-02-16T00:02 | 9619 | 279 | 285 | 44 | ||
| 2026-02-16T00:03 | 9948 | 265 | 286 | 48 | ||
| 2026-02-16T00:04 | 10279 | 252 | 287 | 48 | ||
| 2026-02-16T00:04 | 10545 | 241 | -60.3 | |||
| 2026-02-16T00:04 | 10575 | 240 | 290 | 47 | ||
| 2026-02-16T00:05 | 10846 | 230 | 285 | 38 | ||
| 2026-02-16T00:05 | 10950 | 226 | -62.0 | |||
| 2026-02-16T00:06 | 11140 | 219 | 277 | 36 | ||
| 2026-02-16T00:07 | 11359 | 212 | -64.9 | |||
| 2026-02-16T00:07 | 11380 | 211 | 272 | 39 | ||
| 2026-02-16T00:07 | 11493 | 207 | -62.3 | |||
| 2026-02-16T00:07 | 11564 | 205 | 272 | 53 | ||
| 2026-02-16T00:07 | 11570 | 204 | -57.4 | |||
| 2026-02-16T00:08 | 11704 | 200 | -55.4 | |||
| 2026-02-16T00:08 | 11919 | 194 | -54.0 | |||
| 2026-02-16T00:08 | 11938 | 193 | 274 | 53 | ||
| 2026-02-16T00:09 | 12021 | 191 | -53.4 | |||
| 2026-02-16T00:09 | 12137 | 187 | -53.4 | |||
| 2026-02-16T00:09 | 12307 | 182 | 270 | 55 | ||
| 2026-02-16T00:10 | 12562 | 175 | -54.1 | |||
| 2026-02-16T00:10 | 12671 | 172 | 269 | 55 | ||
| 2026-02-16T00:11 | 12853 | 167 | -53.5 | |||
| 2026-02-16T00:11 | 13044 | 163 | 272 | 53 | ||
| 2026-02-16T00:12 | 13228 | 158 | -55.3 | |||
| 2026-02-16T00:12 | 13388 | 154 | 272 | 54 | ||
| 2026-02-16T00:13 | 13560 | 150 | 273 | 53 | ||
| 2026-02-16T00:13 | 13630 | 148 | -55.9 | |||
| 2026-02-16T00:13 | 13786 | 145 | 273 | 48 | ||
| 2026-02-16T00:14 | 13975 | 140 | -56.8 | |||
| 2026-02-16T00:14 | 14122 | 137 | 275 | 49 | ||
| 2026-02-16T00:15 | 14184 | 136 | -57.5 | |||
| 2026-02-16T00:15 | 14348 | 132 | -57.3 | |||
| 2026-02-16T00:15 | 14389 | 132 | 276 | 47 | ||
| 2026-02-16T00:16 | 14578 | 128 | -58.8 | |||
| 2026-02-16T00:16 | 14729 | 125 | 270 | 43 | ||
| 2026-02-16T00:17 | 14880 | 122 | 269 | 45 | ||
| 2026-02-16T00:17 | 15120 | 117 | -61.4 | |||
| 2026-02-16T00:17 | 15135 | 117 | 275 | 47 | ||
| 2026-02-16T00:18 | 15426 | 111 | 279 | 44 | ||
| 2026-02-16T00:19 | 15629 | 108 | -60.6 | |||
| 2026-02-16T00:19 | 15702 | 107 | 272 | 42 | ||
| 2026-02-16T00:20 | 15979 | 102 | 268 | 42 | ||
| 2026-02-16T00:21 | 16058 | 101 | -61.5 | |||
| 2026-02-16T00:21 | 16144 | 99 | -60.8 | |||
| 2026-02-16T00:21 | 16278 | 97 | 272 | 42 | ||
| 2026-02-16T00:21 | 16317 | 97 | -60.4 | |||
| 2026-02-16T00:22 | 16396 | 95 | 276 | 39 | ||
| 2026-02-16T00:22 | 16460 | 94 | -57.7 | |||
| 2026-02-16T00:22 | 16542 | 93 | 274 | 35 | ||
| 2026-02-16T00:23 | 16880 | 88 | 269 | 34 | ||
| 2026-02-16T00:24 | 17079 | 85 | -61.3 | |||
| 2026-02-16T00:24 | 17217 | 84 | 260 | 34 | ||
| 2026-02-16T00:25 | 17427 | 81 | -62.5 | |||
| 2026-02-16T00:25 | 17520 | 80 | 264 | 34 | ||
| 2026-02-16T00:26 | 17808 | 76 | 259 | 29 | ||
| 2026-02-16T00:26 | 17859 | 75 | -60.3 | |||
| 2026-02-16T00:27 | 18120 | 72 | 260 | 30 | ||
| 2026-02-16T00:28 | 18249 | 71 | -62.2 | |||
| 2026-02-16T00:28 | 18292 | 70 | 266 | 27 | ||
| 2026-02-16T00:28 | 18452 | 68 | -61.8 | |||
| 2026-02-16T00:29 | 18569 | 67 | 274 | 22 | ||
| 2026-02-16T00:29 | 18634 | 66 | -62.2 | |||
| 2026-02-16T00:29 | 18795 | 65 | -61.7 | |||
| 2026-02-16T00:30 | 18873 | 64 | 278 | 23 | ||
| 2026-02-16T00:30 | 19131 | 61 | -59.3 | |||
| 2026-02-16T00:31 | 19174 | 61 | 286 | 17 | ||
| 2026-02-16T00:32 | 19524 | 58 | 259 | 13 | ||
| 2026-02-16T00:32 | 19666 | 56 | -59.6 | |||
| 2026-02-16T00:32 | 19744 | 56 | 238 | 12 | ||
| 2026-02-16T00:33 | 19982 | 54 | -59.6 | |||
| 2026-02-16T00:33 | 20054 | 53 | -57.2 | |||
| 2026-02-16T00:33 | 20065 | 53 | 254 | 20 | ||
| 2026-02-16T00:34 | 20397 | 50 | 267 | 17 | ||
| 2026-02-16T00:35 | 20693 | 48 | 274 | 14 | ||
| 2026-02-16T00:36 | 21016 | 45 | 246 | 15 | ||
| 2026-02-16T00:37 | 21257 | 44 | -58.0 | |||
| 2026-02-16T00:37 | 21372 | 43 | 248 | 20 | ||
| 2026-02-16T00:38 | 21720 | 41 | 270 | 16 | ||
| 2026-02-16T00:38 | 21781 | 40 | -56.2 | |||
| 2026-02-16T00:39 | 22058 | 39 | 258 | 18 | ||
| 2026-02-16T00:40 | 22298 | 37 | -53.7 | |||
| 2026-02-16T00:40 | 22400 | 37 | 262 | 21 | ||
| 2026-02-16T00:41 | 22653 | 35 | 279 | 19 | ||
| 2026-02-16T00:41 | 22722 | 35 | -54.3 | |||
| 2026-02-16T00:41 | 22952 | 34 | 272 | 18 | ||
| 2026-02-16T00:42 | 23107 | 33 | -52.9 | |||
| 2026-02-16T00:42 | 23287 | 32 | 253 | 12 | ||
| 2026-02-16T00:43 | 23347 | 32 | -53.1 | |||
| 2026-02-16T00:43 | 23663 | 30 | 275 | 11 | ||
| 2026-02-16T00:44 | 24034 | 28 | 243 | 8 | ||
| 2026-02-16T00:45 | 24058 | 28 | -54.3 | |||
| 2026-02-16T00:46 | 24456 | 27 | 260 | 8 | ||
| 2026-02-16T00:47 | 24826 | 25 | 262 | 9 | ||
| 2026-02-16T00:47 | 24901 | 25 | -56.7 | |||
| 2026-02-16T00:47 | 25167 | 24 | 311 | 12 | ||
| 2026-02-16T00:48 | 25439 | 23 | -55.6 | |||
| 2026-02-16T00:48 | 25525 | 22 | 342 | 14 | ||
| 2026-02-16T00:49 | 25845 | 21 | 328 | 4 | ||
| 2026-02-16T00:50 | 25995 | 21 | -57.3 | 355 | 3 | |
| 2026-02-16T00:50 | 26270 | 20 | 323 | 2 | ||
| 2026-02-16T00:51 | 26465 | 19 | 277 | 5 | ||
| 2026-02-16T00:51 | 26496 | 19 | -59.9 | |||
| 2026-02-16T00:51 | 26661 | 19 | -58.9 | 304 | 8 | |
| 2026-02-16T00:52 | 26796 | 18 | -56.9 | |||
| 2026-02-16T00:52 | 26832 | 18 | 10 | 5 | ||
| 2026-02-16T00:52 | 27080 | 18 | 19 | 6 | ||
| 2026-02-16T00:53 | 27224 | 17 | 18 | 6 | ||
| 2026-02-16T00:53 | 27408 | 17 | 352 | 4 | ||
| 2026-02-16T00:54 | 27521 | 16 | -60.5 | 282 | 4 | |
| 2026-02-16T00:54 | 27677 | 16 | 261 | 4 | ||
| 2026-02-16T00:54 | 27837 | 16 | -57.1 | 158 | 5 | |
| 2026-02-16T00:55 | 28087 | 15 | 150 | 7 | ||
| 2026-02-16T00:55 | 28258 | 15 | -58.0 | 181 | 3 | |
| 2026-02-16T00:56 | 28390 | 14 | 118 | 4 | ||
| 2026-02-16T00:56 | 28620 | 14 | -55.5 | |||
| 2026-02-16T00:57 | 28711 | 14 | 145 | 4 | ||
| 2026-02-16T00:58 | 29151 | 13 | 194 | 11 | ||
| 2026-02-16T00:58 | 29356 | 12 | 211 | 11 | ||
| 2026-02-16T00:59 | 29515 | 12 | -55.2 | 220 | 13 | |
| 2026-02-16T00:59 | 29623 | 12 | 226 | 10 | ||
| 2026-02-16T00:59 | 29788 | 11 | 216 | 7 | ||
| 2026-02-16T01:00 | 29959 | 11 | -55.6 | |||
| 2026-02-16T01:00 | 30017 | 11 | 242 | 8 | ||
| 2026-02-16T01:00 | 30193 | 11 | 247 | 10 | ||
| 2026-02-16T01:01 | 30375 | 10 | 240 | 7 | ||
| 2026-02-16T01:01 | 30497 | 10 | 241 | 6 | ||
| 2026-02-16T01:01 | 30691 | 10 | 230 | 9 | ||
| 2026-02-16T01:02 | 30888 | 10 | 263 | 13 | ||
| 2026-02-16T01:02 | 31097 | 9 | 273 | 9 | ||
| 2026-02-16T01:03 | 31238 | 9 | -52.7 | 264 | 9 | |
| 2026-02-16T01:03 | 31379 | 9 | 287 | 14 | ||
| 2026-02-16T01:04 | 31677 | 9 | 312 | 12 | ||
| 2026-02-16T01:04 | 31833 | 8 | -49.3 | |||
| 2026-02-16T01:04 | 31910 | 8 | 328 | 11 | ||
| 2026-02-16T01:05 | 32072 | 8 | -44.8 | |||
| 2026-02-16T01:05 | 32158 | 8 | 339 | 6 | ||
| 2026-02-16T01:05 | 32329 | 8 | 350 | 7 | ||
| 2026-02-16T01:06 | 32509 | 8 | 28 | 10 | ||
| 2026-02-16T01:06 | 32685 | 7 | -44.2 | |||
| 2026-02-16T01:07 | 32778 | 7 | 40 | 6 | ||
| 2026-02-16T01:07 | 32957 | 7 | -44.6 | 63 | 6 | |
| 2026-02-16T11:33 | 26 | 1013 | 6.1 | 4.6 | 50 | 2 |
| 2026-02-16T11:33 | 31 | 1012 | 6.3 | 4.1 | 0 | 0 |
| 2026-02-16T11:33 | 86 | 1006 | 58 | 7 | ||
| 2026-02-16T11:33 | 91 | 1005 | 6.1 | 2.4 | ||
| 2026-02-16T11:34 | 210 | 991 | 70 | 10 | ||
| 2026-02-16T11:35 | 536 | 952 | 80 | 11 | ||
| 2026-02-16T11:35 | 640 | 939 | 2.0 | 0.4 | ||
| 2026-02-16T11:35 | 735 | 929 | 84 | 14 | ||
| 2026-02-16T11:36 | 1031 | 895 | 102 | 10 | ||
| 2026-02-16T11:37 | 1288 | 867 | 131 | 7 | ||
| 2026-02-16T11:38 | 1470 | 847 | 158 | 5 | ||
| 2026-02-16T11:38 | 1563 | 837 | -2.8 | -3.6 | ||
| 2026-02-16T11:39 | 1762 | 816 | 201 | 4 | ||
| 2026-02-16T11:40 | 2067 | 786 | 226 | 7 | ||
| 2026-02-16T11:40 | 2108 | 781 | -5.7 | -6.8 | ||
| 2026-02-16T11:41 | 2370 | 756 | -6.9 | -8.1 | ||
| 2026-02-16T11:41 | 2375 | 755 | 235 | 10 | ||
| 2026-02-16T11:41 | 2466 | 746 | -6.5 | -7.7 | ||
| 2026-02-16T11:42 | 2717 | 723 | 235 | 18 | ||
| 2026-02-16T11:42 | 2728 | 722 | -6.9 | -8.1 | ||
| 2026-02-16T11:43 | 3036 | 694 | 237 | 21 | ||
| 2026-02-16T11:44 | 3368 | 664 | 244 | 23 | ||
| 2026-02-16T11:44 | 3617 | 643 | -12.4 | -13.8 | ||
| 2026-02-16T11:45 | 3733 | 634 | 252 | 25 | ||
| 2026-02-16T11:46 | 4069 | 606 | 256 | 31 | ||
| 2026-02-16T11:47 | 4313 | 587 | -17.0 | -18.8 | ||
| 2026-02-16T11:47 | 4369 | 583 | 251 | 32 | ||
| 2026-02-16T11:47 | 4532 | 570 | -17.9 | -20.7 | ||
| 2026-02-16T11:47 | 4537 | 570 | 251 | 35 | ||
| 2026-02-16T11:48 | 4716 | 556 | -19.1 | -24.4 | ||
| 2026-02-16T11:48 | 4864 | 545 | -19.8 | -30.5 | ||
| 2026-02-16T11:48 | 4876 | 544 | 254 | 37 | ||
| 2026-02-16T11:49 | 5024 | 534 | 248 | 37 | ||
| 2026-02-16T11:49 | 5098 | 528 | -21.1 | -34.5 | ||
| 2026-02-16T11:49 | 5266 | 516 | 256 | 37 | ||
| 2026-02-16T11:50 | 5556 | 496 | -23.7 | -39.9 | ||
| 2026-02-16T11:50 | 5562 | 496 | 260 | 39 | ||
| 2026-02-16T11:51 | 5676 | 488 | 262 | 37 | ||
| 2026-02-16T11:51 | 5783 | 481 | -25.2 | -41.2 | ||
| 2026-02-16T11:51 | 5861 | 476 | 257 | 41 | ||
| 2026-02-16T11:51 | 5972 | 469 | -25.5 | -40.6 | 258 | 44 |
| 2026-02-16T11:52 | 6066 | 463 | 258 | 44 | ||
| 2026-02-16T11:53 | 6359 | 444 | -28.0 | -43.2 | ||
| 2026-02-16T11:53 | 6393 | 442 | 262 | 45 | ||
| 2026-02-16T11:53 | 6617 | 429 | -30.1 | -47.3 | ||
| 2026-02-16T11:54 | 6738 | 421 | 265 | 46 | ||
| 2026-02-16T11:54 | 7019 | 405 | 265 | 47 | ||
| 2026-02-16T11:55 | 7025 | 405 | -33.1 | -48.4 | ||
| 2026-02-16T11:55 | 7363 | 385 | -35.7 | -49.1 | 265 | 47 |
| 2026-02-16T11:56 | 7689 | 368 | -37.3 | -49.8 | ||
| 2026-02-16T11:56 | 7695 | 367 | 269 | 53 | ||
| 2026-02-16T11:57 | 7967 | 353 | -38.6 | -50.9 | ||
| 2026-02-16T11:57 | 8029 | 350 | 275 | 60 | ||
| 2026-02-16T11:58 | 8057 | 349 | -39.0 | -51.6 | ||
| 2026-02-16T11:58 | 8194 | 342 | -40.0 | -52.9 | ||
| 2026-02-16T11:58 | 8390 | 332 | 269 | 60 | ||
| 2026-02-16T11:59 | 8540 | 325 | -43.0 | |||
| 2026-02-16T11:59 | 8763 | 314 | 270 | 63 | ||
| 2026-02-16T12:01 | 9135 | 297 | 268 | 62 | ||
| 2026-02-16T12:01 | 9292 | 290 | 268 | 63 | ||
| 2026-02-16T12:02 | 9553 | 278 | 268 | 63 | ||
| 2026-02-16T12:02 | 9663 | 274 | -52.6 | |||
| 2026-02-16T12:03 | 9869 | 265 | 271 | 66 | ||
| 2026-02-16T12:03 | 10091 | 256 | 273 | 71 | ||
| 2026-02-16T12:04 | 10302 | 248 | -54.7 | |||
| 2026-02-16T12:04 | 10333 | 247 | 268 | 70 | ||
| 2026-02-16T12:04 | 10408 | 244 | -53.5 | |||
| 2026-02-16T12:05 | 10713 | 232 | 270 | 68 | ||
| 2026-02-16T12:05 | 10793 | 230 | -54.6 | |||
| 2026-02-16T12:05 | 10858 | 227 | 273 | 64 | ||
| 2026-02-16T12:06 | 11001 | 222 | -55.5 | |||
| 2026-02-16T12:06 | 11202 | 215 | 268 | 60 | ||
| 2026-02-16T12:07 | 11558 | 204 | 273 | 58 | ||
| 2026-02-16T12:08 | 11621 | 202 | -54.9 | |||
| 2026-02-16T12:08 | 11771 | 197 | -54.3 | |||
| 2026-02-16T12:08 | 11954 | 191 | 269 | 58 | ||
| 2026-02-16T12:09 | 12076 | 188 | -53.9 | |||
| 2026-02-16T12:09 | 12240 | 183 | 264 | 55 | ||
| 2026-02-16T12:10 | 12523 | 175 | -52.2 | |||
| 2026-02-16T12:10 | 12638 | 172 | 274 | 55 | ||
| 2026-02-16T12:11 | 13006 | 163 | 277 | 50 | ||
| 2026-02-16T12:12 | 13249 | 156 | 274 | 48 | ||
| 2026-02-16T12:12 | 13255 | 156 | -56.7 | |||
| 2026-02-16T12:13 | 13554 | 149 | 272 | 50 | ||
| 2026-02-16T12:14 | 13911 | 141 | 270 | 49 | ||
| 2026-02-16T12:14 | 14065 | 138 | 269 | 49 | ||
| 2026-02-16T12:15 | 14227 | 134 | -58.2 | |||
| 2026-02-16T12:15 | 14352 | 131 | 268 | 55 | ||
| 2026-02-16T12:15 | 14426 | 130 | -58.9 | |||
| 2026-02-16T12:16 | 14531 | 128 | -58.6 | |||
| 2026-02-16T12:16 | 14669 | 125 | 273 | 53 | ||
| 2026-02-16T12:17 | 14961 | 119 | -60.2 | |||
| 2026-02-16T12:17 | 14982 | 119 | 272 | 53 | ||
| 2026-02-16T12:18 | 15197 | 115 | -59.9 | |||
| 2026-02-16T12:18 | 15244 | 114 | 273 | 51 | ||
| 2026-02-16T12:19 | 15442 | 110 | -57.0 | |||
| 2026-02-16T12:19 | 15538 | 109 | 264 | 46 | ||
| 2026-02-16T12:19 | 15655 | 107 | -56.2 | |||
| 2026-02-16T12:20 | 15831 | 104 | 270 | 43 | ||
| 2026-02-16T12:20 | 15937 | 102 | -57.4 | |||
| 2026-02-16T12:21 | 16119 | 99 | 277 | 37 | ||
| 2026-02-16T12:22 | 16410 | 95 | 267 | 36 | ||
| 2026-02-16T12:23 | 16735 | 90 | 260 | 34 | ||
| 2026-02-16T12:23 | 16862 | 88 | 252 | 32 | ||
| 2026-02-16T12:23 | 16900 | 88 | -59.7 | |||
| 2026-02-16T12:24 | 17269 | 83 | 245 | 34 | ||
| 2026-02-16T12:24 | 17331 | 82 | -62.0 | |||
| 2026-02-16T12:25 | 17546 | 79 | 256 | 41 | ||
| 2026-02-16T12:25 | 17600 | 78 | -61.8 | |||
| 2026-02-16T12:26 | 17795 | 76 | -60.4 | |||
| 2026-02-16T12:26 | 17844 | 75 | 265 | 41 | ||
| 2026-02-16T12:27 | 18142 | 72 | 274 | 39 | ||
| 2026-02-16T12:28 | 18291 | 70 | -59.6 | |||
| 2026-02-16T12:28 | 18444 | 68 | 284 | 36 | ||
| 2026-02-16T12:28 | 18538 | 67 | 284 | 30 | ||
| 2026-02-16T12:28 | 18546 | 67 | -57.6 | |||
| 2026-02-16T12:29 | 18672 | 66 | 274 | 20 | ||
| 2026-02-16T12:29 | 18738 | 65 | -55.6 | |||
| 2026-02-16T12:30 | 18996 | 63 | 249 | 15 | ||
| 2026-02-16T12:31 | 19317 | 60 | 249 | 18 | ||
| 2026-02-16T12:31 | 19443 | 58 | -59.3 | |||
| 2026-02-16T12:32 | 19598 | 57 | 251 | 23 | ||
| 2026-02-16T12:32 | 19728 | 56 | 254 | 23 | ||
| 2026-02-16T12:32 | 19784 | 55 | -58.1 | |||
| 2026-02-16T12:33 | 19844 | 55 | 253 | 22 | ||
| 2026-02-16T12:33 | 19904 | 54 | -55.3 | |||
| 2026-02-16T12:34 | 20191 | 52 | -54.5 | 275 | 23 | |
| 2026-02-16T12:34 | 20483 | 50 | -53.7 | |||
| 2026-02-16T12:35 | 20520 | 49 | 265 | 19 | ||
| 2026-02-16T12:36 | 20843 | 47 | 259 | 19 | ||
| 2026-02-16T12:36 | 20897 | 46 | -52.9 | |||
| 2026-02-16T12:36 | 21094 | 45 | 254 | 22 | ||
| 2026-02-16T12:37 | 21369 | 43 | 243 | 19 | ||
| 2026-02-16T12:38 | 21737 | 41 | 259 | 23 | ||
| 2026-02-16T12:39 | 22024 | 39 | -55.6 | |||
| 2026-02-16T12:39 | 22041 | 39 | 263 | 26 | ||
| 2026-02-16T12:40 | 22378 | 37 | 270 | 20 | ||
| 2026-02-16T12:41 | 22625 | 35 | 242 | 15 | ||
| 2026-02-16T12:41 | 22642 | 35 | -54.3 | |||
| 2026-02-16T12:41 | 22883 | 34 | -54.8 | |||
| 2026-02-16T12:42 | 22979 | 34 | 238 | 18 | ||
| 2026-02-16T12:43 | 23338 | 32 | 239 | 17 | ||
| 2026-02-16T12:43 | 23377 | 32 | -52.3 | |||
| 2026-02-16T12:44 | 23715 | 30 | 253 | 16 | ||
| 2026-02-16T12:45 | 24069 | 28 | 266 | 18 | ||
| 2026-02-16T12:45 | 24186 | 28 | 264 | 16 | ||
| 2026-02-16T12:46 | 24423 | 27 | 247 | 12 | ||
| 2026-02-16T12:47 | 24717 | 26 | -51.6 | |||
| 2026-02-16T12:47 | 24769 | 25 | 237 | 10 | ||
| 2026-02-16T12:47 | 24976 | 25 | -52.2 | |||
| 2026-02-16T12:48 | 25161 | 24 | 197 | 6 | ||
| 2026-02-16T12:48 | 25381 | 23 | 197 | 6 | ||
| 2026-02-16T12:49 | 25547 | 23 | 220 | 7 | ||
| 2026-02-16T12:50 | 25922 | 21 | 246 | 9 | ||
| 2026-02-16T12:50 | 25982 | 21 | -58.6 | |||
| 2026-02-16T12:50 | 26134 | 21 | -56.5 | |||
| 2026-02-16T12:51 | 26257 | 20 | 290 | 9 | ||
| 2026-02-16T12:51 | 26517 | 19 | 306 | 7 | ||
| 2026-02-16T12:52 | 26613 | 19 | 291 | 3 | ||
| 2026-02-16T12:52 | 26815 | 18 | 249 | 2 | ||
| 2026-02-16T12:53 | 26915 | 18 | 210 | 3 | ||
| 2026-02-16T12:53 | 27198 | 17 | 236 | 9 | ||
| 2026-02-16T12:53 | 27233 | 17 | -59.9 | |||
| 2026-02-16T12:54 | 27422 | 17 | -56.8 | |||
| 2026-02-16T12:54 | 27535 | 16 | 276 | 9 | ||
| 2026-02-16T12:55 | 27731 | 16 | 282 | 13 | ||
| 2026-02-16T12:56 | 28108 | 15 | 305 | 11 | ||
| 2026-02-16T12:56 | 28233 | 15 | 297 | 9 | ||
| 2026-02-16T12:56 | 28365 | 14 | -53.8 | |||
| 2026-02-16T12:57 | 28500 | 14 | 330 | 13 | ||
| 2026-02-16T12:57 | 28733 | 14 | -54.3 | |||
| 2026-02-16T12:58 | 28826 | 13 | 19 | 7 | ||
| 2026-02-16T12:58 | 29117 | 13 | 52 | 7 | ||
| 2026-02-16T12:58 | 29167 | 13 | -57.4 | |||
| 2026-02-16T12:59 | 29217 | 13 | 68 | 2 | ||
| 2026-02-16T12:59 | 29321 | 12 | 37 | 3 | ||
| 2026-02-16T12:59 | 29425 | 12 | 122 | 4 | ||
| 2026-02-16T12:59 | 29475 | 12 | 144 | 5 | ||
| 2026-02-16T13:00 | 29637 | 12 | 115 | 3 | ||
| 2026-02-16T13:00 | 29800 | 12 | 226 | 3 | ||
| 2026-02-16T13:00 | 29857 | 11 | 265 | 4 | ||
| 2026-02-16T13:00 | 29914 | 11 | 327 | 4 | ||
| 2026-02-16T13:01 | 29973 | 11 | 360 | 7 | ||
| 2026-02-16T13:01 | 30029 | 11 | -52.4 | 6 | 6 | |
| 2026-02-16T13:01 | 30207 | 11 | 39 | 8 | ||
| 2026-02-16T13:02 | 30387 | 11 | -52.8 | |||
| 2026-02-16T13:02 | 30449 | 10 | 34 | 5 | ||
| 2026-02-16T13:02 | 30642 | 10 | 77 | 6 | ||
| 2026-02-16T13:03 | 30835 | 10 | 79 | 3 | ||
| 2026-02-16T13:03 | 30900 | 10 | -53.8 | 14 | 1 | |
| 2026-02-17T00:32 | 26 | 1019 | 4.8 | -1.2 | 360 | 2 |
| 2026-02-17T00:32 | 32 | 1018 | 4.6 | -2.7 | 76 | 6 |
| 2026-02-17T00:32 | 38 | 1017 | 81 | 6 | ||
| 2026-02-17T00:32 | 43 | 1017 | 83 | 13 | ||
| 2026-02-17T00:32 | 55 | 1015 | 82 | 38 | ||
| 2026-02-17T00:32 | 60 | 1015 | 81 | 43 | ||
| 2026-02-17T00:32 | 71 | 1013 | 78 | 38 | ||
| 2026-02-17T00:32 | 90 | 1011 | 3.5 | -4.7 | ||
| 2026-02-17T00:32 | 100 | 1010 | 70 | 15 | ||
| 2026-02-17T00:32 | 134 | 1005 | 33 | 4 | ||
| 2026-02-17T00:32 | 162 | 1002 | 339 | 4 | ||
| 2026-02-17T00:33 | 195 | 998 | 359 | 4 | ||
| 2026-02-17T00:33 | 328 | 981 | 54 | 4 | ||
| 2026-02-17T00:34 | 613 | 947 | 41 | 5 | ||
| 2026-02-17T00:34 | 619 | 946 | -1.1 | -7.7 | ||
| 2026-02-17T00:34 | 812 | 924 | 358 | 3 | ||
| 2026-02-17T00:35 | 840 | 920 | -2.7 | -7.8 | ||
| 2026-02-17T00:35 | 953 | 907 | 38 | 4 | ||
| 2026-02-17T00:35 | 1141 | 886 | 56 | 3 | ||
| 2026-02-17T00:36 | 1238 | 875 | -6.3 | -8.9 | ||
| 2026-02-17T00:36 | 1349 | 863 | 17 | 2 | ||
| 2026-02-17T00:36 | 1439 | 853 | -6.5 | -8.9 | ||
| 2026-02-17T00:37 | 1486 | 848 | 322 | 2 | ||
| 2026-02-17T00:37 | 1501 | 846 | -7.0 | -10.5 | ||
| 2026-02-17T00:37 | 1577 | 838 | -7.2 | -12.1 | ||
| 2026-02-17T00:37 | 1618 | 834 | -5.1 | -7.4 | ||
| 2026-02-17T00:37 | 1648 | 830 | 253 | 5 | ||
| 2026-02-17T00:37 | 1766 | 818 | -5.5 | -6.7 | ||
| 2026-02-17T00:38 | 1929 | 801 | 216 | 11 | ||
| 2026-02-17T00:38 | 1945 | 800 | -5.9 | -6.2 | ||
| 2026-02-17T00:39 | 2113 | 783 | 219 | 14 | ||
| 2026-02-17T00:39 | 2183 | 776 | -7.2 | -8.0 | ||
| 2026-02-17T00:40 | 2438 | 750 | 249 | 14 | ||
| 2026-02-17T00:40 | 2492 | 745 | -9.1 | -10.4 | ||
| 2026-02-17T00:40 | 2644 | 731 | 252 | 12 | ||
| 2026-02-17T00:41 | 2796 | 716 | -10.8 | -14.2 | ||
| 2026-02-17T00:41 | 2939 | 703 | 228 | 10 | ||
| 2026-02-17T00:42 | 3145 | 685 | -13.4 | -16.1 | ||
| 2026-02-17T00:42 | 3198 | 680 | -13.5 | -18.3 | ||
| 2026-02-17T00:42 | 3271 | 673 | 244 | 8 | ||
| 2026-02-17T00:42 | 3352 | 666 | -14.4 | -23.3 | ||
| 2026-02-17T00:42 | 3415 | 661 | -14.4 | -37.6 | ||
| 2026-02-17T00:43 | 3490 | 654 | -14.8 | -41.9 | ||
| 2026-02-17T00:43 | 3558 | 648 | 285 | 9 | ||
| 2026-02-17T00:43 | 3726 | 634 | 291 | 8 | ||
| 2026-02-17T00:44 | 3826 | 625 | -15.5 | -54.6 | ||
| 2026-02-17T00:44 | 3843 | 624 | 289 | 11 | ||
| 2026-02-17T00:44 | 3956 | 615 | -15.2 | -54.4 | ||
| 2026-02-17T00:45 | 4175 | 597 | 278 | 20 | ||
| 2026-02-17T00:45 | 4236 | 593 | -14.9 | -59.8 | ||
| 2026-02-17T00:45 | 4294 | 588 | -15.1 | -60.0 | ||
| 2026-02-17T00:45 | 4351 | 584 | 279 | 24 | ||
| 2026-02-17T00:46 | 4617 | 563 | 274 | 26 | ||
| 2026-02-17T00:47 | 4802 | 550 | 269 | 29 | ||
| 2026-02-17T00:47 | 4855 | 546 | -18.2 | -53.1 | ||
| 2026-02-17T00:48 | 5132 | 526 | 272 | 31 | ||
| 2026-02-17T00:48 | 5362 | 510 | -21.8 | -38.8 | ||
| 2026-02-17T00:49 | 5473 | 502 | 267 | 32 | ||
| 2026-02-17T00:49 | 5687 | 487 | -24.5 | -36.5 | ||
| 2026-02-17T00:49 | 5800 | 480 | 262 | 34 | ||
| 2026-02-17T00:50 | 5942 | 471 | -26.7 | -33.2 | ||
| 2026-02-17T00:50 | 6114 | 460 | -28.0 | -32.7 | ||
| 2026-02-17T00:50 | 6130 | 458 | 266 | 33 | ||
| 2026-02-17T00:51 | 6246 | 451 | -28.6 | -36.4 | ||
| 2026-02-17T00:51 | 6362 | 444 | 264 | 34 | ||
| 2026-02-17T00:52 | 6530 | 433 | -31.2 | -35.2 | ||
| 2026-02-17T00:52 | 6556 | 432 | 262 | 34 | ||
| 2026-02-17T00:52 | 6725 | 422 | -32.4 | -36.8 | ||
| 2026-02-17T00:52 | 6746 | 420 | 265 | 34 | ||
| 2026-02-17T00:53 | 6846 | 414 | 266 | 36 | ||
| 2026-02-17T00:53 | 6884 | 412 | -33.4 | -37.4 | ||
| 2026-02-17T00:53 | 7103 | 400 | -34.9 | -39.5 | ||
| 2026-02-17T00:54 | 7181 | 395 | 265 | 37 | ||
| 2026-02-17T00:54 | 7282 | 389 | -36.5 | -42.1 | ||
| 2026-02-17T00:54 | 7360 | 385 | -37.1 | -43.2 | ||
| 2026-02-17T00:54 | 7377 | 384 | 265 | 35 | ||
| 2026-02-17T00:55 | 7472 | 379 | -38.0 | -43.4 | ||
| 2026-02-17T00:55 | 7542 | 375 | 261 | 38 | ||
| 2026-02-17T00:55 | 7755 | 364 | -40.0 | -45.1 | ||
| 2026-02-17T00:55 | 7778 | 362 | 262 | 42 | ||
| 2026-02-17T00:56 | 8123 | 344 | 254 | 48 | ||
| 2026-02-17T00:57 | 8196 | 341 | -43.3 | |||
| 2026-02-17T00:57 | 8469 | 327 | 258 | 46 | ||
| 2026-02-17T00:58 | 8581 | 322 | -46.5 | |||
| 2026-02-17T00:58 | 8663 | 318 | 258 | 52 | ||
| 2026-02-17T00:58 | 8800 | 311 | -47.4 | |||
| 2026-02-17T00:59 | 9014 | 301 | 261 | 58 | ||
| 2026-02-17T00:59 | 9104 | 297 | -49.7 | |||
| 2026-02-17T01:00 | 9372 | 285 | 259 | 60 | ||
| 2026-02-17T01:01 | 9710 | 270 | 262 | 58 | ||
| 2026-02-17T01:02 | 9910 | 262 | -55.2 | |||
| 2026-02-17T01:02 | 10063 | 256 | 260 | 57 | ||
| 2026-02-17T01:02 | 10225 | 249 | -53.6 | |||
| 2026-02-17T01:03 | 10280 | 247 | 266 | 62 | ||
| 2026-02-17T01:03 | 10481 | 240 | -52.9 | |||
| 2026-02-17T01:04 | 10649 | 234 | 266 | 63 | ||
| 2026-02-17T01:04 | 10832 | 227 | -50.7 | |||
| 2026-02-17T01:05 | 11018 | 221 | 267 | 62 | ||
| 2026-02-17T01:05 | 11301 | 211 | -51.7 | |||
| 2026-02-17T01:05 | 11328 | 210 | 268 | 62 | ||
| 2026-02-17T01:06 | 11466 | 206 | -51.9 | |||
| 2026-02-17T01:06 | 11532 | 204 | 270 | 62 | ||
| 2026-02-17T01:06 | 11661 | 200 | -51.4 | |||
| 2026-02-17T01:07 | 11834 | 195 | 267 | 64 | ||
| 2026-02-17T01:07 | 11981 | 190 | -51.8 | |||
| 2026-02-17T01:07 | 12147 | 185 | -50.7 | |||
| 2026-02-17T01:08 | 12232 | 183 | 268 | 64 | ||
| 2026-02-17T01:09 | 12615 | 172 | 268 | 59 | ||
| 2026-02-17T01:09 | 12674 | 171 | -53.5 | |||
| 2026-02-17T01:10 | 13009 | 162 | 268 | 61 | ||
| 2026-02-17T01:10 | 13192 | 158 | -54.8 | |||
| 2026-02-17T01:10 | 13302 | 155 | 267 | 60 | ||
| 2026-02-17T01:11 | 13591 | 148 | -56.3 | |||
| 2026-02-17T01:11 | 13626 | 147 | 267 | 58 | ||
| 2026-02-17T01:12 | 13789 | 144 | -56.5 | |||
| 2026-02-17T01:12 | 13843 | 142 | 263 | 57 | ||
| 2026-02-17T01:13 | 14124 | 136 | -56.6 | |||
| 2026-02-17T01:13 | 14139 | 136 | 268 | 56 | ||
| 2026-02-17T01:14 | 14451 | 129 | 271 | 58 | ||
| 2026-02-17T01:15 | 14665 | 125 | -59.9 | |||
| 2026-02-17T01:15 | 14764 | 123 | 267 | 50 | ||
| 2026-02-17T01:15 | 14789 | 123 | -59.3 | |||
| 2026-02-17T01:16 | 15058 | 117 | -59.8 | |||
| 2026-02-17T01:16 | 15112 | 116 | 266 | 47 | ||
| 2026-02-17T01:16 | 15235 | 114 | -59.8 | |||
| 2026-02-17T01:17 | 15338 | 112 | -59.8 | |||
| 2026-02-17T01:17 | 15412 | 111 | 263 | 51 | ||
| 2026-02-17T01:17 | 15485 | 110 | -58.7 | |||
| 2026-02-17T01:18 | 15706 | 106 | 266 | 50 | ||
| 2026-02-17T01:19 | 15972 | 101 | 269 | 43 | ||
| 2026-02-17T01:19 | 16175 | 98 | -61.0 | |||
| 2026-02-17T01:20 | 16284 | 96 | 267 | 41 | ||
| 2026-02-17T01:21 | 16552 | 92 | 259 | 43 | ||
| 2026-02-17T01:21 | 16759 | 89 | -61.2 | |||
| 2026-02-17T01:22 | 16877 | 88 | 263 | 45 | ||
| 2026-02-17T01:23 | 17189 | 83 | 260 | 37 | ||
| 2026-02-17T01:23 | 17334 | 81 | -61.3 | |||
| 2026-02-17T01:24 | 17501 | 79 | 259 | 33 | ||
| 2026-02-17T01:25 | 17810 | 75 | 255 | 35 | ||
| 2026-02-17T01:25 | 17916 | 74 | -63.3 | |||
| 2026-02-17T01:26 | 18122 | 72 | 264 | 37 | ||
| 2026-02-17T01:26 | 18217 | 71 | -60.7 | |||
| 2026-02-17T01:26 | 18260 | 70 | 265 | 32 | ||
| 2026-02-17T01:27 | 18480 | 68 | -58.0 | |||
| 2026-02-17T01:27 | 18592 | 66 | 243 | 27 | ||
| 2026-02-17T01:28 | 18892 | 63 | -59.5 | |||
| 2026-02-17T01:28 | 18912 | 63 | 246 | 32 | ||
| 2026-02-17T01:28 | 19063 | 62 | -58.5 | |||
| 2026-02-17T01:29 | 19207 | 60 | -58.8 | |||
| 2026-02-17T01:29 | 19252 | 60 | 244 | 30 | ||
| 2026-02-17T01:29 | 19313 | 59 | -57.9 | |||
| 2026-02-17T01:30 | 19563 | 57 | -57.5 | |||
| 2026-02-17T01:30 | 19595 | 57 | 259 | 28 | ||
| 2026-02-17T01:31 | 19849 | 54 | 257 | 25 | ||
| 2026-02-17T01:31 | 20000 | 53 | -56.5 | |||
| 2026-02-17T01:32 | 20194 | 52 | 248 | 29 | ||
| 2026-02-17T01:32 | 20207 | 51 | -56.3 | |||
| 2026-02-17T01:32 | 20370 | 50 | 249 | 22 | ||
| 2026-02-17T01:32 | 20422 | 50 | -54.0 | |||
| 2026-02-17T01:33 | 20686 | 48 | 258 | 22 | ||
| 2026-02-17T01:33 | 20739 | 47 | -55.1 | |||
| 2026-02-17T01:34 | 21001 | 45 | 266 | 22 | ||
| 2026-02-17T01:35 | 21232 | 44 | -52.6 | |||
| 2026-02-17T01:35 | 21350 | 43 | 263 | 18 | ||
| 2026-02-17T01:36 | 21703 | 41 | 254 | 16 | ||
| 2026-02-17T01:37 | 21847 | 40 | -54.4 | |||
| 2026-02-17T01:37 | 22063 | 39 | 229 | 16 | ||
| 2026-02-17T01:38 | 22426 | 36 | 240 | 19 | ||
| 2026-02-17T01:39 | 22514 | 36 | -54.6 | |||
| 2026-02-17T01:39 | 22784 | 34 | 244 | 18 | ||
| 2026-02-17T01:40 | 23168 | 32 | -54.9 | 241 | 17 | |
| 2026-02-17T01:41 | 23532 | 31 | 236 | 16 | ||
| 2026-02-17T01:42 | 23574 | 30 | -54.0 | |||
| 2026-02-17T01:42 | 23855 | 29 | 240 | 17 | ||
| 2026-02-17T01:43 | 24217 | 28 | 221 | 10 | ||
| 2026-02-17T01:44 | 24311 | 27 | -54.3 | |||
| 2026-02-17T01:44 | 24599 | 26 | 201 | 12 | ||
| 2026-02-17T01:45 | 24972 | 24 | 217 | 11 | ||
| 2026-02-17T01:46 | 25291 | 23 | -59.8 | |||
| 2026-02-17T01:46 | 25345 | 23 | 247 | 13 | ||
| 2026-02-17T01:47 | 25565 | 22 | 269 | 12 | ||
| 2026-02-17T01:48 | 25768 | 22 | 261 | 9 | ||
| 2026-02-17T01:48 | 25859 | 21 | -55.1 | |||
| 2026-02-17T01:48 | 26045 | 21 | 199 | 11 | ||
| 2026-02-17T01:49 | 26199 | 20 | -54.9 | |||
| 2026-02-17T01:49 | 26391 | 20 | 216 | 11 | ||
| 2026-02-17T01:50 | 26689 | 19 | 263 | 9 | ||
| 2026-02-17T01:50 | 26759 | 18 | -57.4 | |||
| 2026-02-17T01:50 | 26793 | 18 | 251 | 4 | ||
| 2026-02-17T01:50 | 26827 | 18 | 232 | 3 | ||
| 2026-02-17T01:51 | 26933 | 18 | 126 | 3 | ||
| 2026-02-17T01:51 | 27041 | 18 | 118 | 2 | ||
| 2026-02-17T01:51 | 27151 | 17 | -56.1 | |||
| 2026-02-17T01:51 | 27186 | 17 | 187 | 6 | ||
| 2026-02-17T01:52 | 27527 | 16 | 186 | 9 | ||
| 2026-02-17T01:53 | 27803 | 16 | 208 | 9 | ||
| 2026-02-17T01:53 | 27845 | 16 | -57.7 | |||
| 2026-02-17T01:53 | 27968 | 15 | 243 | 8 | ||
| 2026-02-17T01:54 | 28138 | 15 | 283 | 9 | ||
| 2026-02-17T01:54 | 28311 | 14 | -55.8 | |||
| 2026-02-17T01:54 | 28402 | 14 | 234 | 6 | ||
| 2026-02-17T01:54 | 28492 | 14 | 217 | 3 | ||
| 2026-02-17T01:55 | 28540 | 14 | -55.9 | |||
| 2026-02-17T01:55 | 28772 | 13 | -53.9 | 262 | 8 | |
| 2026-02-17T01:56 | 29220 | 13 | 332 | 7 | ||
| 2026-02-17T01:57 | 29480 | 12 | -54.1 | |||
| 2026-02-17T01:57 | 29588 | 12 | 43 | 5 | ||
| 2026-02-17T01:57 | 29753 | 12 | 44 | 3 | ||
| 2026-02-17T01:58 | 29809 | 11 | -54.5 | |||
| 2026-02-17T01:58 | 29918 | 11 | -53.3 | 231 | 3 | |
| 2026-02-17T11:33 | 26 | 1016 | 5.7 | 0.5 | 20 | 1 |
| 2026-02-17T11:33 | 31 | 1015 | 6.1 | -0.2 | 0 | 0 |
| 2026-02-17T11:33 | 35 | 1015 | 6.6 | 0.1 | ||
| 2026-02-17T11:33 | 53 | 1012 | 5.7 | -0.8 | ||
| 2026-02-17T11:33 | 174 | 997 | 56 | 5 | ||
| 2026-02-17T11:34 | 345 | 977 | 78 | 6 | ||
| 2026-02-17T11:34 | 428 | 967 | 3.2 | -1.6 | ||
| 2026-02-17T11:35 | 660 | 939 | 97 | 7 | ||
| 2026-02-17T11:35 | 854 | 917 | -0.5 | -1.8 | ||
| 2026-02-17T11:35 | 859 | 916 | 95 | 7 | ||
| 2026-02-17T11:36 | 1066 | 893 | -1.3 | -2.4 | ||
| 2026-02-17T11:36 | 1095 | 889 | 142 | 8 | ||
| 2026-02-17T11:37 | 1288 | 868 | 147 | 8 | ||
| 2026-02-17T11:37 | 1443 | 851 | -3.4 | -3.8 | ||
| 2026-02-17T11:37 | 1517 | 843 | 190 | 9 | ||
| 2026-02-17T11:38 | 1657 | 829 | 206 | 11 | ||
| 2026-02-17T11:38 | 1694 | 825 | -4.4 | -5.1 | ||
| 2026-02-17T11:39 | 1933 | 800 | 218 | 11 | ||
| 2026-02-17T11:39 | 1953 | 798 | -6.5 | -8.2 | ||
| 2026-02-17T11:39 | 2190 | 774 | 224 | 10 | ||
| 2026-02-17T11:40 | 2385 | 755 | 230 | 10 | ||
| 2026-02-17T11:41 | 2573 | 737 | -10.6 | -11.5 | ||
| 2026-02-17T11:41 | 2739 | 721 | -12.0 | -13.4 | ||
| 2026-02-17T11:41 | 2745 | 720 | 224 | 10 | ||
| 2026-02-17T11:41 | 2784 | 717 | -12.2 | -17.8 | ||
| 2026-02-17T11:42 | 2919 | 704 | -12.9 | -21.6 | ||
| 2026-02-17T11:42 | 3037 | 693 | -13.6 | -26.5 | ||
| 2026-02-17T11:42 | 3076 | 690 | 259 | 11 | ||
| 2026-02-17T11:42 | 3093 | 688 | -12.9 | -32.9 | ||
| 2026-02-17T11:43 | 3343 | 666 | -12.0 | -42.4 | ||
| 2026-02-17T11:43 | 3387 | 662 | 261 | 16 | ||
| 2026-02-17T11:43 | 3496 | 653 | -12.5 | -49.1 | ||
| 2026-02-17T11:43 | 3556 | 648 | 256 | 17 | ||
| 2026-02-17T11:44 | 3864 | 622 | 253 | 19 | ||
| 2026-02-17T11:45 | 3891 | 620 | -14.4 | -59.5 | ||
| 2026-02-17T11:45 | 4008 | 611 | -14.8 | -44.5 | ||
| 2026-02-17T11:45 | 4078 | 605 | -15.2 | -28.9 | ||
| 2026-02-17T11:45 | 4188 | 596 | 257 | 24 | ||
| 2026-02-17T11:46 | 4244 | 592 | -16.8 | -25.0 | ||
| 2026-02-17T11:46 | 4399 | 580 | -18.3 | -24.2 | ||
| 2026-02-17T11:46 | 4495 | 572 | -18.9 | -27.4 | ||
| 2026-02-17T11:46 | 4513 | 571 | 264 | 26 | ||
| 2026-02-17T11:46 | 4536 | 569 | -18.9 | -31.8 | ||
| 2026-02-17T11:47 | 4570 | 567 | -18.6 | -37.1 | ||
| 2026-02-17T11:47 | 4789 | 550 | -19.6 | -44.5 | ||
| 2026-02-17T11:47 | 4834 | 547 | 258 | 29 | ||
| 2026-02-17T11:48 | 4930 | 540 | -20.4 | -43.3 | ||
| 2026-02-17T11:48 | 4972 | 537 | 257 | 29 | ||
| 2026-02-17T11:49 | 5194 | 521 | 255 | 31 | ||
| 2026-02-17T11:49 | 5251 | 517 | -22.9 | -43.8 | ||
| 2026-02-17T11:49 | 5395 | 507 | 261 | 32 | ||
| 2026-02-17T11:49 | 5405 | 506 | -23.9 | -51.5 | ||
| 2026-02-17T11:50 | 5619 | 491 | -25.0 | -49.8 | ||
| 2026-02-17T11:50 | 5720 | 484 | 261 | 35 | ||
| 2026-02-17T11:51 | 6066 | 462 | 262 | 35 | ||
| 2026-02-17T11:52 | 6242 | 450 | -30.7 | -46.8 | ||
| 2026-02-17T11:52 | 6308 | 446 | 268 | 38 | ||
| 2026-02-17T11:52 | 6444 | 438 | 262 | 38 | ||
| 2026-02-17T11:53 | 6747 | 419 | -35.2 | -45.3 | ||
| 2026-02-17T11:53 | 6786 | 417 | 263 | 38 | ||
| 2026-02-17T11:54 | 6977 | 405 | -37.4 | -44.0 | ||
| 2026-02-17T11:54 | 7128 | 397 | 259 | 39 | ||
| 2026-02-17T11:55 | 7245 | 390 | -40.0 | -44.4 | ||
| 2026-02-17T11:55 | 7453 | 378 | 256 | 40 | ||
| 2026-02-17T11:55 | 7481 | 377 | -42.0 | |||
| 2026-02-17T11:56 | 7662 | 367 | 264 | 43 | ||
| 2026-02-17T11:56 | 7769 | 361 | 269 | 49 | ||
| 2026-02-17T11:56 | 7810 | 359 | -43.4 | |||
| 2026-02-17T11:57 | 7908 | 353 | 268 | 45 | ||
| 2026-02-17T11:57 | 8023 | 347 | -44.5 | |||
| 2026-02-17T11:58 | 8233 | 337 | -45.3 | |||
| 2026-02-17T11:58 | 8264 | 335 | 263 | 52 | ||
| 2026-02-17T11:58 | 8573 | 320 | 264 | 53 | ||
| 2026-02-17T11:59 | 8597 | 319 | -47.8 | |||
| 2026-02-17T11:59 | 8901 | 304 | -48.4 | |||
| 2026-02-17T11:59 | 8931 | 303 | 265 | 56 | ||
| 2026-02-17T12:00 | 9018 | 299 | -48.6 | |||
| 2026-02-17T12:00 | 9279 | 287 | 265 | 56 | ||
| 2026-02-17T12:01 | 9612 | 273 | -52.1 | |||
| 2026-02-17T12:01 | 9630 | 272 | 266 | 56 | ||
| 2026-02-17T12:02 | 9991 | 257 | 262 | 55 | ||
| 2026-02-17T12:03 | 10035 | 256 | -51.6 | |||
| 2026-02-17T12:03 | 10129 | 252 | 261 | 56 | ||
| 2026-02-17T12:03 | 10135 | 252 | -51.9 | |||
| 2026-02-17T12:03 | 10235 | 248 | -51.1 | |||
| 2026-02-17T12:04 | 10503 | 238 | 262 | 68 | ||
| 2026-02-17T12:04 | 10583 | 235 | -51.1 | |||
| 2026-02-17T12:04 | 10645 | 233 | 264 | 67 | ||
| 2026-02-17T12:05 | 10880 | 224 | -51.1 | |||
| 2026-02-17T12:05 | 10996 | 221 | -50.0 | |||
| 2026-02-17T12:05 | 11015 | 220 | 264 | 66 | ||
| 2026-02-17T12:06 | 11288 | 211 | -50.2 | |||
| 2026-02-17T12:06 | 11376 | 208 | 265 | 66 | ||
| 2026-02-17T12:07 | 11664 | 199 | 265 | 69 | ||
| 2026-02-17T12:07 | 11738 | 197 | -51.6 | |||
| 2026-02-17T12:08 | 11937 | 191 | -50.9 | |||
| 2026-02-17T12:08 | 11981 | 190 | 265 | 67 | ||
| 2026-02-17T12:09 | 12247 | 182 | -51.5 | 267 | 63 | |
| 2026-02-17T12:10 | 12565 | 173 | 265 | 67 | ||
| 2026-02-17T12:11 | 12972 | 163 | 265 | 65 | ||
| 2026-02-17T12:11 | 13012 | 162 | -55.1 | |||
| 2026-02-17T12:12 | 13322 | 154 | -56.1 | |||
| 2026-02-17T12:12 | 13353 | 153 | 264 | 62 | ||
| 2026-02-17T12:13 | 13704 | 145 | 265 | 62 | ||
| 2026-02-17T12:13 | 13736 | 144 | -57.2 | |||
| 2026-02-17T12:13 | 13868 | 141 | 265 | 59 | ||
| 2026-02-17T12:14 | 14254 | 133 | 263 | 59 | ||
| 2026-02-17T12:14 | 14348 | 131 | -59.5 | |||
| 2026-02-17T12:15 | 14473 | 128 | 264 | 56 | ||
| 2026-02-17T12:15 | 14601 | 126 | -59.7 | |||
| 2026-02-17T12:16 | 14834 | 121 | 266 | 55 | ||
| 2026-02-17T12:16 | 15142 | 115 | 263 | 54 | ||
| 2026-02-17T12:17 | 15410 | 110 | 256 | 50 | ||
| 2026-02-17T12:18 | 15662 | 106 | 255 | 52 | ||
| 2026-02-17T12:18 | 15692 | 105 | -60.0 | |||
| 2026-02-17T12:19 | 15943 | 101 | -60.6 | |||
| 2026-02-17T12:19 | 16015 | 100 | 255 | 55 | ||
| 2026-02-17T12:19 | 16160 | 98 | -60.4 | |||
| 2026-02-17T12:20 | 16356 | 95 | 264 | 54 | ||
| 2026-02-17T12:20 | 16408 | 94 | -58.8 | |||
| 2026-02-17T12:21 | 16679 | 90 | 273 | 40 | ||
| 2026-02-17T12:22 | 16977 | 86 | 261 | 32 | ||
| 2026-02-17T12:22 | 17139 | 84 | -57.4 | |||
| 2026-02-17T12:23 | 17339 | 81 | 253 | 35 | ||
| 2026-02-17T12:23 | 17355 | 81 | -57.3 | |||
| 2026-02-17T12:24 | 17727 | 76 | 256 | 33 | ||
| 2026-02-17T12:24 | 17887 | 74 | -56.8 | |||
| 2026-02-17T12:25 | 18110 | 72 | 254 | 36 | ||
| 2026-02-17T12:25 | 18145 | 71 | -58.2 | |||
| 2026-02-17T12:26 | 18341 | 69 | -57.7 | |||
| 2026-02-17T12:26 | 18499 | 68 | 253 | 33 | ||
| 2026-02-17T12:26 | 18564 | 67 | -57.2 | |||
| 2026-02-17T12:27 | 18756 | 65 | -57.1 | |||
| 2026-02-17T12:27 | 18776 | 65 | 256 | 30 | ||
| 2026-02-17T12:27 | 19026 | 62 | -57.4 | |||
| 2026-02-17T12:28 | 19170 | 61 | 261 | 25 | ||
| 2026-02-17T12:28 | 19404 | 59 | -57.0 | |||
| 2026-02-17T12:28 | 19479 | 58 | 269 | 23 | ||
| 2026-02-17T12:29 | 19671 | 56 | 255 | 20 | ||
| 2026-02-17T12:30 | 20014 | 53 | 255 | 23 | ||
| 2026-02-17T12:31 | 20353 | 50 | 247 | 24 | ||
| 2026-02-17T12:32 | 20638 | 48 | -58.5 | |||
| 2026-02-17T12:32 | 20703 | 48 | 249 | 29 | ||
| 2026-02-17T12:33 | 21001 | 45 | -56.9 | |||
| 2026-02-17T12:33 | 21057 | 45 | 238 | 25 | ||
| 2026-02-17T12:33 | 21199 | 44 | 241 | 24 | ||
| 2026-02-17T12:34 | 21348 | 43 | -54.5 | |||
| 2026-02-17T12:34 | 21452 | 42 | 240 | 27 | ||
| 2026-02-17T12:35 | 21636 | 41 | 236 | 30 | ||
| 2026-02-17T12:35 | 21878 | 40 | -53.3 | |||
| 2026-02-17T12:36 | 21993 | 39 | 226 | 28 | ||
| 2026-02-17T12:36 | 22095 | 38 | -53.0 | |||
| 2026-02-17T12:37 | 22332 | 37 | 243 | 26 | ||
| 2026-02-17T12:37 | 22479 | 36 | -49.2 | |||
| 2026-02-17T12:37 | 22660 | 35 | 249 | 20 | ||
| 2026-02-17T12:38 | 22780 | 35 | -46.1 | |||
| 2026-02-17T12:38 | 22954 | 34 | 243 | 17 | ||
| 2026-02-17T12:39 | 23359 | 32 | 251 | 16 | ||
| 2026-02-17T12:40 | 23717 | 30 | 244 | 12 | ||
| 2026-02-17T12:40 | 23782 | 30 | -51.9 | |||
| 2026-02-17T12:41 | 24119 | 28 | 230 | 11 | ||
| 2026-02-17T12:42 | 24496 | 27 | 201 | 9 | ||
| 2026-02-17T12:43 | 24813 | 25 | -56.7 | |||
| 2026-02-17T12:43 | 24865 | 25 | 234 | 9 | ||
| 2026-02-17T12:44 | 25150 | 24 | -55.8 | |||
| 2026-02-17T12:44 | 25229 | 24 | 223 | 6 | ||
| 2026-02-17T12:45 | 25614 | 22 | 224 | 11 | ||
| 2026-02-17T12:46 | 25877 | 21 | -58.3 | |||
| 2026-02-17T12:46 | 25963 | 21 | 248 | 13 | ||
| 2026-02-17T12:47 | 26180 | 20 | -58.1 | |||
| 2026-02-17T12:47 | 26278 | 20 | 282 | 11 | ||
| 2026-02-17T12:48 | 26463 | 19 | 249 | 6 | ||
| 2026-02-17T12:48 | 26599 | 19 | 194 | 6 | ||
| 2026-02-17T12:48 | 26663 | 19 | -56.2 | |||
| 2026-02-17T12:48 | 26797 | 18 | 201 | 8 | ||
| 2026-02-17T12:49 | 27045 | 18 | 247 | 6 | ||
| 2026-02-17T12:49 | 27198 | 17 | -58.5 | 278 | 7 | |
| 2026-02-17T23:33 | 26 | 1011 | 4.0 | 3.4 | 250 | 1 |
| 2026-02-17T23:33 | 32 | 1010 | 3.8 | 2.5 | 0 | 0 |
| 2026-02-17T23:33 | 137 | 997 | 3.1 | 0.8 | ||
| 2026-02-17T23:34 | 233 | 985 | 4.2 | -1.0 | ||
| 2026-02-17T23:34 | 351 | 971 | 320 | 2 | ||
| 2026-02-17T23:35 | 588 | 943 | 1.4 | 0.2 | ||
| 2026-02-17T23:35 | 700 | 930 | 46 | 2 | ||
| 2026-02-17T23:35 | 742 | 925 | 0.1 | 0.0 | ||
| 2026-02-17T23:35 | 789 | 920 | 0.5 | 0.2 | ||
| 2026-02-17T23:36 | 1029 | 893 | 103 | 5 | ||
| 2026-02-17T23:36 | 1111 | 883 | 115 | 3 | ||
| 2026-02-17T23:37 | 1263 | 867 | 143 | 4 | ||
| 2026-02-17T23:37 | 1330 | 860 | -2.9 | -3.2 | ||
| 2026-02-17T23:37 | 1390 | 853 | 183 | 3 | ||
| 2026-02-17T23:38 | 1541 | 837 | -4.4 | -4.9 | ||
| 2026-02-17T23:38 | 1575 | 833 | 111 | 1 | ||
| 2026-02-17T23:38 | 1609 | 830 | -5.0 | -8.4 | ||
| 2026-02-17T23:38 | 1620 | 829 | 273 | 3 | ||
| 2026-02-17T23:38 | 1641 | 826 | -5.4 | -10.6 | ||
| 2026-02-17T23:38 | 1690 | 821 | -5.5 | -13.6 | ||
| 2026-02-17T23:38 | 1757 | 814 | 247 | 6 | ||
| 2026-02-17T23:39 | 1874 | 802 | -6.3 | -20.3 | ||
| 2026-02-17T23:39 | 1934 | 796 | 244 | 10 | ||
| 2026-02-17T23:39 | 1945 | 795 | -5.4 | -22.8 | ||
| 2026-02-17T23:39 | 2050 | 784 | -5.1 | -23.5 | ||
| 2026-02-17T23:39 | 2099 | 780 | -4.4 | -23.5 | ||
| 2026-02-17T23:40 | 2258 | 764 | 253 | 9 | ||
| 2026-02-17T23:41 | 2599 | 731 | 227 | 8 | ||
| 2026-02-17T23:41 | 2605 | 731 | -8.7 | -30.7 | ||
| 2026-02-17T23:42 | 2946 | 699 | 237 | 10 | ||
| 2026-02-17T23:42 | 3002 | 694 | -11.7 | -39.5 | ||
| 2026-02-17T23:43 | 3288 | 668 | 251 | 10 | ||
| 2026-02-17T23:43 | 3373 | 661 | -13.3 | -53.1 | ||
| 2026-02-17T23:44 | 3524 | 648 | -13.1 | -58.7 | ||
| 2026-02-17T23:44 | 3622 | 640 | 255 | 17 | ||
| 2026-02-17T23:44 | 3776 | 627 | -14.6 | -59.6 | ||
| 2026-02-17T23:45 | 3869 | 619 | -14.5 | -59.6 | ||
| 2026-02-17T23:45 | 3937 | 614 | 260 | 18 | ||
| 2026-02-17T23:46 | 4261 | 588 | 253 | 24 | ||
| 2026-02-17T23:46 | 4363 | 580 | -17.2 | -52.4 | ||
| 2026-02-17T23:47 | 4576 | 564 | 257 | 25 | ||
| 2026-02-17T23:47 | 4710 | 554 | -19.6 | -44.5 | ||
| 2026-02-17T23:47 | 4726 | 552 | 255 | 30 | ||
| 2026-02-17T23:48 | 5048 | 529 | 257 | 31 | ||
| 2026-02-17T23:49 | 5151 | 521 | -23.7 | -33.0 | ||
| 2026-02-17T23:49 | 5229 | 516 | -24.5 | -30.2 | ||
| 2026-02-17T23:49 | 5338 | 508 | -25.2 | -32.6 | ||
| 2026-02-17T23:49 | 5375 | 506 | 254 | 32 | ||
| 2026-02-17T23:50 | 5455 | 500 | -26.3 | -32.9 | ||
| 2026-02-17T23:50 | 5542 | 494 | 250 | 30 | ||
| 2026-02-17T23:51 | 5855 | 473 | 249 | 31 | ||
| 2026-02-17T23:51 | 6039 | 461 | -31.7 | -34.8 | ||
| 2026-02-17T23:52 | 6113 | 456 | 251 | 31 | ||
| 2026-02-17T23:52 | 6198 | 451 | -33.0 | -38.0 | ||
| 2026-02-17T23:53 | 6387 | 439 | 246 | 28 | ||
| 2026-02-17T23:53 | 6522 | 430 | 241 | 33 | ||
| 2026-02-17T23:53 | 6682 | 420 | -37.0 | -46.4 | ||
| 2026-02-17T23:54 | 6823 | 412 | 247 | 35 | ||
| 2026-02-17T23:54 | 6980 | 403 | -39.3 | -51.6 | ||
| 2026-02-17T23:54 | 6986 | 402 | 250 | 38 | ||
| 2026-02-17T23:55 | 7086 | 396 | -40.0 | -53.2 | ||
| 2026-02-17T23:55 | 7293 | 385 | 248 | 38 | ||
| 2026-02-17T23:56 | 7611 | 367 | 248 | 38 | ||
| 2026-02-17T23:57 | 7830 | 355 | -46.1 | |||
| 2026-02-17T23:57 | 7890 | 352 | 249 | 43 | ||
| 2026-02-17T23:58 | 8033 | 344 | -47.4 | |||
| 2026-02-17T23:58 | 8132 | 339 | 251 | 43 | ||
| 2026-02-17T23:58 | 8209 | 335 | -47.7 | |||
| 2026-02-17T23:59 | 8311 | 330 | -47.6 | |||
| 2026-02-17T23:59 | 8338 | 329 | 251 | 47 | ||
| 2026-02-17T23:59 | 8407 | 325 | -47.3 | |||
| 2026-02-17T23:59 | 8530 | 319 | -47.8 | |||
| 2026-02-17T23:59 | 8561 | 318 | 254 | 51 | ||
| 2026-02-18T00:00 | 8902 | 302 | 255 | 53 | ||
| 2026-02-18T00:00 | 8919 | 301 | -49.8 | |||
| 2026-02-18T00:01 | 9265 | 285 | 256 | 54 | ||
| 2026-02-18T00:02 | 9402 | 280 | -50.2 | |||
| 2026-02-18T00:02 | 9528 | 274 | 256 | 56 | ||
| 2026-02-18T00:03 | 9735 | 266 | 255 | 60 | ||
| 2026-02-18T00:03 | 9826 | 262 | -50.0 | |||
| 2026-02-18T00:03 | 10018 | 254 | -49.6 | |||
| 2026-02-18T00:04 | 10118 | 251 | 254 | 56 | ||
| 2026-02-18T00:04 | 10240 | 246 | -48.6 | |||
| 2026-02-18T00:04 | 10363 | 241 | 252 | 58 | ||
| 2026-02-18T00:05 | 10525 | 236 | -49.9 | |||
| 2026-02-18T00:05 | 10714 | 229 | 255 | 63 | ||
| 2026-02-18T00:06 | 10809 | 226 | -48.5 | |||
| 2026-02-18T00:06 | 11070 | 217 | 251 | 64 | ||
| 2026-02-18T00:07 | 11206 | 212 | -50.1 | |||
| 2026-02-18T00:07 | 11455 | 204 | 253 | 69 | ||
| 2026-02-18T00:08 | 11745 | 195 | -50.8 | |||
| 2026-02-18T00:08 | 11775 | 195 | 256 | 70 | ||
| 2026-02-18T00:09 | 12107 | 185 | 254 | 70 | ||
| 2026-02-18T00:10 | 12272 | 180 | -52.0 | |||
| 2026-02-18T00:10 | 12461 | 175 | 256 | 66 | ||
| 2026-02-18T00:11 | 12731 | 168 | 254 | 62 | ||
| 2026-02-18T00:11 | 12803 | 166 | -52.8 | |||
| 2026-02-18T00:12 | 13038 | 160 | 255 | 65 | ||
| 2026-02-18T00:13 | 13337 | 153 | 258 | 66 | ||
| 2026-02-18T00:13 | 13420 | 151 | -55.9 | |||
| 2026-02-18T00:14 | 13621 | 146 | 258 | 65 | ||
| 2026-02-18T00:15 | 13893 | 140 | 256 | 59 | ||
| 2026-02-18T00:16 | 14052 | 136 | -56.3 | |||
| 2026-02-18T00:16 | 14170 | 134 | 254 | 58 | ||
| 2026-02-18T00:17 | 14452 | 128 | -58.3 | |||
| 2026-02-18T00:17 | 14468 | 128 | 258 | 55 | ||
| 2026-02-18T00:18 | 14788 | 121 | 255 | 56 | ||
| 2026-02-18T00:19 | 14971 | 118 | -59.7 | |||
| 2026-02-18T00:19 | 15120 | 115 | 259 | 52 | ||
| 2026-02-18T00:20 | 15341 | 111 | -60.5 | |||
| 2026-02-18T00:20 | 15441 | 109 | 262 | 48 | ||
| 2026-02-18T00:21 | 15756 | 104 | 261 | 49 | ||
| 2026-02-18T00:22 | 15988 | 100 | -61.2 | |||
| 2026-02-18T00:22 | 16013 | 100 | 264 | 46 | ||
| 2026-02-18T00:22 | 16103 | 98 | -61.0 | |||
| 2026-02-18T00:23 | 16231 | 96 | 266 | 48 | ||
| 2026-02-18T00:23 | 16290 | 95 | -60.3 | |||
| 2026-02-18T00:24 | 16497 | 92 | 269 | 44 | ||
| 2026-02-18T00:25 | 16776 | 88 | 257 | 36 | ||
| 2026-02-18T00:25 | 16841 | 87 | -58.6 | |||
| 2026-02-18T00:25 | 17020 | 85 | 247 | 39 | ||
| 2026-02-18T00:26 | 17292 | 81 | 254 | 45 | ||
| 2026-02-18T00:26 | 17300 | 81 | -59.7 | |||
| 2026-02-18T00:27 | 17441 | 79 | 256 | 38 | ||
| 2026-02-18T00:27 | 17490 | 79 | -57.4 | |||
| 2026-02-18T00:28 | 17720 | 76 | 245 | 31 | ||
| 2026-02-18T00:29 | 18049 | 72 | 252 | 33 | ||
| 2026-02-18T00:29 | 18119 | 71 | -57.8 | |||
| 2026-02-18T00:30 | 18371 | 68 | 252 | 31 | ||
| 2026-02-18T00:31 | 18667 | 65 | -57.1 | |||
| 2026-02-18T00:31 | 18706 | 65 | 267 | 31 | ||
| 2026-02-18T00:31 | 18921 | 63 | 257 | 29 | ||
| 2026-02-18T00:32 | 19135 | 61 | -57.0 | |||
| 2026-02-18T00:32 | 19231 | 60 | 260 | 31 | ||
| 2026-02-18T00:33 | 19568 | 57 | 257 | 19 | ||
| 2026-02-18T00:33 | 19602 | 56 | -58.1 | |||
| 2026-02-18T00:34 | 19759 | 55 | -58.2 | |||
| 2026-02-18T00:34 | 19910 | 54 | 248 | 20 | ||
| 2026-02-18T00:35 | 20041 | 53 | -56.3 | |||
| 2026-02-18T00:35 | 20263 | 51 | 234 | 22 | ||
| 2026-02-18T00:36 | 20588 | 48 | -60.0 | |||
| 2026-02-18T00:36 | 20602 | 48 | 244 | 27 | ||
| 2026-02-18T00:37 | 20927 | 46 | -58.1 | |||
| 2026-02-18T00:37 | 20942 | 46 | 248 | 23 | ||
| 2026-02-18T00:38 | 21207 | 44 | 247 | 24 | ||
| 2026-02-18T00:39 | 21396 | 42 | -58.2 | 244 | 27 | |
| 2026-02-18T00:39 | 21503 | 42 | -54.5 | |||
| 2026-02-18T00:40 | 21758 | 40 | 255 | 26 | ||
| 2026-02-18T00:40 | 22021 | 38 | -52.3 | |||
| 2026-02-18T00:41 | 22139 | 38 | 252 | 27 | ||
| 2026-02-18T00:41 | 22421 | 36 | -50.6 | |||
| 2026-02-18T00:42 | 22514 | 36 | 258 | 20 | ||
| 2026-02-18T00:43 | 22909 | 34 | 225 | 17 | ||
| 2026-02-18T00:43 | 23184 | 32 | 220 | 20 | ||
| 2026-02-18T00:45 | 23573 | 30 | 224 | 18 | ||
| 2026-02-18T00:45 | 23678 | 30 | -57.0 | |||
| 2026-02-18T00:46 | 23938 | 29 | 211 | 16 | ||
| 2026-02-18T00:46 | 24028 | 28 | -55.3 | |||
| 2026-02-18T00:46 | 24190 | 27 | -53.9 | |||
| 2026-02-18T00:47 | 24307 | 27 | 208 | 13 | ||
| 2026-02-18T00:48 | 24701 | 25 | -57.2 | 214 | 13 | |
| 2026-02-18T00:48 | 24902 | 25 | -54.9 | |||
| 2026-02-18T00:48 | 25006 | 24 | 178 | 14 | ||
| 2026-02-18T00:49 | 25249 | 23 | -55.8 | 182 | 14 | |
| 2026-02-18T00:50 | 25502 | 22 | 193 | 11 | ||
| 2026-02-18T00:50 | 25766 | 21 | 162 | 12 | ||
| 2026-02-18T00:51 | 25915 | 21 | -56.6 | |||
| 2026-02-18T00:51 | 26195 | 20 | 177 | 17 | ||
| 2026-02-18T00:52 | 26353 | 20 | -58.0 | |||
| 2026-02-18T00:52 | 26618 | 19 | 206 | 12 | ||
| 2026-02-18T00:53 | 26754 | 18 | 217 | 11 | ||
| 2026-02-18T00:53 | 26930 | 18 | 196 | 10 | ||
| 2026-02-18T00:54 | 27261 | 17 | 183 | 13 | ||
| 2026-02-18T00:55 | 27610 | 16 | 177 | 10 | ||
| 2026-02-18T00:55 | 27730 | 16 | 184 | 10 | ||
| 2026-02-18T00:56 | 27858 | 15 | 174 | 6 | ||
| 2026-02-18T00:56 | 27942 | 15 | -52.7 | 190 | 8 | |
| 2026-02-18T11:33 | 26 | 1005 | 6.2 | 1.5 | 330 | 1 |
| 2026-02-18T11:33 | 32 | 1005 | 6.6 | 0.9 | 0 | 0 |
| 2026-02-18T11:33 | 49 | 1003 | 7.6 | 0.6 | ||
| 2026-02-18T11:33 | 157 | 989 | 321 | 5 | ||
| 2026-02-18T11:34 | 320 | 970 | 5.9 | -1.3 | ||
| 2026-02-18T11:34 | 375 | 963 | 283 | 6 | ||
| 2026-02-18T11:35 | 541 | 944 | 4.8 | -2.5 | ||
| 2026-02-18T11:35 | 682 | 928 | 302 | 6 | ||
| 2026-02-18T11:35 | 788 | 916 | 298 | 7 | ||
| 2026-02-18T11:36 | 816 | 913 | 3.2 | -4.3 | ||
| 2026-02-18T11:36 | 919 | 901 | 2.3 | -5.6 | ||
| 2026-02-18T11:36 | 1104 | 881 | 301 | 8 | ||
| 2026-02-18T11:37 | 1203 | 870 | -0.5 | -7.1 | ||
| 2026-02-18T11:37 | 1283 | 861 | -1.1 | -8.3 | ||
| 2026-02-18T11:37 | 1333 | 856 | 304 | 12 | ||
| 2026-02-18T11:37 | 1387 | 850 | -2.1 | -9.7 | ||
| 2026-02-18T11:38 | 1591 | 828 | -4.0 | -10.6 | ||
| 2026-02-18T11:38 | 1656 | 821 | 301 | 15 | ||
| 2026-02-18T11:39 | 1799 | 807 | -5.7 | -12.9 | ||
| 2026-02-18T11:39 | 1949 | 791 | 294 | 15 | ||
| 2026-02-18T11:40 | 2125 | 774 | -8.3 | -13.7 | ||
| 2026-02-18T11:40 | 2258 | 761 | -8.9 | -18.4 | ||
| 2026-02-18T11:40 | 2291 | 757 | 280 | 15 | ||
| 2026-02-18T11:41 | 2607 | 727 | 282 | 14 | ||
| 2026-02-18T11:42 | 2761 | 712 | -13.6 | -22.8 | ||
| 2026-02-18T11:42 | 2909 | 699 | 286 | 15 | ||
| 2026-02-18T11:43 | 3155 | 676 | 287 | 16 | ||
| 2026-02-18T11:43 | 3245 | 668 | 285 | 14 | ||
| 2026-02-18T11:43 | 3296 | 664 | -17.8 | -29.0 | ||
| 2026-02-18T11:43 | 3362 | 658 | 283 | 14 | ||
| 2026-02-18T11:44 | 3387 | 656 | -18.1 | -30.5 | ||
| 2026-02-18T11:44 | 3679 | 630 | 269 | 18 | ||
| 2026-02-18T11:45 | 3690 | 629 | -20.4 | -34.6 | ||
| 2026-02-18T11:45 | 3946 | 608 | -21.8 | -43.6 | ||
| 2026-02-18T11:45 | 4039 | 600 | 257 | 21 | ||
| 2026-02-18T11:46 | 4143 | 592 | -22.7 | -54.0 | ||
| 2026-02-18T11:46 | 4204 | 587 | -22.4 | -56.2 | ||
| 2026-02-18T11:46 | 4395 | 572 | 259 | 21 | ||
| 2026-02-18T11:47 | 4524 | 562 | -25.1 | -58.1 | ||
| 2026-02-18T11:47 | 4585 | 557 | 268 | 22 | ||
| 2026-02-18T11:47 | 4715 | 547 | -26.4 | -59.0 | ||
| 2026-02-18T11:48 | 4792 | 541 | -25.9 | -58.7 | ||
| 2026-02-18T11:48 | 4872 | 535 | 268 | 30 | ||
| 2026-02-18T11:48 | 4909 | 533 | -26.0 | -61.9 | ||
| 2026-02-18T11:49 | 5073 | 521 | 276 | 36 | ||
| 2026-02-18T11:49 | 5246 | 509 | -26.7 | -62.4 | ||
| 2026-02-18T11:49 | 5358 | 501 | 274 | 40 | ||
| 2026-02-18T11:50 | 5547 | 488 | 268 | 41 | ||
| 2026-02-18T11:50 | 5686 | 478 | 266 | 43 | ||
| 2026-02-18T11:50 | 5758 | 473 | -29.3 | -64.2 | ||
| 2026-02-18T11:51 | 6031 | 456 | 272 | 42 | ||
| 2026-02-18T11:52 | 6349 | 435 | -33.8 | -64.4 | ||
| 2026-02-18T11:52 | 6359 | 435 | 277 | 43 | ||
| 2026-02-18T11:53 | 6667 | 416 | 278 | 42 | ||
| 2026-02-18T11:54 | 6983 | 397 | 275 | 42 | ||
| 2026-02-18T11:55 | 7105 | 390 | -39.5 | -68.6 | ||
| 2026-02-18T11:55 | 7128 | 389 | 272 | 40 | ||
| 2026-02-18T11:55 | 7212 | 384 | -40.0 | -66.9 | ||
| 2026-02-18T11:55 | 7218 | 384 | 274 | 43 | ||
| 2026-02-18T11:56 | 7566 | 365 | 274 | 41 | ||
| 2026-02-18T11:56 | 7730 | 356 | -43.5 | |||
| 2026-02-18T11:57 | 7928 | 346 | 270 | 39 | ||
| 2026-02-18T11:57 | 8068 | 339 | -45.7 | |||
| 2026-02-18T11:58 | 8295 | 327 | 262 | 41 | ||
| 2026-02-18T11:58 | 8340 | 325 | -47.7 | |||
| 2026-02-18T11:59 | 8632 | 311 | 265 | 41 | ||
| 2026-02-18T11:59 | 8648 | 310 | -49.5 | |||
| 2026-02-18T12:00 | 8957 | 296 | 257 | 44 | ||
| 2026-02-18T12:00 | 8984 | 294 | -51.0 | |||
| 2026-02-18T12:01 | 9293 | 281 | 254 | 51 | ||
| 2026-02-18T12:01 | 9333 | 279 | -52.9 | |||
| 2026-02-18T12:01 | 9468 | 273 | 261 | 56 | ||
| 2026-02-18T12:02 | 9506 | 272 | -51.0 | |||
| 2026-02-18T12:02 | 9581 | 269 | 264 | 53 | ||
| 2026-02-18T12:02 | 9714 | 263 | -50.1 | |||
| 2026-02-18T12:03 | 9880 | 257 | 265 | 48 | ||
| 2026-02-18T12:03 | 10016 | 251 | -50.1 | |||
| 2026-02-18T12:03 | 10049 | 250 | 269 | 50 | ||
| 2026-02-18T12:03 | 10129 | 247 | -49.8 | |||
| 2026-02-18T12:04 | 10263 | 242 | -50.0 | 264 | 51 | |
| 2026-02-18T12:05 | 10447 | 235 | -49.8 | |||
| 2026-02-18T12:05 | 10475 | 234 | 264 | 55 | ||
| 2026-02-18T12:05 | 10531 | 232 | -47.9 | |||
| 2026-02-18T12:05 | 10631 | 229 | 265 | 54 | ||
| 2026-02-18T12:05 | 10682 | 227 | -46.8 | |||
| 2026-02-18T12:06 | 10956 | 218 | -47.2 | |||
| 2026-02-18T12:06 | 10962 | 218 | 262 | 52 | ||
| 2026-02-18T12:07 | 11194 | 210 | 257 | 54 | ||
| 2026-02-18T12:07 | 11255 | 208 | -45.9 | |||
| 2026-02-18T12:08 | 11442 | 202 | 253 | 54 | ||
| 2026-02-18T12:08 | 11546 | 199 | -46.6 | |||
| 2026-02-18T12:09 | 11801 | 192 | 250 | 57 | ||
| 2026-02-18T12:09 | 11958 | 187 | -48.7 | |||
| 2026-02-18T12:10 | 12157 | 182 | 251 | 58 | ||
| 2026-02-18T12:10 | 12220 | 180 | -50.2 | |||
| 2026-02-18T12:11 | 12462 | 173 | 253 | 60 | ||
| 2026-02-18T12:12 | 12737 | 166 | -54.1 | |||
| 2026-02-18T12:12 | 12757 | 166 | 252 | 63 | ||
| 2026-02-18T12:12 | 12947 | 161 | -54.2 | |||
| 2026-02-18T12:13 | 13089 | 157 | -54.7 | |||
| 2026-02-18T12:13 | 13101 | 157 | 257 | 62 | ||
| 2026-02-18T12:14 | 13389 | 150 | 257 | 59 | ||
| 2026-02-18T12:14 | 13571 | 146 | 259 | 63 | ||
| 2026-02-18T12:15 | 13707 | 143 | -54.7 | |||
| 2026-02-18T12:15 | 13772 | 141 | 263 | 65 | ||
| 2026-02-18T12:16 | 13850 | 140 | -52.3 | |||
| 2026-02-18T12:16 | 13900 | 138 | 261 | 60 | ||
| 2026-02-18T12:16 | 13916 | 138 | -50.6 | |||
| 2026-02-18T12:17 | 14099 | 134 | -50.7 | |||
| 2026-02-18T12:17 | 14167 | 133 | 259 | 58 | ||
| 2026-02-18T12:17 | 14287 | 130 | -51.8 | |||
| 2026-02-18T12:18 | 14473 | 127 | 259 | 55 | ||
| 2026-02-18T12:19 | 14779 | 121 | 258 | 54 | ||
| 2026-02-18T12:20 | 14980 | 117 | -53.5 | |||
| 2026-02-18T12:20 | 15073 | 115 | 254 | 53 | ||
| 2026-02-18T12:21 | 15301 | 111 | 254 | 53 | ||
| 2026-02-18T12:21 | 15516 | 108 | -55.3 | |||
| 2026-02-18T12:22 | 15653 | 105 | 259 | 50 | ||
| 2026-02-18T12:22 | 15816 | 103 | -55.8 | |||
| 2026-02-18T12:23 | 16050 | 99 | -56.1 | 262 | 46 | |
| 2026-02-18T12:24 | 16416 | 94 | 259 | 45 | ||
| 2026-02-18T12:24 | 16469 | 93 | -58.2 | |||
| 2026-02-18T12:24 | 16640 | 90 | -57.0 | |||
| 2026-02-18T12:25 | 16732 | 89 | 247 | 42 | ||
| 2026-02-18T12:26 | 16994 | 85 | 242 | 44 | ||
| 2026-02-18T12:26 | 17192 | 83 | -59.7 | |||
| 2026-02-18T12:27 | 17261 | 82 | 247 | 44 | ||
| 2026-02-18T12:27 | 17417 | 80 | -60.3 | |||
| 2026-02-18T12:28 | 17567 | 78 | 256 | 39 | ||
| 2026-02-18T12:28 | 17865 | 74 | -59.7 | |||
| 2026-02-18T12:29 | 17897 | 74 | 250 | 35 | ||
| 2026-02-18T12:30 | 18246 | 70 | 247 | 37 | ||
| 2026-02-18T12:30 | 18418 | 68 | 249 | 39 | ||
| 2026-02-18T12:30 | 18444 | 68 | -61.8 | |||
| 2026-02-18T12:31 | 18630 | 66 | 255 | 39 | ||
| 2026-02-18T12:31 | 18705 | 65 | -60.0 | |||
| 2026-02-18T12:31 | 18716 | 65 | 258 | 38 | ||
| 2026-02-18T12:32 | 18874 | 63 | 250 | 30 | ||
| 2026-02-18T12:32 | 18916 | 63 | -55.3 | |||
| 2026-02-18T12:33 | 19205 | 60 | 230 | 34 | ||
| 2026-02-18T12:33 | 19440 | 58 | -56.5 | |||
| 2026-02-18T12:34 | 19554 | 57 | 241 | 36 | ||
| 2026-02-18T12:34 | 19767 | 55 | -56.2 | |||
| 2026-02-18T12:35 | 19896 | 54 | 242 | 33 | ||
| 2026-02-18T12:35 | 20004 | 53 | -55.5 | |||
| 2026-02-18T12:36 | 20235 | 51 | 243 | 35 | ||
| 2026-02-18T12:37 | 20608 | 48 | 247 | 32 | ||
| 2026-02-18T12:37 | 20670 | 48 | -57.9 | |||
| 2026-02-18T12:37 | 20876 | 46 | 237 | 27 | ||
| 2026-02-18T12:38 | 20960 | 45 | -53.4 | |||
| 2026-02-18T12:38 | 20988 | 45 | 246 | 25 | ||
| 2026-02-18T12:38 | 21103 | 44 | -49.8 | |||
| 2026-02-18T12:38 | 21225 | 44 | 243 | 20 | ||
| 2026-02-18T12:39 | 21512 | 42 | -51.4 | |||
| 2026-02-18T12:39 | 21577 | 41 | 230 | 22 | ||
| 2026-02-18T12:40 | 21719 | 40 | 233 | 23 | ||
| 2026-02-18T12:41 | 21998 | 39 | -54.4 | |||
| 2026-02-18T12:41 | 22030 | 39 | 235 | 27 | ||
| 2026-02-18T12:42 | 22388 | 36 | 235 | 26 | ||
| 2026-02-18T12:42 | 22532 | 36 | -54.8 | |||
| 2026-02-18T12:43 | 22735 | 35 | 234 | 22 | ||
| 2026-02-18T12:43 | 22771 | 34 | -53.3 | |||
| 2026-02-18T12:44 | 23097 | 33 | 220 | 19 | ||
| 2026-02-18T12:45 | 23333 | 31 | -55.5 | |||
| 2026-02-18T12:45 | 23458 | 31 | 222 | 18 | ||
| 2026-02-18T12:45 | 23649 | 30 | -54.6 | |||
| 2026-02-18T12:46 | 23842 | 29 | 207 | 17 | ||
| 2026-02-18T12:46 | 24066 | 28 | -56.7 | |||
| 2026-02-18T12:47 | 24133 | 28 | 217 | 20 | ||
| 2026-02-18T12:48 | 24441 | 26 | 225 | 17 | ||
| 2026-02-18T12:49 | 24812 | 25 | 225 | 12 | ||
| 2026-02-18T12:49 | 25049 | 24 | 227 | 12 | ||
| 2026-02-18T12:49 | 25129 | 24 | -54.7 | |||
| 2026-02-18T12:50 | 25237 | 23 | 234 | 12 | ||
| 2026-02-18T12:50 | 25435 | 23 | 196 | 8 | ||
| 2026-02-18T12:51 | 25490 | 22 | -54.6 | |||
| 2026-02-18T12:51 | 25549 | 22 | 184 | 8 | ||
| 2026-02-18T12:51 | 25785 | 21 | 216 | 7 | ||
| 2026-02-18T12:52 | 25938 | 21 | 233 | 2 | ||
| 2026-02-18T12:52 | 26032 | 21 | -52.9 | |||
| 2026-02-18T12:52 | 26126 | 20 | 189 | 2 | ||
| 2026-02-18T12:53 | 26320 | 20 | 156 | 5 | ||
| 2026-02-18T12:53 | 26617 | 19 | 153 | 5 | ||
| 2026-02-18T12:54 | 26757 | 18 | 177 | 3 | ||
| 2026-02-18T12:54 | 26968 | 18 | 180 | 3 | ||
| 2026-02-18T12:54 | 27111 | 17 | 184 | 5 | ||
| 2026-02-18T12:55 | 27223 | 17 | -55.9 | |||
| 2026-02-18T12:55 | 27258 | 17 | 217 | 4 | ||
| 2026-02-18T12:55 | 27487 | 16 | 277 | 2 | ||
| 2026-02-18T12:56 | 27643 | 16 | -56.2 | |||
| 2026-02-18T12:56 | 27684 | 16 | 268 | 5 | ||
| 2026-02-18T12:56 | 27847 | 16 | 227 | 3 | ||
| 2026-02-18T12:57 | 27971 | 15 | 208 | 2 | ||
| 2026-02-18T12:57 | 28060 | 15 | -56.1 | |||
| 2026-02-18T12:58 | 28360 | 14 | 161 | 3 | ||
| 2026-02-18T12:58 | 28450 | 14 | 199 | 2 | ||
| 2026-02-18T12:58 | 28728 | 14 | 220 | 2 | ||
| 2026-02-18T12:59 | 28825 | 13 | 182 | 6 | ||
| 2026-02-18T12:59 | 29021 | 13 | -53.3 | 167 | 10 | |
| 2026-02-18T12:59 | 29121 | 13 | 188 | 9 | ||
| 2026-02-18T13:00 | 29278 | 12 | 229 | 9 | ||
| 2026-02-18T13:00 | 29333 | 12 | -50.0 | |||
| 2026-02-18T13:00 | 29438 | 12 | 259 | 3 | ||
| 2026-02-18T13:01 | 29602 | 12 | 237 | 4 | ||
| 2026-02-18T13:01 | 29828 | 11 | 43 | 1 | ||
| 2026-02-18T13:01 | 29884 | 11 | 54 | 3 | ||
| 2026-02-18T13:02 | 30004 | 11 | 4 | 2 | ||
| 2026-02-18T13:03 | 30368 | 11 | 188 | 3 | ||
| 2026-02-18T13:03 | 30618 | 10 | -50.0 | |||
| 2026-02-18T13:04 | 30686 | 10 | 299 | 1 | ||
| 2026-02-18T13:04 | 30857 | 10 | -49.1 | 343 | 4 | |
| 2026-02-18T23:33 | 26 | 1014 | 4.1 | -7.7 | 290 | 4 |
| 2026-02-18T23:33 | 31 | 1013 | 3.8 | -8.9 | 0 | 0 |
| 2026-02-18T23:33 | 50 | 1011 | 307 | 4 | ||
| 2026-02-18T23:33 | 55 | 1010 | 2.6 | -10.0 | ||
| 2026-02-18T23:33 | 97 | 1005 | 304 | 9 | ||
| 2026-02-18T23:34 | 372 | 971 | 281 | 10 | ||
| 2026-02-18T23:34 | 535 | 951 | -2.1 | -11.1 | ||
| 2026-02-18T23:35 | 644 | 938 | 295 | 11 | ||
| 2026-02-18T23:35 | 742 | 927 | -4.0 | -12.7 | ||
| 2026-02-18T23:35 | 804 | 920 | 297 | 13 | ||
| 2026-02-18T23:35 | 863 | 913 | -4.7 | -14.8 | ||
| 2026-02-18T23:36 | 1024 | 894 | -5.7 | -16.3 | ||
| 2026-02-18T23:36 | 1057 | 890 | 284 | 12 | ||
| 2026-02-18T23:37 | 1236 | 870 | -6.8 | -18.5 | ||
| 2026-02-18T23:37 | 1318 | 861 | 291 | 10 | ||
| 2026-02-18T23:37 | 1330 | 860 | -6.7 | -20.3 | ||
| 2026-02-18T23:37 | 1381 | 854 | -6.4 | -21.9 | ||
| 2026-02-18T23:37 | 1460 | 846 | 293 | 5 | ||
| 2026-02-18T23:38 | 1621 | 828 | -6.7 | -25.4 | 288 | 5 |
| 2026-02-18T23:38 | 1674 | 823 | -5.8 | -26.4 | ||
| 2026-02-18T23:38 | 1732 | 817 | 205 | 3 | ||
| 2026-02-18T23:38 | 1748 | 815 | -5.2 | -27.9 | ||
| 2026-02-18T23:39 | 1944 | 795 | -6.6 | -28.3 | ||
| 2026-02-18T23:39 | 1977 | 792 | 210 | 1 | ||
| 2026-02-18T23:39 | 2148 | 774 | -8.1 | -28.9 | ||
| 2026-02-18T23:39 | 2155 | 774 | 309 | 3 | ||
| 2026-02-18T23:40 | 2371 | 752 | 327 | 13 | ||
| 2026-02-18T23:40 | 2542 | 736 | -9.6 | -29.5 | ||
| 2026-02-18T23:41 | 2674 | 723 | -9.9 | -30.4 | ||
| 2026-02-18T23:41 | 2714 | 720 | 317 | 20 | ||
| 2026-02-18T23:41 | 2784 | 713 | -9.1 | -32.5 | ||
| 2026-02-18T23:41 | 2847 | 707 | -8.3 | -35.7 | ||
| 2026-02-18T23:41 | 2871 | 705 | 313 | 24 | ||
| 2026-02-18T23:42 | 3043 | 690 | -9.4 | -36.5 | ||
| 2026-02-18T23:42 | 3084 | 686 | 314 | 22 | ||
| 2026-02-18T23:42 | 3264 | 670 | -10.6 | -33.8 | ||
| 2026-02-18T23:43 | 3400 | 658 | 313 | 22 | ||
| 2026-02-18T23:44 | 3724 | 631 | 310 | 22 | ||
| 2026-02-18T23:44 | 3806 | 624 | -14.8 | -38.0 | ||
| 2026-02-18T23:45 | 4038 | 605 | 308 | 24 | ||
| 2026-02-18T23:45 | 4238 | 589 | -17.7 | -37.5 | ||
| 2026-02-18T23:46 | 4371 | 579 | 297 | 26 | ||
| 2026-02-18T23:46 | 4420 | 575 | -18.9 | -39.1 | ||
| 2026-02-18T23:47 | 4739 | 551 | 298 | 24 | ||
| 2026-02-18T23:47 | 4757 | 549 | -21.4 | -41.2 | ||
| 2026-02-18T23:47 | 4876 | 541 | -21.6 | -42.7 | ||
| 2026-02-18T23:48 | 5086 | 525 | 292 | 26 | ||
| 2026-02-18T23:48 | 5220 | 516 | -23.7 | -43.1 | 290 | 28 |
| 2026-02-18T23:49 | 5402 | 503 | 287 | 29 | ||
| 2026-02-18T23:49 | 5533 | 494 | 287 | 27 | ||
| 2026-02-18T23:50 | 5814 | 475 | -28.5 | -44.1 | ||
| 2026-02-18T23:50 | 5859 | 472 | 283 | 28 | ||
| 2026-02-18T23:51 | 6168 | 452 | 285 | 31 | ||
| 2026-02-18T23:51 | 6325 | 442 | -32.2 | -46.4 | ||
| 2026-02-18T23:51 | 6371 | 439 | 286 | 32 | ||
| 2026-02-18T23:52 | 6478 | 433 | -33.3 | -47.4 | ||
| 2026-02-18T23:52 | 6489 | 432 | 284 | 36 | ||
| 2026-02-18T23:52 | 6654 | 422 | 285 | 33 | ||
| 2026-02-18T23:53 | 6966 | 403 | 286 | 37 | ||
| 2026-02-18T23:53 | 7079 | 397 | 282 | 37 | ||
| 2026-02-18T23:54 | 7090 | 396 | -37.6 | -49.7 | ||
| 2026-02-18T23:54 | 7360 | 381 | 282 | 40 | ||
| 2026-02-18T23:54 | 7371 | 380 | -39.8 | -55.6 | ||
| 2026-02-18T23:54 | 7403 | 379 | -40.0 | -55.7 | ||
| 2026-02-18T23:55 | 7689 | 363 | 280 | 41 | ||
| 2026-02-18T23:56 | 7935 | 350 | -44.6 | |||
| 2026-02-18T23:56 | 7941 | 350 | 277 | 42 | ||
| 2026-02-18T23:57 | 8297 | 331 | 277 | 43 | ||
| 2026-02-18T23:57 | 8317 | 330 | -47.1 | |||
| 2026-02-18T23:58 | 8446 | 324 | -47.5 | |||
| 2026-02-18T23:58 | 8688 | 312 | -48.9 | |||
| 2026-02-18T23:58 | 8695 | 312 | 281 | 48 | ||
| 2026-02-18T23:58 | 8805 | 307 | -49.1 | |||
| 2026-02-18T23:59 | 9007 | 298 | 281 | 49 | ||
| 2026-02-19T00:00 | 9449 | 278 | 281 | 49 | ||
| 2026-02-19T00:01 | 9860 | 261 | 280 | 49 | ||
| 2026-02-19T00:02 | 10154 | 249 | -58.1 | |||
| 2026-02-19T00:02 | 10204 | 247 | 281 | 49 | ||
| 2026-02-19T00:02 | 10330 | 242 | 279 | 46 | ||
| 2026-02-19T00:02 | 10351 | 241 | -58.8 | |||
| 2026-02-19T00:03 | 10631 | 231 | -59.3 | |||
| 2026-02-19T00:03 | 10655 | 230 | 277 | 49 | ||
| 2026-02-19T00:03 | 10731 | 227 | -58.3 | |||
| 2026-02-19T00:04 | 10854 | 223 | -58.3 | |||
| 2026-02-19T00:04 | 10907 | 221 | 272 | 44 | ||
| 2026-02-19T00:05 | 11229 | 210 | -52.4 | |||
| 2026-02-19T00:05 | 11243 | 209 | 273 | 50 | ||
| 2026-02-19T00:05 | 11350 | 206 | -52.3 | |||
| 2026-02-19T00:05 | 11553 | 200 | 275 | 45 | ||
| 2026-02-19T00:06 | 11973 | 187 | -54.8 | 269 | 51 | |
| 2026-02-19T00:07 | 12112 | 183 | -54.4 | |||
| 2026-02-19T00:07 | 12286 | 178 | -52.8 | |||
| 2026-02-19T00:07 | 12335 | 177 | 268 | 53 | ||
| 2026-02-19T00:08 | 12442 | 174 | -53.0 | |||
| 2026-02-19T00:08 | 12656 | 168 | 270 | 55 | ||
| 2026-02-19T00:09 | 12951 | 161 | -51.7 | |||
| 2026-02-19T00:09 | 12985 | 160 | 268 | 55 | ||
| 2026-02-19T00:10 | 13162 | 155 | 267 | 52 | ||
| 2026-02-19T00:10 | 13229 | 154 | -52.0 | |||
| 2026-02-19T00:11 | 13461 | 148 | 269 | 49 | ||
| 2026-02-19T00:11 | 13635 | 145 | -52.4 | |||
| 2026-02-19T00:12 | 13807 | 141 | 266 | 50 | ||
| 2026-02-19T00:12 | 14044 | 136 | -54.1 | |||
| 2026-02-19T00:13 | 14147 | 133 | 264 | 47 | ||
| 2026-02-19T00:13 | 14334 | 130 | -55.6 | |||
| 2026-02-19T00:14 | 14464 | 127 | 264 | 49 | ||
| 2026-02-19T00:15 | 14757 | 121 | 261 | 50 | ||
| 2026-02-19T00:16 | 15024 | 116 | 262 | 47 | ||
| 2026-02-19T00:16 | 15126 | 114 | -56.9 | |||
| 2026-02-19T00:16 | 15151 | 114 | 263 | 44 | ||
| 2026-02-19T00:17 | 15463 | 108 | 264 | 46 | ||
| 2026-02-19T00:17 | 15587 | 106 | -57.4 | |||
| 2026-02-19T00:18 | 15713 | 104 | -56.9 | |||
| 2026-02-19T00:18 | 15788 | 103 | 263 | 41 | ||
| 2026-02-19T00:19 | 16110 | 98 | 260 | 38 | ||
| 2026-02-19T00:19 | 16162 | 97 | -57.4 | |||
| 2026-02-19T00:20 | 16359 | 94 | -57.6 | |||
| 2026-02-19T00:20 | 16408 | 93 | 255 | 42 | ||
| 2026-02-19T00:21 | 16717 | 89 | 256 | 45 | ||
| 2026-02-19T00:21 | 16772 | 88 | -60.3 | |||
| 2026-02-19T00:22 | 17045 | 84 | 262 | 42 | ||
| 2026-02-19T00:23 | 17371 | 80 | -61.1 | |||
| 2026-02-19T00:23 | 17394 | 80 | 263 | 38 | ||
| 2026-02-19T00:24 | 17689 | 76 | 270 | 40 | ||
| 2026-02-19T00:24 | 17714 | 76 | -59.2 | |||
| 2026-02-19T00:25 | 17917 | 73 | 263 | 35 | ||
| 2026-02-19T00:25 | 17943 | 73 | -57.6 | |||
| 2026-02-19T00:26 | 18233 | 70 | 261 | 35 | ||
| 2026-02-19T00:27 | 18567 | 66 | 266 | 36 | ||
| 2026-02-19T00:27 | 18673 | 65 | -58.7 | |||
| 2026-02-19T00:28 | 18911 | 63 | 265 | 32 | ||
| 2026-02-19T00:29 | 19175 | 60 | 260 | 30 | ||
| 2026-02-19T00:29 | 19409 | 58 | -58.6 | |||
| 2026-02-19T00:30 | 19507 | 57 | 258 | 29 | ||
| 2026-02-19T00:30 | 19588 | 56 | -56.1 | |||
| 2026-02-19T00:30 | 19782 | 55 | 246 | 25 | ||
| 2026-02-19T00:31 | 20030 | 52 | -57.8 | |||
| 2026-02-19T00:31 | 20102 | 52 | 245 | 29 | ||
| 2026-02-19T00:32 | 20412 | 49 | -57.9 | |||
| 2026-02-19T00:32 | 20427 | 49 | 247 | 28 | ||
| 2026-02-19T00:33 | 20795 | 46 | 246 | 29 | ||
| 2026-02-19T00:34 | 20848 | 46 | -58.8 | |||
| 2026-02-19T00:34 | 21061 | 45 | -56.5 | |||
| 2026-02-19T00:34 | 21130 | 44 | 234 | 31 | ||
| 2026-02-19T00:35 | 21367 | 42 | 242 | 34 | ||
| 2026-02-19T00:36 | 21627 | 41 | -55.2 | 252 | 32 | |
| 2026-02-19T00:37 | 21948 | 39 | 251 | 30 | ||
| 2026-02-19T00:38 | 22220 | 37 | -54.2 | |||
| 2026-02-19T00:38 | 22255 | 37 | 258 | 25 | ||
| 2026-02-19T00:39 | 22596 | 35 | 260 | 21 | ||
| 2026-02-19T00:39 | 22669 | 35 | -54.7 | |||
| 2026-02-19T00:40 | 22933 | 33 | 268 | 13 | ||
| 2026-02-19T00:40 | 23071 | 33 | -52.6 | |||
| 2026-02-19T00:41 | 23292 | 31 | 249 | 19 | ||
| 2026-02-19T00:42 | 23672 | 30 | -53.4 | 227 | 19 | |
| 2026-02-19T00:43 | 24052 | 28 | 208 | 20 | ||
| 2026-02-19T00:43 | 24305 | 27 | -56.7 | |||
| 2026-02-19T00:44 | 24450 | 26 | -54.8 | 214 | 15 | |
| 2026-02-19T00:44 | 24640 | 25 | -56.0 | 211 | 16 | |
| 2026-02-19T11:33 | 26 | 1017 | 2.3 | -9.0 | 220 | 1 |
| 2026-02-19T11:33 | 33 | 1016 | 2.8 | -9.5 | 0 | 0 |
| 2026-02-19T11:33 | 65 | 1012 | 4.0 | -10.8 | ||
| 2026-02-19T11:34 | 212 | 994 | 46 | 4 | ||
| 2026-02-19T11:34 | 242 | 991 | 2.9 | -12.2 | ||
| 2026-02-19T11:34 | 383 | 973 | 3.7 | -13.1 | 51 | 4 |
| 2026-02-19T11:34 | 438 | 967 | 86 | 1 | ||
| 2026-02-19T11:34 | 492 | 960 | 199 | 3 | ||
| 2026-02-19T11:35 | 584 | 950 | 217 | 3 | ||
| 2026-02-19T11:35 | 657 | 941 | 281 | 3 | ||
| 2026-02-19T11:35 | 796 | 925 | 0.4 | -15.6 | ||
| 2026-02-19T11:35 | 885 | 915 | 279 | 3 | ||
| 2026-02-19T11:36 | 1035 | 897 | 298 | 7 | ||
| 2026-02-19T11:36 | 1168 | 883 | -2.7 | -17.5 | ||
| 2026-02-19T11:36 | 1278 | 870 | -2.3 | -17.5 | ||
| 2026-02-19T11:37 | 1361 | 861 | 265 | 11 | ||
| 2026-02-19T11:37 | 1548 | 841 | -4.6 | -16.8 | ||
| 2026-02-19T11:37 | 1584 | 837 | 267 | 9 | ||
| 2026-02-19T11:38 | 1787 | 816 | -6.1 | -24.9 | ||
| 2026-02-19T11:38 | 1889 | 805 | 288 | 10 | ||
| 2026-02-19T11:39 | 1981 | 796 | 294 | 10 | ||
| 2026-02-19T11:39 | 2030 | 791 | -7.3 | -27.0 | ||
| 2026-02-19T11:39 | 2115 | 782 | 291 | 11 | ||
| 2026-02-19T11:40 | 2263 | 767 | -8.6 | -27.0 | ||
| 2026-02-19T11:40 | 2425 | 752 | 283 | 11 | ||
| 2026-02-19T11:40 | 2456 | 749 | -9.5 | -21.5 | ||
| 2026-02-19T11:41 | 2685 | 727 | -10.4 | -36.2 | ||
| 2026-02-19T11:41 | 2746 | 721 | 308 | 11 | ||
| 2026-02-19T11:42 | 3012 | 696 | -11.6 | -42.1 | ||
| 2026-02-19T11:42 | 3017 | 696 | 308 | 13 | ||
| 2026-02-19T11:43 | 3205 | 679 | 304 | 13 | ||
| 2026-02-19T11:43 | 3247 | 675 | -12.8 | -36.3 | ||
| 2026-02-19T11:43 | 3301 | 670 | 297 | 15 | ||
| 2026-02-19T11:43 | 3326 | 668 | -13.3 | -31.0 | ||
| 2026-02-19T11:43 | 3456 | 657 | 302 | 15 | ||
| 2026-02-19T11:44 | 3534 | 650 | -13.1 | -40.5 | ||
| 2026-02-19T11:44 | 3554 | 648 | 304 | 19 | ||
| 2026-02-19T11:44 | 3649 | 640 | 309 | 17 | ||
| 2026-02-19T11:44 | 3669 | 639 | -12.8 | -46.8 | ||
| 2026-02-19T11:44 | 3742 | 633 | -11.6 | -48.5 | ||
| 2026-02-19T11:44 | 3790 | 629 | 304 | 22 | ||
| 2026-02-19T11:45 | 4111 | 603 | -13.7 | -30.4 | ||
| 2026-02-19T11:45 | 4117 | 602 | 309 | 23 | ||
| 2026-02-19T11:46 | 4268 | 590 | -14.9 | -29.4 | ||
| 2026-02-19T11:46 | 4346 | 584 | 308 | 25 | ||
| 2026-02-19T11:47 | 4661 | 560 | 302 | 26 | ||
| 2026-02-19T11:47 | 4717 | 556 | -18.2 | -32.3 | ||
| 2026-02-19T11:48 | 5005 | 535 | 296 | 27 | ||
| 2026-02-19T11:48 | 5028 | 533 | -20.2 | -34.8 | ||
| 2026-02-19T11:49 | 5272 | 516 | -22.0 | -34.6 | 296 | 29 |
| 2026-02-19T11:50 | 5627 | 491 | 293 | 31 | ||
| 2026-02-19T11:50 | 5773 | 482 | -26.3 | -40.5 | ||
| 2026-02-19T11:51 | 5841 | 477 | -26.2 | -50.8 | ||
| 2026-02-19T11:51 | 5869 | 475 | 293 | 30 | ||
| 2026-02-19T11:52 | 6197 | 454 | 291 | 31 | ||
| 2026-02-19T11:52 | 6421 | 440 | 295 | 32 | ||
| 2026-02-19T11:53 | 6757 | 420 | 291 | 31 | ||
| 2026-02-19T11:54 | 7075 | 401 | 290 | 35 | ||
| 2026-02-19T11:55 | 7134 | 397 | -37.0 | -59.3 | ||
| 2026-02-19T11:55 | 7404 | 382 | 292 | 37 | ||
| 2026-02-19T11:56 | 7459 | 379 | -39.8 | -57.1 | ||
| 2026-02-19T11:56 | 7491 | 377 | -40.0 | -57.9 | ||
| 2026-02-19T11:56 | 7721 | 365 | 291 | 35 | ||
| 2026-02-19T11:57 | 8049 | 347 | 291 | 36 | ||
| 2026-02-19T11:57 | 8087 | 345 | -45.3 | |||
| 2026-02-19T11:58 | 8380 | 330 | 286 | 37 | ||
| 2026-02-19T11:59 | 8722 | 314 | 286 | 38 | ||
| 2026-02-19T12:00 | 8926 | 304 | -52.4 | |||
| 2026-02-19T12:00 | 9053 | 298 | 284 | 40 | ||
| 2026-02-19T12:01 | 9371 | 284 | 283 | 43 | ||
| 2026-02-19T12:02 | 9644 | 272 | -57.2 | |||
| 2026-02-19T12:02 | 9657 | 271 | 279 | 44 | ||
| 2026-02-19T12:03 | 9872 | 262 | -57.0 | |||
| 2026-02-19T12:03 | 9877 | 262 | 281 | 46 | ||
| 2026-02-19T12:03 | 9961 | 258 | -55.3 | |||
| 2026-02-19T12:04 | 10050 | 255 | -54.9 | |||
| 2026-02-19T12:04 | 10109 | 252 | 279 | 51 | ||
| 2026-02-19T12:04 | 10153 | 251 | -54.9 | |||
| 2026-02-19T12:04 | 10270 | 246 | -53.1 | |||
| 2026-02-19T12:05 | 10415 | 241 | -52.7 | 277 | 53 | |
| 2026-02-19T12:06 | 10734 | 229 | 284 | 55 | ||
| 2026-02-19T12:06 | 10756 | 228 | -51.6 | |||
| 2026-02-19T12:07 | 10980 | 221 | -50.2 | |||
| 2026-02-19T12:07 | 11061 | 218 | -49.4 | |||
| 2026-02-19T12:07 | 11072 | 218 | 280 | 50 | ||
| 2026-02-19T12:08 | 11342 | 209 | -50.6 | |||
| 2026-02-19T12:08 | 11402 | 207 | 277 | 50 | ||
| 2026-02-19T12:09 | 11721 | 197 | 273 | 53 | ||
| 2026-02-19T12:09 | 11901 | 192 | -50.9 | |||
| 2026-02-19T12:10 | 12054 | 187 | 277 | 54 | ||
| 2026-02-19T12:10 | 12090 | 186 | -50.4 | |||
| 2026-02-19T12:11 | 12375 | 178 | 276 | 51 | ||
| 2026-02-19T12:11 | 12381 | 178 | -51.5 | |||
| 2026-02-19T12:12 | 12630 | 171 | -52.5 | |||
| 2026-02-19T12:12 | 12712 | 169 | 274 | 53 | ||
| 2026-02-19T12:13 | 12996 | 162 | 272 | 54 | ||
| 2026-02-19T12:13 | 13111 | 159 | -54.4 | |||
| 2026-02-19T12:14 | 13299 | 154 | 282 | 55 | ||
| 2026-02-19T12:15 | 13615 | 147 | 279 | 50 | ||
| 2026-02-19T12:15 | 13620 | 147 | -55.4 | |||
| 2026-02-19T12:16 | 13816 | 142 | -54.9 | |||
| 2026-02-19T12:16 | 13912 | 140 | 274 | 50 | ||
| 2026-02-19T12:17 | 14186 | 134 | 277 | 48 | ||
| 2026-02-19T12:17 | 14334 | 131 | 277 | 47 | ||
| 2026-02-19T12:18 | 14581 | 126 | -56.0 | |||
| 2026-02-19T12:18 | 14598 | 126 | 275 | 46 | ||
| 2026-02-19T12:19 | 14882 | 120 | 268 | 47 | ||
| 2026-02-19T12:20 | 14929 | 119 | -56.3 | |||
| 2026-02-19T12:20 | 15201 | 114 | 275 | 44 | ||
| 2026-02-19T12:21 | 15424 | 110 | 274 | 43 | ||
| 2026-02-19T12:22 | 15705 | 106 | -59.6 | |||
| 2026-02-19T12:22 | 15712 | 105 | 272 | 39 | ||
| 2026-02-19T12:23 | 15967 | 101 | -57.4 | |||
| 2026-02-19T12:23 | 15994 | 101 | 275 | 38 | ||
| 2026-02-19T12:24 | 16189 | 98 | 277 | 37 | ||
| 2026-02-19T12:25 | 16549 | 92 | 275 | 30 | ||
| 2026-02-19T12:25 | 16625 | 91 | -57.2 | |||
| 2026-02-19T12:26 | 16917 | 87 | 272 | 32 | ||
| 2026-02-19T12:27 | 17239 | 83 | 265 | 32 | ||
| 2026-02-19T12:28 | 17503 | 79 | -60.1 | |||
| 2026-02-19T12:28 | 17519 | 79 | 262 | 30 | ||
| 2026-02-19T12:29 | 17801 | 76 | 262 | 26 | ||
| 2026-02-19T12:30 | 18106 | 72 | 275 | 28 | ||
| 2026-02-19T12:30 | 18191 | 71 | -60.6 | |||
| 2026-02-19T12:31 | 18343 | 69 | 270 | 22 | ||
| 2026-02-19T12:31 | 18468 | 68 | 271 | 26 | ||
| 2026-02-19T12:31 | 18628 | 66 | 265 | 19 | ||
| 2026-02-19T12:32 | 18893 | 63 | 263 | 25 | ||
| 2026-02-19T12:32 | 18954 | 63 | -62.5 | |||
| 2026-02-19T12:33 | 19202 | 60 | 260 | 26 | ||
| 2026-02-19T12:33 | 19285 | 60 | -61.3 | |||
| 2026-02-19T12:34 | 19466 | 58 | 269 | 28 | ||
| 2026-02-19T12:34 | 19499 | 58 | -61.3 | |||
| 2026-02-19T12:35 | 19739 | 55 | 243 | 28 | ||
| 2026-02-19T12:35 | 19839 | 54 | -59.6 | |||
| 2026-02-19T12:36 | 20084 | 52 | 257 | 33 | ||
| 2026-02-19T12:36 | 20132 | 52 | -59.8 | |||
| 2026-02-19T12:37 | 20459 | 49 | 251 | 33 | ||
| 2026-02-19T12:37 | 20638 | 48 | -58.5 | |||
| 2026-02-19T12:38 | 20783 | 47 | 250 | 36 | ||
| 2026-02-19T12:39 | 21042 | 45 | -60.1 | |||
| 2026-02-19T12:39 | 21084 | 45 | 255 | 39 | ||
| 2026-02-19T12:40 | 21402 | 42 | 265 | 33 | ||
| 2026-02-19T12:40 | 21539 | 42 | -57.8 | |||
| 2026-02-19T12:41 | 21674 | 41 | -56.9 | |||
| 2026-02-19T12:41 | 21737 | 40 | 265 | 35 | ||
| 2026-02-19T12:41 | 21949 | 39 | 255 | 30 | ||
| 2026-02-19T12:41 | 21967 | 39 | -52.4 | |||
| 2026-02-19T12:42 | 22292 | 37 | 244 | 35 | ||
| 2026-02-19T12:43 | 22487 | 36 | -52.9 | |||
| 2026-02-19T12:43 | 22579 | 35 | 258 | 31 | ||
| 2026-02-19T12:44 | 22765 | 34 | -49.7 | 259 | 30 | |
| 2026-02-19T12:45 | 22978 | 33 | 273 | 23 | ||
| 2026-02-19T12:46 | 23321 | 32 | 279 | 15 | ||
| 2026-02-19T12:46 | 23468 | 31 | 254 | 9 | ||
| 2026-02-19T12:47 | 23703 | 30 | -51.3 | |||
| 2026-02-19T12:47 | 23857 | 29 | 213 | 6 | ||
| 2026-02-19T12:48 | 24221 | 27 | 215 | 7 | ||
| 2026-02-19T12:48 | 24362 | 27 | -55.3 | |||
| 2026-02-19T12:49 | 24386 | 27 | 230 | 7 | ||
| 2026-02-19T12:49 | 24682 | 26 | 226 | 9 | ||
| 2026-02-19T12:50 | 25044 | 24 | 238 | 8 | ||
| 2026-02-19T12:51 | 25203 | 24 | -56.2 | |||
| 2026-02-19T12:51 | 25340 | 23 | 257 | 10 | ||
| 2026-02-19T12:52 | 25562 | 22 | -57.3 | |||
| 2026-02-19T12:52 | 25677 | 22 | 220 | 10 | ||
| 2026-02-19T12:53 | 25854 | 21 | 220 | 12 | ||
| 2026-02-19T12:53 | 25914 | 21 | -56.3 | |||
| 2026-02-19T12:53 | 26004 | 21 | -54.3 | |||
| 2026-02-19T12:53 | 26135 | 20 | -53.8 | |||
| 2026-02-19T12:53 | 26229 | 20 | 237 | 10 | ||
| 2026-02-19T12:54 | 26456 | 19 | 230 | 9 | ||
| 2026-02-19T12:55 | 26659 | 19 | -52.6 | |||
| 2026-02-19T12:55 | 26730 | 19 | 201 | 10 | ||
| 2026-02-19T12:55 | 26873 | 18 | 203 | 10 | ||
| 2026-02-19T12:56 | 27086 | 18 | 216 | 9 | ||
| 2026-02-19T12:56 | 27196 | 17 | 244 | 7 | ||
| 2026-02-19T12:56 | 27309 | 17 | -54.4 | |||
| 2026-02-19T12:56 | 27465 | 17 | 216 | 11 | ||
| 2026-02-19T12:57 | 27581 | 16 | -52.8 | |||
| 2026-02-19T12:57 | 27623 | 16 | 221 | 7 | ||
| 2026-02-19T12:57 | 27743 | 16 | 204 | 6 | ||
| 2026-02-19T12:57 | 27825 | 16 | 230 | 2 | ||
| 2026-02-19T12:58 | 27946 | 15 | 172 | 4 | ||
| 2026-02-19T12:59 | 28291 | 15 | -54.7 | |||
| 2026-02-19T12:59 | 28384 | 14 | 241 | 14 | ||
| 2026-02-19T12:59 | 28473 | 14 | 248 | 14 | ||
| 2026-02-19T12:59 | 28564 | 14 | 264 | 8 | ||
| 2026-02-19T13:00 | 28754 | 14 | -50.0 | |||
| 2026-02-19T13:00 | 28802 | 13 | 230 | 12 | ||
| 2026-02-19T13:01 | 29104 | 13 | 301 | 7 | ||
| 2026-02-19T13:01 | 29156 | 13 | -46.9 | |||
| 2026-02-19T13:01 | 29316 | 12 | 5 | 9 | ||
| 2026-02-19T13:02 | 29753 | 12 | -49.7 | 53 | 8 | |
| 2026-02-19T13:03 | 29926 | 11 | 70 | 4 | ||
| 2026-02-19T13:03 | 29984 | 11 | 26 | 2 | ||
| 2026-02-19T13:03 | 30042 | 11 | 336 | 5 | ||
| 2026-02-19T13:03 | 30162 | 11 | 346 | 6 | ||
| 2026-02-19T13:04 | 30405 | 11 | 304 | 5 | ||
| 2026-02-19T13:04 | 30469 | 10 | 329 | 5 | ||
| 2026-02-19T13:04 | 30533 | 10 | -48.9 | |||
| 2026-02-19T13:04 | 30596 | 10 | 65 | 3 | ||
| 2026-02-19T13:05 | 30857 | 10 | 112 | 9 | ||
| 2026-02-19T13:05 | 30925 | 10 | -47.9 | 127 | 9 | |
| 2026-02-19T13:05 | 30995 | 10 | 120 | 8 | ||
| 2026-02-19T13:06 | 31203 | 9 | 46 | 5 | ||
| 2026-02-19T13:06 | 31347 | 9 | 36 | 3 | ||
| 2026-02-19T13:06 | 31497 | 9 | -46.0 | |||
| 2026-02-19T13:07 | 31727 | 9 | 108 | 4 | ||
| 2026-02-19T13:07 | 31848 | 8 | -47.1 | 151 | 5 | |
| 2026-02-19T23:33 | 26 | 1019 | 1.4 | -5.1 | 310 | 1 |
| 2026-02-19T23:33 | 32 | 1018 | 1.2 | -6.4 | 0 | 0 |
| 2026-02-19T23:33 | 148 | 1003 | 0.0 | -8.4 | ||
| 2026-02-19T23:33 | 182 | 999 | 1.9 | -10.3 | ||
| 2026-02-19T23:34 | 331 | 981 | 41 | 4 | ||
| 2026-02-19T23:34 | 359 | 978 | 1.7 | -10.2 | ||
| 2026-02-19T23:34 | 409 | 972 | 1.7 | -8.4 | 81 | 3 |
| 2026-02-19T23:34 | 464 | 965 | 1.8 | -12.8 | ||
| 2026-02-19T23:34 | 475 | 964 | 116 | 2 | ||
| 2026-02-19T23:35 | 540 | 956 | 1.3 | -9.9 | ||
| 2026-02-19T23:35 | 572 | 952 | 96 | 4 | ||
| 2026-02-19T23:35 | 637 | 945 | 0.7 | -3.4 | ||
| 2026-02-19T23:35 | 818 | 924 | -0.5 | -7.8 | ||
| 2026-02-19T23:36 | 856 | 919 | -0.8 | -7.2 | ||
| 2026-02-19T23:36 | 900 | 914 | 160 | 4 | ||
| 2026-02-19T23:36 | 961 | 907 | -1.0 | -2.4 | ||
| 2026-02-19T23:36 | 1001 | 903 | -0.9 | -2.3 | ||
| 2026-02-19T23:36 | 1056 | 897 | -1.1 | -6.3 | ||
| 2026-02-19T23:37 | 1235 | 877 | 204 | 8 | ||
| 2026-02-19T23:37 | 1288 | 871 | -3.1 | -5.6 | ||
| 2026-02-19T23:38 | 1594 | 838 | 209 | 8 | ||
| 2026-02-19T23:38 | 1667 | 830 | -6.0 | -6.4 | ||
| 2026-02-19T23:38 | 1865 | 809 | -7.6 | -8.3 | ||
| 2026-02-19T23:38 | 1881 | 808 | 217 | 7 | ||
| 2026-02-19T23:39 | 1898 | 806 | -7.2 | -13.0 | ||
| 2026-02-19T23:39 | 1935 | 802 | -4.1 | -19.1 | ||
| 2026-02-19T23:39 | 1962 | 799 | -3.6 | -21.3 | ||
| 2026-02-19T23:39 | 1989 | 797 | 246 | 3 | ||
| 2026-02-19T23:39 | 2135 | 782 | 256 | 5 | ||
| 2026-02-19T23:39 | 2146 | 781 | -4.5 | -26.6 | ||
| 2026-02-19T23:40 | 2317 | 764 | -5.2 | -27.9 | ||
| 2026-02-19T23:40 | 2328 | 763 | 276 | 7 | ||
| 2026-02-19T23:40 | 2511 | 745 | 274 | 7 | ||
| 2026-02-19T23:41 | 2542 | 742 | -6.0 | -30.0 | ||
| 2026-02-19T23:41 | 2647 | 732 | 275 | 9 | ||
| 2026-02-19T23:41 | 2759 | 722 | -7.3 | -28.2 | ||
| 2026-02-19T23:41 | 2775 | 721 | 266 | 10 | ||
| 2026-02-19T23:42 | 3084 | 692 | -9.3 | -29.9 | ||
| 2026-02-19T23:42 | 3100 | 691 | 288 | 14 | ||
| 2026-02-19T23:43 | 3225 | 680 | 298 | 14 | ||
| 2026-02-19T23:43 | 3309 | 673 | 293 | 16 | ||
| 2026-02-19T23:43 | 3372 | 667 | -10.7 | -35.5 | ||
| 2026-02-19T23:44 | 3627 | 645 | 290 | 16 | ||
| 2026-02-19T23:45 | 3881 | 624 | 289 | 15 | ||
| 2026-02-19T23:45 | 3933 | 620 | -15.3 | -37.6 | ||
| 2026-02-19T23:46 | 4127 | 604 | 284 | 18 | ||
| 2026-02-19T23:46 | 4284 | 592 | 287 | 16 | ||
| 2026-02-19T23:46 | 4344 | 587 | -18.4 | -40.1 | ||
| 2026-02-19T23:47 | 4477 | 576 | 282 | 19 | ||
| 2026-02-19T23:47 | 4715 | 558 | 276 | 20 | ||
| 2026-02-19T23:47 | 4726 | 557 | -20.7 | -42.0 | ||
| 2026-02-19T23:48 | 4860 | 547 | 277 | 18 | ||
| 2026-02-19T23:48 | 4948 | 541 | -21.7 | -49.8 | ||
| 2026-02-19T23:49 | 5098 | 530 | -21.6 | -58.8 | ||
| 2026-02-19T23:49 | 5150 | 526 | 276 | 18 | ||
| 2026-02-19T23:50 | 5466 | 504 | 282 | 23 | ||
| 2026-02-19T23:50 | 5560 | 497 | -24.6 | -52.0 | ||
| 2026-02-19T23:50 | 5693 | 489 | -24.3 | -51.8 | ||
| 2026-02-19T23:50 | 5709 | 487 | 268 | 25 | ||
| 2026-02-19T23:51 | 6035 | 466 | 278 | 25 | ||
| 2026-02-19T23:52 | 6180 | 457 | -28.3 | -43.0 | ||
| 2026-02-19T23:52 | 6364 | 445 | 282 | 27 | ||
| 2026-02-19T23:52 | 6381 | 444 | -30.3 | -42.3 | ||
| 2026-02-19T23:53 | 6660 | 427 | -32.9 | -40.2 | ||
| 2026-02-19T23:53 | 6728 | 423 | 281 | 29 | ||
| 2026-02-19T23:54 | 7074 | 402 | -36.3 | -38.7 | ||
| 2026-02-19T23:54 | 7092 | 401 | 268 | 30 | ||
| 2026-02-19T23:55 | 7259 | 392 | 261 | 32 | ||
| 2026-02-19T23:55 | 7353 | 386 | -38.5 | -39.7 | ||
| 2026-02-19T23:56 | 7534 | 376 | -40.0 | -41.9 | ||
| 2026-02-19T23:56 | 7596 | 373 | 269 | 36 | ||
| 2026-02-19T23:56 | 7762 | 364 | -42.0 | |||
| 2026-02-19T23:56 | 7794 | 362 | 269 | 37 | ||
| 2026-02-19T23:57 | 7816 | 361 | -41.4 | |||
| 2026-02-19T23:57 | 7976 | 352 | 270 | 39 | ||
| 2026-02-19T23:57 | 8098 | 346 | 271 | 37 | ||
| 2026-02-19T23:58 | 8247 | 339 | -45.0 | |||
| 2026-02-19T23:58 | 8416 | 330 | 267 | 40 | ||
| 2026-02-19T23:59 | 8692 | 317 | 270 | 42 | ||
| 2026-02-20T00:00 | 8999 | 302 | 270 | 48 | ||
| 2026-02-20T00:01 | 9200 | 293 | -52.9 | |||
| 2026-02-20T00:01 | 9259 | 290 | 269 | 45 | ||
| 2026-02-20T00:01 | 9396 | 284 | 270 | 40 | ||
| 2026-02-20T00:02 | 9751 | 269 | 266 | 43 | ||
| 2026-02-20T00:03 | 9874 | 263 | -56.2 | |||
| 2026-02-20T00:03 | 10032 | 257 | 268 | 46 | ||
| 2026-02-20T00:04 | 10244 | 249 | 267 | 51 | ||
| 2026-02-20T00:04 | 10389 | 243 | -53.2 | |||
| 2026-02-20T00:04 | 10490 | 239 | -50.7 | |||
| 2026-02-20T00:05 | 10601 | 235 | 262 | 51 | ||
| 2026-02-20T00:05 | 10779 | 229 | -51.0 | |||
| 2026-02-20T00:06 | 10964 | 222 | 261 | 57 | ||
| 2026-02-20T00:06 | 11070 | 219 | -49.9 | |||
| 2026-02-20T00:07 | 11356 | 209 | 270 | 51 | ||
| 2026-02-20T00:07 | 11369 | 209 | -51.0 | |||
| 2026-02-20T00:07 | 11487 | 205 | -51.0 | |||
| 2026-02-20T00:07 | 11678 | 199 | 263 | 59 | ||
| 2026-02-20T00:08 | 11861 | 194 | -51.4 | |||
| 2026-02-20T00:08 | 12014 | 189 | -51.0 | |||
| 2026-02-20T00:08 | 12046 | 188 | 265 | 59 | ||
| 2026-02-20T00:09 | 12263 | 182 | -51.2 | |||
| 2026-02-20T00:09 | 12339 | 180 | 265 | 59 | ||
| 2026-02-20T00:09 | 12390 | 179 | -51.7 | |||
| 2026-02-20T00:10 | 12503 | 176 | 265 | 55 | ||
| 2026-02-20T00:10 | 12710 | 170 | 265 | 53 | ||
| 2026-02-20T00:11 | 12873 | 166 | 265 | 53 | ||
| 2026-02-20T00:11 | 12986 | 163 | -51.7 | |||
| 2026-02-20T00:11 | 13105 | 160 | 267 | 49 | ||
| 2026-02-20T00:12 | 13235 | 157 | -52.6 | |||
| 2026-02-20T00:12 | 13411 | 153 | 269 | 54 | ||
| 2026-02-20T00:13 | 13731 | 145 | 271 | 53 | ||
| 2026-02-20T00:14 | 13938 | 141 | 270 | 48 | ||
| 2026-02-20T00:15 | 14188 | 135 | -54.7 | |||
| 2026-02-20T00:15 | 14264 | 134 | 272 | 48 | ||
| 2026-02-20T00:15 | 14351 | 132 | -54.9 | |||
| 2026-02-20T00:16 | 14600 | 127 | 269 | 46 | ||
| 2026-02-20T00:17 | 14891 | 121 | -56.8 | |||
| 2026-02-20T00:17 | 14968 | 120 | 274 | 46 | ||
| 2026-02-20T00:18 | 15293 | 114 | 272 | 44 | ||
| 2026-02-20T00:18 | 15386 | 112 | -60.1 | |||
| 2026-02-20T00:19 | 15497 | 110 | 270 | 38 | ||
| 2026-02-20T00:19 | 15514 | 110 | -59.4 | |||
| 2026-02-20T00:19 | 15661 | 107 | 268 | 38 | ||
| 2026-02-20T00:20 | 15839 | 104 | 264 | 34 | ||
| 2026-02-20T00:20 | 15929 | 103 | -60.4 | |||
| 2026-02-20T00:21 | 16157 | 99 | 272 | 36 | ||
| 2026-02-20T00:21 | 16179 | 99 | -59.4 | |||
| 2026-02-20T00:22 | 16499 | 94 | 268 | 34 | ||
| 2026-02-20T00:22 | 16685 | 91 | -62.1 | |||
| 2026-02-20T00:23 | 16824 | 89 | 264 | 34 | ||
| 2026-02-20T00:24 | 17115 | 85 | 267 | 36 | ||
| 2026-02-20T00:24 | 17306 | 82 | -63.1 | |||
| 2026-02-20T00:25 | 17419 | 81 | 267 | 38 | ||
| 2026-02-20T00:25 | 17614 | 78 | 269 | 32 | ||
| 2026-02-20T00:26 | 17750 | 76 | 271 | 31 | ||
| 2026-02-20T00:26 | 17887 | 75 | 270 | 28 | ||
| 2026-02-20T00:27 | 18054 | 73 | -62.6 | |||
| 2026-02-20T00:27 | 18154 | 72 | 274 | 34 | ||
| 2026-02-20T00:27 | 18321 | 70 | -62.2 | |||
| 2026-02-20T00:28 | 18484 | 68 | 281 | 32 | ||
| 2026-02-20T00:29 | 18831 | 64 | 262 | 22 | ||
| 2026-02-20T00:29 | 18949 | 63 | -59.5 | |||
| 2026-02-20T00:30 | 19194 | 61 | 285 | 20 | ||
| 2026-02-20T00:31 | 19466 | 58 | 290 | 16 | ||
| 2026-02-20T00:31 | 19597 | 57 | 297 | 19 | ||
| 2026-02-20T00:32 | 19722 | 56 | -60.8 | |||
| 2026-02-20T00:32 | 19905 | 54 | 265 | 19 | ||
| 2026-02-20T00:33 | 20112 | 52 | -62.7 | |||
| 2026-02-20T00:33 | 20159 | 52 | 255 | 23 | ||
| 2026-02-20T00:33 | 20207 | 51 | -61.3 | |||
| 2026-02-20T00:34 | 20414 | 50 | -60.8 | 252 | 16 | |
| 2026-02-20T00:35 | 20722 | 47 | 266 | 25 | ||
| 2026-02-20T00:35 | 20764 | 47 | -60.2 | |||
| 2026-02-20T00:35 | 20898 | 46 | 272 | 19 | ||
| 2026-02-20T00:36 | 21095 | 45 | -55.3 | |||
| 2026-02-20T00:36 | 21166 | 44 | 265 | 16 | ||
| 2026-02-20T00:37 | 21536 | 42 | 254 | 23 | ||
| 2026-02-20T00:37 | 21703 | 41 | -57.5 | |||
| 2026-02-20T00:37 | 21752 | 40 | 255 | 23 | ||
| 2026-02-20T00:38 | 21926 | 39 | 250 | 19 | ||
| 2026-02-20T00:39 | 22142 | 38 | -56.1 | |||
| 2026-02-20T00:39 | 22210 | 37 | 239 | 21 | ||
| 2026-02-20T00:40 | 22556 | 35 | 257 | 20 | ||
| 2026-02-20T00:40 | 22739 | 34 | -56.7 | |||
| 2026-02-20T00:41 | 22908 | 34 | 253 | 16 | ||
| 2026-02-20T00:42 | 23180 | 32 | 228 | 18 | ||
| 2026-02-20T00:42 | 23242 | 32 | -53.8 | |||
| 2026-02-20T00:42 | 23449 | 31 | 229 | 23 | ||
| 2026-02-20T00:43 | 23724 | 30 | 241 | 23 | ||
| 2026-02-20T00:44 | 24100 | 28 | 260 | 17 | ||
| 2026-02-20T00:45 | 24189 | 27 | -56.1 | |||
| 2026-02-20T00:45 | 24473 | 26 | -56.0 | 258 | 17 | |
| 2026-02-20T11:30 | 26 | 1016 | 4.1 | 2.1 | 40 | 1 |
| 2026-02-20T11:30 | 30 | 1015 | 3.6 | 1.2 | 0 | 0 |
| 2026-02-20T11:30 | 37 | 1014 | 3.3 | 0.5 | ||
| 2026-02-20T11:30 | 62 | 1011 | 56 | 3 | ||
| 2026-02-20T11:30 | 72 | 1010 | 7.0 | 1.5 | ||
| 2026-02-20T11:31 | 218 | 992 | 85 | 3 | ||
| 2026-02-20T11:31 | 239 | 990 | 7.1 | 2.6 | ||
| 2026-02-20T11:31 | 354 | 976 | 118 | 3 | ||
| 2026-02-20T11:32 | 497 | 959 | 5.3 | 0.7 | ||
| 2026-02-20T11:32 | 679 | 938 | 261 | 2 | ||
| 2026-02-20T11:33 | 882 | 914 | 2.1 | -1.3 | ||
| 2026-02-20T11:33 | 899 | 912 | 217 | 3 | ||
| 2026-02-20T11:33 | 1069 | 893 | 0.8 | -3.9 | ||
| 2026-02-20T11:33 | 1124 | 887 | 0.4 | -4.1 | ||
| 2026-02-20T11:33 | 1130 | 887 | 208 | 5 | ||
| 2026-02-20T11:34 | 1294 | 869 | 183 | 5 | ||
| 2026-02-20T11:34 | 1333 | 865 | -1.0 | -5.2 | ||
| 2026-02-20T11:34 | 1432 | 854 | -1.5 | -7.2 | ||
| 2026-02-20T11:35 | 1580 | 838 | -2.6 | -5.1 | ||
| 2026-02-20T11:35 | 1624 | 833 | 173 | 10 | ||
| 2026-02-20T11:35 | 1744 | 821 | -2.7 | -10.3 | ||
| 2026-02-20T11:36 | 1849 | 810 | -2.6 | -15.3 | ||
| 2026-02-20T11:36 | 1854 | 809 | 154 | 6 | ||
| 2026-02-20T11:36 | 1954 | 799 | -2.6 | -20.9 | ||
| 2026-02-20T11:36 | 2097 | 785 | 130 | 4 | ||
| 2026-02-20T11:37 | 2277 | 767 | 140 | 2 | ||
| 2026-02-20T11:37 | 2305 | 764 | -4.8 | -23.3 | ||
| 2026-02-20T11:38 | 2521 | 744 | 285 | 3 | ||
| 2026-02-20T11:38 | 2552 | 741 | -6.7 | -20.7 | ||
| 2026-02-20T11:38 | 2791 | 718 | -8.0 | -26.0 | ||
| 2026-02-20T11:39 | 2880 | 710 | 246 | 5 | ||
| 2026-02-20T11:39 | 2915 | 707 | -8.9 | -24.9 | ||
| 2026-02-20T11:39 | 3022 | 697 | 230 | 5 | ||
| 2026-02-20T11:39 | 3069 | 693 | -10.0 | -28.2 | ||
| 2026-02-20T11:40 | 3355 | 668 | -12.2 | -31.2 | ||
| 2026-02-20T11:40 | 3367 | 667 | 247 | 7 | ||
| 2026-02-20T11:40 | 3385 | 665 | -12.1 | -25.5 | ||
| 2026-02-20T11:40 | 3419 | 662 | -12.4 | -20.7 | ||
| 2026-02-20T11:40 | 3517 | 653 | -13.2 | -21.9 | ||
| 2026-02-20T11:41 | 3621 | 645 | -14.1 | -23.0 | ||
| 2026-02-20T11:41 | 3713 | 637 | 242 | 8 | ||
| 2026-02-20T11:41 | 3789 | 630 | -15.5 | -23.1 | ||
| 2026-02-20T11:42 | 3948 | 617 | -16.8 | -26.0 | ||
| 2026-02-20T11:42 | 4030 | 611 | -17.5 | -29.6 | ||
| 2026-02-20T11:42 | 4065 | 608 | 266 | 7 | ||
| 2026-02-20T11:42 | 4176 | 599 | -18.7 | -30.4 | ||
| 2026-02-20T11:43 | 4276 | 591 | -19.6 | -26.6 | ||
| 2026-02-20T11:43 | 4413 | 580 | 296 | 7 | ||
| 2026-02-20T11:43 | 4461 | 576 | -20.7 | -25.1 | ||
| 2026-02-20T11:43 | 4532 | 571 | -20.8 | -25.2 | ||
| 2026-02-20T11:43 | 4556 | 569 | 296 | 6 | ||
| 2026-02-20T11:44 | 4743 | 554 | -21.9 | -24.3 | ||
| 2026-02-20T11:44 | 4803 | 550 | 258 | 7 | ||
| 2026-02-20T11:45 | 5166 | 523 | 260 | 10 | ||
| 2026-02-20T11:45 | 5172 | 523 | -25.6 | -27.4 | ||
| 2026-02-20T11:46 | 5529 | 498 | 281 | 10 | ||
| 2026-02-20T11:47 | 5713 | 485 | -28.9 | -32.2 | ||
| 2026-02-20T11:47 | 5898 | 473 | 277 | 11 | ||
| 2026-02-20T11:48 | 6264 | 449 | 274 | 10 | ||
| 2026-02-20T11:48 | 6324 | 445 | -33.8 | -38.0 | ||
| 2026-02-20T11:49 | 6622 | 426 | 267 | 10 | ||
| 2026-02-20T11:50 | 6846 | 413 | -38.2 | -42.5 | ||
| 2026-02-20T11:50 | 6986 | 405 | 278 | 11 | ||
| 2026-02-20T11:50 | 6998 | 404 | -39.6 | -44.4 | ||
| 2026-02-20T11:50 | 7041 | 401 | -40.0 | -44.4 | ||
| 2026-02-20T11:51 | 7337 | 384 | 280 | 11 | ||
| 2026-02-20T11:52 | 7617 | 368 | -45.3 | |||
| 2026-02-20T11:52 | 7676 | 365 | 278 | 10 | ||
| 2026-02-20T11:53 | 8026 | 346 | 263 | 15 | ||
| 2026-02-20T11:53 | 8092 | 343 | -47.3 | |||
| 2026-02-20T11:54 | 8241 | 335 | -47.7 | |||
| 2026-02-20T11:54 | 8389 | 328 | 261 | 17 | ||
| 2026-02-20T11:54 | 8505 | 322 | -48.4 | |||
| 2026-02-20T11:55 | 8689 | 313 | 258 | 21 | ||
| 2026-02-20T11:55 | 8752 | 310 | -49.3 | |||
| 2026-02-20T11:56 | 9037 | 297 | 268 | 23 | ||
| 2026-02-20T11:56 | 9235 | 288 | 260 | 25 | ||
| 2026-02-20T11:57 | 9460 | 278 | 269 | 28 | ||
| 2026-02-20T11:57 | 9466 | 278 | -50.1 | |||
| 2026-02-20T11:58 | 9639 | 271 | 256 | 26 | ||
| 2026-02-20T11:58 | 9730 | 267 | -49.4 | |||
| 2026-02-20T11:58 | 9853 | 262 | 260 | 32 | ||
| 2026-02-20T11:59 | 10095 | 253 | -48.8 | |||
| 2026-02-20T11:59 | 10130 | 251 | 266 | 33 | ||
| 2026-02-20T11:59 | 10391 | 242 | -48.5 | |||
| 2026-02-20T12:00 | 10521 | 237 | 262 | 33 | ||
| 2026-02-20T12:00 | 10727 | 230 | 261 | 39 | ||
| 2026-02-20T12:00 | 10746 | 229 | -47.9 | |||
| 2026-02-20T12:01 | 10930 | 223 | 262 | 34 | ||
| 2026-02-20T12:01 | 11067 | 218 | -48.8 | |||
| 2026-02-20T12:02 | 11326 | 210 | 264 | 41 | ||
| 2026-02-20T12:02 | 11593 | 201 | 265 | 39 | ||
| 2026-02-20T12:03 | 11679 | 199 | -49.8 | |||
| 2026-02-20T12:03 | 11862 | 193 | -49.0 | |||
| 2026-02-20T12:03 | 11995 | 189 | 260 | 41 | ||
| 2026-02-20T12:04 | 12215 | 183 | -50.2 | |||
| 2026-02-20T12:04 | 12389 | 178 | 262 | 44 | ||
| 2026-02-20T12:05 | 12747 | 169 | -50.6 | |||
| 2026-02-20T12:05 | 12766 | 168 | 267 | 44 | ||
| 2026-02-20T12:06 | 13157 | 158 | 267 | 47 | ||
| 2026-02-20T12:07 | 13356 | 154 | -51.2 | |||
| 2026-02-20T12:07 | 13552 | 149 | 271 | 40 | ||
| 2026-02-20T12:08 | 13745 | 145 | -51.5 | |||
| 2026-02-20T12:08 | 13751 | 145 | 268 | 42 | ||
| 2026-02-20T12:09 | 14133 | 136 | 266 | 35 | ||
| 2026-02-20T12:10 | 14507 | 129 | 265 | 39 | ||
| 2026-02-20T12:10 | 14526 | 128 | -54.2 | |||
| 2026-02-20T12:11 | 14865 | 122 | 269 | 40 | ||
| 2026-02-20T12:11 | 14965 | 120 | -54.9 | |||
| 2026-02-20T12:12 | 15244 | 115 | 272 | 40 | ||
| 2026-02-20T12:12 | 15343 | 113 | -56.2 | |||
| 2026-02-20T12:12 | 15463 | 111 | 274 | 36 | ||
| 2026-02-20T12:13 | 15616 | 108 | -55.9 | |||
| 2026-02-20T12:14 | 15839 | 104 | 266 | 36 | ||
| 2026-02-20T12:14 | 16202 | 99 | 268 | 36 | ||
| 2026-02-20T12:15 | 16265 | 98 | -58.2 | |||
| 2026-02-20T12:16 | 16568 | 93 | 276 | 35 | ||
| 2026-02-20T12:16 | 16840 | 89 | 279 | 29 | ||
| 2026-02-20T12:17 | 17064 | 86 | -59.2 | |||
| 2026-02-20T12:17 | 17198 | 84 | 277 | 24 | ||
| 2026-02-20T12:18 | 17513 | 80 | 281 | 24 | ||
| 2026-02-20T12:18 | 17564 | 79 | -59.3 | |||
| 2026-02-20T12:19 | 17897 | 75 | 258 | 24 | ||
| 2026-02-20T12:21 | 18223 | 71 | 258 | 27 | ||
| 2026-02-20T12:21 | 18453 | 69 | 269 | 25 | ||
| 2026-02-20T12:22 | 18572 | 67 | -61.6 | |||
| 2026-02-20T12:22 | 18616 | 67 | 274 | 22 | ||
| 2026-02-20T12:23 | 18701 | 66 | -61.1 | 266 | 18 | |
| 2026-02-20T23:42 | 26 | 1017 | 6.9 | 1.2 | 290 | 2 |
| 2026-02-20T23:42 | 32 | 1016 | 6.5 | 0.2 | 0 | 0 |
| 2026-02-20T23:42 | 100 | 1008 | 5.0 | -0.8 | ||
| 2026-02-20T23:42 | 115 | 1006 | 322 | 3 | ||
| 2026-02-20T23:42 | 157 | 1001 | 5.0 | -1.5 | ||
| 2026-02-20T23:42 | 183 | 998 | 6.6 | -1.6 | ||
| 2026-02-20T23:43 | 237 | 991 | 320 | 7 | ||
| 2026-02-20T23:43 | 290 | 985 | 6.4 | -1.3 | ||
| 2026-02-20T23:43 | 367 | 976 | 339 | 2 | ||
| 2026-02-20T23:43 | 422 | 969 | 6.3 | -1.8 | ||
| 2026-02-20T23:44 | 539 | 955 | 12 | 2 | ||
| 2026-02-20T23:44 | 644 | 943 | 45 | 3 | ||
| 2026-02-20T23:44 | 678 | 939 | 4.2 | -0.4 | ||
| 2026-02-20T23:44 | 799 | 926 | 68 | 4 | ||
| 2026-02-20T23:44 | 810 | 924 | 3.1 | 1.3 | ||
| 2026-02-20T23:45 | 914 | 913 | 24 | 1 | ||
| 2026-02-20T23:45 | 1097 | 892 | 94 | 4 | ||
| 2026-02-20T23:45 | 1108 | 891 | 1.3 | -1.6 | ||
| 2026-02-20T23:45 | 1155 | 886 | 1.4 | -1.8 | ||
| 2026-02-20T23:46 | 1196 | 881 | 1.3 | -5.0 | ||
| 2026-02-20T23:46 | 1254 | 875 | 91 | 1 | ||
| 2026-02-20T23:46 | 1338 | 866 | 128 | 3 | ||
| 2026-02-20T23:46 | 1392 | 860 | 0.1 | -8.8 | ||
| 2026-02-20T23:46 | 1458 | 853 | 0.6 | -8.9 | ||
| 2026-02-20T23:47 | 1565 | 842 | 0.3 | -11.4 | 97 | 4 |
| 2026-02-20T23:47 | 1657 | 832 | 0.0 | -14.0 | ||
| 2026-02-20T23:47 | 1674 | 830 | 54 | 3 | ||
| 2026-02-20T23:47 | 1753 | 822 | -0.8 | -13.0 | ||
| 2026-02-20T23:47 | 1815 | 816 | 50 | 3 | ||
| 2026-02-20T23:47 | 1820 | 815 | -0.6 | -9.7 | ||
| 2026-02-20T23:48 | 1922 | 805 | 59 | 3 | ||
| 2026-02-20T23:48 | 1927 | 805 | -0.5 | -21.3 | ||
| 2026-02-20T23:48 | 2152 | 782 | 179 | 1 | ||
| 2026-02-20T23:49 | 2279 | 770 | -3.3 | -24.3 | ||
| 2026-02-20T23:49 | 2387 | 759 | 283 | 3 | ||
| 2026-02-20T23:49 | 2451 | 753 | -4.4 | -23.5 | ||
| 2026-02-20T23:50 | 2532 | 746 | 281 | 7 | ||
| 2026-02-20T23:50 | 2636 | 736 | -5.5 | -29.6 | 300 | 5 |
| 2026-02-20T23:50 | 2780 | 722 | 270 | 4 | ||
| 2026-02-20T23:50 | 2807 | 720 | -6.7 | -29.8 | ||
| 2026-02-20T23:51 | 2872 | 714 | 282 | 5 | ||
| 2026-02-20T23:51 | 2956 | 706 | 273 | 6 | ||
| 2026-02-20T23:51 | 3029 | 699 | -7.7 | -29.2 | ||
| 2026-02-20T23:51 | 3050 | 698 | 296 | 10 | ||
| 2026-02-20T23:52 | 3389 | 668 | 300 | 8 | ||
| 2026-02-20T23:53 | 3546 | 654 | 311 | 8 | ||
| 2026-02-20T23:53 | 3681 | 642 | -13.4 | -33.9 | ||
| 2026-02-20T23:53 | 3734 | 638 | 291 | 8 | ||
| 2026-02-20T23:54 | 3953 | 620 | -14.0 | -41.2 | ||
| 2026-02-20T23:54 | 3983 | 617 | 294 | 9 | ||
| 2026-02-20T23:55 | 4221 | 598 | 292 | 6 | ||
| 2026-02-20T23:55 | 4262 | 595 | -15.1 | -43.3 | ||
| 2026-02-20T23:55 | 4390 | 585 | 296 | 7 | ||
| 2026-02-20T23:55 | 4446 | 581 | -16.7 | -33.9 | ||
| 2026-02-20T23:56 | 4570 | 571 | -17.1 | -39.0 | ||
| 2026-02-20T23:56 | 4597 | 569 | 316 | 8 | ||
| 2026-02-20T23:56 | 4703 | 561 | 321 | 12 | ||
| 2026-02-20T23:56 | 4819 | 553 | -19.1 | -33.4 | ||
| 2026-02-20T23:57 | 5017 | 538 | 308 | 10 | ||
| 2026-02-20T23:58 | 5316 | 517 | 309 | 12 | ||
| 2026-02-20T23:59 | 5442 | 508 | -23.7 | -43.8 | ||
| 2026-02-20T23:59 | 5463 | 506 | 307 | 13 | ||
| 2026-02-20T23:59 | 5677 | 492 | 326 | 16 | ||
| 2026-02-20T23:59 | 5708 | 490 | -24.7 | -55.5 | ||
| 2026-02-21T00:00 | 5989 | 471 | 337 | 16 | ||
| 2026-02-21T00:01 | 6176 | 459 | 332 | 16 | ||
| 2026-02-21T00:01 | 6309 | 451 | -28.7 | -60.7 | ||
| 2026-02-21T00:02 | 6494 | 439 | 322 | 15 | ||
| 2026-02-21T00:02 | 6575 | 434 | -31.0 | -52.7 | ||
| 2026-02-21T00:02 | 6653 | 429 | 320 | 18 | ||
| 2026-02-21T00:03 | 6736 | 424 | -32.2 | -48.6 | ||
| 2026-02-21T00:03 | 6983 | 410 | 318 | 19 | ||
| 2026-02-21T00:04 | 7132 | 401 | -35.6 | -50.6 | ||
| 2026-02-21T00:04 | 7230 | 395 | 327 | 21 | ||
| 2026-02-21T00:04 | 7324 | 390 | 328 | 24 | ||
| 2026-02-21T00:05 | 7474 | 382 | -37.8 | -50.2 | ||
| 2026-02-21T00:05 | 7629 | 373 | 324 | 22 | ||
| 2026-02-21T00:06 | 7702 | 369 | -40.0 | -50.7 | ||
| 2026-02-21T00:06 | 7745 | 367 | 324 | 21 | ||
| 2026-02-21T00:07 | 8045 | 351 | -42.6 | |||
| 2026-02-21T00:07 | 8081 | 349 | 316 | 21 | ||
| 2026-02-21T00:08 | 8447 | 331 | 316 | 22 | ||
| 2026-02-21T00:08 | 8574 | 324 | -46.5 | |||
| 2026-02-21T00:09 | 8801 | 313 | 309 | 23 | ||
| 2026-02-21T00:09 | 9091 | 300 | 311 | 24 | ||
| 2026-02-21T00:10 | 9357 | 288 | 306 | 24 | ||
| 2026-02-21T00:11 | 9546 | 280 | 307 | 24 | ||
| 2026-02-21T00:11 | 9804 | 269 | -53.9 | |||
| 2026-02-21T00:12 | 9892 | 265 | 298 | 25 | ||
| 2026-02-21T00:12 | 10133 | 255 | 293 | 27 | ||
| 2026-02-21T00:13 | 10270 | 250 | -53.2 | |||
| 2026-02-21T00:13 | 10390 | 245 | 290 | 31 | ||
| 2026-02-21T00:13 | 10433 | 244 | -52.3 | |||
| 2026-02-21T00:14 | 10605 | 237 | 283 | 35 | ||
| 2026-02-21T00:14 | 10611 | 237 | -50.5 | |||
| 2026-02-21T00:14 | 10728 | 233 | -49.6 | |||
| 2026-02-21T00:15 | 10962 | 225 | 292 | 35 | ||
| 2026-02-21T00:15 | 11035 | 222 | -50.2 | |||
| 2026-02-21T00:15 | 11229 | 216 | 296 | 36 | ||
| 2026-02-21T00:16 | 11355 | 211 | -51.5 | 297 | 40 | |
| 2026-02-21T00:16 | 11484 | 207 | -51.0 | |||
| 2026-02-21T00:17 | 11660 | 202 | 289 | 38 | ||
| 2026-02-21T00:17 | 11838 | 196 | 294 | 36 | ||
| 2026-02-21T00:17 | 11879 | 195 | -50.7 | |||
| 2026-02-21T00:18 | 12160 | 187 | 293 | 33 | ||
| 2026-02-21T00:18 | 12207 | 186 | -52.2 | |||
| 2026-02-21T00:19 | 12497 | 177 | 279 | 32 | ||
| 2026-02-21T00:19 | 12543 | 176 | -51.7 | |||
| 2026-02-21T00:20 | 12812 | 169 | -52.6 | |||
| 2026-02-21T00:20 | 12822 | 169 | 274 | 39 | ||
| 2026-02-21T00:21 | 13089 | 162 | -51.8 | |||
| 2026-02-21T00:21 | 13126 | 161 | 274 | 41 | ||
| 2026-02-21T00:22 | 13373 | 155 | 277 | 45 | ||
| 2026-02-21T00:22 | 13504 | 152 | -53.4 | |||
| 2026-02-21T00:23 | 13673 | 148 | -52.8 | |||
| 2026-02-21T00:23 | 13683 | 148 | 284 | 39 | ||
| 2026-02-21T00:23 | 13809 | 145 | -53.2 | |||
| 2026-02-21T00:24 | 14017 | 140 | 283 | 39 | ||
| 2026-02-21T00:24 | 14040 | 140 | -51.9 | |||
| 2026-02-21T00:24 | 14265 | 135 | 284 | 38 | ||
| 2026-02-21T00:25 | 14425 | 132 | -54.5 | |||
| 2026-02-21T00:25 | 14594 | 128 | 279 | 37 | ||
| 2026-02-21T00:26 | 14877 | 123 | -56.7 | |||
| 2026-02-21T00:26 | 14913 | 122 | 275 | 36 | ||
| 2026-02-21T00:27 | 15111 | 118 | -57.9 | |||
| 2026-02-21T00:27 | 15147 | 117 | 272 | 37 | ||
| 2026-02-21T00:28 | 15323 | 114 | -57.0 | |||
| 2026-02-21T00:28 | 15356 | 114 | 275 | 42 | ||
| 2026-02-21T00:29 | 15604 | 109 | 280 | 35 | ||
| 2026-02-21T00:29 | 15655 | 108 | -57.9 | |||
| 2026-02-21T00:29 | 15906 | 104 | 282 | 29 | ||
| 2026-02-21T00:30 | 16008 | 102 | -59.2 | |||
| 2026-02-21T00:30 | 16150 | 100 | -59.1 | |||
| 2026-02-21T00:30 | 16168 | 100 | 283 | 33 | ||
| 2026-02-21T00:31 | 16432 | 96 | 280 | 26 | ||
| 2026-02-21T00:32 | 16642 | 93 | 267 | 26 | ||
| 2026-02-21T00:33 | 16874 | 89 | -62.2 | |||
| 2026-02-21T00:33 | 16951 | 88 | 277 | 32 | ||
| 2026-02-21T00:33 | 17086 | 86 | -61.6 | |||
| 2026-02-21T00:33 | 17094 | 86 | 287 | 31 | ||
| 2026-02-21T00:34 | 17254 | 84 | -60.6 | |||
| 2026-02-21T00:34 | 17277 | 84 | 276 | 24 | ||
| 2026-02-21T00:35 | 17481 | 81 | 258 | 19 | ||
| 2026-02-21T00:35 | 17675 | 78 | -61.6 | |||
| 2026-02-21T00:35 | 17772 | 77 | 261 | 25 | ||
| 2026-02-21T00:36 | 18017 | 74 | 278 | 21 | ||
| 2026-02-21T00:37 | 18327 | 71 | -60.9 | |||
| 2026-02-21T00:37 | 18344 | 70 | 292 | 16 | ||
| 2026-02-21T00:38 | 18587 | 68 | -61.3 | |||
| 2026-02-21T00:38 | 18682 | 67 | 262 | 19 | ||
| 2026-02-21T00:39 | 18868 | 65 | -61.5 | |||
| 2026-02-21T00:39 | 18988 | 63 | 285 | 16 | ||
| 2026-02-21T00:39 | 19115 | 62 | 272 | 17 | ||
| 2026-02-21T00:40 | 19410 | 59 | -61.6 | |||
| 2026-02-21T00:40 | 19453 | 59 | 278 | 24 | ||
| 2026-02-21T00:41 | 19688 | 57 | -60.4 | |||
| 2026-02-21T00:41 | 19743 | 56 | 288 | 14 | ||
| 2026-02-21T00:42 | 20026 | 54 | 268 | 12 | ||
| 2026-02-21T00:43 | 20262 | 52 | -59.1 | |||
| 2026-02-21T00:43 | 20372 | 51 | 265 | 11 | ||
| 2026-02-21T00:44 | 20731 | 48 | 239 | 13 | ||
| 2026-02-21T00:45 | 21067 | 45 | 241 | 12 | ||
| 2026-02-21T00:45 | 21147 | 45 | -60.0 | |||
| 2026-02-21T00:46 | 21274 | 44 | 262 | 12 | ||
| 2026-02-21T00:46 | 21389 | 43 | -59.0 | |||
| 2026-02-21T00:46 | 21569 | 42 | 258 | 13 | ||
| 2026-02-21T00:47 | 21705 | 41 | -57.7 | |||
| 2026-02-21T00:47 | 21908 | 40 | 287 | 11 | ||
| 2026-02-21T00:48 | 22248 | 38 | 282 | 8 | ||
| 2026-02-21T00:49 | 22553 | 36 | 267 | 8 | ||
| 2026-02-21T00:50 | 22861 | 34 | -59.8 | |||
| 2026-02-21T00:50 | 22897 | 34 | 250 | 12 | ||
| 2026-02-21T00:51 | 23082 | 33 | -56.8 | |||
| 2026-02-21T00:51 | 23120 | 33 | 265 | 12 | ||
| 2026-02-21T00:51 | 23317 | 32 | -55.6 | |||
| 2026-02-21T00:52 | 23502 | 31 | 260 | 6 | ||
| 2026-02-21T00:52 | 23669 | 30 | 268 | 4 | ||
| 2026-02-21T00:52 | 23812 | 29 | 198 | 6 | ||
| 2026-02-21T00:53 | 23834 | 29 | -57.2 | |||
| 2026-02-21T00:53 | 24099 | 28 | 218 | 15 | ||
| 2026-02-21T00:54 | 24329 | 27 | -56.3 | |||
| 2026-02-21T00:54 | 24452 | 27 | 219 | 10 | ||
| 2026-02-21T00:55 | 24648 | 26 | 249 | 13 | ||
| 2026-02-21T00:55 | 24799 | 25 | -53.3 | |||
| 2026-02-21T00:55 | 24873 | 25 | 224 | 11 | ||
| 2026-02-21T00:56 | 25033 | 24 | 221 | 14 | ||
| 2026-02-21T00:56 | 25278 | 23 | 252 | 10 | ||
| 2026-02-21T00:57 | 25332 | 23 | -52.0 | |||
| 2026-02-21T00:57 | 25593 | 22 | -52.7 | 220 | 15 | |
| 2026-02-21T11:33 | 26 | 1017 | 6.8 | 6.2 | 110 | 1 |
| 2026-02-21T11:33 | 33 | 1016 | 7.2 | 5.8 | 0 | 0 |
| 2026-02-21T11:33 | 58 | 1013 | 68 | 3 | ||
| 2026-02-21T11:33 | 65 | 1012 | 9.5 | 5.1 | ||
| 2026-02-21T11:33 | 84 | 1010 | 10.3 | 5.7 | ||
| 2026-02-21T11:33 | 188 | 997 | 72 | 4 | ||
| 2026-02-21T11:34 | 274 | 987 | 10.4 | 6.9 | ||
| 2026-02-21T11:34 | 314 | 982 | 142 | 4 | ||
| 2026-02-21T11:34 | 489 | 962 | 9.0 | 5.2 | ||
| 2026-02-21T11:35 | 555 | 954 | 163 | 4 | ||
| 2026-02-21T11:35 | 593 | 950 | 8.3 | 3.7 | ||
| 2026-02-21T11:35 | 653 | 943 | 162 | 3 | ||
| 2026-02-21T11:36 | 824 | 923 | 194 | 4 | ||
| 2026-02-21T11:36 | 947 | 910 | 150 | 5 | ||
| 2026-02-21T11:37 | 1172 | 885 | 150 | 5 | ||
| 2026-02-21T11:37 | 1250 | 876 | 2.4 | -0.9 | ||
| 2026-02-21T11:37 | 1260 | 875 | 166 | 6 | ||
| 2026-02-21T11:37 | 1334 | 867 | 172 | 3 | ||
| 2026-02-21T11:37 | 1360 | 865 | 1.9 | -4.4 | ||
| 2026-02-21T11:37 | 1397 | 861 | 190 | 2 | ||
| 2026-02-21T11:38 | 1516 | 848 | 1.0 | -8.3 | ||
| 2026-02-21T11:38 | 1581 | 841 | 1.3 | -14.0 | ||
| 2026-02-21T11:38 | 1667 | 832 | 152 | 3 | ||
| 2026-02-21T11:38 | 1766 | 822 | 129 | 1 | ||
| 2026-02-21T11:39 | 1787 | 820 | 0.1 | -20.8 | ||
| 2026-02-21T11:39 | 1888 | 809 | 193 | 3 | ||
| 2026-02-21T11:39 | 1956 | 803 | 0.0 | -26.1 | ||
| 2026-02-21T11:39 | 1967 | 801 | 194 | 1 | ||
| 2026-02-21T11:40 | 2116 | 787 | -0.5 | -24.0 | ||
| 2026-02-21T11:40 | 2219 | 776 | -0.9 | -22.3 | ||
| 2026-02-21T11:40 | 2274 | 771 | 188 | 3 | ||
| 2026-02-21T11:41 | 2505 | 749 | -3.2 | -20.0 | 233 | 4 |
| 2026-02-21T11:41 | 2582 | 742 | 212 | 3 | ||
| 2026-02-21T11:41 | 2674 | 733 | 243 | 5 | ||
| 2026-02-21T11:42 | 2765 | 724 | -5.5 | -19.6 | ||
| 2026-02-21T11:42 | 2837 | 718 | 245 | 5 | ||
| 2026-02-21T11:42 | 2951 | 708 | 260 | 6 | ||
| 2026-02-21T11:42 | 3001 | 703 | -6.5 | -33.2 | ||
| 2026-02-21T11:42 | 3051 | 699 | 241 | 3 | ||
| 2026-02-21T11:43 | 3130 | 692 | 285 | 6 | ||
| 2026-02-21T11:43 | 3293 | 677 | 289 | 7 | ||
| 2026-02-21T11:43 | 3304 | 676 | -6.9 | -42.5 | ||
| 2026-02-21T11:43 | 3396 | 668 | -6.8 | -38.5 | ||
| 2026-02-21T11:44 | 3473 | 662 | 276 | 13 | ||
| 2026-02-21T11:44 | 3679 | 645 | -8.8 | -33.1 | ||
| 2026-02-21T11:45 | 3775 | 637 | 292 | 14 | ||
| 2026-02-21T11:45 | 3875 | 628 | -9.4 | -36.5 | ||
| 2026-02-21T11:45 | 3950 | 622 | 294 | 16 | ||
| 2026-02-21T11:46 | 4169 | 605 | -11.1 | -24.9 | ||
| 2026-02-21T11:46 | 4197 | 603 | 295 | 14 | ||
| 2026-02-21T11:47 | 4411 | 586 | 291 | 15 | ||
| 2026-02-21T11:47 | 4459 | 582 | -12.9 | -25.5 | ||
| 2026-02-21T11:47 | 4517 | 578 | -13.3 | -21.8 | ||
| 2026-02-21T11:47 | 4597 | 572 | -13.7 | -23.1 | ||
| 2026-02-21T11:47 | 4651 | 568 | -13.6 | -28.2 | ||
| 2026-02-21T11:48 | 4732 | 562 | 305 | 17 | ||
| 2026-02-21T11:48 | 4753 | 560 | -14.5 | -26.6 | ||
| 2026-02-21T11:48 | 4856 | 553 | -15.1 | -26.8 | ||
| 2026-02-21T11:49 | 5057 | 538 | 311 | 17 | ||
| 2026-02-21T11:49 | 5293 | 521 | -18.2 | -33.4 | ||
| 2026-02-21T11:50 | 5379 | 516 | 307 | 17 | ||
| 2026-02-21T11:51 | 5697 | 494 | 308 | 20 | ||
| 2026-02-21T11:51 | 5718 | 492 | -20.9 | -40.8 | ||
| 2026-02-21T11:51 | 5916 | 479 | -21.9 | -41.6 | ||
| 2026-02-21T11:52 | 6019 | 473 | 314 | 19 | ||
| 2026-02-21T11:52 | 6159 | 464 | 315 | 21 | ||
| 2026-02-21T11:53 | 6487 | 443 | 315 | 23 | ||
| 2026-02-21T11:53 | 6554 | 439 | -27.9 | -39.8 | ||
| 2026-02-21T11:54 | 6640 | 434 | 313 | 22 | ||
| 2026-02-21T11:54 | 6742 | 428 | -29.5 | -41.0 | ||
| 2026-02-21T11:54 | 6953 | 415 | -31.3 | -42.6 | ||
| 2026-02-21T11:55 | 6992 | 413 | 305 | 22 | ||
| 2026-02-21T11:55 | 7077 | 408 | -32.1 | -42.7 | ||
| 2026-02-21T11:55 | 7182 | 402 | 308 | 24 | ||
| 2026-02-21T11:56 | 7316 | 394 | 305 | 28 | ||
| 2026-02-21T11:56 | 7378 | 391 | -34.4 | -43.5 | ||
| 2026-02-21T11:56 | 7505 | 384 | -35.2 | -45.5 | ||
| 2026-02-21T11:57 | 7610 | 378 | -35.6 | -49.4 | ||
| 2026-02-21T11:57 | 7638 | 377 | 308 | 26 | ||
| 2026-02-21T11:57 | 7884 | 363 | 311 | 26 | ||
| 2026-02-21T11:58 | 7939 | 361 | -38.4 | -50.1 | ||
| 2026-02-21T11:58 | 8065 | 354 | 307 | 27 | ||
| 2026-02-21T11:58 | 8241 | 345 | -39.9 | -55.2 | ||
| 2026-02-21T11:58 | 8253 | 344 | -40.0 | -55.3 | ||
| 2026-02-21T11:58 | 8264 | 344 | 308 | 30 | ||
| 2026-02-21T11:59 | 8457 | 334 | 303 | 30 | ||
| 2026-02-21T12:00 | 8812 | 317 | 300 | 29 | ||
| 2026-02-21T12:00 | 8824 | 317 | -43.3 | |||
| 2026-02-21T12:01 | 9155 | 301 | 302 | 30 | ||
| 2026-02-21T12:02 | 9488 | 287 | 298 | 33 | ||
| 2026-02-21T12:03 | 9809 | 273 | 299 | 34 | ||
| 2026-02-21T12:03 | 9883 | 270 | -50.1 | |||
| 2026-02-21T12:04 | 10125 | 260 | 292 | 36 | ||
| 2026-02-21T12:04 | 10136 | 260 | -50.6 | |||
| 2026-02-21T12:05 | 10471 | 246 | 291 | 35 | ||
| 2026-02-21T12:06 | 10786 | 235 | 291 | 37 | ||
| 2026-02-21T12:06 | 10869 | 232 | -56.3 | |||
| 2026-02-21T12:07 | 11122 | 222 | 294 | 32 | ||
| 2026-02-21T12:08 | 11373 | 214 | 287 | 33 | ||
| 2026-02-21T12:08 | 11385 | 213 | -58.2 | |||
| 2026-02-21T12:08 | 11534 | 208 | -58.2 | |||
| 2026-02-21T12:09 | 11709 | 203 | 278 | 36 | ||
| 2026-02-21T12:09 | 11762 | 201 | -58.9 | |||
| 2026-02-21T12:09 | 11828 | 199 | 278 | 39 | ||
| 2026-02-21T12:09 | 11952 | 195 | 279 | 42 | ||
| 2026-02-21T12:09 | 11971 | 194 | -57.7 | |||
| 2026-02-21T12:10 | 12154 | 189 | -55.6 | |||
| 2026-02-21T12:10 | 12309 | 184 | 275 | 37 | ||
| 2026-02-21T12:11 | 12481 | 179 | 276 | 38 | ||
| 2026-02-21T12:11 | 12573 | 177 | -55.7 | |||
| 2026-02-21T12:11 | 12597 | 176 | 280 | 43 | ||
| 2026-02-21T12:11 | 12651 | 175 | -54.3 | |||
| 2026-02-21T12:11 | 12740 | 172 | 279 | 38 | ||
| 2026-02-21T12:12 | 12815 | 170 | -54.6 | |||
| 2026-02-21T12:12 | 12943 | 167 | -54.5 | |||
| 2026-02-21T12:12 | 13038 | 164 | 280 | 42 | ||
| 2026-02-21T12:13 | 13328 | 157 | 273 | 39 | ||
| 2026-02-21T12:14 | 13457 | 154 | -53.8 | |||
| 2026-02-21T12:14 | 13627 | 150 | 276 | 39 | ||
| 2026-02-21T12:15 | 13899 | 144 | -54.8 | |||
| 2026-02-21T12:15 | 13934 | 143 | 275 | 39 | ||
| 2026-02-21T12:17 | 14234 | 136 | 278 | 40 | ||
| 2026-02-21T12:17 | 14465 | 132 | 275 | 40 | ||
| 2026-02-21T12:17 | 14498 | 131 | -57.8 | |||
| 2026-02-21T12:18 | 14706 | 127 | -56.7 | |||
| 2026-02-21T12:18 | 14740 | 126 | 273 | 39 | ||
| 2026-02-21T12:19 | 15055 | 120 | 270 | 42 | ||
| 2026-02-21T12:20 | 15363 | 114 | -59.7 | |||
| 2026-02-21T12:20 | 15439 | 113 | 277 | 34 | ||
| 2026-02-21T12:21 | 15787 | 107 | 273 | 29 | ||
| 2026-02-21T12:22 | 15931 | 104 | -64.0 | |||
| 2026-02-21T12:22 | 15966 | 103 | 269 | 28 | ||
| 2026-02-21T12:22 | 16068 | 102 | -63.2 | |||
| 2026-02-21T12:22 | 16115 | 101 | 263 | 22 | ||
| 2026-02-21T12:23 | 16388 | 97 | 255 | 24 | ||
| 2026-02-21T12:23 | 16401 | 96 | -64.3 | |||
| 2026-02-21T12:24 | 16703 | 92 | 252 | 26 | ||
| 2026-02-21T12:25 | 16941 | 88 | -62.5 | 259 | 25 | |
| 2026-02-21T12:26 | 17263 | 84 | 262 | 21 | ||
| 2026-02-21T12:26 | 17300 | 83 | -61.5 | |||
| 2026-02-21T12:27 | 17492 | 81 | 266 | 21 | ||
| 2026-02-21T12:27 | 17662 | 79 | -61.7 | |||
| 2026-02-21T12:28 | 17781 | 77 | 271 | 17 | ||
| 2026-02-21T12:28 | 17903 | 76 | -62.8 | |||
| 2026-02-21T12:28 | 17976 | 75 | -62.4 | |||
| 2026-02-21T12:28 | 18028 | 74 | 276 | 22 | ||
| 2026-02-21T12:29 | 18179 | 72 | -61.0 | |||
| 2026-02-21T12:29 | 18345 | 70 | 272 | 13 | ||
| 2026-02-21T12:30 | 18450 | 69 | -62.0 | |||
| 2026-02-21T12:30 | 18551 | 68 | 260 | 14 | ||
| 2026-02-21T12:30 | 18571 | 68 | -60.8 | |||
| 2026-02-21T12:31 | 18768 | 66 | 265 | 14 | ||
| 2026-02-21T12:31 | 19000 | 63 | -59.2 | |||
| 2026-02-21T12:32 | 19100 | 62 | 269 | 13 | ||
| 2026-02-21T12:32 | 19327 | 60 | 275 | 11 | ||
| 2026-02-21T12:33 | 19434 | 59 | -57.7 | |||
| 2026-02-21T12:33 | 19561 | 58 | 284 | 10 | ||
| 2026-02-21T12:34 | 19760 | 56 | -57.6 | |||
| 2026-02-21T12:34 | 19908 | 55 | 237 | 12 | ||
| 2026-02-21T12:34 | 20081 | 53 | -59.1 | |||
| 2026-02-21T12:35 | 20237 | 52 | 251 | 12 | ||
| 2026-02-21T12:36 | 20571 | 49 | 266 | 10 | ||
| 2026-02-21T12:37 | 20911 | 47 | 294 | 9 | ||
| 2026-02-21T12:38 | 21113 | 45 | 316 | 9 | ||
| 2026-02-21T12:38 | 21155 | 45 | -59.3 | |||
| 2026-02-21T12:38 | 21297 | 44 | 328 | 5 | ||
| 2026-02-21T12:38 | 21399 | 43 | 304 | 2 | ||
| 2026-02-21T12:39 | 21470 | 43 | 211 | 3 | ||
| 2026-02-21T12:39 | 21577 | 42 | -57.0 | |||
| 2026-02-21T12:39 | 21680 | 41 | 207 | 9 | ||
| 2026-02-21T12:40 | 22026 | 39 | 198 | 14 | ||
| 2026-02-21T12:41 | 22253 | 38 | -58.4 | |||
| 2026-02-21T12:41 | 22322 | 37 | 229 | 6 | ||
| 2026-02-21T12:41 | 22390 | 37 | -57.5 | |||
| 2026-02-21T12:42 | 22599 | 36 | 214 | 5 | ||
| 2026-02-21T12:42 | 22740 | 35 | 238 | 5 | ||
| 2026-02-21T12:43 | 23036 | 33 | 215 | 8 | ||
| 2026-02-21T12:44 | 23304 | 32 | 229 | 16 | ||
| 2026-02-21T12:44 | 23385 | 32 | -58.9 | |||
| 2026-02-21T12:44 | 23486 | 31 | 236 | 15 | ||
| 2026-02-21T12:45 | 23608 | 30 | -55.4 | |||
| 2026-02-21T12:45 | 23779 | 30 | 278 | 10 | ||
| 2026-02-21T12:45 | 23842 | 29 | -54.6 | |||
| 2026-02-21T12:46 | 24134 | 28 | 278 | 16 | ||
| 2026-02-21T12:47 | 24343 | 27 | -55.9 | |||
| 2026-02-21T12:47 | 24365 | 27 | 295 | 12 | ||
| 2026-02-21T12:48 | 24730 | 26 | 266 | 7 | ||
| 2026-02-21T12:48 | 24856 | 25 | 254 | 6 | ||
| 2026-02-21T12:49 | 25144 | 24 | 276 | 5 | ||
| 2026-02-21T12:49 | 25280 | 23 | 285 | 4 | ||
| 2026-02-21T12:50 | 25391 | 23 | 208 | 4 | ||
| 2026-02-21T12:50 | 25560 | 22 | 198 | 4 | ||
| 2026-02-21T12:50 | 25645 | 22 | 140 | 1 | ||
| 2026-02-21T12:51 | 25766 | 22 | 9 | 3 | ||
| 2026-02-21T12:51 | 25824 | 22 | -53.5 | |||
| 2026-02-21T12:51 | 25946 | 21 | 21 | 3 | ||
| 2026-02-21T12:52 | 26070 | 21 | 120 | 3 | ||
| 2026-02-21T12:52 | 26129 | 21 | -53.7 | |||
| 2026-02-21T12:52 | 26351 | 20 | 176 | 6 | ||
| 2026-02-21T12:53 | 26614 | 19 | -55.8 | 192 | 9 | |
| 2026-02-21T12:53 | 26782 | 19 | 232 | 6 | ||
| 2026-02-21T12:54 | 26923 | 18 | 253 | 5 | ||
| 2026-02-21T12:54 | 27103 | 18 | 204 | 7 | ||
| 2026-02-21T12:55 | 27361 | 17 | 250 | 6 | ||
| 2026-02-21T12:55 | 27476 | 17 | 309 | 2 | ||
| 2026-02-21T12:55 | 27526 | 17 | -53.8 | 297 | 3 | |
| 2026-02-21T23:33 | 26 | 1017 | 7.8 | 5.4 | 220 | 1 |
| 2026-02-21T23:33 | 29 | 1017 | 7.8 | 4.9 | 0 | 0 |
| 2026-02-21T23:33 | 49 | 1015 | 6.9 | 4.0 | ||
| 2026-02-21T23:33 | 107 | 1007 | 194 | 3 | ||
| 2026-02-21T23:33 | 127 | 1005 | 6.8 | 4.8 | ||
| 2026-02-21T23:33 | 168 | 1000 | 7.4 | 6.3 | ||
| 2026-02-21T23:34 | 206 | 995 | 7.9 | 5.9 | ||
| 2026-02-21T23:34 | 255 | 990 | 8.0 | 2.0 | ||
| 2026-02-21T23:34 | 271 | 988 | 181 | 3 | ||
| 2026-02-21T23:34 | 386 | 974 | 7.7 | 2.2 | ||
| 2026-02-21T23:35 | 505 | 960 | 6.9 | 3.5 | ||
| 2026-02-21T23:35 | 527 | 958 | 184 | 4 | ||
| 2026-02-21T23:35 | 645 | 944 | 187 | 5 | ||
| 2026-02-21T23:35 | 706 | 937 | 5.5 | 2.1 | ||
| 2026-02-21T23:35 | 809 | 925 | 5.4 | -2.7 | ||
| 2026-02-21T23:36 | 875 | 917 | 180 | 5 | ||
| 2026-02-21T23:36 | 1008 | 903 | 4.4 | -6.2 | ||
| 2026-02-21T23:36 | 1075 | 895 | 207 | 10 | ||
| 2026-02-21T23:36 | 1091 | 893 | 4.8 | -10.5 | ||
| 2026-02-21T23:36 | 1122 | 890 | 5.0 | -11.2 | ||
| 2026-02-21T23:37 | 1226 | 879 | 4.6 | -11.9 | ||
| 2026-02-21T23:37 | 1327 | 868 | 4.8 | -23.3 | ||
| 2026-02-21T23:37 | 1392 | 861 | 197 | 8 | ||
| 2026-02-21T23:38 | 1577 | 842 | 3.2 | -24.5 | ||
| 2026-02-21T23:38 | 1627 | 836 | 209 | 10 | ||
| 2026-02-21T23:39 | 1877 | 811 | 199 | 10 | ||
| 2026-02-21T23:39 | 2007 | 798 | 2.7 | -31.4 | ||
| 2026-02-21T23:40 | 2177 | 781 | 213 | 9 | ||
| 2026-02-21T23:40 | 2275 | 772 | 213 | 8 | ||
| 2026-02-21T23:40 | 2286 | 771 | 2.2 | -35.9 | ||
| 2026-02-21T23:41 | 2400 | 760 | 207 | 6 | ||
| 2026-02-21T23:41 | 2406 | 760 | 2.0 | -30.3 | ||
| 2026-02-21T23:41 | 2520 | 749 | 210 | 9 | ||
| 2026-02-21T23:41 | 2675 | 734 | 204 | 6 | ||
| 2026-02-21T23:42 | 2726 | 730 | -0.3 | -28.3 | ||
| 2026-02-21T23:42 | 2776 | 725 | 220 | 7 | ||
| 2026-02-21T23:42 | 3002 | 705 | 239 | 6 | ||
| 2026-02-21T23:43 | 3110 | 695 | 242 | 7 | ||
| 2026-02-21T23:43 | 3263 | 682 | 234 | 8 | ||
| 2026-02-21T23:43 | 3346 | 675 | -4.4 | -26.5 | ||
| 2026-02-21T23:44 | 3466 | 665 | 258 | 8 | ||
| 2026-02-21T23:44 | 3510 | 661 | -5.1 | -24.6 | ||
| 2026-02-21T23:44 | 3595 | 654 | 269 | 6 | ||
| 2026-02-21T23:45 | 3781 | 638 | -6.6 | -22.1 | ||
| 2026-02-21T23:45 | 3822 | 635 | 244 | 8 | ||
| 2026-02-21T23:45 | 3872 | 631 | -6.2 | -26.1 | ||
| 2026-02-21T23:46 | 3985 | 622 | 219 | 7 | ||
| 2026-02-21T23:46 | 4145 | 609 | 230 | 9 | ||
| 2026-02-21T23:46 | 4276 | 599 | 222 | 9 | ||
| 2026-02-21T23:47 | 4309 | 597 | -8.9 | -27.8 | ||
| 2026-02-21T23:47 | 4395 | 590 | 223 | 8 | ||
| 2026-02-21T23:47 | 4564 | 577 | 232 | 10 | ||
| 2026-02-21T23:48 | 4895 | 553 | 245 | 7 | ||
| 2026-02-21T23:48 | 4923 | 551 | -13.8 | -28.0 | ||
| 2026-02-21T23:49 | 5186 | 532 | 260 | 10 | ||
| 2026-02-21T23:49 | 5249 | 527 | -16.2 | -31.3 | ||
| 2026-02-21T23:50 | 5340 | 521 | 262 | 10 | ||
| 2026-02-21T23:50 | 5476 | 512 | 271 | 14 | ||
| 2026-02-21T23:50 | 5503 | 510 | -17.3 | -36.0 | ||
| 2026-02-21T23:50 | 5568 | 505 | -17.2 | -43.7 | ||
| 2026-02-21T23:51 | 5801 | 490 | 276 | 13 | ||
| 2026-02-21T23:51 | 5868 | 485 | -19.8 | -36.6 | ||
| 2026-02-21T23:52 | 6083 | 472 | -21.8 | -35.1 | ||
| 2026-02-21T23:52 | 6133 | 468 | 278 | 14 | ||
| 2026-02-21T23:53 | 6420 | 450 | -24.8 | -38.1 | ||
| 2026-02-21T23:53 | 6426 | 450 | 287 | 16 | ||
| 2026-02-21T23:54 | 6629 | 438 | -26.5 | -38.0 | ||
| 2026-02-21T23:54 | 6757 | 430 | 290 | 16 | ||
| 2026-02-21T23:55 | 6932 | 419 | -29.3 | -41.1 | ||
| 2026-02-21T23:55 | 7112 | 409 | 290 | 15 | ||
| 2026-02-21T23:56 | 7398 | 393 | -33.4 | -39.5 | ||
| 2026-02-21T23:56 | 7470 | 389 | 280 | 14 | ||
| 2026-02-21T23:57 | 7752 | 373 | -36.3 | -41.9 | ||
| 2026-02-21T23:57 | 7830 | 369 | 284 | 13 | ||
| 2026-02-21T23:58 | 8029 | 358 | -38.2 | -45.1 | ||
| 2026-02-21T23:58 | 8190 | 350 | 288 | 17 | ||
| 2026-02-21T23:58 | 8227 | 348 | -39.6 | -48.1 | ||
| 2026-02-21T23:58 | 8271 | 346 | -40.0 | -48.0 | ||
| 2026-02-21T23:59 | 8566 | 331 | 288 | 18 | ||
| 2026-02-22T00:00 | 8764 | 322 | -44.0 | |||
| 2026-02-22T00:00 | 8937 | 313 | 286 | 18 | ||
| 2026-02-22T00:01 | 9156 | 303 | -46.7 | |||
| 2026-02-22T00:01 | 9248 | 299 | 273 | 21 | ||
| 2026-02-22T00:02 | 9562 | 285 | -48.7 | |||
| 2026-02-22T00:02 | 9589 | 284 | 274 | 24 | ||
| 2026-02-22T00:02 | 9775 | 276 | -49.5 | |||
| 2026-02-22T00:03 | 9912 | 270 | 273 | 25 | ||
| 2026-02-22T00:04 | 10229 | 257 | 278 | 28 | ||
| 2026-02-22T00:05 | 10453 | 249 | -53.4 | |||
| 2026-02-22T00:05 | 10568 | 244 | 280 | 29 | ||
| 2026-02-22T00:05 | 10638 | 242 | -54.3 | |||
| 2026-02-22T00:06 | 10927 | 231 | 271 | 29 | ||
| 2026-02-22T00:06 | 11027 | 227 | -56.0 | |||
| 2026-02-22T00:07 | 11281 | 218 | 272 | 35 | ||
| 2026-02-22T00:08 | 11539 | 210 | -57.6 | |||
| 2026-02-22T00:08 | 11627 | 207 | 276 | 39 | ||
| 2026-02-22T00:08 | 11779 | 202 | -56.9 | |||
| 2026-02-22T00:09 | 11950 | 196 | -56.2 | |||
| 2026-02-22T00:09 | 11967 | 196 | 280 | 41 | ||
| 2026-02-22T00:10 | 12259 | 187 | 285 | 43 | ||
| 2026-02-22T00:10 | 12357 | 184 | -54.8 | |||
| 2026-02-22T00:10 | 12419 | 182 | 279 | 41 | ||
| 2026-02-22T00:11 | 12562 | 178 | -55.2 | |||
| 2026-02-22T00:11 | 12689 | 175 | 278 | 40 | ||
| 2026-02-22T00:12 | 12971 | 167 | 280 | 40 | ||
| 2026-02-22T00:13 | 13231 | 161 | -57.8 | |||
| 2026-02-22T00:13 | 13276 | 160 | 274 | 40 | ||
| 2026-02-22T00:14 | 13575 | 152 | 276 | 41 | ||
| 2026-02-22T00:15 | 13765 | 148 | -60.8 | |||
| 2026-02-22T00:15 | 13856 | 145 | 277 | 39 | ||
| 2026-02-22T00:16 | 14090 | 140 | -62.6 | |||
| 2026-02-22T00:16 | 14131 | 139 | 274 | 38 | ||
| 2026-02-22T00:17 | 14392 | 133 | 274 | 40 | ||
| 2026-02-22T00:18 | 14630 | 128 | -63.4 | |||
| 2026-02-22T00:18 | 14663 | 128 | 282 | 36 | ||
| 2026-02-22T00:19 | 14814 | 124 | -63.3 | |||
| 2026-02-22T00:19 | 14914 | 122 | -62.7 | |||
| 2026-02-22T00:19 | 14942 | 122 | 280 | 31 | ||
| 2026-02-22T00:20 | 15220 | 116 | 272 | 27 | ||
| 2026-02-22T00:21 | 15493 | 111 | 263 | 32 | ||
| 2026-02-22T00:22 | 15533 | 111 | -64.3 | |||
| 2026-02-22T00:22 | 15774 | 106 | 265 | 33 | ||
| 2026-02-22T00:23 | 15938 | 104 | -64.1 | |||
| 2026-02-22T00:23 | 16080 | 101 | 272 | 28 | ||
| 2026-02-22T00:24 | 16172 | 100 | -64.0 | |||
| 2026-02-22T00:24 | 16333 | 97 | -63.6 | |||
| 2026-02-22T00:24 | 16391 | 96 | 265 | 27 | ||
| 2026-02-22T00:25 | 16680 | 92 | -65.1 | |||
| 2026-02-22T00:25 | 16700 | 91 | 264 | 29 | ||
| 2026-02-22T00:26 | 16891 | 89 | -63.9 | |||
| 2026-02-22T00:26 | 16989 | 87 | 281 | 29 | ||
| 2026-02-22T00:27 | 17212 | 84 | 278 | 27 | ||
| 2026-02-22T00:28 | 17422 | 81 | -62.6 | |||
| 2026-02-22T00:28 | 17512 | 80 | 290 | 20 | ||
| 2026-02-22T00:29 | 17619 | 79 | -63.4 | |||
| 2026-02-22T00:29 | 17809 | 76 | 268 | 20 | ||
| 2026-02-22T00:29 | 17873 | 75 | -62.5 | |||
| 2026-02-22T00:30 | 18016 | 74 | 267 | 22 | ||
| 2026-02-22T00:30 | 18090 | 73 | -61.4 | |||
| 2026-02-22T00:31 | 18351 | 70 | 255 | 12 | ||
| 2026-02-22T00:32 | 18624 | 67 | 234 | 15 | ||
| 2026-02-22T00:32 | 18780 | 65 | -63.5 | |||
| 2026-02-22T00:33 | 18888 | 64 | 241 | 18 | ||
| 2026-02-22T00:34 | 19196 | 61 | 249 | 17 | ||
| 2026-02-22T00:34 | 19233 | 61 | -59.4 | |||
| 2026-02-22T00:35 | 19519 | 58 | 258 | 12 | ||
| 2026-02-22T00:35 | 19604 | 57 | -59.3 | |||
| 2026-02-22T00:36 | 19842 | 55 | 266 | 10 | ||
| 2026-02-22T00:36 | 20062 | 53 | 259 | 6 | ||
| 2026-02-22T00:36 | 20087 | 53 | -59.2 | |||
| 2026-02-22T00:37 | 20171 | 52 | 244 | 6 | ||
| 2026-02-22T00:37 | 20391 | 50 | -58.0 | |||
| 2026-02-22T00:38 | 20417 | 50 | 280 | 12 | ||
| 2026-02-22T00:38 | 20621 | 49 | 285 | 7 | ||
| 2026-02-22T00:39 | 20910 | 46 | 262 | 7 | ||
| 2026-02-22T00:39 | 20992 | 46 | -59.1 | |||
| 2026-02-22T00:40 | 21131 | 45 | 309 | 6 | ||
| 2026-02-22T00:40 | 21272 | 44 | -56.6 | |||
| 2026-02-22T00:41 | 21361 | 43 | 288 | 6 | ||
| 2026-02-22T00:41 | 21433 | 43 | -56.3 | |||
| 2026-02-22T00:41 | 21614 | 41 | 316 | 4 | ||
| 2026-02-22T00:42 | 21942 | 39 | 359 | 7 | ||
| 2026-02-22T00:43 | 22156 | 38 | 72 | 3 | ||
| 2026-02-22T00:43 | 22277 | 37 | 141 | 3 | ||
| 2026-02-22T00:44 | 22482 | 36 | -58.7 | |||
| 2026-02-22T00:44 | 22623 | 35 | 227 | 6 | ||
| 2026-02-22T00:45 | 22697 | 35 | -57.7 | |||
| 2026-02-22T00:45 | 22917 | 34 | 252 | 6 | ||
| 2026-02-22T00:46 | 23127 | 33 | 208 | 4 | ||
| 2026-02-22T00:46 | 23285 | 32 | 163 | 6 | ||
| 2026-02-22T00:47 | 23386 | 31 | -57.8 | |||
| 2026-02-22T00:47 | 23615 | 30 | 197 | 9 | ||
| 2026-02-22T00:48 | 23783 | 29 | 226 | 7 | ||
| 2026-02-22T00:48 | 23935 | 29 | 200 | 10 | ||
| 2026-02-22T00:49 | 24277 | 27 | 209 | 16 | ||
| 2026-02-22T00:50 | 24635 | 26 | 253 | 5 | ||
| 2026-02-22T00:51 | 24762 | 25 | 297 | 5 | ||
| 2026-02-22T00:51 | 24839 | 25 | 286 | 2 | ||
| 2026-02-22T00:51 | 25046 | 24 | 232 | 3 | ||
| 2026-02-22T00:52 | 25126 | 24 | -55.2 | |||
| 2026-02-22T00:52 | 25153 | 24 | 234 | 4 | ||
| 2026-02-22T00:52 | 25373 | 23 | 130 | 1 | ||
| 2026-02-22T00:52 | 25428 | 23 | 84 | 3 | ||
| 2026-02-22T00:53 | 25574 | 22 | 78 | 6 | ||
| 2026-02-22T00:53 | 25809 | 21 | 133 | 1 | ||
| 2026-02-22T00:54 | 25957 | 21 | 175 | 4 | ||
| 2026-02-22T00:54 | 25987 | 21 | -55.0 | |||
| 2026-02-22T00:54 | 26017 | 21 | 163 | 3 | ||
| 2026-02-22T00:54 | 26083 | 21 | 117 | 3 | ||
| 2026-02-22T00:54 | 26175 | 20 | -54.6 | |||
| 2026-02-22T00:55 | 26467 | 19 | 93 | 10 | ||
| 2026-02-22T00:56 | 26700 | 19 | -55.6 | |||
| 2026-02-22T00:56 | 26804 | 18 | 132 | 11 | ||
| 2026-02-22T00:57 | 27086 | 18 | 138 | 12 | ||
| 2026-02-22T00:57 | 27279 | 17 | -54.4 | 166 | 10 | |
| 2026-02-22T11:33 | 26 | 1013 | 14.1 | 10.3 | 210 | 4 |
| 2026-02-22T11:33 | 29 | 1013 | 14.4 | 10.0 | 0 | 0 |
| 2026-02-22T11:33 | 33 | 1012 | 14.5 | 10.1 | ||
| 2026-02-22T11:33 | 69 | 1008 | 224 | 3 | ||
| 2026-02-22T11:33 | 144 | 999 | 195 | 10 | ||
| 2026-02-22T11:34 | 309 | 980 | 12.2 | 9.4 | ||
| 2026-02-22T11:34 | 470 | 961 | 11.1 | 9.0 | ||
| 2026-02-22T11:34 | 533 | 954 | 204 | 20 | ||
| 2026-02-22T11:35 | 668 | 939 | 10.3 | 7.0 | ||
| 2026-02-22T11:35 | 703 | 935 | 209 | 21 | ||
| 2026-02-22T11:36 | 1005 | 901 | 8.2 | 3.7 | ||
| 2026-02-22T11:36 | 1051 | 896 | 224 | 18 | ||
| 2026-02-22T11:37 | 1359 | 863 | 229 | 17 | ||
| 2026-02-22T11:37 | 1370 | 862 | 6.2 | -0.8 | ||
| 2026-02-22T11:37 | 1623 | 836 | 232 | 14 | ||
| 2026-02-22T11:38 | 1882 | 810 | 1.7 | -1.7 | ||
| 2026-02-22T11:38 | 1909 | 807 | 237 | 11 | ||
| 2026-02-22T11:39 | 2031 | 795 | 1.4 | -4.5 | ||
| 2026-02-22T11:39 | 2108 | 787 | 1.5 | -8.1 | ||
| 2026-02-22T11:39 | 2114 | 787 | 226 | 12 | ||
| 2026-02-22T11:39 | 2136 | 784 | 2.7 | -12.0 | ||
| 2026-02-22T11:39 | 2173 | 781 | 2.9 | -14.3 | ||
| 2026-02-22T11:39 | 2225 | 776 | 3.7 | -23.1 | ||
| 2026-02-22T11:40 | 2419 | 757 | 245 | 16 | ||
| 2026-02-22T11:40 | 2599 | 741 | 2.6 | -25.0 | ||
| 2026-02-22T11:41 | 2744 | 727 | 257 | 13 | ||
| 2026-02-22T11:42 | 3003 | 704 | 261 | 16 | ||
| 2026-02-22T11:42 | 3063 | 699 | -0.9 | -23.6 | ||
| 2026-02-22T11:42 | 3283 | 680 | 258 | 16 | ||
| 2026-02-22T11:43 | 3342 | 675 | -2.5 | -22.4 | ||
| 2026-02-22T11:43 | 3454 | 665 | 260 | 16 | ||
| 2026-02-22T11:44 | 3809 | 636 | 249 | 17 | ||
| 2026-02-22T11:45 | 4026 | 619 | -6.5 | -27.0 | 252 | 18 |
| 2026-02-22T11:45 | 4197 | 605 | -7.6 | -29.1 | ||
| 2026-02-22T11:46 | 4310 | 596 | -8.3 | -27.9 | ||
| 2026-02-22T11:46 | 4326 | 595 | 252 | 16 | ||
| 2026-02-22T11:47 | 4627 | 572 | 259 | 13 | ||
| 2026-02-22T11:48 | 4949 | 549 | 261 | 15 | ||
| 2026-02-22T11:49 | 5288 | 525 | 259 | 15 | ||
| 2026-02-22T11:49 | 5315 | 523 | -16.7 | -32.6 | ||
| 2026-02-22T11:49 | 5423 | 515 | 254 | 18 | ||
| 2026-02-22T11:49 | 5606 | 503 | 246 | 18 | ||
| 2026-02-22T11:51 | 5985 | 478 | 249 | 18 | ||
| 2026-02-22T11:51 | 6190 | 465 | -24.1 | -37.1 | ||
| 2026-02-22T11:51 | 6250 | 461 | 242 | 16 | ||
| 2026-02-22T11:52 | 6606 | 439 | 238 | 18 | ||
| 2026-02-22T11:53 | 6707 | 433 | -28.0 | -41.6 | ||
| 2026-02-22T11:53 | 6954 | 418 | 242 | 20 | ||
| 2026-02-22T11:54 | 7221 | 402 | -31.2 | -50.0 | ||
| 2026-02-22T11:54 | 7308 | 397 | 253 | 26 | ||
| 2026-02-22T11:55 | 7536 | 385 | 255 | 27 | ||
| 2026-02-22T11:55 | 7579 | 382 | -34.1 | -51.8 | ||
| 2026-02-22T11:55 | 7729 | 374 | -35.0 | -49.7 | ||
| 2026-02-22T11:56 | 7826 | 369 | 251 | 25 | ||
| 2026-02-22T11:56 | 7921 | 364 | -36.8 | -48.1 | ||
| 2026-02-22T11:56 | 7956 | 362 | 252 | 25 | ||
| 2026-02-22T11:56 | 7968 | 362 | -37.0 | -42.1 | ||
| 2026-02-22T11:56 | 8059 | 357 | 253 | 28 | ||
| 2026-02-22T11:57 | 8193 | 350 | -38.3 | -41.6 | ||
| 2026-02-22T11:57 | 8366 | 341 | -40.0 | -43.5 | ||
| 2026-02-22T11:57 | 8443 | 337 | 259 | 30 | ||
| 2026-02-22T11:58 | 8772 | 321 | -43.7 | |||
| 2026-02-22T11:58 | 8807 | 320 | 258 | 29 | ||
| 2026-02-22T11:59 | 8975 | 312 | -44.4 | |||
| 2026-02-22T11:59 | 9017 | 310 | 253 | 31 | ||
| 2026-02-22T11:59 | 9179 | 302 | -45.2 | |||
| 2026-02-22T12:00 | 9381 | 293 | 253 | 31 | ||
| 2026-02-22T12:00 | 9529 | 287 | 255 | 34 | ||
| 2026-02-22T12:01 | 9912 | 271 | 256 | 35 | ||
| 2026-02-22T12:02 | 10224 | 258 | 258 | 37 | ||
| 2026-02-22T12:02 | 10353 | 253 | -53.2 | |||
| 2026-02-22T12:02 | 10372 | 252 | 257 | 38 | ||
| 2026-02-22T12:03 | 10768 | 237 | 264 | 40 | ||
| 2026-02-22T12:04 | 10963 | 230 | -57.1 | |||
| 2026-02-22T12:04 | 11161 | 223 | 265 | 44 | ||
| 2026-02-22T12:04 | 11168 | 222 | -57.2 | |||
| 2026-02-22T12:05 | 11407 | 214 | 262 | 43 | ||
| 2026-02-22T12:05 | 11544 | 209 | -59.1 | |||
| 2026-02-22T12:06 | 11820 | 200 | 265 | 43 | ||
| 2026-02-22T12:06 | 11910 | 198 | -59.0 | |||
| 2026-02-22T12:07 | 12060 | 193 | -56.2 | |||
| 2026-02-22T12:07 | 12067 | 193 | 267 | 49 | ||
| 2026-02-22T12:07 | 12303 | 186 | 263 | 47 | ||
| 2026-02-22T12:08 | 12516 | 180 | -56.9 | |||
| 2026-02-22T12:08 | 12580 | 178 | 260 | 52 | ||
| 2026-02-22T12:08 | 12800 | 172 | 265 | 51 | ||
| 2026-02-22T12:09 | 12988 | 167 | -56.7 | |||
| 2026-02-22T12:09 | 13195 | 161 | 267 | 45 | ||
| 2026-02-22T12:10 | 13515 | 153 | -57.9 | |||
| 2026-02-22T12:10 | 13551 | 152 | 265 | 47 | ||
| 2026-02-22T12:11 | 13979 | 142 | 269 | 46 | ||
| 2026-02-22T12:12 | 14389 | 133 | 266 | 41 | ||
| 2026-02-22T12:12 | 14409 | 133 | -61.6 | |||
| 2026-02-22T12:13 | 14682 | 127 | 259 | 41 | ||
| 2026-02-22T12:13 | 14710 | 127 | -62.7 | |||
| 2026-02-22T12:13 | 14854 | 124 | 261 | 44 | ||
| 2026-02-22T12:13 | 14905 | 123 | -63.0 | |||
| 2026-02-22T12:14 | 15152 | 118 | -63.2 | |||
| 2026-02-22T12:14 | 15268 | 116 | 263 | 34 | ||
| 2026-02-22T12:15 | 15464 | 112 | -64.6 | |||
| 2026-02-22T12:15 | 15586 | 110 | 263 | 37 | ||
| 2026-02-22T12:16 | 15800 | 106 | 265 | 30 | ||
| 2026-02-22T12:16 | 15829 | 105 | -65.0 | |||
| 2026-02-22T12:17 | 15902 | 104 | -65.0 | 256 | 29 | |
| 2026-02-22T23:33 | 26 | 1013 | 15.7 | 10.9 | 240 | 5 |
| 2026-02-22T23:33 | 30 | 1012 | 16.2 | 11.6 | 236 | 1 |
| 2026-02-22T23:33 | 40 | 1011 | 185 | 3 | ||
| 2026-02-22T23:33 | 47 | 1010 | 16.6 | 11.7 | ||
| 2026-02-22T23:33 | 78 | 1007 | 220 | 7 | ||
| 2026-02-22T23:34 | 262 | 985 | 203 | 17 | ||
| 2026-02-22T23:34 | 495 | 958 | 12.2 | 10.6 | ||
| 2026-02-22T23:35 | 542 | 953 | 208 | 15 | ||
| 2026-02-22T23:35 | 728 | 932 | 10.4 | 10.2 | ||
| 2026-02-22T23:35 | 771 | 927 | 212 | 21 | ||
| 2026-02-22T23:36 | 915 | 911 | 10.5 | 8.8 | ||
| 2026-02-22T23:36 | 1046 | 897 | 222 | 20 | ||
| 2026-02-22T23:36 | 1062 | 895 | 9.9 | 6.8 | ||
| 2026-02-22T23:36 | 1100 | 891 | 10.0 | 6.2 | ||
| 2026-02-22T23:37 | 1385 | 861 | 228 | 14 | ||
| 2026-02-22T23:38 | 1659 | 833 | 6.4 | 1.7 | ||
| 2026-02-22T23:38 | 1723 | 826 | 248 | 13 | ||
| 2026-02-22T23:39 | 2043 | 795 | 259 | 11 | ||
| 2026-02-22T23:40 | 2296 | 770 | 1.8 | -1.5 | ||
| 2026-02-22T23:40 | 2372 | 763 | 259 | 14 | ||
| 2026-02-22T23:40 | 2405 | 760 | 1.4 | -2.7 | ||
| 2026-02-22T23:40 | 2556 | 746 | 0.7 | -4.0 | ||
| 2026-02-22T23:41 | 2625 | 740 | 264 | 15 | ||
| 2026-02-22T23:41 | 2767 | 727 | -0.4 | -5.0 | ||
| 2026-02-22T23:41 | 2855 | 719 | 259 | 19 | ||
| 2026-02-22T23:42 | 2915 | 713 | -0.1 | -6.9 | ||
| 2026-02-22T23:42 | 3073 | 699 | 253 | 14 | ||
| 2026-02-22T23:43 | 3219 | 687 | -1.7 | -10.3 | ||
| 2026-02-22T23:43 | 3387 | 672 | -2.9 | -13.2 | 262 | 18 |
| 2026-02-22T23:43 | 3497 | 663 | -3.9 | -14.9 | ||
| 2026-02-22T23:44 | 3550 | 659 | -4.2 | -18.8 | ||
| 2026-02-22T23:44 | 3643 | 651 | -4.3 | -15.6 | ||
| 2026-02-22T23:44 | 3703 | 646 | 260 | 19 | ||
| 2026-02-22T23:44 | 3825 | 636 | -5.3 | -19.8 | ||
| 2026-02-22T23:45 | 3937 | 627 | -6.2 | -22.6 | ||
| 2026-02-22T23:45 | 3973 | 624 | 259 | 22 | ||
| 2026-02-22T23:45 | 3988 | 623 | -6.3 | -25.6 | ||
| 2026-02-22T23:46 | 4238 | 603 | -8.3 | -24.0 | ||
| 2026-02-22T23:46 | 4308 | 598 | 255 | 24 | ||
| 2026-02-22T23:46 | 4367 | 593 | -9.0 | -36.2 | ||
| 2026-02-22T23:47 | 4592 | 576 | 253 | 28 | ||
| 2026-02-22T23:47 | 4824 | 559 | 254 | 28 | ||
| 2026-02-22T23:48 | 5171 | 534 | 255 | 27 | ||
| 2026-02-22T23:49 | 5508 | 510 | 255 | 27 | ||
| 2026-02-22T23:50 | 5732 | 495 | 250 | 25 | ||
| 2026-02-22T23:51 | 5922 | 482 | -22.8 | -49.3 | ||
| 2026-02-22T23:51 | 6098 | 471 | 255 | 27 | ||
| 2026-02-22T23:51 | 6194 | 465 | -25.0 | -46.2 | ||
| 2026-02-22T23:51 | 6252 | 461 | -25.3 | -40.9 | ||
| 2026-02-22T23:52 | 6381 | 453 | 258 | 24 | ||
| 2026-02-22T23:52 | 6496 | 446 | -27.6 | -44.2 | ||
| 2026-02-22T23:52 | 6600 | 439 | -28.2 | -39.8 | ||
| 2026-02-22T23:53 | 6669 | 435 | 261 | 27 | ||
| 2026-02-22T23:53 | 6686 | 434 | -28.6 | -37.1 | ||
| 2026-02-22T23:53 | 6759 | 430 | -29.2 | -43.4 | ||
| 2026-02-22T23:53 | 6877 | 423 | -30.3 | -48.0 | ||
| 2026-02-22T23:54 | 6991 | 416 | 264 | 28 | ||
| 2026-02-22T23:54 | 7068 | 412 | -31.6 | -60.6 | ||
| 2026-02-22T23:55 | 7298 | 398 | 267 | 29 | ||
| 2026-02-22T23:55 | 7442 | 390 | -34.9 | -55.8 | ||
| 2026-02-22T23:56 | 7597 | 382 | 265 | 27 | ||
| 2026-02-22T23:56 | 7652 | 379 | -36.5 | -48.1 | ||
| 2026-02-22T23:56 | 7746 | 373 | -36.3 | -52.1 | ||
| 2026-02-22T23:57 | 7911 | 365 | 254 | 24 | ||
| 2026-02-22T23:57 | 8090 | 355 | -38.6 | -59.7 | ||
| 2026-02-22T23:58 | 8251 | 347 | 250 | 24 | ||
| 2026-02-22T23:58 | 8263 | 346 | -40.0 | -57.9 | ||
| 2026-02-22T23:59 | 8607 | 329 | 257 | 26 | ||
| 2026-02-22T23:59 | 8638 | 328 | -42.9 | |||
| 2026-02-22T23:59 | 8735 | 323 | -43.0 | |||
| 2026-02-23T00:00 | 8987 | 311 | 262 | 27 | ||
| 2026-02-23T00:01 | 9377 | 293 | 259 | 25 | ||
| 2026-02-23T00:01 | 9498 | 288 | 258 | 28 | ||
| 2026-02-23T00:02 | 9887 | 271 | 255 | 29 | ||
| 2026-02-23T00:03 | 10167 | 260 | -54.7 | |||
| 2026-02-23T00:03 | 10252 | 256 | 258 | 34 | ||
| 2026-02-23T00:04 | 10610 | 242 | 260 | 39 | ||
| 2026-02-23T00:05 | 10976 | 228 | 262 | 40 | ||
| 2026-02-23T00:06 | 11228 | 219 | -61.4 | |||
| 2026-02-23T00:06 | 11327 | 216 | 264 | 41 | ||
| 2026-02-23T00:06 | 11424 | 213 | -61.2 | |||
| 2026-02-23T00:07 | 11596 | 207 | -61.9 | |||
| 2026-02-23T00:07 | 11710 | 203 | 270 | 50 | ||
| 2026-02-23T00:07 | 11828 | 199 | -62.5 | |||
| 2026-02-23T00:08 | 11984 | 194 | -62.2 | |||
| 2026-02-23T00:08 | 12083 | 191 | 279 | 52 | ||
| 2026-02-23T00:08 | 12291 | 185 | -57.3 | |||
| 2026-02-23T00:09 | 12452 | 180 | 280 | 53 | ||
| 2026-02-23T00:10 | 12804 | 170 | 279 | 52 | ||
| 2026-02-23T00:10 | 12842 | 169 | -58.2 | |||
| 2026-02-23T00:10 | 12994 | 165 | -58.4 | |||
| 2026-02-23T00:11 | 13160 | 161 | 274 | 49 | ||
| 2026-02-23T00:11 | 13362 | 156 | -56.0 | |||
| 2026-02-23T00:11 | 13373 | 156 | 275 | 53 | ||
| 2026-02-23T00:12 | 13707 | 148 | 275 | 52 | ||
| 2026-02-23T00:13 | 14009 | 141 | -57.7 | |||
| 2026-02-23T00:13 | 14039 | 140 | 276 | 55 | ||
| 2026-02-23T00:14 | 14204 | 137 | -58.8 | |||
| 2026-02-23T00:14 | 14399 | 132 | 278 | 49 | ||
| 2026-02-23T00:15 | 14598 | 128 | -60.5 | |||
| 2026-02-23T00:15 | 14704 | 126 | 276 | 49 | ||
| 2026-02-23T00:16 | 14813 | 124 | -58.7 | |||
| 2026-02-23T00:16 | 15007 | 120 | 278 | 42 | ||
| 2026-02-23T00:16 | 15030 | 120 | -56.8 | |||
| 2026-02-23T00:17 | 15285 | 115 | 275 | 39 | ||
| 2026-02-23T00:18 | 15606 | 109 | 278 | 33 | ||
| 2026-02-23T00:18 | 15670 | 108 | -57.5 | |||
| 2026-02-23T00:19 | 15810 | 106 | -57.1 | |||
| 2026-02-23T00:19 | 15926 | 104 | 273 | 27 | ||
| 2026-02-23T00:20 | 16280 | 98 | -59.6 | |||
| 2026-02-23T00:20 | 16326 | 97 | 258 | 27 | ||
| 2026-02-23T00:21 | 16632 | 93 | 264 | 24 | ||
| 2026-02-23T00:21 | 16741 | 91 | -61.8 | |||
| 2026-02-23T00:22 | 16877 | 89 | 268 | 26 | ||
| 2026-02-23T00:23 | 17183 | 85 | -62.7 | 279 | 25 | |
| 2026-02-23T00:23 | 17286 | 83 | -62.2 | |||
| 2026-02-23T00:24 | 17540 | 80 | 297 | 16 | ||
| 2026-02-23T00:24 | 17665 | 78 | -64.1 | |||
| 2026-02-23T00:24 | 17690 | 78 | 298 | 16 | ||
| 2026-02-23T00:25 | 17928 | 75 | 297 | 22 | ||
| 2026-02-23T00:25 | 17945 | 75 | -64.6 | |||
| 2026-02-23T00:25 | 18108 | 73 | 299 | 16 | ||
| 2026-02-23T00:26 | 18279 | 71 | -64.2 | |||
| 2026-02-23T00:26 | 18508 | 68 | -64.5 | |||
| 2026-02-23T00:26 | 18528 | 68 | 248 | 14 | ||
| 2026-02-23T00:27 | 18693 | 66 | -63.0 | |||
| 2026-02-23T00:27 | 18888 | 64 | 235 | 18 | ||
| 2026-02-23T00:27 | 18910 | 64 | -64.0 | |||
| 2026-02-23T00:28 | 18987 | 63 | -59.3 | |||
| 2026-02-23T00:28 | 19026 | 63 | 254 | 20 | ||
| 2026-02-23T00:28 | 19231 | 61 | -57.3 | |||
| 2026-02-23T00:28 | 19241 | 61 | 280 | 15 | ||
| 2026-02-23T00:29 | 19508 | 58 | 287 | 17 | ||
| 2026-02-23T00:29 | 19519 | 58 | -58.3 | |||
| 2026-02-23T00:30 | 19772 | 56 | -57.3 | |||
| 2026-02-23T00:30 | 19805 | 56 | 310 | 10 | ||
| 2026-02-23T00:31 | 19954 | 54 | 324 | 9 | ||
| 2026-02-23T00:31 | 20000 | 54 | -57.2 | |||
| 2026-02-23T00:31 | 20119 | 53 | 349 | 11 | ||
| 2026-02-23T00:32 | 20315 | 51 | -58.0 | |||
| 2026-02-23T00:32 | 20473 | 50 | 332 | 6 | ||
| 2026-02-23T00:33 | 20681 | 48 | 342 | 1 | ||
| 2026-02-23T00:33 | 20732 | 48 | -58.7 | |||
| 2026-02-23T00:33 | 20851 | 47 | 221 | 3 | ||
| 2026-02-23T00:34 | 21067 | 45 | -60.5 | |||
| 2026-02-23T00:34 | 21179 | 45 | 228 | 7 | ||
| 2026-02-23T00:34 | 21206 | 44 | -58.5 | |||
| 2026-02-23T00:35 | 21554 | 42 | 230 | 7 | ||
| 2026-02-23T00:36 | 21733 | 41 | -59.0 | |||
| 2026-02-23T00:36 | 21764 | 41 | 210 | 6 | ||
| 2026-02-23T00:36 | 21920 | 40 | -57.8 | |||
| 2026-02-23T00:36 | 21952 | 39 | 159 | 8 | ||
| 2026-02-23T00:37 | 22304 | 37 | 230 | 7 | ||
| 2026-02-23T00:38 | 22475 | 36 | 229 | 2 | ||
| 2026-02-23T00:38 | 22563 | 36 | 177 | 3 | ||
| 2026-02-23T00:38 | 22616 | 36 | -54.4 | |||
| 2026-02-23T00:38 | 22729 | 35 | 147 | 5 | ||
| 2026-02-23T00:39 | 22968 | 34 | 208 | 4 | ||
| 2026-02-23T00:40 | 23142 | 33 | 255 | 3 | ||
| 2026-02-23T00:40 | 23261 | 32 | 174 | 4 | ||
| 2026-02-23T00:40 | 23485 | 31 | 176 | 8 | ||
| 2026-02-23T00:41 | 23758 | 30 | 218 | 9 | ||
| 2026-02-23T00:42 | 23889 | 29 | -54.9 | |||
| 2026-02-23T00:42 | 23931 | 29 | 215 | 6 | ||
| 2026-02-23T00:42 | 24111 | 28 | 262 | 6 | ||
| 2026-02-23T00:43 | 24272 | 27 | 295 | 5 | ||
| 2026-02-23T00:43 | 24462 | 27 | 332 | 4 | ||
| 2026-02-23T00:44 | 24705 | 26 | 14 | 2 | ||
| 2026-02-23T00:44 | 24806 | 25 | 14 | 3 | ||
| 2026-02-23T00:44 | 24833 | 25 | -55.5 | |||
| 2026-02-23T00:45 | 24961 | 25 | 75 | 6 | ||
| 2026-02-23T00:46 | 25359 | 23 | 150 | 6 | ||
| 2026-02-23T00:46 | 25441 | 23 | -56.8 | 156 | 4 | |
| 2026-02-23T00:46 | 25584 | 22 | 82 | 3 | ||
| 2026-02-23T00:46 | 25699 | 22 | -55.8 | 82 | 4 | |
| 2026-02-23T00:47 | 25876 | 21 | 108 | 6 | ||
| 2026-02-23T00:47 | 26086 | 21 | 110 | 8 | ||
| 2026-02-23T00:48 | 26401 | 20 | 71 | 4 | ||
| 2026-02-23T00:48 | 26459 | 19 | -57.3 | 51 | 3 | |
| 2026-02-23T11:33 | 26 | 1017 | 11.8 | 6.5 | 60 | 3 |
| 2026-02-23T11:33 | 31 | 1016 | 12.0 | 6.5 | 0 | 0 |
| 2026-02-23T11:33 | 52 | 1013 | 61 | 3 | ||
| 2026-02-23T11:33 | 84 | 1010 | 56 | 10 | ||
| 2026-02-23T11:34 | 344 | 979 | 58 | 14 | ||
| 2026-02-23T11:34 | 402 | 972 | 8.9 | 5.8 | ||
| 2026-02-23T11:34 | 429 | 969 | 9.4 | 6.3 | ||
| 2026-02-23T11:34 | 457 | 965 | 10.3 | 7.2 | ||
| 2026-02-23T11:35 | 573 | 952 | 11.0 | 8.6 | ||
| 2026-02-23T11:35 | 620 | 947 | 11.1 | 9.0 | ||
| 2026-02-23T11:35 | 626 | 946 | 112 | 6 | ||
| 2026-02-23T11:36 | 841 | 922 | 9.8 | 8.7 | ||
| 2026-02-23T11:36 | 885 | 917 | 183 | 6 | ||
| 2026-02-23T11:36 | 910 | 915 | 10.6 | 8.9 | ||
| 2026-02-23T11:36 | 1038 | 901 | 10.6 | 8.5 | ||
| 2026-02-23T11:36 | 1050 | 899 | 244 | 3 | ||
| 2026-02-23T11:36 | 1162 | 887 | 219 | 3 | ||
| 2026-02-23T11:37 | 1240 | 879 | 9.1 | 6.5 | ||
| 2026-02-23T11:37 | 1310 | 872 | 242 | 7 | ||
| 2026-02-23T11:37 | 1369 | 866 | 10.0 | 4.2 | ||
| 2026-02-23T11:37 | 1508 | 851 | 214 | 7 | ||
| 2026-02-23T11:37 | 1537 | 848 | 9.5 | 2.4 | ||
| 2026-02-23T11:38 | 1624 | 839 | 9.3 | -0.9 | ||
| 2026-02-23T11:38 | 1711 | 830 | 236 | 9 | ||
| 2026-02-23T11:39 | 2056 | 796 | 235 | 7 | ||
| 2026-02-23T11:40 | 2260 | 777 | 3.2 | -3.2 | ||
| 2026-02-23T11:40 | 2299 | 773 | 3.0 | -4.2 | ||
| 2026-02-23T11:40 | 2304 | 772 | 238 | 8 | ||
| 2026-02-23T11:40 | 2349 | 768 | 2.8 | -6.6 | ||
| 2026-02-23T11:40 | 2441 | 759 | 265 | 11 | ||
| 2026-02-23T11:40 | 2471 | 756 | 1.9 | -10.0 | ||
| 2026-02-23T11:40 | 2525 | 751 | 2.2 | -17.4 | ||
| 2026-02-23T11:41 | 2796 | 727 | 282 | 14 | ||
| 2026-02-23T11:42 | 2980 | 710 | 287 | 17 | ||
| 2026-02-23T11:42 | 3128 | 697 | -2.6 | -24.3 | ||
| 2026-02-23T11:43 | 3304 | 682 | 273 | 19 | ||
| 2026-02-23T11:43 | 3339 | 679 | -2.6 | -33.8 | ||
| 2026-02-23T11:44 | 3605 | 656 | 275 | 20 | ||
| 2026-02-23T11:44 | 3713 | 647 | 269 | 21 | ||
| 2026-02-23T11:44 | 3823 | 638 | -6.0 | -29.2 | ||
| 2026-02-23T11:45 | 4033 | 621 | 276 | 24 | ||
| 2026-02-23T11:45 | 4105 | 615 | -8.4 | -21.5 | ||
| 2026-02-23T11:46 | 4277 | 602 | -9.5 | -23.5 | ||
| 2026-02-23T11:46 | 4372 | 594 | 275 | 24 | ||
| 2026-02-23T11:47 | 4709 | 569 | 268 | 25 | ||
| 2026-02-23T11:48 | 5005 | 547 | -15.0 | -29.1 | ||
| 2026-02-23T11:48 | 5049 | 544 | 273 | 30 | ||
| 2026-02-23T11:48 | 5183 | 534 | -16.4 | -31.9 | ||
| 2026-02-23T11:49 | 5338 | 524 | -16.8 | -40.4 | ||
| 2026-02-23T11:49 | 5383 | 520 | 259 | 24 | ||
| 2026-02-23T11:49 | 5537 | 510 | 258 | 23 | ||
| 2026-02-23T11:50 | 5645 | 502 | 256 | 23 | ||
| 2026-02-23T11:51 | 5973 | 481 | 263 | 24 | ||
| 2026-02-23T11:51 | 6082 | 474 | -22.8 | -52.2 | ||
| 2026-02-23T11:52 | 6323 | 458 | 265 | 27 | ||
| 2026-02-23T11:53 | 6676 | 436 | 264 | 27 | ||
| 2026-02-23T11:53 | 6880 | 424 | 267 | 30 | ||
| 2026-02-23T11:54 | 6940 | 420 | -30.0 | -59.4 | ||
| 2026-02-23T11:54 | 7236 | 403 | 272 | 31 | ||
| 2026-02-23T11:55 | 7501 | 388 | -34.6 | -49.7 | ||
| 2026-02-23T11:55 | 7591 | 383 | 278 | 32 | ||
| 2026-02-23T11:56 | 7758 | 374 | -36.9 | -46.6 | ||
| 2026-02-23T11:56 | 7895 | 367 | -38.2 | -45.0 | ||
| 2026-02-23T11:56 | 7940 | 364 | 280 | 30 | ||
| 2026-02-23T11:56 | 7956 | 363 | -38.6 | -42.4 | ||
| 2026-02-23T11:57 | 8142 | 354 | -40.0 | -43.8 | ||
| 2026-02-23T11:57 | 8292 | 346 | 279 | 31 | ||
| 2026-02-23T11:58 | 8467 | 337 | 283 | 34 | ||
| 2026-02-23T11:59 | 8815 | 320 | 291 | 39 | ||
| 2026-02-23T12:00 | 9130 | 305 | 294 | 43 | ||
| 2026-02-23T12:01 | 9464 | 290 | 297 | 46 | ||
| 2026-02-23T12:01 | 9535 | 287 | -51.6 | |||
| 2026-02-23T12:02 | 9793 | 276 | 297 | 46 | ||
| 2026-02-23T12:03 | 10131 | 262 | 297 | 50 | ||
| 2026-02-23T12:04 | 10490 | 247 | 298 | 49 | ||
| 2026-02-23T12:05 | 10763 | 236 | -61.6 | |||
| 2026-02-23T12:05 | 10846 | 233 | 297 | 55 | ||
| 2026-02-23T12:05 | 10925 | 230 | -62.0 | |||
| 2026-02-23T12:06 | 11166 | 221 | -61.1 | |||
| 2026-02-23T12:06 | 11208 | 220 | 285 | 40 | ||
| 2026-02-23T12:06 | 11275 | 218 | -58.7 | |||
| 2026-02-23T12:07 | 11598 | 207 | 278 | 40 | ||
| 2026-02-23T12:07 | 11839 | 199 | -62.3 | |||
| 2026-02-23T12:08 | 11944 | 195 | -61.4 | |||
| 2026-02-23T12:08 | 11968 | 195 | 272 | 40 | ||
| 2026-02-23T12:08 | 12039 | 192 | -59.0 | |||
| 2026-02-23T12:08 | 12118 | 190 | 274 | 47 | ||
| 2026-02-23T12:08 | 12186 | 188 | -59.4 | |||
| 2026-02-23T12:09 | 12346 | 183 | 281 | 47 | ||
| 2026-02-23T12:09 | 12444 | 180 | -58.5 | |||
| 2026-02-23T12:09 | 12531 | 178 | 275 | 47 | ||
| 2026-02-23T12:10 | 12689 | 174 | 278 | 51 | ||
| 2026-02-23T12:10 | 12804 | 170 | 278 | 46 | ||
| 2026-02-23T12:10 | 12816 | 170 | -54.9 | |||
| 2026-02-23T12:11 | 13074 | 163 | 276 | 49 | ||
| 2026-02-23T12:12 | 13274 | 158 | -54.4 | |||
| 2026-02-23T12:12 | 13280 | 158 | 281 | 48 | ||
| 2026-02-23T12:12 | 13478 | 153 | 277 | 48 | ||
| 2026-02-23T12:12 | 13543 | 152 | -54.7 | |||
| 2026-02-23T12:13 | 13704 | 148 | 278 | 47 | ||
| 2026-02-23T12:14 | 13998 | 141 | 276 | 41 | ||
| 2026-02-23T12:14 | 14040 | 141 | -55.0 | |||
| 2026-02-23T12:14 | 14207 | 137 | -54.8 | |||
| 2026-02-23T12:14 | 14230 | 136 | 265 | 41 | ||
| 2026-02-23T12:15 | 14325 | 134 | -54.0 | |||
| 2026-02-23T12:15 | 14426 | 132 | 264 | 42 | ||
| 2026-02-23T12:16 | 14724 | 126 | 272 | 43 | ||
| 2026-02-23T12:17 | 15025 | 120 | 278 | 44 | ||
| 2026-02-23T12:17 | 15168 | 118 | -58.9 | |||
| 2026-02-23T12:18 | 15271 | 116 | -58.6 | |||
| 2026-02-23T12:18 | 15321 | 115 | 278 | 38 | ||
| 2026-02-23T12:19 | 15563 | 110 | -58.9 | |||
| 2026-02-23T12:19 | 15624 | 109 | 271 | 41 | ||
| 2026-02-23T12:20 | 15929 | 104 | 273 | 35 | ||
| 2026-02-23T12:20 | 16070 | 102 | -59.8 | |||
| 2026-02-23T12:21 | 16218 | 100 | 273 | 31 | ||
| 2026-02-23T12:21 | 16388 | 97 | 265 | 29 | ||
| 2026-02-23T12:22 | 16713 | 92 | 262 | 34 | ||
| 2026-02-23T12:23 | 16747 | 91 | -63.2 | |||
| 2026-02-23T12:23 | 16835 | 90 | -62.5 | |||
| 2026-02-23T12:23 | 16920 | 89 | -61.2 | 274 | 37 | |
| 2026-02-23T12:24 | 17253 | 84 | 284 | 27 | ||
| 2026-02-23T12:25 | 17434 | 82 | -59.7 | |||
| 2026-02-23T12:25 | 17667 | 79 | 271 | 8 | ||
| 2026-02-23T12:26 | 17840 | 77 | 276 | 4 | ||
| 2026-02-23T12:26 | 17919 | 76 | -62.6 | |||
| 2026-02-23T12:26 | 17996 | 75 | 207 | 3 | ||
| 2026-02-23T12:27 | 18280 | 71 | 224 | 3 | ||
| 2026-02-23T12:27 | 18470 | 69 | -65.7 | |||
| 2026-02-23T12:28 | 18586 | 68 | 254 | 5 | ||
| 2026-02-23T12:28 | 18730 | 66 | -65.4 | |||
| 2026-02-23T12:28 | 18794 | 66 | 287 | 5 | ||
| 2026-02-23T12:28 | 18813 | 65 | -59.7 | |||
| 2026-02-23T12:29 | 19115 | 62 | 295 | 10 | ||
| 2026-02-23T12:30 | 19207 | 61 | -59.5 | |||
| 2026-02-23T12:30 | 19311 | 60 | 278 | 10 | ||
| 2026-02-23T12:30 | 19427 | 59 | 268 | 7 | ||
| 2026-02-23T12:30 | 19470 | 59 | -58.2 | |||
| 2026-02-23T12:31 | 19767 | 56 | 291 | 6 | ||
| 2026-02-23T12:32 | 19846 | 55 | -59.5 | |||
| 2026-02-23T12:32 | 19980 | 54 | -58.5 | |||
| 2026-02-23T12:32 | 20051 | 54 | 260 | 7 | ||
| 2026-02-23T12:33 | 20317 | 51 | -55.3 | |||
| 2026-02-23T12:33 | 20379 | 51 | 291 | 7 | ||
| 2026-02-23T12:34 | 20560 | 50 | -54.6 | |||
| 2026-02-23T12:34 | 20611 | 49 | 306 | 1 | ||
| 2026-02-23T12:34 | 20794 | 48 | 220 | 3 | ||
| 2026-02-23T12:35 | 20970 | 46 | -56.1 | |||
| 2026-02-23T12:35 | 20984 | 46 | 224 | 3 | ||
| 2026-02-23T12:35 | 21037 | 46 | 256 | 2 | ||
| 2026-02-23T12:35 | 21135 | 45 | 354 | 3 | ||
| 2026-02-23T12:36 | 21381 | 44 | 304 | 1 | ||
| 2026-02-23T12:36 | 21484 | 43 | -57.1 | |||
| 2026-02-23T12:36 | 21528 | 43 | 200 | 3 | ||
| 2026-02-23T12:37 | 21770 | 41 | 263 | 2 | ||
| 2026-02-23T12:38 | 21990 | 40 | 349 | 1 | ||
| 2026-02-23T12:38 | 22119 | 39 | 18 | 2 | ||
| 2026-02-23T12:38 | 22134 | 39 | -56.4 | |||
| 2026-02-23T12:39 | 22318 | 38 | 109 | 2 | ||
| 2026-02-23T12:39 | 22456 | 37 | 122 | 5 | ||
| 2026-02-23T12:40 | 22701 | 35 | 224 | 3 | ||
| 2026-02-23T12:41 | 23033 | 34 | 179 | 5 | ||
| 2026-02-23T12:41 | 23246 | 32 | 196 | 9 | ||
| 2026-02-23T12:42 | 23524 | 31 | 190 | 4 | ||
| 2026-02-23T12:43 | 23859 | 29 | 135 | 5 | ||
| 2026-02-23T12:43 | 23880 | 29 | -55.4 | |||
| 2026-02-23T12:44 | 24080 | 28 | 180 | 5 | ||
| 2026-02-23T12:44 | 24238 | 28 | 207 | 5 | ||
| 2026-02-23T12:44 | 24328 | 27 | -56.9 | |||
| 2026-02-23T12:45 | 24445 | 27 | 258 | 4 | ||
| 2026-02-23T12:45 | 24492 | 27 | 222 | 2 | ||
| 2026-02-23T12:45 | 24541 | 26 | 159 | 3 | ||
| 2026-02-23T12:45 | 24637 | 26 | -55.3 | 120 | 1 | |
| 2026-02-23T12:46 | 24737 | 26 | 322 | 3 | ||
| 2026-02-23T12:46 | 24863 | 25 | 13 | 3 | ||
| 2026-02-23T12:46 | 25066 | 24 | 73 | 1 | ||
| 2026-02-23T12:47 | 25200 | 24 | -56.8 | |||
| 2026-02-23T12:47 | 25253 | 24 | 21 | 3 | ||
| 2026-02-23T12:47 | 25362 | 23 | 51 | 3 | ||
| 2026-02-23T12:48 | 25586 | 22 | 40 | 10 | ||
| 2026-02-23T12:48 | 25615 | 22 | -55.2 | |||
| 2026-02-23T12:49 | 25966 | 21 | 54 | 10 | ||
| 2026-02-23T12:50 | 26313 | 20 | 73 | 10 | ||
| 2026-02-23T12:51 | 26700 | 19 | 71 | 8 | ||
| 2026-02-23T12:51 | 26903 | 18 | -56.5 | |||
| 2026-02-23T12:51 | 26940 | 18 | 78 | 11 | ||
| 2026-02-23T12:53 | 27375 | 17 | 74 | 11 | ||
| 2026-02-23T12:53 | 27684 | 16 | -54.8 | |||
| 2026-02-23T12:54 | 27805 | 16 | 82 | 13 | ||
| 2026-02-23T12:55 | 28229 | 15 | 78 | 13 | ||
| 2026-02-23T12:55 | 28272 | 15 | -52.5 | |||
| 2026-02-23T12:56 | 28543 | 14 | 77 | 9 | ||
| 2026-02-23T12:56 | 28727 | 14 | 107 | 8 | ||
| 2026-02-23T12:57 | 29064 | 13 | 83 | 14 | ||
| 2026-02-23T12:57 | 29165 | 13 | -53.3 | |||
| 2026-02-23T12:57 | 29264 | 13 | 95 | 12 | ||
| 2026-02-23T12:58 | 29422 | 12 | 99 | 17 | ||
| 2026-02-23T12:58 | 29580 | 12 | 97 | 12 | ||
| 2026-02-23T12:59 | 29855 | 12 | 112 | 11 | ||
| 2026-02-23T13:00 | 30182 | 11 | -51.0 | 117 | 8 | |
| 2026-02-23T23:33 | 26 | 1023 | 11.1 | 4.3 | 40 | 2 |
| 2026-02-23T23:33 | 33 | 1022 | 10.9 | 3.9 | 0 | 0 |
| 2026-02-23T23:33 | 51 | 1020 | 80 | 3 | ||
| 2026-02-23T23:33 | 88 | 1015 | 44 | 7 | ||
| 2026-02-23T23:34 | 257 | 995 | 8.3 | 3.2 | ||
| 2026-02-23T23:34 | 417 | 975 | 60 | 9 | ||
| 2026-02-23T23:34 | 458 | 971 | 6.8 | 3.4 | ||
| 2026-02-23T23:35 | 550 | 960 | 6.6 | 4.1 | ||
| 2026-02-23T23:35 | 616 | 952 | 92 | 8 | ||
| 2026-02-23T23:35 | 626 | 951 | 7.6 | 5.2 | ||
| 2026-02-23T23:35 | 684 | 944 | 138 | 3 | ||
| 2026-02-23T23:35 | 700 | 943 | 7.9 | 5.2 | ||
| 2026-02-23T23:35 | 733 | 939 | 171 | 3 | ||
| 2026-02-23T23:36 | 844 | 926 | 131 | 3 | ||
| 2026-02-23T23:36 | 948 | 915 | 198 | 1 | ||
| 2026-02-23T23:36 | 1020 | 907 | 5.2 | 4.0 | ||
| 2026-02-23T23:36 | 1056 | 903 | 243 | 3 | ||
| 2026-02-23T23:37 | 1220 | 885 | 221 | 4 | ||
| 2026-02-23T23:37 | 1374 | 868 | 212 | 4 | ||
| 2026-02-23T23:37 | 1399 | 865 | 2.3 | 2.0 | ||
| 2026-02-23T23:37 | 1449 | 860 | 2.3 | 1.0 | ||
| 2026-02-23T23:37 | 1499 | 855 | 3.8 | -2.8 | ||
| 2026-02-23T23:37 | 1518 | 853 | 229 | 10 | ||
| 2026-02-23T23:38 | 1569 | 848 | 5.2 | -10.6 | ||
| 2026-02-23T23:38 | 1618 | 842 | 6.8 | -18.1 | ||
| 2026-02-23T23:38 | 1630 | 841 | 231 | 16 | ||
| 2026-02-23T23:38 | 1648 | 839 | 8.2 | -15.4 | ||
| 2026-02-23T23:38 | 1742 | 830 | 9.0 | -11.6 | ||
| 2026-02-23T23:38 | 1782 | 826 | 236 | 13 | ||
| 2026-02-23T23:39 | 1979 | 806 | 228 | 11 | ||
| 2026-02-23T23:39 | 2141 | 791 | 235 | 11 | ||
| 2026-02-23T23:40 | 2440 | 762 | 2.9 | -13.8 | ||
| 2026-02-23T23:40 | 2502 | 756 | 231 | 12 | ||
| 2026-02-23T23:41 | 2656 | 742 | 233 | 14 | ||
| 2026-02-23T23:41 | 2784 | 730 | 0.3 | -15.3 | ||
| 2026-02-23T23:41 | 2936 | 716 | -0.3 | -17.5 | ||
| 2026-02-23T23:42 | 3018 | 709 | 254 | 16 | ||
| 2026-02-23T23:43 | 3367 | 678 | 255 | 18 | ||
| 2026-02-23T23:43 | 3577 | 661 | -5.6 | -22.1 | ||
| 2026-02-23T23:43 | 3598 | 659 | 259 | 21 | ||
| 2026-02-23T23:43 | 3640 | 655 | -5.8 | -23.6 | ||
| 2026-02-23T23:43 | 3720 | 649 | 258 | 25 | ||
| 2026-02-23T23:44 | 3791 | 643 | -6.6 | -27.0 | ||
| 2026-02-23T23:44 | 3903 | 634 | -7.0 | -27.4 | ||
| 2026-02-23T23:44 | 4124 | 616 | 266 | 26 | ||
| 2026-02-23T23:45 | 4187 | 611 | -9.5 | -25.1 | ||
| 2026-02-23T23:45 | 4380 | 596 | -11.3 | -27.0 | ||
| 2026-02-23T23:45 | 4448 | 590 | -11.7 | -30.2 | ||
| 2026-02-23T23:45 | 4490 | 587 | 265 | 25 | ||
| 2026-02-23T23:46 | 4548 | 583 | -12.0 | -42.4 | ||
| 2026-02-23T23:46 | 4605 | 578 | -12.2 | -39.8 | ||
| 2026-02-23T23:46 | 4828 | 562 | 265 | 27 | ||
| 2026-02-23T23:47 | 4893 | 557 | -14.7 | -37.1 | ||
| 2026-02-23T23:47 | 4946 | 553 | -15.1 | -27.2 | ||
| 2026-02-23T23:47 | 5070 | 544 | -15.7 | -24.5 | ||
| 2026-02-23T23:47 | 5116 | 541 | 257 | 23 | ||
| 2026-02-23T23:48 | 5147 | 538 | -16.0 | -23.4 | ||
| 2026-02-23T23:48 | 5238 | 532 | -16.4 | -25.6 | ||
| 2026-02-23T23:48 | 5329 | 526 | -16.9 | -29.1 | ||
| 2026-02-23T23:48 | 5403 | 520 | -17.6 | -26.2 | ||
| 2026-02-23T23:48 | 5418 | 519 | 254 | 28 | ||
| 2026-02-23T23:49 | 5503 | 513 | -18.3 | -23.6 | ||
| 2026-02-23T23:49 | 5752 | 496 | 265 | 27 | ||
| 2026-02-23T23:50 | 5861 | 489 | -20.9 | -25.1 | ||
| 2026-02-23T23:50 | 6073 | 475 | 273 | 29 | ||
| 2026-02-23T23:51 | 6215 | 466 | -23.7 | -28.6 | ||
| 2026-02-23T23:51 | 6282 | 462 | -24.2 | -29.1 | ||
| 2026-02-23T23:51 | 6377 | 456 | -24.7 | -28.3 | ||
| 2026-02-23T23:51 | 6410 | 454 | 277 | 31 | ||
| 2026-02-23T23:52 | 6741 | 434 | 273 | 30 | ||
| 2026-02-23T23:52 | 6790 | 431 | -27.2 | -30.1 | ||
| 2026-02-23T23:53 | 6840 | 428 | 271 | 27 | ||
| 2026-02-23T23:53 | 6969 | 420 | -28.8 | -31.4 | ||
| 2026-02-23T23:53 | 6992 | 419 | 269 | 30 | ||
| 2026-02-23T23:54 | 7181 | 408 | -29.9 | -36.4 | ||
| 2026-02-23T23:54 | 7229 | 405 | -30.1 | -37.8 | ||
| 2026-02-23T23:54 | 7277 | 402 | -30.2 | -38.5 | ||
| 2026-02-23T23:54 | 7325 | 400 | -30.5 | -39.7 | ||
| 2026-02-23T23:54 | 7349 | 398 | 275 | 29 | ||
| 2026-02-23T23:54 | 7416 | 395 | -31.3 | -36.3 | ||
| 2026-02-23T23:54 | 7460 | 392 | -31.5 | -40.2 | ||
| 2026-02-23T23:55 | 7504 | 390 | 273 | 30 | ||
| 2026-02-23T23:55 | 7510 | 389 | -31.6 | -39.2 | ||
| 2026-02-23T23:55 | 7728 | 377 | 268 | 30 | ||
| 2026-02-23T23:56 | 7887 | 369 | -34.9 | -40.8 | ||
| 2026-02-23T23:56 | 8101 | 358 | 269 | 29 | ||
| 2026-02-23T23:56 | 8197 | 353 | -37.5 | -44.3 | ||
| 2026-02-23T23:57 | 8466 | 339 | 269 | 28 | ||
| 2026-02-23T23:57 | 8497 | 338 | -40.0 | -47.2 | ||
| 2026-02-23T23:58 | 8754 | 325 | 272 | 29 | ||
| 2026-02-23T23:59 | 9125 | 308 | 271 | 29 | ||
| 2026-02-24T00:00 | 9489 | 291 | 274 | 30 | ||
| 2026-02-24T00:00 | 9501 | 291 | -49.0 | |||
| 2026-02-24T00:00 | 9699 | 282 | 273 | 32 | ||
| 2026-02-24T00:01 | 10076 | 266 | 281 | 31 | ||
| 2026-02-24T00:02 | 10336 | 255 | 283 | 31 | ||
| 2026-02-24T00:03 | 10493 | 249 | -57.7 | |||
| 2026-02-24T00:03 | 10572 | 246 | 285 | 33 | ||
| 2026-02-24T00:04 | 10934 | 232 | 287 | 32 | ||
| 2026-02-24T00:05 | 11200 | 222 | -63.0 | |||
| 2026-02-24T00:05 | 11314 | 218 | 300 | 30 | ||
| 2026-02-24T00:05 | 11381 | 216 | -62.6 | |||
| 2026-02-24T00:05 | 11526 | 211 | 281 | 30 | ||
| 2026-02-24T00:06 | 11612 | 208 | -62.2 | |||
| 2026-02-24T00:06 | 11669 | 206 | 283 | 34 | ||
| 2026-02-24T00:06 | 11733 | 204 | -62.8 | |||
| 2026-02-24T00:06 | 11853 | 200 | -60.3 | |||
| 2026-02-24T00:06 | 11883 | 199 | 291 | 41 | ||
| 2026-02-24T00:07 | 12019 | 195 | -60.5 | |||
| 2026-02-24T00:07 | 12130 | 191 | 283 | 34 | ||
| 2026-02-24T00:07 | 12163 | 190 | -61.4 | |||
| 2026-02-24T00:08 | 12372 | 184 | 283 | 39 | ||
| 2026-02-24T00:08 | 12473 | 181 | -59.0 | |||
| 2026-02-24T00:08 | 12599 | 178 | -57.4 | 282 | 46 | |
| 2026-02-24T00:09 | 12869 | 170 | -58.1 | |||
| 2026-02-24T00:09 | 12904 | 169 | 283 | 44 | ||
| 2026-02-24T00:10 | 13131 | 163 | -57.8 | |||
| 2026-02-24T00:10 | 13200 | 161 | 281 | 40 | ||
| 2026-02-24T00:11 | 13497 | 154 | 280 | 43 | ||
| 2026-02-24T00:12 | 13611 | 151 | -58.3 | |||
| 2026-02-24T00:12 | 13681 | 149 | 278 | 46 | ||
| 2026-02-24T00:13 | 13990 | 142 | 284 | 44 | ||
| 2026-02-24T00:13 | 14041 | 141 | -58.5 | |||
| 2026-02-24T00:14 | 14291 | 136 | 284 | 46 | ||
| 2026-02-24T00:14 | 14352 | 134 | -58.5 | |||
| 2026-02-24T00:15 | 14562 | 130 | -57.8 | |||
| 2026-02-24T00:15 | 14593 | 129 | 289 | 38 | ||
| 2026-02-24T00:16 | 14904 | 123 | 287 | 43 | ||
| 2026-02-24T00:17 | 15168 | 118 | -61.4 | |||
| 2026-02-24T00:17 | 15189 | 117 | 292 | 45 | ||
| 2026-02-24T00:18 | 15502 | 112 | -63.1 | |||
| 2026-02-24T00:18 | 15507 | 112 | 290 | 38 | ||
| 2026-02-24T00:18 | 15623 | 109 | -63.3 | |||
| 2026-02-24T00:18 | 15732 | 108 | -63.0 | |||
| 2026-02-24T00:19 | 15824 | 106 | 283 | 34 | ||
| 2026-02-24T00:19 | 15870 | 105 | -63.3 | |||
| 2026-02-24T00:19 | 15997 | 103 | -62.4 | |||
| 2026-02-24T00:20 | 16137 | 101 | 291 | 32 | ||
| 2026-02-24T00:21 | 16448 | 96 | 296 | 28 | ||
| 2026-02-24T00:21 | 16608 | 93 | -62.4 | |||
| 2026-02-24T00:21 | 16686 | 92 | 284 | 22 | ||
| 2026-02-24T00:22 | 16906 | 89 | -61.5 | |||
| 2026-02-24T00:22 | 17009 | 87 | 272 | 23 | ||
| 2026-02-24T00:23 | 17293 | 84 | -61.3 | |||
| 2026-02-24T00:23 | 17330 | 83 | 280 | 25 | ||
| 2026-02-24T00:24 | 17533 | 80 | 294 | 23 | ||
| 2026-02-24T00:24 | 17642 | 79 | -60.9 | |||
| 2026-02-24T00:25 | 17893 | 76 | 312 | 14 | ||
| 2026-02-24T00:26 | 18244 | 72 | 281 | 11 | ||
| 2026-02-24T00:27 | 18441 | 69 | -65.3 | |||
| 2026-02-24T00:27 | 18618 | 67 | 248 | 12 | ||
| 2026-02-24T00:28 | 18757 | 66 | -66.6 | |||
| 2026-02-24T00:28 | 18802 | 65 | 246 | 16 | ||
| 2026-02-24T00:28 | 18905 | 64 | 253 | 21 | ||
| 2026-02-24T00:28 | 18916 | 64 | -63.0 | |||
| 2026-02-24T00:28 | 19035 | 63 | 282 | 15 | ||
| 2026-02-24T00:28 | 19046 | 63 | -57.5 | |||
| 2026-02-24T00:29 | 19197 | 61 | 303 | 14 | ||
| 2026-02-24T00:29 | 19238 | 61 | -56.4 | |||
| 2026-02-24T00:29 | 19429 | 59 | 328 | 7 | ||
| 2026-02-24T00:30 | 19502 | 58 | -57.7 | |||
| 2026-02-24T00:30 | 19658 | 57 | 346 | 3 | ||
| 2026-02-24T00:30 | 19701 | 57 | -56.6 | |||
| 2026-02-24T00:31 | 19839 | 55 | 318 | 3 | ||
| 2026-02-24T00:31 | 20081 | 53 | -57.8 | |||
| 2026-02-24T00:31 | 20108 | 53 | 264 | 4 | ||
| 2026-02-24T00:32 | 20359 | 51 | 245 | 3 | ||
| 2026-02-24T00:33 | 20477 | 50 | -60.8 | 207 | 4 | |
| 2026-02-24T00:33 | 20607 | 49 | 219 | 6 | ||
| 2026-02-24T00:34 | 20789 | 48 | -57.7 | |||
| 2026-02-24T00:34 | 20870 | 47 | 252 | 8 | ||
| 2026-02-24T00:34 | 20975 | 46 | -57.2 | |||
| 2026-02-24T00:34 | 21031 | 46 | 245 | 7 | ||
| 2026-02-24T00:35 | 21227 | 44 | 303 | 6 | ||
| 2026-02-24T00:35 | 21341 | 44 | 333 | 3 | ||
| 2026-02-24T00:35 | 21415 | 43 | -55.8 | |||
| 2026-02-24T00:36 | 21504 | 43 | 69 | 3 | ||
| 2026-02-24T00:36 | 21748 | 41 | 70 | 6 | ||
| 2026-02-24T00:37 | 21874 | 40 | 102 | 3 | ||
| 2026-02-24T00:37 | 21968 | 40 | -57.8 | |||
| 2026-02-24T00:37 | 22048 | 39 | 159 | 2 | ||
| 2026-02-24T00:38 | 22399 | 37 | 106 | 2 | ||
| 2026-02-24T00:39 | 22593 | 36 | 103 | 3 | ||
| 2026-02-24T00:39 | 22629 | 36 | -55.2 | |||
| 2026-02-24T00:39 | 22700 | 35 | 137 | 3 | ||
| 2026-02-24T00:39 | 22865 | 34 | 74 | 3 | ||
| 2026-02-24T00:40 | 23213 | 33 | 83 | 8 | ||
| 2026-02-24T00:41 | 23310 | 32 | -55.7 | |||
| 2026-02-24T00:41 | 23574 | 31 | 136 | 6 | ||
| 2026-02-24T00:42 | 23698 | 30 | 128 | 1 | ||
| 2026-02-24T00:42 | 23912 | 29 | 79 | 4 | ||
| 2026-02-24T00:43 | 24176 | 28 | -57.8 | |||
| 2026-02-24T00:43 | 24246 | 28 | 101 | 6 | ||
| 2026-02-24T00:43 | 24409 | 27 | 116 | 7 | ||
| 2026-02-24T00:44 | 24717 | 26 | 111 | 8 | ||
| 2026-02-24T00:44 | 24791 | 25 | -59.0 | |||
| 2026-02-24T00:45 | 24816 | 25 | 127 | 7 | ||
| 2026-02-24T00:45 | 24921 | 25 | 97 | 10 | ||
| 2026-02-24T00:45 | 25073 | 24 | 108 | 10 | ||
| 2026-02-24T00:46 | 25202 | 24 | 121 | 8 | ||
| 2026-02-24T00:46 | 25337 | 23 | 131 | 8 | ||
| 2026-02-24T00:46 | 25366 | 23 | -57.6 | |||
| 2026-02-24T00:46 | 25533 | 23 | 125 | 5 | ||
| 2026-02-24T00:47 | 25704 | 22 | 115 | 4 | ||
| 2026-02-24T00:47 | 25822 | 22 | 47 | 4 | ||
| 2026-02-24T00:48 | 26100 | 21 | -53.8 | |||
| 2026-02-24T00:48 | 26161 | 20 | 56 | 8 | ||
| 2026-02-24T00:48 | 26319 | 20 | 44 | 6 | ||
| 2026-02-24T00:49 | 26515 | 19 | 82 | 8 | ||
| 2026-02-24T00:49 | 26716 | 19 | 68 | 10 | ||
| 2026-02-24T00:50 | 26996 | 18 | 106 | 11 | ||
| 2026-02-24T00:51 | 27248 | 17 | 120 | 6 | ||
| 2026-02-24T00:51 | 27321 | 17 | 99 | 8 | ||
| 2026-02-24T00:51 | 27433 | 17 | 116 | 11 | ||
| 2026-02-24T00:52 | 27509 | 17 | -56.9 | |||
| 2026-02-24T00:52 | 27788 | 16 | 140 | 6 | ||
| 2026-02-24T00:52 | 27865 | 16 | 102 | 6 | ||
| 2026-02-24T00:53 | 27968 | 15 | -54.7 | 122 | 9 | |
| 2026-02-24T11:33 | 26 | 1021 | 11.3 | 6.2 | 70 | 2 |
| 2026-02-24T11:33 | 31 | 1020 | 11.6 | 6.1 | 0 | 0 |
| 2026-02-24T11:33 | 62 | 1017 | 56 | 4 | ||
| 2026-02-24T11:33 | 98 | 1012 | 81 | 5 | ||
| 2026-02-24T11:33 | 161 | 1005 | 10.7 | 5.9 | ||
| 2026-02-24T11:34 | 207 | 999 | 66 | 7 | ||
| 2026-02-24T11:34 | 263 | 993 | 11.6 | 9.0 | ||
| 2026-02-24T11:34 | 320 | 986 | 124 | 7 | ||
| 2026-02-24T11:34 | 429 | 973 | 129 | 7 | ||
| 2026-02-24T11:35 | 508 | 964 | 10.7 | 9.5 | ||
| 2026-02-24T11:35 | 657 | 947 | 173 | 7 | ||
| 2026-02-24T11:36 | 868 | 923 | 179 | 7 | ||
| 2026-02-24T11:36 | 1092 | 898 | 198 | 9 | ||
| 2026-02-24T11:36 | 1125 | 895 | 6.1 | 5.5 | ||
| 2026-02-24T11:37 | 1248 | 881 | 5.7 | 1.8 | ||
| 2026-02-24T11:37 | 1296 | 876 | 6.6 | 1.1 | ||
| 2026-02-24T11:37 | 1417 | 863 | 228 | 16 | ||
| 2026-02-24T11:37 | 1422 | 863 | 7.4 | -0.1 | ||
| 2026-02-24T11:38 | 1556 | 849 | 6.5 | 3.3 | ||
| 2026-02-24T11:38 | 1689 | 835 | 5.7 | 3.0 | ||
| 2026-02-24T11:38 | 1745 | 830 | 215 | 18 | ||
| 2026-02-24T11:39 | 1877 | 816 | 4.7 | 0.1 | ||
| 2026-02-24T11:39 | 2039 | 800 | 3.3 | -1.5 | ||
| 2026-02-24T11:39 | 2071 | 797 | 224 | 19 | ||
| 2026-02-24T11:40 | 2375 | 767 | 222 | 20 | ||
| 2026-02-24T11:41 | 2677 | 739 | 222 | 20 | ||
| 2026-02-24T11:41 | 2687 | 738 | -2.0 | -4.3 | ||
| 2026-02-24T11:41 | 2734 | 734 | -2.1 | -6.1 | ||
| 2026-02-24T11:42 | 2776 | 730 | -0.1 | -16.9 | ||
| 2026-02-24T11:42 | 2809 | 727 | 0.0 | -16.8 | ||
| 2026-02-24T11:42 | 2849 | 723 | -0.1 | -14.8 | ||
| 2026-02-24T11:42 | 2934 | 716 | 0.0 | -27.0 | ||
| 2026-02-24T11:42 | 3006 | 709 | 222 | 21 | ||
| 2026-02-24T11:42 | 3056 | 705 | -0.5 | -33.8 | ||
| 2026-02-24T11:43 | 3326 | 681 | 224 | 21 | ||
| 2026-02-24T11:44 | 3534 | 664 | 226 | 22 | ||
| 2026-02-24T11:44 | 3545 | 663 | -3.7 | -34.6 | ||
| 2026-02-24T11:45 | 3744 | 646 | -4.6 | -28.9 | ||
| 2026-02-24T11:45 | 3859 | 637 | 230 | 26 | ||
| 2026-02-24T11:46 | 4041 | 622 | -6.8 | -27.8 | ||
| 2026-02-24T11:46 | 4134 | 615 | -7.4 | -30.4 | ||
| 2026-02-24T11:46 | 4189 | 610 | 238 | 26 | ||
| 2026-02-24T11:46 | 4216 | 608 | -7.6 | -43.0 | ||
| 2026-02-24T11:47 | 4463 | 589 | -9.7 | -28.5 | ||
| 2026-02-24T11:47 | 4516 | 585 | 236 | 28 | ||
| 2026-02-24T11:47 | 4543 | 583 | -10.2 | -39.6 | ||
| 2026-02-24T11:47 | 4668 | 574 | -10.7 | -30.5 | ||
| 2026-02-24T11:48 | 4818 | 563 | 228 | 31 | ||
| 2026-02-24T11:48 | 4881 | 558 | -11.4 | -33.7 | ||
| 2026-02-24T11:49 | 4974 | 551 | -11.8 | -34.7 | ||
| 2026-02-24T11:49 | 5117 | 541 | 233 | 32 | ||
| 2026-02-24T11:49 | 5265 | 530 | -14.0 | -31.1 | ||
| 2026-02-24T11:50 | 5361 | 524 | 236 | 35 | ||
| 2026-02-24T11:51 | 5670 | 503 | -17.5 | -27.6 | ||
| 2026-02-24T11:51 | 5687 | 502 | 241 | 34 | ||
| 2026-02-24T11:52 | 6031 | 479 | 243 | 33 | ||
| 2026-02-24T11:52 | 6066 | 477 | -21.0 | -30.1 | ||
| 2026-02-24T11:53 | 6377 | 457 | 249 | 34 | ||
| 2026-02-24T11:53 | 6513 | 448 | -24.9 | -29.7 | ||
| 2026-02-24T11:54 | 6712 | 436 | -26.5 | -31.0 | ||
| 2026-02-24T11:54 | 6718 | 436 | 253 | 33 | ||
| 2026-02-24T11:54 | 6787 | 432 | -26.4 | -29.9 | ||
| 2026-02-24T11:54 | 6850 | 428 | -25.7 | -28.5 | ||
| 2026-02-24T11:54 | 6963 | 421 | 264 | 30 | ||
| 2026-02-24T11:55 | 7088 | 414 | -26.6 | -28.9 | 270 | 29 |
| 2026-02-24T11:56 | 7430 | 395 | -28.7 | -32.5 | ||
| 2026-02-24T11:56 | 7435 | 395 | 267 | 27 | ||
| 2026-02-24T11:57 | 7785 | 376 | 263 | 27 | ||
| 2026-02-24T11:57 | 7813 | 374 | -31.8 | -36.3 | ||
| 2026-02-24T11:57 | 7998 | 365 | 261 | 25 | ||
| 2026-02-24T11:58 | 8033 | 363 | -33.5 | -38.8 | ||
| 2026-02-24T11:58 | 8309 | 349 | 258 | 26 | ||
| 2026-02-24T11:58 | 8356 | 346 | -36.3 | -41.4 | ||
| 2026-02-24T11:59 | 8542 | 337 | -38.0 | -43.4 | ||
| 2026-02-24T11:59 | 8662 | 331 | 266 | 27 | ||
| 2026-02-24T12:00 | 8786 | 325 | -39.9 | -44.9 | ||
| 2026-02-24T12:00 | 8798 | 325 | -40.0 | -45.1 | ||
| 2026-02-24T12:00 | 9015 | 315 | 263 | 29 | ||
| 2026-02-24T12:01 | 9364 | 299 | 266 | 31 | ||
| 2026-02-24T12:02 | 9695 | 284 | 268 | 34 | ||
| 2026-02-24T12:03 | 9857 | 277 | -49.5 | |||
| 2026-02-24T12:03 | 10008 | 271 | 268 | 36 | ||
| 2026-02-24T12:04 | 10325 | 258 | 266 | 37 | ||
| 2026-02-24T12:05 | 10642 | 245 | 268 | 39 | ||
| 2026-02-24T12:06 | 10960 | 233 | 270 | 43 | ||
| 2026-02-24T12:07 | 11249 | 223 | 276 | 43 | ||
| 2026-02-24T12:07 | 11356 | 219 | 278 | 47 | ||
| 2026-02-24T12:08 | 11479 | 215 | 280 | 47 | ||
| 2026-02-24T12:08 | 11490 | 214 | -63.6 | |||
| 2026-02-24T12:08 | 11577 | 211 | 281 | 50 | ||
| 2026-02-24T12:09 | 11792 | 204 | 278 | 47 | ||
| 2026-02-24T12:09 | 11856 | 202 | -65.1 | |||
| 2026-02-24T12:09 | 11922 | 200 | 281 | 47 | ||
| 2026-02-24T12:09 | 12058 | 195 | 281 | 43 | ||
| 2026-02-24T12:10 | 12335 | 187 | 282 | 38 | ||
| 2026-02-24T12:10 | 12491 | 182 | -60.5 | |||
| 2026-02-24T12:11 | 12597 | 179 | 281 | 40 | ||
| 2026-02-24T12:12 | 12972 | 169 | -58.3 | |||
| 2026-02-24T12:12 | 13005 | 168 | 286 | 41 | ||
| 2026-02-24T12:12 | 13281 | 160 | -58.9 | |||
| 2026-02-24T12:13 | 13370 | 158 | 288 | 40 | ||
| 2026-02-24T12:14 | 13748 | 149 | 285 | 41 | ||
| 2026-02-24T12:14 | 13871 | 146 | -59.9 | |||
| 2026-02-24T12:15 | 14061 | 142 | 284 | 41 | ||
| 2026-02-24T12:16 | 14343 | 135 | 283 | 40 | ||
| 2026-02-24T12:17 | 14635 | 129 | 282 | 39 | ||
| 2026-02-24T12:17 | 14650 | 129 | -61.8 | |||
| 2026-02-24T12:18 | 14928 | 123 | 285 | 40 | ||
| 2026-02-24T12:18 | 15168 | 118 | -62.6 | |||
| 2026-02-24T12:19 | 15212 | 118 | 288 | 40 | ||
| 2026-02-24T12:19 | 15376 | 115 | -62.2 | 290 | 35 | |
| 2026-02-24T12:20 | 15609 | 110 | 293 | 29 | ||
| 2026-02-24T12:20 | 15839 | 106 | -63.5 | |||
| 2026-02-24T12:21 | 15971 | 104 | -62.8 | 289 | 33 | |
| 2026-02-24T12:21 | 16123 | 101 | 296 | 27 | ||
| 2026-02-24T12:21 | 16129 | 101 | -60.8 | |||
| 2026-02-24T12:22 | 16325 | 98 | -61.6 | |||
| 2026-02-24T12:22 | 16471 | 96 | 279 | 13 | ||
| 2026-02-24T12:23 | 16670 | 93 | -61.0 | |||
| 2026-02-24T12:23 | 16790 | 91 | 280 | 16 | ||
| 2026-02-24T12:24 | 17089 | 87 | 284 | 21 | ||
| 2026-02-24T12:25 | 17261 | 84 | -63.7 | |||
| 2026-02-24T12:25 | 17386 | 83 | 282 | 28 | ||
| 2026-02-24T12:26 | 17576 | 80 | 295 | 25 | ||
| 2026-02-24T12:27 | 17867 | 77 | 311 | 17 | ||
| 2026-02-24T12:27 | 17991 | 75 | -60.5 | |||
| 2026-02-24T12:27 | 18017 | 75 | 311 | 10 | ||
| 2026-02-24T12:28 | 18341 | 71 | 300 | 10 | ||
| 2026-02-24T12:29 | 18672 | 67 | -64.4 | 287 | 12 | |
| 2026-02-24T12:30 | 18865 | 65 | 288 | 15 | ||
| 2026-02-24T12:30 | 18942 | 64 | -60.3 | |||
| 2026-02-24T12:30 | 19079 | 63 | 320 | 9 | ||
| 2026-02-24T12:31 | 19177 | 62 | -58.8 | |||
| 2026-02-24T12:31 | 19279 | 61 | 280 | 1 | ||
| 2026-02-24T12:31 | 19404 | 60 | 183 | 3 | ||
| 2026-02-24T12:32 | 19435 | 59 | -59.7 | |||
| 2026-02-24T12:32 | 19510 | 59 | 235 | 6 | ||
| 2026-02-24T12:32 | 19636 | 58 | -58.1 | 245 | 10 | |
| 2026-02-24T23:33 | 26 | 1018 | 10.2 | 10.0 | 40 | 2 |
| 2026-02-24T23:33 | 30 | 1018 | 10.2 | 10.0 | 85 | 1 |
| 2026-02-24T23:33 | 44 | 1016 | 76 | 4 | ||
| 2026-02-24T23:33 | 61 | 1014 | 38 | 4 | ||
| 2026-02-24T23:34 | 180 | 1000 | 52 | 8 | ||
| 2026-02-24T23:34 | 291 | 986 | 8.4 | 8.4 | ||
| 2026-02-24T23:34 | 318 | 983 | 8.6 | 8.6 | ||
| 2026-02-24T23:34 | 345 | 980 | 9.3 | 9.2 | ||
| 2026-02-24T23:35 | 453 | 967 | 84 | 8 | ||
| 2026-02-24T23:35 | 555 | 955 | 95 | 2 | ||
| 2026-02-24T23:35 | 559 | 955 | 10.0 | 10.0 | ||
| 2026-02-24T23:35 | 637 | 946 | 176 | 4 | ||
| 2026-02-24T23:35 | 658 | 944 | 10.4 | 10.4 | ||
| 2026-02-24T23:36 | 730 | 936 | 223 | 5 | ||
| 2026-02-24T23:36 | 776 | 931 | 10.5 | 10.5 | ||
| 2026-02-24T23:36 | 828 | 925 | 211 | 7 | ||
| 2026-02-24T23:37 | 995 | 906 | 224 | 8 | ||
| 2026-02-24T23:37 | 1138 | 891 | 221 | 10 | ||
| 2026-02-24T23:38 | 1237 | 880 | 8.2 | 7.9 | ||
| 2026-02-24T23:38 | 1316 | 872 | 235 | 8 | ||
| 2026-02-24T23:38 | 1414 | 861 | 244 | 8 | ||
| 2026-02-24T23:39 | 1554 | 847 | 210 | 7 | ||
| 2026-02-24T23:39 | 1600 | 842 | 5.9 | 5.9 | ||
| 2026-02-24T23:39 | 1621 | 840 | 217 | 8 | ||
| 2026-02-24T23:39 | 1659 | 836 | 5.6 | 5.6 | ||
| 2026-02-24T23:39 | 1694 | 833 | 224 | 11 | ||
| 2026-02-24T23:40 | 1893 | 813 | 198 | 10 | ||
| 2026-02-24T23:40 | 1963 | 806 | 3.4 | 3.0 | ||
| 2026-02-24T23:41 | 2051 | 797 | 192 | 12 | ||
| 2026-02-24T23:41 | 2130 | 789 | 213 | 11 | ||
| 2026-02-24T23:42 | 2195 | 783 | 1.5 | 0.8 | ||
| 2026-02-24T23:42 | 2348 | 768 | 205 | 11 | ||
| 2026-02-24T23:43 | 2438 | 760 | 0.1 | -0.2 | ||
| 2026-02-24T23:43 | 2563 | 748 | 211 | 11 | ||
| 2026-02-24T23:44 | 2685 | 737 | -0.8 | -0.8 | ||
| 2026-02-24T23:44 | 2699 | 735 | 217 | 14 | ||
| 2026-02-24T23:44 | 2796 | 726 | 205 | 12 | ||
| 2026-02-24T23:45 | 3018 | 706 | 209 | 14 | ||
| 2026-02-24T23:46 | 3207 | 690 | 201 | 17 | ||
| 2026-02-24T23:47 | 3374 | 675 | 210 | 19 | ||
| 2026-02-24T23:48 | 3546 | 661 | 209 | 20 | ||
| 2026-02-24T23:49 | 3630 | 654 | -5.2 | -5.3 | ||
| 2026-02-24T23:49 | 3719 | 646 | 211 | 19 | ||
| 2026-02-24T23:50 | 3890 | 632 | 213 | 18 | ||
| 2026-02-24T23:51 | 4061 | 618 | 214 | 19 | ||
| 2026-02-24T23:52 | 4229 | 605 | 210 | 19 | ||
| 2026-02-24T23:53 | 4391 | 592 | 205 | 19 | ||
| 2026-02-24T23:54 | 4466 | 587 | -10.2 | -10.7 | ||
| 2026-02-24T23:54 | 4556 | 580 | 209 | 20 | ||
| 2026-02-24T23:55 | 4735 | 567 | 208 | 19 | ||
| 2026-02-24T23:55 | 4741 | 566 | -11.5 | -12.1 | ||
| 2026-02-24T23:56 | 4911 | 554 | 207 | 22 | ||
| 2026-02-24T23:57 | 5111 | 539 | 208 | 23 | ||
| 2026-02-24T23:58 | 5340 | 523 | 209 | 24 | ||
| 2026-02-24T23:59 | 5482 | 514 | -16.1 | -16.6 | ||
| 2026-02-24T23:59 | 5578 | 507 | 210 | 23 | ||
| 2026-02-25T00:00 | 5811 | 492 | 216 | 23 | ||
| 2026-02-25T00:01 | 6037 | 477 | 218 | 23 | ||
| 2026-02-25T00:02 | 6135 | 471 | -20.6 | -21.2 | ||
| 2026-02-25T00:02 | 6260 | 463 | 223 | 26 | ||
| 2026-02-25T00:03 | 6505 | 448 | 229 | 28 | ||
| 2026-02-25T00:04 | 6749 | 433 | 230 | 29 | ||
| 2026-02-25T00:05 | 6827 | 429 | -25.1 | -26.0 | ||
| 2026-02-25T00:05 | 6991 | 419 | 236 | 28 | ||
| 2026-02-25T00:06 | 7223 | 406 | 238 | 29 | ||
| 2026-02-25T00:07 | 7357 | 398 | -29.0 | -30.0 | ||
| 2026-02-25T00:07 | 7460 | 393 | 234 | 30 | ||
| 2026-02-25T00:08 | 7699 | 380 | 236 | 31 | ||
| 2026-02-25T00:09 | 7801 | 374 | -32.3 | -33.7 | ||
| 2026-02-25T00:09 | 7958 | 366 | 245 | 31 | ||
| 2026-02-25T00:10 | 8216 | 353 | 250 | 30 | ||
| 2026-02-25T00:11 | 8328 | 347 | -36.8 | -37.8 | ||
| 2026-02-25T00:11 | 8455 | 341 | 254 | 29 | ||
| 2026-02-25T00:12 | 8681 | 329 | -40.0 | -41.2 | 256 | 29 |
| 2026-02-25T00:13 | 8926 | 318 | 253 | 29 | ||
| 2026-02-25T00:14 | 9180 | 306 | 253 | 28 | ||
| 2026-02-25T00:14 | 9219 | 304 | -44.5 | |||
| 2026-02-25T00:15 | 9438 | 294 | 253 | 31 | ||
| 2026-02-25T00:16 | 9543 | 290 | -46.9 | |||
| 2026-02-25T00:16 | 9692 | 283 | 252 | 32 | ||
| 2026-02-25T00:17 | 9958 | 272 | 252 | 35 | ||
| 2026-02-25T00:18 | 10231 | 261 | 251 | 35 | ||
| 2026-02-25T00:19 | 10492 | 250 | -55.4 | |||
| 2026-02-25T00:19 | 10501 | 250 | 251 | 35 | ||
| 2026-02-25T00:20 | 10777 | 239 | 249 | 37 | ||
| 2026-02-25T00:21 | 11038 | 230 | 252 | 42 | ||
| 2026-02-25T00:22 | 11292 | 220 | 255 | 45 | ||
| 2026-02-25T00:23 | 11468 | 214 | -63.8 | |||
| 2026-02-25T00:23 | 11512 | 213 | 259 | 49 | ||
| 2026-02-25T00:23 | 11567 | 211 | -61.1 | |||
| 2026-02-25T00:24 | 11725 | 205 | -59.4 | |||
| 2026-02-25T00:24 | 11728 | 205 | 269 | 44 | ||
| 2026-02-25T00:25 | 11867 | 201 | -59.6 | |||
| 2026-02-25T00:25 | 11923 | 199 | 269 | 42 | ||
| 2026-02-25T00:26 | 12021 | 196 | -58.5 | |||
| 2026-02-25T00:26 | 12070 | 194 | 269 | 48 | ||
| 2026-02-25T00:27 | 12195 | 191 | 272 | 48 | ||
| 2026-02-25T00:27 | 12218 | 190 | -57.6 | |||
| 2026-02-25T00:27 | 12325 | 187 | -56.8 | |||
| 2026-02-25T00:28 | 12390 | 185 | 278 | 50 | ||
| 2026-02-25T00:29 | 12563 | 180 | 278 | 51 | ||
| 2026-02-25T00:29 | 12609 | 179 | -56.9 | |||
| 2026-02-25T00:30 | 12750 | 175 | 279 | 51 | ||
| 2026-02-25T00:30 | 12856 | 172 | 279 | 49 | ||
| 2026-02-25T00:31 | 13035 | 167 | 281 | 49 | ||
| 2026-02-25T00:31 | 13063 | 166 | -56.2 | |||
| 2026-02-25T00:32 | 13217 | 162 | 285 | 48 | ||
| 2026-02-25T00:33 | 13391 | 158 | 285 | 45 | ||
| 2026-02-25T00:34 | 13575 | 153 | 283 | 42 | ||
| 2026-02-25T00:35 | 13754 | 149 | 282 | 40 | ||
| 2026-02-25T00:35 | 13787 | 148 | -57.6 | |||
| 2026-02-25T00:36 | 13925 | 145 | 279 | 39 | ||
| 2026-02-25T00:37 | 14094 | 141 | 280 | 43 | ||
| 2026-02-25T00:38 | 14262 | 138 | 281 | 43 | ||
| 2026-02-25T00:39 | 14430 | 134 | -59.0 | |||
| 2026-02-25T00:39 | 14443 | 134 | 284 | 38 | ||
| 2026-02-25T00:40 | 14632 | 130 | 287 | 39 | ||
| 2026-02-25T00:41 | 14818 | 126 | 285 | 36 | ||
| 2026-02-25T00:41 | 14844 | 125 | -60.6 | |||
| 2026-02-25T00:42 | 14990 | 123 | 284 | 33 | ||
| 2026-02-25T00:43 | 15077 | 121 | -60.6 | |||
| 2026-02-25T00:43 | 15094 | 121 | 284 | 32 | ||
| 2026-02-25T00:44 | 15262 | 117 | 280 | 28 | ||
| 2026-02-25T00:45 | 15433 | 114 | 271 | 28 | ||
| 2026-02-25T00:46 | 15587 | 111 | -63.2 | |||
| 2026-02-25T00:46 | 15620 | 111 | 271 | 29 | ||
| 2026-02-25T00:46 | 15721 | 109 | -62.6 | |||
| 2026-02-25T00:47 | 15822 | 107 | 286 | 27 | ||
| 2026-02-25T00:48 | 16025 | 104 | 275 | 25 | ||
| 2026-02-25T00:48 | 16156 | 101 | 271 | 24 | ||
| 2026-02-25T00:49 | 16212 | 101 | -64.0 | |||
| 2026-02-25T00:49 | 16340 | 98 | 259 | 23 | ||
| 2026-02-25T00:50 | 16513 | 96 | 260 | 30 | ||
| 2026-02-25T00:51 | 16694 | 93 | 266 | 32 | ||
| 2026-02-25T00:52 | 16860 | 90 | -64.4 | |||
| 2026-02-25T00:52 | 16879 | 90 | 275 | 34 | ||
| 2026-02-25T00:53 | 17033 | 88 | 281 | 30 | ||
| 2026-02-25T00:54 | 17089 | 87 | -63.5 | |||
| 2026-02-25T00:54 | 17229 | 85 | 289 | 29 | ||
| 2026-02-25T00:55 | 17273 | 84 | -63.3 | |||
| 2026-02-25T00:55 | 17430 | 82 | 303 | 22 | ||
| 2026-02-25T00:55 | 17461 | 82 | -62.4 | |||
| 2026-02-25T00:56 | 17617 | 80 | 302 | 16 | ||
| 2026-02-25T00:57 | 17812 | 77 | 294 | 13 | ||
| 2026-02-25T00:58 | 17996 | 75 | -64.7 | |||
| 2026-02-25T00:58 | 18005 | 75 | 284 | 14 | ||
| 2026-02-25T00:59 | 18162 | 73 | 287 | 13 | ||
| 2026-02-25T01:00 | 18220 | 72 | -64.0 | |||
| 2026-02-25T01:00 | 18331 | 71 | 276 | 13 | ||
| 2026-02-25T01:01 | 18506 | 69 | 268 | 18 | ||
| 2026-02-25T01:02 | 18651 | 67 | -64.2 | |||
| 2026-02-25T01:02 | 18698 | 67 | 275 | 21 | ||
| 2026-02-25T01:03 | 18761 | 66 | -61.8 | |||
| 2026-02-25T01:03 | 18884 | 65 | 297 | 19 | ||
| 2026-02-25T01:04 | 18970 | 64 | -60.3 | |||
| 2026-02-25T01:04 | 19080 | 63 | 315 | 17 | ||
| 2026-02-25T01:05 | 19273 | 61 | -59.6 | 341 | 10 | |
| 2026-02-25T01:06 | 19461 | 59 | 1 | 4 | ||
| 2026-02-25T01:07 | 19525 | 59 | -59.6 | |||
| 2026-02-25T01:07 | 19600 | 58 | 21 | 2 | ||
| 2026-02-25T01:07 | 19622 | 58 | -59.7 | |||
| 2026-02-25T01:08 | 19742 | 57 | -56.9 | |||
| 2026-02-25T01:08 | 19764 | 56 | 282 | 3 | ||
| 2026-02-25T01:08 | 19832 | 56 | 280 | 4 | ||
| 2026-02-25T01:09 | 19956 | 55 | 220 | 6 | ||
| 2026-02-25T01:10 | 20131 | 53 | 207 | 9 | ||
| 2026-02-25T01:11 | 20324 | 52 | 225 | 7 | ||
| 2026-02-25T01:12 | 20470 | 50 | 230 | 5 | ||
| 2026-02-25T01:12 | 20533 | 50 | -58.1 | |||
| 2026-02-25T01:13 | 20622 | 49 | 289 | 4 | ||
| 2026-02-25T01:14 | 20812 | 48 | 301 | 5 | ||
| 2026-02-25T01:14 | 20933 | 47 | 321 | 5 | ||
| 2026-02-25T01:15 | 21053 | 46 | 314 | 6 | ||
| 2026-02-25T01:15 | 21180 | 45 | 11 | 3 | ||
| 2026-02-25T01:17 | 21392 | 44 | 9 | 7 | ||
| 2026-02-25T01:17 | 21436 | 43 | -59.2 | |||
| 2026-02-25T01:17 | 21552 | 42 | -57.8 | |||
| 2026-02-25T01:18 | 21597 | 42 | 38 | 4 | ||
| 2026-02-25T01:19 | 21814 | 41 | 73 | 4 | ||
| 2026-02-25T01:19 | 21891 | 40 | 111 | 4 | ||
| 2026-02-25T01:20 | 22083 | 39 | 66 | 4 | ||
| 2026-02-25T01:21 | 22213 | 38 | 68 | 6 | ||
| 2026-02-25T01:21 | 22230 | 38 | -58.2 | |||
| 2026-02-25T01:22 | 22432 | 37 | 88 | 6 | ||
| 2026-02-25T01:22 | 22467 | 37 | -57.6 | |||
| 2026-02-25T01:22 | 22537 | 36 | 92 | 3 | ||
| 2026-02-25T01:22 | 22590 | 36 | 118 | 3 | ||
| 2026-02-25T01:23 | 22749 | 35 | 103 | 6 | ||
| 2026-02-25T01:24 | 22895 | 34 | 109 | 9 | ||
| 2026-02-25T01:25 | 23123 | 33 | 141 | 2 | ||
| 2026-02-25T01:25 | 23242 | 33 | 82 | 3 | ||
| 2026-02-25T01:26 | 23456 | 31 | -57.9 | |||
| 2026-02-25T01:26 | 23476 | 31 | 113 | 8 | ||
| 2026-02-25T01:27 | 23700 | 30 | 156 | 4 | ||
| 2026-02-25T01:28 | 23785 | 30 | 197 | 4 | ||
| 2026-02-25T01:28 | 23872 | 29 | 175 | 3 | ||
| 2026-02-25T01:29 | 23982 | 29 | 224 | 2 | ||
| 2026-02-25T01:30 | 24226 | 28 | 229 | 1 | ||
| 2026-02-25T01:31 | 24462 | 27 | 49 | 3 | ||
| 2026-02-25T01:31 | 24531 | 27 | -56.6 | |||
| 2026-02-25T01:31 | 24581 | 26 | 31 | 3 | ||
| 2026-02-25T01:32 | 24727 | 26 | 85 | 4 | ||
| 2026-02-25T01:32 | 24829 | 25 | 64 | 4 | ||
| 2026-02-25T01:33 | 24954 | 25 | 84 | 4 | ||
| 2026-02-25T01:34 | 25086 | 24 | 36 | 6 | ||
| 2026-02-25T01:34 | 25112 | 24 | -56.1 | |||
| 2026-02-25T01:34 | 25325 | 23 | 70 | 9 | ||
| 2026-02-25T01:36 | 25576 | 23 | 73 | 9 | ||
| 2026-02-25T01:37 | 25836 | 22 | 71 | 10 | ||
| 2026-02-25T01:37 | 26047 | 21 | 88 | 6 | ||
| 2026-02-25T01:38 | 26264 | 20 | 79 | 7 | ||
| 2026-02-25T01:39 | 26358 | 20 | -56.4 | |||
| 2026-02-25T01:39 | 26518 | 19 | 102 | 11 | ||
| 2026-02-25T01:40 | 26755 | 19 | 105 | 13 | ||
| 2026-02-25T01:41 | 26998 | 18 | 102 | 11 | ||
| 2026-02-25T01:42 | 27251 | 17 | 96 | 11 | ||
| 2026-02-25T01:43 | 27480 | 17 | 110 | 10 | ||
| 2026-02-25T01:44 | 27518 | 17 | -52.6 | |||
| 2026-02-25T01:45 | 27755 | 16 | 94 | 7 | ||
| 2026-02-25T01:46 | 28005 | 15 | -52.0 | 119 | 8 | |
| 2026-02-25T01:47 | 28307 | 15 | 96 | 9 | ||
| 2026-02-25T01:48 | 28577 | 14 | 110 | 7 | ||
| 2026-02-25T01:48 | 28669 | 14 | 119 | 7 | ||
| 2026-02-25T01:49 | 28790 | 14 | -52.1 | 98 | 8 | |
| 2026-02-25T11:33 | 26 | 1020 | 5.6 | 5.0 | 20 | 2 |
| 2026-02-25T11:33 | 31 | 1019 | 6.0 | 5.0 | 0 | 0 |
| 2026-02-25T11:33 | 55 | 1016 | 68 | 3 | ||
| 2026-02-25T11:33 | 126 | 1007 | 29 | 5 | ||
| 2026-02-25T11:34 | 200 | 998 | 4.8 | 3.3 | ||
| 2026-02-25T11:34 | 256 | 991 | 21 | 10 | ||
| 2026-02-25T11:35 | 554 | 956 | 33 | 16 | ||
| 2026-02-25T11:35 | 590 | 952 | 2.1 | 1.8 | ||
| 2026-02-25T11:36 | 793 | 928 | 1.7 | 1.3 | ||
| 2026-02-25T11:36 | 858 | 920 | 60 | 21 | ||
| 2026-02-25T11:36 | 883 | 918 | 2.6 | 1.7 | ||
| 2026-02-25T11:36 | 962 | 909 | 3.6 | 2.7 | ||
| 2026-02-25T11:36 | 1047 | 899 | 4.5 | 3.8 | ||
| 2026-02-25T11:37 | 1160 | 887 | 83 | 13 | ||
| 2026-02-25T11:37 | 1348 | 867 | 4.7 | 4.4 | ||
| 2026-02-25T11:38 | 1412 | 860 | 87 | 4 | ||
| 2026-02-25T11:38 | 1587 | 841 | 58 | 3 | ||
| 2026-02-25T11:38 | 1658 | 834 | 45 | 3 | ||
| 2026-02-25T11:39 | 1791 | 821 | 101 | 2 | ||
| 2026-02-25T11:39 | 1884 | 811 | 2.2 | 1.6 | ||
| 2026-02-25T11:39 | 1912 | 808 | 8 | 3 | ||
| 2026-02-25T11:40 | 1961 | 803 | 9 | 2 | ||
| 2026-02-25T11:40 | 2005 | 799 | 95 | 3 | ||
| 2026-02-25T11:40 | 2109 | 789 | 62 | 2 | ||
| 2026-02-25T11:41 | 2224 | 778 | 0.0 | -0.6 | ||
| 2026-02-25T11:41 | 2232 | 777 | 170 | 3 | ||
| 2026-02-25T11:41 | 2314 | 769 | 81 | 5 | ||
| 2026-02-25T11:41 | 2383 | 762 | 81 | 3 | ||
| 2026-02-25T11:41 | 2445 | 756 | 86 | 2 | ||
| 2026-02-25T11:42 | 2599 | 742 | -0.5 | -0.9 | ||
| 2026-02-25T11:42 | 2608 | 741 | 69 | 3 | ||
| 2026-02-25T11:42 | 2741 | 729 | 36 | 1 | ||
| 2026-02-25T11:43 | 2893 | 715 | 340 | 3 | ||
| 2026-02-25T11:44 | 3024 | 703 | 305 | 2 | ||
| 2026-02-25T11:44 | 3113 | 696 | 306 | 3 | ||
| 2026-02-25T11:44 | 3167 | 691 | 318 | 3 | ||
| 2026-02-25T11:44 | 3221 | 686 | 340 | 4 | ||
| 2026-02-25T11:45 | 3303 | 679 | 285 | 4 | ||
| 2026-02-25T11:45 | 3400 | 671 | 314 | 4 | ||
| 2026-02-25T11:45 | 3516 | 661 | -4.9 | -5.9 | ||
| 2026-02-25T11:46 | 3568 | 657 | 256 | 4 | ||
| 2026-02-25T11:46 | 3652 | 650 | 223 | 3 | ||
| 2026-02-25T11:46 | 3747 | 642 | 219 | 3 | ||
| 2026-02-25T11:47 | 3845 | 634 | 245 | 3 | ||
| 2026-02-25T11:47 | 3905 | 629 | 280 | 6 | ||
| 2026-02-25T11:47 | 4124 | 612 | 283 | 5 | ||
| 2026-02-25T11:48 | 4218 | 604 | -8.5 | -9.8 | ||
| 2026-02-25T11:48 | 4350 | 594 | 280 | 3 | ||
| 2026-02-25T11:49 | 4434 | 587 | -9.3 | -10.8 | ||
| 2026-02-25T11:49 | 4453 | 586 | 262 | 6 | ||
| 2026-02-25T11:49 | 4659 | 570 | 262 | 8 | ||
| 2026-02-25T11:50 | 4893 | 553 | 273 | 8 | ||
| 2026-02-25T11:50 | 4985 | 547 | 276 | 6 | ||
| 2026-02-25T11:51 | 5058 | 541 | -12.9 | -14.3 | 281 | 10 |
| 2026-02-25T11:51 | 5146 | 535 | 275 | 7 | ||
| 2026-02-25T11:51 | 5216 | 530 | 301 | 8 | ||
| 2026-02-25T11:52 | 5335 | 522 | 285 | 9 | ||
| 2026-02-25T11:52 | 5467 | 513 | 275 | 8 | ||
| 2026-02-25T11:53 | 5806 | 490 | 266 | 6 | ||
| 2026-02-25T11:54 | 6044 | 475 | 241 | 5 | ||
| 2026-02-25T11:54 | 6125 | 470 | 231 | 5 | ||
| 2026-02-25T11:54 | 6259 | 461 | 239 | 11 | ||
| 2026-02-25T11:55 | 6374 | 454 | 226 | 12 | ||
| 2026-02-25T11:55 | 6493 | 447 | 235 | 13 | ||
| 2026-02-25T11:56 | 6651 | 437 | -23.3 | -25.5 | ||
| 2026-02-25T11:56 | 6835 | 427 | 232 | 17 | ||
| 2026-02-25T11:57 | 7165 | 407 | 235 | 18 | ||
| 2026-02-25T11:58 | 7340 | 398 | 246 | 21 | ||
| 2026-02-25T11:58 | 7512 | 388 | -29.9 | -32.1 | ||
| 2026-02-25T11:59 | 7666 | 380 | 255 | 22 | ||
| 2026-02-25T12:00 | 7987 | 363 | 256 | 23 | ||
| 2026-02-25T12:01 | 8314 | 346 | 253 | 24 | ||
| 2026-02-25T12:02 | 8636 | 331 | 245 | 25 | ||
| 2026-02-25T12:02 | 8749 | 325 | -40.0 | -42.6 | ||
| 2026-02-25T12:03 | 8948 | 316 | 241 | 28 | ||
| 2026-02-25T12:03 | 9149 | 306 | 236 | 28 | ||
| 2026-02-25T12:04 | 9458 | 293 | 232 | 30 | ||
| 2026-02-25T12:05 | 9658 | 284 | -47.9 | |||
| 2026-02-25T12:05 | 9731 | 281 | 234 | 32 | ||
| 2026-02-25T12:06 | 10048 | 267 | 233 | 34 | ||
| 2026-02-25T12:07 | 10364 | 255 | 229 | 39 | ||
| 2026-02-25T12:08 | 10683 | 242 | 225 | 42 | ||
| 2026-02-25T12:09 | 10841 | 236 | 224 | 44 | ||
| 2026-02-25T12:09 | 10994 | 231 | -59.7 | |||
| 2026-02-25T12:10 | 11191 | 223 | 224 | 47 | ||
| 2026-02-25T12:11 | 11538 | 211 | -63.8 | |||
| 2026-02-25T12:11 | 11550 | 211 | 226 | 49 | ||
| 2026-02-25T12:11 | 11655 | 207 | -61.8 | |||
| 2026-02-25T12:11 | 11722 | 205 | 237 | 49 | ||
| 2026-02-25T12:12 | 12032 | 195 | -61.9 | |||
| 2026-02-25T12:12 | 12088 | 193 | 256 | 41 | ||
| 2026-02-25T12:12 | 12113 | 192 | -60.1 | |||
| 2026-02-25T12:13 | 12278 | 187 | -59.2 | |||
| 2026-02-25T12:13 | 12426 | 183 | 263 | 43 | ||
| 2026-02-25T12:13 | 12479 | 181 | -59.1 | |||
| 2026-02-25T12:14 | 12639 | 177 | 268 | 41 | ||
| 2026-02-25T12:15 | 12991 | 167 | 275 | 44 | ||
| 2026-02-25T12:15 | 13154 | 163 | -57.9 | |||
| 2026-02-25T12:16 | 13331 | 158 | 276 | 45 | ||
| 2026-02-25T12:17 | 13574 | 152 | -57.7 | |||
| 2026-02-25T12:17 | 13605 | 152 | 278 | 46 | ||
| 2026-02-25T12:18 | 13790 | 147 | 278 | 45 | ||
| 2026-02-25T12:19 | 13939 | 144 | 278 | 45 | ||
| 2026-02-25T12:20 | 14054 | 141 | 278 | 47 | ||
| 2026-02-25T12:21 | 14139 | 139 | 281 | 48 | ||
| 2026-02-25T12:21 | 14172 | 139 | -59.4 | 281 | 48 | |
| 2026-02-25T23:33 | 26 | 1018 | 7.7 | 4.8 | 330 | 2 |
| 2026-02-25T23:33 | 31 | 1018 | 7.6 | 4.6 | 21 | 1 |
| 2026-02-25T23:33 | 41 | 1017 | 37 | 3 | ||
| 2026-02-25T23:33 | 51 | 1015 | 7 | 4 | ||
| 2026-02-25T23:33 | 66 | 1014 | 317 | 5 | ||
| 2026-02-25T23:33 | 88 | 1011 | 6.7 | 3.8 | ||
| 2026-02-25T23:33 | 120 | 1007 | 319 | 2 | ||
| 2026-02-25T23:34 | 190 | 998 | 7 | 3 | ||
| 2026-02-25T23:34 | 388 | 975 | 4.4 | 2.9 | ||
| 2026-02-25T23:35 | 510 | 960 | 35 | 11 | ||
| 2026-02-25T23:35 | 533 | 957 | 3.7 | 2.7 | ||
| 2026-02-25T23:35 | 610 | 948 | 39 | 12 | ||
| 2026-02-25T23:35 | 636 | 945 | 2.6 | 2.3 | ||
| 2026-02-25T23:35 | 770 | 930 | 2.9 | 2.6 | ||
| 2026-02-25T23:36 | 822 | 924 | 3.4 | 3.1 | ||
| 2026-02-25T23:36 | 848 | 921 | 3.9 | 3.5 | ||
| 2026-02-25T23:36 | 892 | 916 | 59 | 20 | ||
| 2026-02-25T23:36 | 919 | 913 | 3.9 | 3.8 | ||
| 2026-02-25T23:36 | 1089 | 894 | 3.3 | 3.0 | ||
| 2026-02-25T23:36 | 1111 | 891 | 68 | 17 | ||
| 2026-02-25T23:37 | 1160 | 886 | 4.7 | 4.0 | ||
| 2026-02-25T23:37 | 1274 | 874 | 65 | 9 | ||
| 2026-02-25T23:37 | 1407 | 860 | 4.6 | 2.9 | ||
| 2026-02-25T23:38 | 1592 | 840 | 17 | 7 | ||
| 2026-02-25T23:38 | 1774 | 822 | 2.5 | 0.7 | ||
| 2026-02-25T23:39 | 1956 | 803 | 19 | 8 | ||
| 2026-02-25T23:39 | 2155 | 784 | -0.5 | -0.9 | ||
| 2026-02-25T23:40 | 2176 | 781 | 22 | 8 | ||
| 2026-02-25T23:40 | 2330 | 767 | 31 | 6 | ||
| 2026-02-25T23:40 | 2494 | 751 | 22 | 10 | ||
| 2026-02-25T23:41 | 2517 | 749 | 0.5 | -2.7 | ||
| 2026-02-25T23:41 | 2564 | 745 | 0.9 | -3.2 | ||
| 2026-02-25T23:41 | 2705 | 732 | 0.2 | -4.3 | ||
| 2026-02-25T23:41 | 2844 | 719 | 34 | 8 | ||
| 2026-02-25T23:42 | 2896 | 714 | -0.4 | -7.7 | ||
| 2026-02-25T23:42 | 2982 | 707 | -0.5 | -9.2 | ||
| 2026-02-25T23:42 | 3029 | 702 | -0.6 | -9.2 | ||
| 2026-02-25T23:42 | 3047 | 701 | 58 | 6 | ||
| 2026-02-25T23:42 | 3149 | 692 | -1.4 | -11.0 | ||
| 2026-02-25T23:42 | 3189 | 688 | 43 | 6 | ||
| 2026-02-25T23:43 | 3264 | 682 | -1.3 | -22.6 | ||
| 2026-02-25T23:43 | 3384 | 672 | 53 | 9 | ||
| 2026-02-25T23:43 | 3395 | 671 | -1.2 | -38.4 | ||
| 2026-02-25T23:44 | 3550 | 658 | 33 | 8 | ||
| 2026-02-25T23:44 | 3640 | 650 | 47 | 9 | ||
| 2026-02-25T23:44 | 3661 | 649 | -2.4 | -51.8 | ||
| 2026-02-25T23:44 | 3785 | 639 | 35 | 9 | ||
| 2026-02-25T23:45 | 3940 | 626 | 30 | 7 | ||
| 2026-02-25T23:46 | 4180 | 607 | -6.6 | -40.1 | 15 | 9 |
| 2026-02-25T23:47 | 4523 | 581 | 8 | 7 | ||
| 2026-02-25T23:48 | 4881 | 555 | 344 | 8 | ||
| 2026-02-25T23:48 | 5131 | 537 | 347 | 8 | ||
| 2026-02-25T23:48 | 5198 | 532 | -14.6 | -50.6 | ||
| 2026-02-25T23:49 | 5504 | 511 | 342 | 7 | ||
| 2026-02-25T23:50 | 5859 | 487 | 351 | 9 | ||
| 2026-02-25T23:51 | 6171 | 467 | -23.3 | -52.6 | 349 | 12 |
| 2026-02-25T23:52 | 6316 | 458 | -23.9 | -54.9 | ||
| 2026-02-25T23:52 | 6386 | 453 | 327 | 12 | ||
| 2026-02-25T23:52 | 6557 | 443 | -25.6 | -54.3 | ||
| 2026-02-25T23:53 | 6717 | 433 | -26.8 | -53.7 | ||
| 2026-02-25T23:53 | 6723 | 433 | 323 | 11 | ||
| 2026-02-25T23:53 | 6850 | 425 | 301 | 8 | ||
| 2026-02-25T23:53 | 6938 | 420 | -27.8 | -56.0 | ||
| 2026-02-25T23:54 | 6982 | 417 | 312 | 11 | ||
| 2026-02-25T23:54 | 7297 | 399 | 302 | 11 | ||
| 2026-02-25T23:55 | 7603 | 382 | 293 | 13 | ||
| 2026-02-25T23:56 | 7779 | 373 | 296 | 11 | ||
| 2026-02-25T23:56 | 7922 | 365 | -36.2 | -56.9 | ||
| 2026-02-25T23:57 | 8104 | 356 | 299 | 11 | ||
| 2026-02-25T23:58 | 8415 | 340 | -40.0 | -60.0 | ||
| 2026-02-25T23:58 | 8455 | 338 | 288 | 9 | ||
| 2026-02-25T23:58 | 8638 | 329 | 297 | 9 | ||
| 2026-02-25T23:59 | 8811 | 321 | 284 | 10 | ||
| 2026-02-26T00:00 | 9079 | 308 | -45.3 | |||
| 2026-02-26T00:00 | 9179 | 304 | 275 | 9 | ||
| 2026-02-26T00:01 | 9454 | 291 | 286 | 14 | ||
| 2026-02-26T00:01 | 9787 | 277 | 282 | 13 | ||
| 2026-02-26T00:02 | 10005 | 268 | 281 | 17 | ||
| 2026-02-26T00:02 | 10023 | 267 | -52.3 | |||
| 2026-02-26T00:03 | 10358 | 253 | -53.8 | |||
| 2026-02-26T00:03 | 10370 | 253 | 292 | 18 | ||
| 2026-02-26T00:03 | 10500 | 248 | 291 | 19 | ||
| 2026-02-26T00:03 | 10517 | 247 | -53.8 | |||
| 2026-02-26T00:04 | 10816 | 236 | 289 | 21 | ||
| 2026-02-26T00:05 | 10971 | 230 | -55.4 | |||
| 2026-02-26T00:05 | 11186 | 223 | 289 | 21 | ||
| 2026-02-26T00:06 | 11435 | 214 | 277 | 18 | ||
| 2026-02-26T00:06 | 11640 | 207 | -57.6 | |||
| 2026-02-26T00:07 | 11658 | 207 | 297 | 24 | ||
| 2026-02-26T00:08 | 12014 | 195 | -57.6 | |||
| 2026-02-26T00:08 | 12020 | 195 | 286 | 26 | ||
| 2026-02-26T00:08 | 12196 | 190 | -56.2 | |||
| 2026-02-26T00:08 | 12246 | 188 | 294 | 30 | ||
| 2026-02-26T00:09 | 12476 | 182 | -55.4 | |||
| 2026-02-26T00:09 | 12630 | 177 | 285 | 37 | ||
| 2026-02-26T00:09 | 12662 | 176 | -54.7 | |||
| 2026-02-26T00:10 | 12873 | 171 | -54.7 | |||
| 2026-02-26T00:10 | 12982 | 168 | 294 | 36 | ||
| 2026-02-26T00:11 | 13111 | 164 | -54.2 | |||
| 2026-02-26T00:11 | 13331 | 159 | 296 | 37 | ||
| 2026-02-26T00:12 | 13610 | 152 | -55.7 | |||
| 2026-02-26T00:12 | 13668 | 151 | 295 | 36 | ||
| 2026-02-26T00:13 | 13975 | 144 | 290 | 36 | ||
| 2026-02-26T00:13 | 14063 | 142 | -57.9 | |||
| 2026-02-26T00:14 | 14214 | 138 | 294 | 34 | ||
| 2026-02-26T00:15 | 14498 | 132 | 290 | 34 | ||
| 2026-02-26T00:15 | 14538 | 131 | -59.2 | |||
| 2026-02-26T00:16 | 14797 | 126 | 290 | 35 | ||
| 2026-02-26T00:16 | 14832 | 125 | -60.4 | |||
| 2026-02-26T00:16 | 15043 | 121 | -61.0 | |||
| 2026-02-26T00:17 | 15107 | 120 | 293 | 32 | ||
| 2026-02-26T00:18 | 15433 | 114 | 290 | 30 | ||
| 2026-02-26T00:18 | 15550 | 112 | -62.6 | |||
| 2026-02-26T00:18 | 15659 | 110 | 275 | 30 | ||
| 2026-02-26T00:19 | 15849 | 106 | -62.6 | |||
| 2026-02-26T00:19 | 15929 | 105 | 278 | 33 | ||
| 2026-02-26T00:20 | 16059 | 103 | -63.0 | |||
| 2026-02-26T00:20 | 16175 | 101 | -62.5 | |||
| 2026-02-26T00:20 | 16218 | 100 | 285 | 35 | ||
| 2026-02-26T00:21 | 16372 | 98 | 289 | 31 | ||
| 2026-02-26T00:21 | 16546 | 95 | 290 | 30 | ||
| 2026-02-26T00:21 | 16559 | 95 | -62.2 | |||
| 2026-02-26T00:22 | 16784 | 91 | 288 | 24 | ||
| 2026-02-26T00:23 | 17102 | 87 | 281 | 29 | ||
| 2026-02-26T00:23 | 17244 | 85 | -63.1 | |||
| 2026-02-26T00:23 | 17265 | 84 | 291 | 28 | ||
| 2026-02-26T00:24 | 17371 | 83 | -61.6 | |||
| 2026-02-26T00:24 | 17620 | 80 | 291 | 16 | ||
| 2026-02-26T00:25 | 17833 | 77 | -62.9 | |||
| 2026-02-26T00:25 | 17906 | 76 | 281 | 15 | ||
| 2026-02-26T00:26 | 18235 | 72 | 270 | 20 | ||
| 2026-02-26T00:27 | 18296 | 71 | -62.8 | |||
| 2026-02-26T00:27 | 18437 | 70 | 289 | 17 | ||
| 2026-02-26T00:27 | 18533 | 69 | 295 | 13 | ||
| 2026-02-26T00:28 | 18691 | 67 | -60.4 | |||
| 2026-02-26T00:28 | 18842 | 65 | 305 | 16 | ||
| 2026-02-26T00:29 | 19073 | 63 | -62.0 | |||
| 2026-02-26T00:29 | 19100 | 63 | 300 | 19 | ||
| 2026-02-26T00:30 | 19429 | 60 | 327 | 10 | ||
| 2026-02-26T00:31 | 19583 | 58 | -61.8 | |||
| 2026-02-26T00:31 | 19769 | 56 | 319 | 5 | ||
| 2026-02-26T00:31 | 19778 | 56 | -62.6 | |||
| 2026-02-26T00:32 | 19934 | 55 | 298 | 3 | ||
| 2026-02-26T00:32 | 20150 | 53 | 267 | 8 | ||
| 2026-02-26T00:32 | 20173 | 53 | -61.4 | |||
| 2026-02-26T00:33 | 20258 | 52 | -59.3 | |||
| 2026-02-26T00:33 | 20404 | 51 | 313 | 5 | ||
| 2026-02-26T00:33 | 20464 | 50 | -57.8 | |||
| 2026-02-26T00:33 | 20578 | 49 | 6 | 3 | ||
| 2026-02-26T00:34 | 20679 | 49 | 341 | 1 | ||
| 2026-02-26T00:35 | 20986 | 46 | 311 | 4 | ||
| 2026-02-26T00:35 | 20998 | 46 | -59.6 | |||
| 2026-02-26T00:35 | 21148 | 45 | 317 | 4 | ||
| 2026-02-26T00:36 | 21373 | 44 | -59.2 | |||
| 2026-02-26T00:36 | 21459 | 43 | 48 | 5 | ||
| 2026-02-26T00:37 | 21775 | 41 | -59.4 | 135 | 5 | |
| 2026-02-26T00:37 | 22009 | 39 | 194 | 4 | ||
| 2026-02-26T00:38 | 22140 | 39 | 235 | 2 | ||
| 2026-02-26T00:39 | 22508 | 36 | 280 | 1 | ||
| 2026-02-26T00:40 | 22796 | 35 | 191 | 3 | ||
| 2026-02-26T00:40 | 22888 | 34 | 235 | 1 | ||
| 2026-02-26T00:40 | 22945 | 34 | -57.4 | |||
| 2026-02-26T00:40 | 22980 | 34 | 9 | 3 | ||
| 2026-02-26T00:41 | 23305 | 32 | 39 | 2 | ||
| 2026-02-26T00:41 | 23467 | 31 | 331 | 3 | ||
| 2026-02-26T00:42 | 23671 | 30 | 14 | 4 | ||
| 2026-02-26T00:42 | 23798 | 30 | 17 | 4 | ||
| 2026-02-26T00:43 | 23950 | 29 | 32 | 6 | ||
| 2026-02-26T00:44 | 24352 | 27 | 54 | 7 | ||
| 2026-02-26T00:44 | 24566 | 26 | 47 | 9 | ||
| 2026-02-26T00:45 | 24735 | 26 | 71 | 8 | ||
| 2026-02-26T00:45 | 24888 | 25 | -58.3 | 63 | 6 | |
| 2026-02-26T00:46 | 25118 | 24 | 110 | 6 | ||
| 2026-02-26T00:46 | 25330 | 23 | 102 | 5 | ||
| 2026-02-26T00:47 | 25494 | 23 | 138 | 6 | ||
| 2026-02-26T00:47 | 25694 | 22 | 94 | 8 | ||
| 2026-02-26T00:48 | 25963 | 21 | 94 | 10 | ||
| 2026-02-26T00:48 | 26144 | 20 | -57.1 | |||
| 2026-02-26T00:49 | 26330 | 20 | 103 | 7 | ||
| 2026-02-26T00:50 | 26693 | 19 | 114 | 8 | ||
| 2026-02-26T00:50 | 26868 | 18 | 94 | 7 | ||
| 2026-02-26T00:51 | 27084 | 18 | 116 | 11 | ||
| 2026-02-26T00:51 | 27155 | 17 | -54.5 | |||
| 2026-02-26T00:51 | 27306 | 17 | 113 | 9 | ||
| 2026-02-26T00:52 | 27575 | 16 | 26 | 3 | ||
| 2026-02-26T00:52 | 27654 | 16 | 34 | 3 | ||
| 2026-02-26T00:52 | 27694 | 16 | -53.6 | |||
| 2026-02-26T00:52 | 27776 | 16 | 110 | 4 | ||
| 2026-02-26T00:53 | 27856 | 16 | 108 | 3 | ||
| 2026-02-26T00:53 | 27982 | 15 | 48 | 3 | ||
| 2026-02-26T00:54 | 28241 | 15 | 91 | 5 | ||
| 2026-02-26T00:54 | 28465 | 14 | 118 | 4 | ||
| 2026-02-26T00:54 | 28603 | 14 | 76 | 4 | ||
| 2026-02-26T00:55 | 28740 | 14 | 35 | 5 | ||
| 2026-02-26T00:55 | 28882 | 13 | 81 | 6 | ||
| 2026-02-26T00:56 | 29131 | 13 | 46 | 10 | ||
| 2026-02-26T00:57 | 29493 | 12 | -53.4 | |||
| 2026-02-26T00:57 | 29546 | 12 | 82 | 7 | ||
| 2026-02-26T00:57 | 29716 | 12 | -54.2 | 99 | 8 | |
| 2026-02-26T11:33 | 26 | 1016 | 8.7 | 5.3 | 360 | 2 |
| 2026-02-26T11:33 | 31 | 1015 | 9.0 | 5.2 | 0 | 0 |
| 2026-02-26T11:33 | 83 | 1009 | 357 | 6 | ||
| 2026-02-26T11:33 | 182 | 997 | 7.9 | 3.9 | ||
| 2026-02-26T11:34 | 442 | 966 | 32 | 8 | ||
| 2026-02-26T11:35 | 794 | 925 | 34 | 14 | ||
| 2026-02-26T11:35 | 812 | 923 | 2.6 | 2.5 | ||
| 2026-02-26T11:35 | 885 | 915 | 2.5 | 1.9 | ||
| 2026-02-26T11:36 | 919 | 911 | 4.9 | 3.6 | ||
| 2026-02-26T11:36 | 1025 | 899 | 4.6 | 4.3 | ||
| 2026-02-26T11:36 | 1132 | 887 | 62 | 14 | ||
| 2026-02-26T11:37 | 1357 | 863 | 2.7 | 2.1 | ||
| 2026-02-26T11:37 | 1380 | 861 | 66 | 13 | ||
| 2026-02-26T11:37 | 1386 | 860 | 3.6 | 2.1 | ||
| 2026-02-26T11:38 | 1609 | 837 | 4.8 | 1.3 | 48 | 6 |
| 2026-02-26T11:38 | 1755 | 822 | 15 | 7 | ||
| 2026-02-26T11:38 | 1895 | 808 | 8 | 7 | ||
| 2026-02-26T11:39 | 2004 | 797 | 42 | 7 | ||
| 2026-02-26T11:39 | 2026 | 795 | 2.7 | -1.5 | ||
| 2026-02-26T11:39 | 2142 | 784 | 44 | 7 | ||
| 2026-02-26T11:39 | 2175 | 781 | 2.9 | -5.0 | ||
| 2026-02-26T11:39 | 2224 | 776 | 4.7 | -13.7 | ||
| 2026-02-26T11:40 | 2306 | 768 | 58 | 2 | ||
| 2026-02-26T11:40 | 2338 | 765 | 5.2 | -19.4 | ||
| 2026-02-26T11:40 | 2377 | 761 | 6.4 | -30.6 | ||
| 2026-02-26T11:40 | 2404 | 759 | 80 | 6 | ||
| 2026-02-26T11:40 | 2431 | 756 | 7.1 | -39.4 | ||
| 2026-02-26T11:41 | 2746 | 728 | 70 | 6 | ||
| 2026-02-26T11:41 | 2889 | 715 | 3.5 | -41.8 | ||
| 2026-02-26T11:42 | 2986 | 706 | 54 | 5 | ||
| 2026-02-26T11:42 | 3070 | 699 | 2.4 | -35.8 | ||
| 2026-02-26T11:42 | 3156 | 692 | 43 | 6 | ||
| 2026-02-26T11:43 | 3456 | 666 | -0.9 | -38.2 | ||
| 2026-02-26T11:43 | 3473 | 665 | 30 | 3 | ||
| 2026-02-26T11:44 | 3615 | 653 | -1.5 | -45.1 | ||
| 2026-02-26T11:44 | 3620 | 653 | 76 | 3 | ||
| 2026-02-26T11:44 | 3698 | 646 | 79 | 3 | ||
| 2026-02-26T11:44 | 3776 | 640 | 103 | 5 | ||
| 2026-02-26T11:45 | 3946 | 626 | 83 | 6 | ||
| 2026-02-26T11:45 | 3967 | 625 | -4.2 | -47.0 | ||
| 2026-02-26T11:45 | 4084 | 615 | 73 | 5 | ||
| 2026-02-26T11:45 | 4162 | 609 | 70 | 5 | ||
| 2026-02-26T11:45 | 4211 | 606 | -5.0 | -53.5 | ||
| 2026-02-26T11:46 | 4328 | 597 | 52 | 6 | ||
| 2026-02-26T11:46 | 4401 | 591 | 36 | 6 | ||
| 2026-02-26T11:47 | 4633 | 574 | -7.9 | -55.3 | ||
| 2026-02-26T11:47 | 4719 | 567 | 356 | 5 | ||
| 2026-02-26T11:48 | 5040 | 544 | 17 | 3 | ||
| 2026-02-26T11:48 | 5106 | 540 | 11 | 3 | ||
| 2026-02-26T11:48 | 5211 | 532 | 356 | 5 | ||
| 2026-02-26T11:49 | 5233 | 531 | -13.0 | -46.9 | ||
| 2026-02-26T11:49 | 5325 | 524 | 10 | 7 | ||
| 2026-02-26T11:50 | 5545 | 509 | 346 | 6 | ||
| 2026-02-26T11:50 | 5632 | 503 | -15.7 | -48.9 | ||
| 2026-02-26T11:50 | 5685 | 500 | 8 | 6 | ||
| 2026-02-26T11:50 | 5873 | 488 | 347 | 6 | ||
| 2026-02-26T11:51 | 6023 | 478 | 358 | 6 | ||
| 2026-02-26T11:52 | 6228 | 465 | 334 | 7 | ||
| 2026-02-26T11:52 | 6342 | 458 | 315 | 5 | ||
| 2026-02-26T11:52 | 6456 | 451 | -22.5 | -56.2 | ||
| 2026-02-26T11:52 | 6467 | 450 | 305 | 7 | ||
| 2026-02-26T11:53 | 6596 | 442 | 305 | 6 | ||
| 2026-02-26T11:53 | 6796 | 430 | 323 | 8 | ||
| 2026-02-26T11:54 | 7130 | 411 | 308 | 9 | ||
| 2026-02-26T11:55 | 7375 | 397 | 308 | 12 | ||
| 2026-02-26T11:55 | 7484 | 391 | -31.1 | -58.5 | ||
| 2026-02-26T11:55 | 7547 | 387 | 320 | 13 | ||
| 2026-02-26T11:56 | 7889 | 369 | 319 | 16 | ||
| 2026-02-26T11:57 | 7912 | 368 | -34.5 | -57.3 | ||
| 2026-02-26T11:57 | 7994 | 363 | 319 | 19 | ||
| 2026-02-26T11:57 | 8040 | 361 | -35.0 | -56.8 | ||
| 2026-02-26T11:57 | 8222 | 352 | 327 | 14 | ||
| 2026-02-26T11:58 | 8256 | 350 | -36.5 | -60.0 | ||
| 2026-02-26T11:58 | 8577 | 334 | 345 | 13 | ||
| 2026-02-26T11:59 | 8653 | 330 | -40.0 | -60.8 | ||
| 2026-02-26T11:59 | 8956 | 316 | 342 | 19 | ||
| 2026-02-26T12:00 | 9050 | 312 | -43.4 | |||
| 2026-02-26T12:00 | 9106 | 309 | 334 | 19 | ||
| 2026-02-26T12:00 | 9215 | 304 | 333 | 21 | ||
| 2026-02-26T12:01 | 9565 | 288 | 329 | 21 | ||
| 2026-02-26T12:02 | 9943 | 272 | 323 | 19 | ||
| 2026-02-26T12:03 | 10273 | 259 | 319 | 24 | ||
| 2026-02-26T12:03 | 10420 | 253 | -55.1 | |||
| 2026-02-26T12:04 | 10656 | 244 | 323 | 26 | ||
| 2026-02-26T12:05 | 10871 | 235 | -58.3 | 325 | 31 | |
| 2026-02-26T12:05 | 11048 | 229 | -58.4 | |||
| 2026-02-26T12:05 | 11240 | 222 | 321 | 30 | ||
| 2026-02-26T12:06 | 11511 | 212 | -61.6 | |||
| 2026-02-26T12:06 | 11570 | 210 | 300 | 31 | ||
| 2026-02-26T12:07 | 11666 | 207 | -59.9 | |||
| 2026-02-26T12:07 | 11805 | 203 | -59.2 | |||
| 2026-02-26T12:07 | 11877 | 200 | -57.6 | |||
| 2026-02-26T12:07 | 11892 | 200 | 302 | 39 | ||
| 2026-02-26T12:08 | 12057 | 195 | -56.6 | |||
| 2026-02-26T12:08 | 12114 | 193 | 298 | 41 | ||
| 2026-02-26T12:09 | 12487 | 182 | -54.0 | 289 | 41 | |
| 2026-02-26T12:10 | 12826 | 173 | -54.3 | |||
| 2026-02-26T12:10 | 12831 | 173 | 294 | 43 | ||
| 2026-02-26T12:11 | 13129 | 165 | 297 | 42 | ||
| 2026-02-26T12:12 | 13419 | 157 | 293 | 40 | ||
| 2026-02-26T12:12 | 13489 | 156 | -55.7 | |||
| 2026-02-26T12:13 | 13697 | 151 | 291 | 41 | ||
| 2026-02-26T12:14 | 13992 | 144 | 292 | 37 | ||
| 2026-02-26T12:14 | 14109 | 141 | -57.6 | |||
| 2026-02-26T12:15 | 14178 | 140 | 295 | 31 | ||
| 2026-02-26T12:16 | 14466 | 133 | -59.2 | |||
| 2026-02-26T12:16 | 14481 | 133 | 289 | 37 | ||
| 2026-02-26T12:17 | 14774 | 127 | 289 | 41 | ||
| 2026-02-26T12:17 | 14846 | 125 | -60.5 | |||
| 2026-02-26T12:18 | 15083 | 121 | 289 | 41 | ||
| 2026-02-26T12:18 | 15125 | 120 | -62.3 | |||
| 2026-02-26T12:18 | 15357 | 116 | 298 | 43 | ||
| 2026-02-26T12:19 | 15639 | 110 | -62.0 | |||
| 2026-02-26T12:19 | 15717 | 109 | 306 | 33 | ||
| 2026-02-26T12:20 | 15884 | 106 | -63.4 | |||
| 2026-02-26T12:20 | 16063 | 103 | 310 | 24 | ||
| 2026-02-26T12:21 | 16327 | 99 | 292 | 19 | ||
| 2026-02-26T12:22 | 16425 | 97 | -64.9 | |||
| 2026-02-26T12:22 | 16632 | 94 | 271 | 22 | ||
| 2026-02-26T12:23 | 16835 | 91 | 280 | 24 | ||
| 2026-02-26T12:24 | 17122 | 87 | 277 | 25 | ||
| 2026-02-26T12:24 | 17152 | 86 | -65.2 | |||
| 2026-02-26T12:25 | 17366 | 83 | 281 | 29 | ||
| 2026-02-26T12:26 | 17673 | 79 | 285 | 24 | ||
| 2026-02-26T12:26 | 17820 | 77 | -66.5 | |||
| 2026-02-26T12:26 | 17885 | 76 | 292 | 27 | ||
| 2026-02-26T12:27 | 18104 | 74 | -63.7 | |||
| 2026-02-26T12:27 | 18154 | 73 | 304 | 17 | ||
| 2026-02-26T12:28 | 18447 | 70 | 300 | 14 | ||
| 2026-02-26T12:28 | 18472 | 69 | -64.6 | |||
| 2026-02-26T12:29 | 18625 | 68 | 298 | 12 | ||
| 2026-02-26T12:29 | 18762 | 66 | 293 | 8 | ||
| 2026-02-26T12:30 | 19094 | 63 | 273 | 12 | ||
| 2026-02-26T12:30 | 19103 | 63 | -63.5 | |||
| 2026-02-26T12:31 | 19294 | 61 | -62.4 | |||
| 2026-02-26T12:31 | 19303 | 61 | 306 | 10 | ||
| 2026-02-26T12:31 | 19600 | 58 | 315 | 8 | ||
| 2026-02-26T12:32 | 19619 | 58 | -62.6 | |||
| 2026-02-26T12:32 | 19791 | 56 | 325 | 6 | ||
| 2026-02-26T12:32 | 19908 | 55 | -60.7 | |||
| 2026-02-26T12:32 | 19943 | 55 | 297 | 6 | ||
| 2026-02-26T12:33 | 20056 | 54 | -59.7 | |||
| 2026-02-26T12:33 | 20150 | 53 | 314 | 4 | ||
| 2026-02-26T12:34 | 20365 | 51 | 75 | 2 | ||
| 2026-02-26T12:34 | 20452 | 50 | -59.5 | |||
| 2026-02-26T12:34 | 20565 | 49 | 175 | 3 | ||
| 2026-02-26T12:35 | 20682 | 49 | 196 | 4 | ||
| 2026-02-26T12:35 | 20838 | 47 | 262 | 6 | ||
| 2026-02-26T12:36 | 21023 | 46 | 313 | 2 | ||
| 2026-02-26T12:36 | 21217 | 45 | 283 | 5 | ||
| 2026-02-26T12:37 | 21390 | 43 | -60.2 | |||
| 2026-02-26T12:37 | 21475 | 43 | 291 | 8 | ||
| 2026-02-26T12:38 | 21825 | 40 | 27 | 4 | ||
| 2026-02-26T12:39 | 22044 | 39 | 58 | 1 | ||
| 2026-02-26T12:40 | 22400 | 37 | 29 | 2 | ||
| 2026-02-26T12:40 | 22639 | 36 | 62 | 5 | ||
| 2026-02-26T12:40 | 22658 | 35 | -56.0 | |||
| 2026-02-26T12:41 | 22863 | 34 | 98 | 3 | ||
| 2026-02-26T12:41 | 23012 | 34 | 109 | 5 | ||
| 2026-02-26T12:42 | 23382 | 32 | 126 | 7 | ||
| 2026-02-26T12:43 | 23541 | 31 | 129 | 4 | ||
| 2026-02-26T12:44 | 23831 | 29 | 144 | 4 | ||
| 2026-02-26T12:44 | 23963 | 29 | -59.2 | |||
| 2026-02-26T12:44 | 24138 | 28 | 258 | 4 | ||
| 2026-02-26T12:45 | 24230 | 28 | 299 | 4 | ||
| 2026-02-26T12:45 | 24462 | 27 | -57.0 | 282 | 4 | |
| 2026-02-26T12:46 | 24582 | 26 | 308 | 3 | ||
| 2026-02-26T12:46 | 24704 | 26 | 7 | 3 | ||
| 2026-02-26T12:46 | 24852 | 25 | 13 | 3 | ||
| 2026-02-26T12:47 | 24957 | 25 | 76 | 4 | ||
| 2026-02-26T12:47 | 25059 | 24 | 75 | 6 | ||
| 2026-02-26T12:47 | 25192 | 24 | 29 | 3 | ||
| 2026-02-26T12:48 | 25437 | 23 | 64 | 4 | ||
| 2026-02-26T12:49 | 25750 | 22 | 64 | 6 | ||
| 2026-02-26T12:49 | 25956 | 21 | -58.1 | 58 | 4 | |
| 2026-02-26T12:50 | 26077 | 21 | 81 | 2 | ||
| 2026-02-26T12:50 | 26230 | 20 | 23 | 4 | ||
| 2026-02-26T12:51 | 26456 | 19 | 65 | 4 | ||
| 2026-02-26T12:51 | 26551 | 19 | 117 | 5 | ||
| 2026-02-26T12:51 | 26615 | 19 | 103 | 3 | ||
| 2026-02-26T12:51 | 26683 | 19 | 41 | 4 | ||
| 2026-02-26T12:51 | 26753 | 19 | -57.5 | |||
| 2026-02-26T12:51 | 26823 | 18 | 30 | 8 | ||
| 2026-02-26T12:52 | 26963 | 18 | 49 | 2 | ||
| 2026-02-26T12:52 | 27181 | 17 | 24 | 7 | ||
| 2026-02-26T12:53 | 27293 | 17 | 5 | 3 | ||
| 2026-02-26T12:53 | 27367 | 17 | -54.0 | |||
| 2026-02-26T12:53 | 27407 | 17 | 80 | 4 | ||
| 2026-02-26T12:54 | 27682 | 16 | 94 | 7 | ||
| 2026-02-26T12:55 | 28098 | 15 | 86 | 11 | ||
| 2026-02-26T12:55 | 28305 | 15 | -55.7 | 66 | 7 | |
| 2026-02-26T12:55 | 28378 | 14 | -55.2 | 59 | 6 | |
| 2026-02-26T23:30 | 26 | 1013 | 10.1 | 5.7 | 290 | 2 |
| 2026-02-26T23:30 | 30 | 1013 | 9.9 | 5.1 | 0 | 0 |
| 2026-02-26T23:30 | 66 | 1008 | 8.7 | 4.5 | ||
| 2026-02-26T23:30 | 167 | 996 | 7.8 | 4.4 | ||
| 2026-02-26T23:31 | 182 | 994 | 314 | 3 | ||
| 2026-02-26T23:31 | 229 | 989 | 7.3 | 4.4 | ||
| 2026-02-26T23:31 | 260 | 985 | 7.8 | 4.7 | ||
| 2026-02-26T23:31 | 399 | 968 | 358 | 3 | ||
| 2026-02-26T23:31 | 436 | 964 | 8.1 | 5.4 | ||
| 2026-02-26T23:32 | 615 | 943 | 355 | 6 | ||
| 2026-02-26T23:32 | 707 | 933 | 6.5 | 5.6 | ||
| 2026-02-26T23:32 | 799 | 923 | 20 | 7 | ||
| 2026-02-26T23:33 | 815 | 921 | 6.1 | 5.8 | ||
| 2026-02-26T23:33 | 852 | 917 | 7.5 | 6.6 | ||
| 2026-02-26T23:33 | 1053 | 895 | 6.4 | 5.8 | ||
| 2026-02-26T23:33 | 1116 | 888 | 41 | 7 | ||
| 2026-02-26T23:34 | 1364 | 861 | 48 | 5 | ||
| 2026-02-26T23:35 | 1549 | 842 | 55 | 3 | ||
| 2026-02-26T23:35 | 1597 | 837 | 3.3 | 2.9 | ||
| 2026-02-26T23:36 | 1757 | 820 | 73 | 6 | ||
| 2026-02-26T23:36 | 1837 | 812 | 1.7 | 1.1 | ||
| 2026-02-26T23:36 | 1901 | 806 | 88 | 6 | ||
| 2026-02-26T23:36 | 1912 | 805 | 2.0 | -0.9 | ||
| 2026-02-26T23:36 | 2001 | 796 | 4.2 | -7.3 | ||
| 2026-02-26T23:36 | 2064 | 790 | 7.7 | -18.2 | ||
| 2026-02-26T23:37 | 2084 | 788 | 98 | 6 | ||
| 2026-02-26T23:37 | 2152 | 781 | 8.2 | -25.7 | ||
| 2026-02-26T23:37 | 2350 | 763 | 110 | 4 | ||
| 2026-02-26T23:38 | 2492 | 750 | 5.7 | -36.4 | ||
| 2026-02-26T23:38 | 2684 | 732 | 119 | 3 | ||
| 2026-02-26T23:39 | 2803 | 721 | 3.2 | -48.3 | ||
| 2026-02-26T23:39 | 3018 | 703 | 119 | 2 | ||
| 2026-02-26T23:39 | 3028 | 702 | 2.2 | -42.7 | ||
| 2026-02-26T23:40 | 3166 | 690 | 1.4 | -43.2 | ||
| 2026-02-26T23:40 | 3350 | 674 | 260 | 2 | ||
| 2026-02-26T23:40 | 3366 | 673 | 0.0 | -50.3 | ||
| 2026-02-26T23:41 | 3619 | 652 | 231 | 5 | ||
| 2026-02-26T23:41 | 3657 | 649 | -2.0 | -51.6 | ||
| 2026-02-26T23:42 | 3949 | 625 | 221 | 7 | ||
| 2026-02-26T23:43 | 4155 | 609 | -5.2 | -53.6 | ||
| 2026-02-26T23:43 | 4280 | 599 | 217 | 12 | ||
| 2026-02-26T23:44 | 4500 | 583 | -7.7 | -55.2 | ||
| 2026-02-26T23:44 | 4604 | 575 | 215 | 11 | ||
| 2026-02-26T23:45 | 4830 | 558 | 217 | 13 | ||
| 2026-02-26T23:45 | 4960 | 549 | -11.0 | -57.3 | ||
| 2026-02-26T23:46 | 5148 | 536 | 225 | 14 | ||
| 2026-02-26T23:47 | 5363 | 521 | -13.9 | -59.2 | ||
| 2026-02-26T23:47 | 5475 | 513 | 228 | 15 | ||
| 2026-02-26T23:48 | 5782 | 493 | -16.9 | -61.1 | ||
| 2026-02-26T23:48 | 5822 | 490 | 233 | 15 | ||
| 2026-02-26T23:49 | 6104 | 472 | -19.4 | -49.6 | ||
| 2026-02-26T23:49 | 6164 | 468 | -19.7 | -31.0 | ||
| 2026-02-26T23:49 | 6176 | 468 | 244 | 16 | ||
| 2026-02-26T23:50 | 6490 | 448 | 244 | 18 | ||
| 2026-02-26T23:50 | 6636 | 439 | -24.2 | -32.5 | 241 | 19 |
| 2026-02-26T23:50 | 6708 | 435 | -24.6 | -29.3 | ||
| 2026-02-26T23:51 | 6773 | 431 | -24.9 | -32.1 | ||
| 2026-02-26T23:51 | 6856 | 426 | -25.6 | -32.2 | ||
| 2026-02-26T23:51 | 6923 | 422 | -25.6 | -27.8 | ||
| 2026-02-26T23:51 | 6997 | 418 | 243 | 19 | ||
| 2026-02-26T23:52 | 7177 | 408 | -27.1 | -29.2 | ||
| 2026-02-26T23:52 | 7346 | 398 | -27.5 | -30.0 | ||
| 2026-02-26T23:52 | 7352 | 398 | 259 | 26 | ||
| 2026-02-26T23:53 | 7466 | 392 | -28.4 | -30.5 | ||
| 2026-02-26T23:53 | 7713 | 378 | 259 | 26 | ||
| 2026-02-26T23:53 | 7799 | 374 | -31.0 | -32.5 | ||
| 2026-02-26T23:54 | 7861 | 370 | -31.3 | -33.1 | ||
| 2026-02-26T23:54 | 7905 | 368 | -31.1 | -36.7 | ||
| 2026-02-26T23:54 | 8053 | 360 | 261 | 25 | ||
| 2026-02-26T23:55 | 8266 | 350 | -34.2 | -39.9 | ||
| 2026-02-26T23:55 | 8410 | 343 | 253 | 25 | ||
| 2026-02-26T23:56 | 8635 | 332 | -37.6 | -41.5 | ||
| 2026-02-26T23:56 | 8774 | 325 | 261 | 25 | ||
| 2026-02-26T23:57 | 8894 | 319 | -40.0 | -43.9 | ||
| 2026-02-26T23:57 | 9069 | 311 | 268 | 23 | ||
| 2026-02-26T23:58 | 9430 | 295 | 274 | 26 | ||
| 2026-02-26T23:58 | 9555 | 289 | -46.1 | |||
| 2026-02-26T23:59 | 9749 | 281 | 277 | 26 | ||
| 2026-02-27T00:00 | 10106 | 266 | 286 | 28 | ||
| 2026-02-27T00:01 | 10454 | 252 | 290 | 34 | ||
| 2026-02-27T00:02 | 10742 | 241 | -55.4 | |||
| 2026-02-27T00:02 | 10812 | 238 | 292 | 43 | ||
| 2026-02-27T00:03 | 11209 | 224 | 294 | 59 | ||
| 2026-02-27T00:04 | 11486 | 214 | 293 | 59 | ||
| 2026-02-27T00:04 | 11743 | 206 | 296 | 51 | ||
| 2026-02-27T00:05 | 11812 | 203 | -60.3 | |||
| 2026-02-27T00:05 | 11912 | 200 | 296 | 45 | ||
| 2026-02-27T00:05 | 11999 | 197 | -57.8 | |||
| 2026-02-27T00:06 | 12140 | 193 | -57.1 | |||
| 2026-02-27T00:06 | 12215 | 191 | 286 | 38 | ||
| 2026-02-27T00:07 | 12515 | 182 | 278 | 39 | ||
| 2026-02-27T00:08 | 12689 | 177 | -54.6 | |||
| 2026-02-27T00:08 | 12817 | 174 | 278 | 39 | ||
| 2026-02-27T00:09 | 13132 | 165 | 277 | 37 | ||
| 2026-02-27T00:10 | 13456 | 157 | 276 | 39 | ||
| 2026-02-27T00:10 | 13620 | 153 | -58.9 | |||
| 2026-02-27T00:11 | 13781 | 149 | 282 | 38 | ||
| 2026-02-27T00:12 | 14106 | 141 | 277 | 35 | ||
| 2026-02-27T00:12 | 14166 | 140 | -60.4 | |||
| 2026-02-27T00:13 | 14435 | 134 | 271 | 36 | ||
| 2026-02-27T00:14 | 14781 | 127 | 274 | 42 | ||
| 2026-02-27T00:14 | 14887 | 125 | -63.9 | |||
| 2026-02-27T00:15 | 15130 | 120 | 278 | 44 | ||
| 2026-02-27T00:16 | 15473 | 113 | 289 | 47 | ||
| 2026-02-27T00:16 | 15647 | 110 | -64.3 | |||
| 2026-02-27T00:17 | 15859 | 106 | 287 | 30 | ||
| 2026-02-27T00:17 | 15955 | 105 | -64.2 | |||
| 2026-02-27T00:18 | 16053 | 103 | -64.2 | |||
| 2026-02-27T00:18 | 16196 | 101 | -63.4 | |||
| 2026-02-27T00:18 | 16226 | 100 | 294 | 26 | ||
| 2026-02-27T00:19 | 16576 | 95 | 279 | 18 | ||
| 2026-02-27T00:20 | 16850 | 90 | -65.8 | |||
| 2026-02-27T00:20 | 16910 | 90 | 273 | 27 | ||
| 2026-02-27T00:21 | 17118 | 87 | -64.4 | 280 | 26 | |
| 2026-02-27T00:22 | 17437 | 82 | 288 | 20 | ||
| 2026-02-27T00:22 | 17686 | 79 | -65.5 | |||
| 2026-02-27T00:23 | 17748 | 78 | 289 | 18 | ||
| 2026-02-27T00:23 | 17794 | 77 | -62.0 | |||
| 2026-02-27T00:23 | 17923 | 76 | 278 | 13 | ||
| 2026-02-27T00:24 | 18230 | 72 | 262 | 15 | ||
| 2026-02-27T00:25 | 18412 | 70 | 267 | 17 | ||
| 2026-02-27T00:25 | 18655 | 67 | 269 | 11 | ||
| 2026-02-27T00:26 | 18898 | 65 | -63.5 | |||
| 2026-02-27T00:26 | 18984 | 64 | 255 | 9 | ||
| 2026-02-27T00:27 | 19308 | 61 | 291 | 13 | ||
| 2026-02-27T00:28 | 19454 | 59 | -64.1 | |||
| 2026-02-27T00:28 | 19482 | 59 | 298 | 7 | ||
| 2026-02-27T00:28 | 19687 | 57 | -63.5 | |||
| 2026-02-27T00:29 | 19771 | 56 | 267 | 9 | ||
| 2026-02-27T00:29 | 19937 | 55 | -62.5 | |||
| 2026-02-27T00:29 | 19949 | 55 | 275 | 8 | ||
| 2026-02-27T00:30 | 20148 | 53 | 280 | 6 | ||
| 2026-02-27T00:31 | 20399 | 51 | 312 | 6 | ||
| 2026-02-27T00:31 | 20422 | 51 | -60.0 | |||
| 2026-02-27T00:31 | 20547 | 50 | 331 | 2 | ||
| 2026-02-27T00:31 | 20662 | 49 | 242 | 3 | ||
| 2026-02-27T00:32 | 20741 | 48 | 235 | 3 | ||
| 2026-02-27T00:32 | 20831 | 47 | 196 | 4 | ||
| 2026-02-27T00:32 | 20884 | 47 | -58.7 | |||
| 2026-02-27T00:32 | 20952 | 46 | 231 | 5 | ||
| 2026-02-27T00:33 | 21090 | 45 | 277 | 3 | ||
| 2026-02-27T00:33 | 21372 | 43 | -58.5 | |||
| 2026-02-27T00:33 | 21387 | 43 | 127 | 3 | ||
| 2026-02-27T00:34 | 21490 | 43 | 166 | 2 | ||
| 2026-02-27T00:34 | 21578 | 42 | 250 | 3 | ||
| 2026-02-27T00:34 | 21776 | 41 | 276 | 8 | ||
| 2026-02-27T00:35 | 21980 | 39 | 309 | 5 | ||
| 2026-02-27T00:35 | 22077 | 39 | -58.0 | |||
| 2026-02-27T00:36 | 22228 | 38 | -57.7 | 316 | 1 | |
| 2026-02-27T11:33 | 26 | 1008 | 11.6 | 10.0 | 110 | 1 |
| 2026-02-27T11:33 | 31 | 1007 | 11.8 | 10.0 | 0 | 0 |
| 2026-02-27T11:33 | 150 | 993 | 89 | 3 | ||
| 2026-02-27T11:34 | 328 | 972 | 9.9 | 8.2 | ||
| 2026-02-27T11:34 | 345 | 970 | 58 | 3 | ||
| 2026-02-27T11:34 | 411 | 963 | 0 | 0 | ||
| 2026-02-27T11:34 | 455 | 957 | 226 | 3 | ||
| 2026-02-27T11:35 | 656 | 934 | 9.4 | 6.8 | ||
| 2026-02-27T11:35 | 662 | 934 | 291 | 6 | ||
| 2026-02-27T11:36 | 931 | 904 | 307 | 4 | ||
| 2026-02-27T11:36 | 967 | 900 | 7.1 | 6.4 | ||
| 2026-02-27T11:36 | 1106 | 885 | 276 | 2 | ||
| 2026-02-27T11:36 | 1175 | 878 | 6.3 | 5.4 | ||
| 2026-02-27T11:37 | 1244 | 870 | 6.7 | 4.5 | ||
| 2026-02-27T11:37 | 1267 | 868 | 246 | 3 | ||
| 2026-02-27T11:37 | 1394 | 854 | 254 | 2 | ||
| 2026-02-27T11:37 | 1455 | 848 | 5.5 | 2.5 | ||
| 2026-02-27T11:38 | 1601 | 833 | 4.8 | 0.4 | ||
| 2026-02-27T11:38 | 1688 | 824 | 4.0 | 1.9 | ||
| 2026-02-27T11:38 | 1733 | 820 | 171 | 3 | ||
| 2026-02-27T11:38 | 1761 | 817 | 4.0 | -1.0 | ||
| 2026-02-27T11:38 | 1827 | 810 | 3.6 | -1.6 | ||
| 2026-02-27T11:39 | 1885 | 805 | 161 | 3 | ||
| 2026-02-27T11:39 | 1917 | 801 | 3.1 | -3.7 | ||
| 2026-02-27T11:39 | 1979 | 795 | 184 | 4 | ||
| 2026-02-27T11:39 | 2079 | 785 | 2.4 | -9.5 | ||
| 2026-02-27T11:40 | 2208 | 773 | 198 | 5 | ||
| 2026-02-27T11:40 | 2284 | 766 | 2.0 | -15.5 | ||
| 2026-02-27T11:40 | 2447 | 750 | 226 | 4 | ||
| 2026-02-27T11:40 | 2474 | 748 | 0.7 | -12.7 | ||
| 2026-02-27T11:41 | 2527 | 743 | 1.4 | -18.0 | ||
| 2026-02-27T11:41 | 2558 | 740 | 3.4 | -30.9 | ||
| 2026-02-27T11:41 | 2621 | 734 | 236 | 8 | ||
| 2026-02-27T11:41 | 2705 | 727 | 4.4 | -47.6 | ||
| 2026-02-27T11:41 | 2743 | 723 | 227 | 9 | ||
| 2026-02-27T11:42 | 3085 | 693 | 215 | 10 | ||
| 2026-02-27T11:42 | 3108 | 691 | 1.2 | -39.5 | ||
| 2026-02-27T11:43 | 3406 | 666 | 211 | 13 | ||
| 2026-02-27T11:43 | 3489 | 659 | -2.0 | -32.0 | ||
| 2026-02-27T11:44 | 3636 | 647 | -3.3 | -26.3 | ||
| 2026-02-27T11:44 | 3759 | 637 | 194 | 11 | ||
| 2026-02-27T11:45 | 3881 | 627 | -5.8 | -21.8 | ||
| 2026-02-27T11:45 | 4128 | 608 | 226 | 11 | ||
| 2026-02-27T11:46 | 4315 | 593 | -10.0 | -24.3 | ||
| 2026-02-27T11:46 | 4508 | 578 | 227 | 9 | ||
| 2026-02-27T11:47 | 4677 | 566 | 233 | 10 | ||
| 2026-02-27T11:47 | 4767 | 559 | 237 | 13 | ||
| 2026-02-27T11:48 | 4947 | 546 | 236 | 10 | ||
| 2026-02-27T11:48 | 5102 | 535 | -17.4 | -22.9 | ||
| 2026-02-27T11:48 | 5133 | 533 | -16.9 | -20.3 | ||
| 2026-02-27T11:48 | 5139 | 532 | 245 | 8 | ||
| 2026-02-27T11:49 | 5295 | 521 | -16.9 | -18.8 | ||
| 2026-02-27T11:49 | 5411 | 513 | 223 | 13 | ||
| 2026-02-27T11:49 | 5518 | 506 | -17.7 | -19.7 | ||
| 2026-02-27T11:50 | 5629 | 498 | -17.2 | -19.4 | ||
| 2026-02-27T11:50 | 5658 | 497 | 239 | 13 | ||
| 2026-02-27T11:50 | 5819 | 486 | 254 | 8 | ||
| 2026-02-27T11:51 | 5934 | 479 | -17.0 | -19.2 | ||
| 2026-02-27T11:51 | 6168 | 464 | 262 | 13 | ||
| 2026-02-27T11:52 | 6517 | 443 | 266 | 16 | ||
| 2026-02-27T11:53 | 6872 | 422 | 253 | 17 | ||
| 2026-02-27T11:53 | 6908 | 420 | -22.9 | -25.3 | ||
| 2026-02-27T11:54 | 7118 | 408 | 246 | 21 | ||
| 2026-02-27T11:55 | 7478 | 388 | 228 | 22 | ||
| 2026-02-27T11:55 | 7587 | 382 | -26.6 | -28.9 | ||
| 2026-02-27T11:55 | 7647 | 379 | 229 | 27 | ||
| 2026-02-27T11:56 | 7792 | 371 | 228 | 24 | ||
| 2026-02-27T11:56 | 7947 | 364 | 228 | 28 | ||
| 2026-02-27T11:57 | 8126 | 355 | 223 | 25 | ||
| 2026-02-27T11:58 | 8425 | 340 | -33.3 | -35.8 | ||
| 2026-02-27T11:58 | 8464 | 338 | 230 | 28 | ||
| 2026-02-27T11:59 | 8802 | 322 | 230 | 31 | ||
| 2026-02-27T11:59 | 8942 | 316 | -37.4 | -39.6 | ||
| 2026-02-27T12:00 | 9143 | 307 | 231 | 31 | ||
| 2026-02-27T12:00 | 9223 | 303 | -39.9 | -42.8 | ||
| 2026-02-27T12:00 | 9240 | 302 | -40.0 | -43.0 | ||
| 2026-02-27T12:01 | 9476 | 292 | 234 | 30 | ||
| 2026-02-27T12:01 | 9695 | 283 | 235 | 30 | ||
| 2026-02-27T12:02 | 9863 | 276 | 239 | 33 | ||
| 2026-02-27T12:03 | 10241 | 260 | 236 | 32 | ||
| 2026-02-27T12:04 | 10575 | 247 | 237 | 33 | ||
| 2026-02-27T12:04 | 10784 | 239 | 242 | 35 | ||
| 2026-02-27T12:05 | 10914 | 234 | -55.9 | 243 | 36 | |
| 2026-02-27T12:05 | 11256 | 222 | 248 | 38 | ||
| 2026-02-27T12:07 | 11650 | 208 | 249 | 45 | ||
| 2026-02-27T12:07 | 11701 | 207 | -62.0 | |||
| 2026-02-27T12:07 | 11849 | 202 | -60.0 | |||
| 2026-02-27T12:07 | 11869 | 201 | 255 | 40 | ||
| 2026-02-27T12:07 | 11934 | 199 | -57.8 | |||
| 2026-02-27T12:08 | 12119 | 193 | 258 | 41 | ||
| 2026-02-27T12:09 | 12461 | 183 | -55.5 | |||
| 2026-02-27T12:09 | 12521 | 182 | 261 | 40 | ||
| 2026-02-27T12:10 | 12845 | 173 | 256 | 40 | ||
| 2026-02-27T12:10 | 13064 | 167 | 256 | 37 | ||
| 2026-02-27T12:10 | 13071 | 166 | -56.6 | |||
| 2026-02-27T12:11 | 13363 | 159 | 264 | 41 | ||
| 2026-02-27T12:11 | 13576 | 154 | -59.1 | |||
| 2026-02-27T12:12 | 13783 | 149 | 269 | 40 | ||
| 2026-02-27T12:12 | 13899 | 146 | -58.9 | |||
| 2026-02-27T12:13 | 14159 | 140 | 268 | 38 | ||
| 2026-02-27T12:13 | 14350 | 136 | -59.5 | |||
| 2026-02-27T12:14 | 14613 | 130 | 260 | 36 | ||
| 2026-02-27T12:14 | 14797 | 126 | -63.0 | |||
| 2026-02-27T12:14 | 14820 | 126 | 252 | 37 | ||
| 2026-02-27T12:15 | 15224 | 118 | 258 | 47 | ||
| 2026-02-27T12:15 | 15272 | 117 | -64.3 | |||
| 2026-02-27T12:15 | 15391 | 115 | 265 | 45 | ||
| 2026-02-27T12:15 | 15405 | 114 | -62.9 | |||
| 2026-02-27T12:16 | 15505 | 113 | -62.0 | |||
| 2026-02-27T12:16 | 15811 | 107 | -62.2 | 274 | 34 | |
| 2026-02-27T12:17 | 15914 | 105 | -61.2 | |||
| 2026-02-27T12:17 | 15946 | 105 | 269 | 32 | ||
| 2026-02-27T12:17 | 16093 | 102 | 270 | 32 | ||
| 2026-02-27T12:17 | 16161 | 101 | -60.6 | |||
| 2026-02-27T12:18 | 16243 | 100 | 275 | 29 | ||
| 2026-02-27T12:19 | 16614 | 94 | 269 | 18 | ||
| 2026-02-27T12:20 | 16904 | 90 | 252 | 21 | ||
| 2026-02-27T12:21 | 17176 | 86 | 259 | 26 | ||
| 2026-02-27T12:21 | 17327 | 84 | -65.5 | |||
| 2026-02-27T12:21 | 17365 | 83 | 273 | 26 | ||
| 2026-02-27T12:22 | 17454 | 82 | -63.7 | |||
| 2026-02-27T12:22 | 17489 | 82 | 269 | 20 | ||
| 2026-02-27T12:23 | 17705 | 79 | -63.8 | |||
| 2026-02-27T12:23 | 17712 | 79 | 273 | 18 | ||
| 2026-02-27T12:24 | 17903 | 76 | -64.2 | |||
| 2026-02-27T12:24 | 17927 | 76 | 261 | 18 | ||
| 2026-02-27T12:25 | 18132 | 73 | 272 | 19 | ||
| 2026-02-27T12:25 | 18157 | 73 | -64.1 | |||
| 2026-02-27T12:26 | 18328 | 71 | 269 | 15 | ||
| 2026-02-27T12:27 | 18458 | 70 | -62.8 | |||
| 2026-02-27T12:27 | 18511 | 69 | 281 | 12 | ||
| 2026-02-27T12:28 | 18682 | 67 | 295 | 11 | ||
| 2026-02-27T12:29 | 18846 | 65 | 302 | 8 | ||
| 2026-02-27T12:30 | 19010 | 64 | 293 | 9 | ||
| 2026-02-27T12:30 | 19028 | 63 | -65.3 | |||
| 2026-02-27T12:31 | 19170 | 62 | 286 | 11 | ||
| 2026-02-27T12:32 | 19301 | 61 | -64.2 | |||
| 2026-02-27T12:32 | 19320 | 60 | 273 | 8 | ||
| 2026-02-27T12:33 | 19454 | 59 | 260 | 8 | ||
| 2026-02-27T12:34 | 19569 | 58 | 236 | 6 | ||
| 2026-02-27T12:35 | 19601 | 58 | -63.5 | |||
| 2026-02-27T12:35 | 19653 | 57 | 257 | 9 | ||
| 2026-02-27T12:36 | 19720 | 57 | 275 | 9 | ||
| 2026-02-27T12:36 | 19732 | 57 | -61.6 | 280 | 9 | |
| 2026-02-27T23:33 | 26 | 1006 | 11.1 | 8.8 | 70 | 1 |
| 2026-02-27T23:33 | 33 | 1005 | 11.1 | 8.7 | 0 | 0 |
| 2026-02-27T23:33 | 188 | 986 | 9.4 | 7.7 | ||
| 2026-02-27T23:34 | 242 | 980 | 359 | 3 | ||
| 2026-02-27T23:34 | 280 | 975 | 9.9 | 7.7 | ||
| 2026-02-27T23:34 | 318 | 971 | 10.2 | 7.6 | ||
| 2026-02-27T23:34 | 371 | 965 | 11.5 | 5.8 | ||
| 2026-02-27T23:34 | 403 | 961 | 302 | 3 | ||
| 2026-02-27T23:34 | 504 | 949 | 330 | 3 | ||
| 2026-02-27T23:35 | 665 | 931 | 327 | 3 | ||
| 2026-02-27T23:35 | 807 | 915 | 7.9 | 3.6 | ||
| 2026-02-27T23:36 | 844 | 911 | 7 | 5 | ||
| 2026-02-27T23:36 | 1036 | 890 | 353 | 7 | ||
| 2026-02-27T23:36 | 1047 | 889 | 6.5 | 2.6 | ||
| 2026-02-27T23:37 | 1227 | 870 | 344 | 8 | ||
| 2026-02-27T23:37 | 1268 | 865 | 5.3 | 1.4 | ||
| 2026-02-27T23:37 | 1321 | 860 | 5.6 | 1.1 | ||
| 2026-02-27T23:37 | 1358 | 856 | 333 | 5 | ||
| 2026-02-27T23:38 | 1501 | 841 | 342 | 6 | ||
| 2026-02-27T23:38 | 1648 | 826 | 3.4 | -0.4 | ||
| 2026-02-27T23:38 | 1760 | 814 | 338 | 6 | ||
| 2026-02-27T23:39 | 1910 | 799 | 1.9 | -1.7 | ||
| 2026-02-27T23:39 | 2005 | 790 | 359 | 9 | ||
| 2026-02-27T23:39 | 2126 | 778 | 2.0 | -3.9 | ||
| 2026-02-27T23:40 | 2245 | 767 | 1.4 | -4.3 | ||
| 2026-02-27T23:40 | 2280 | 764 | 356 | 13 | ||
| 2026-02-27T23:40 | 2309 | 761 | 1.6 | -5.1 | ||
| 2026-02-27T23:40 | 2427 | 750 | 2 | 10 | ||
| 2026-02-27T23:41 | 2656 | 729 | 20 | 11 | ||
| 2026-02-27T23:41 | 2685 | 726 | -1.6 | -7.7 | ||
| 2026-02-27T23:41 | 2808 | 715 | 18 | 10 | ||
| 2026-02-27T23:42 | 2878 | 709 | -2.2 | -13.7 | ||
| 2026-02-27T23:42 | 2965 | 701 | 5 | 6 | ||
| 2026-02-27T23:42 | 3023 | 696 | -3.1 | -12.6 | ||
| 2026-02-27T23:42 | 3076 | 691 | -2.7 | -12.2 | ||
| 2026-02-27T23:43 | 3188 | 682 | 313 | 5 | ||
| 2026-02-27T23:43 | 3387 | 664 | 279 | 6 | ||
| 2026-02-27T23:43 | 3393 | 664 | -5.1 | -10.7 | ||
| 2026-02-27T23:44 | 3557 | 650 | 271 | 5 | ||
| 2026-02-27T23:44 | 3720 | 637 | 281 | 6 | ||
| 2026-02-27T23:44 | 3808 | 630 | 262 | 5 | ||
| 2026-02-27T23:45 | 3904 | 622 | 291 | 6 | ||
| 2026-02-27T23:45 | 3937 | 619 | -9.5 | -12.9 | ||
| 2026-02-27T23:45 | 4082 | 608 | -9.9 | -13.0 | 297 | 8 |
| 2026-02-27T23:46 | 4236 | 595 | -10.1 | -13.5 | ||
| 2026-02-27T23:46 | 4417 | 582 | -10.6 | -14.5 | ||
| 2026-02-27T23:46 | 4423 | 581 | 275 | 9 | ||
| 2026-02-27T23:46 | 4478 | 577 | -10.5 | -16.2 | ||
| 2026-02-27T23:47 | 4589 | 569 | 278 | 12 | ||
| 2026-02-27T23:47 | 4649 | 564 | -11.8 | -18.0 | ||
| 2026-02-27T23:48 | 4912 | 545 | 285 | 12 | ||
| 2026-02-27T23:48 | 5099 | 532 | -15.7 | -21.5 | ||
| 2026-02-27T23:49 | 5243 | 522 | 281 | 10 | ||
| 2026-02-27T23:49 | 5373 | 513 | -17.4 | -22.4 | ||
| 2026-02-27T23:49 | 5505 | 504 | 241 | 7 | ||
| 2026-02-27T23:50 | 5611 | 497 | -19.0 | -23.1 | ||
| 2026-02-27T23:50 | 5716 | 490 | -19.4 | -26.4 | ||
| 2026-02-27T23:50 | 5836 | 482 | 272 | 10 | ||
| 2026-02-27T23:51 | 5907 | 477 | -20.7 | -31.3 | ||
| 2026-02-27T23:51 | 5997 | 472 | 267 | 12 | ||
| 2026-02-27T23:51 | 6008 | 471 | -21.2 | -34.2 | ||
| 2026-02-27T23:52 | 6353 | 449 | 262 | 16 | ||
| 2026-02-27T23:52 | 6359 | 449 | -23.6 | -35.7 | ||
| 2026-02-27T23:52 | 6445 | 444 | -24.0 | -34.1 | ||
| 2026-02-27T23:52 | 6546 | 438 | -24.6 | -34.6 | ||
| 2026-02-27T23:53 | 6676 | 430 | 256 | 22 | ||
| 2026-02-27T23:53 | 6687 | 429 | -25.9 | -32.5 | ||
| 2026-02-27T23:53 | 6784 | 423 | -26.5 | -30.0 | ||
| 2026-02-27T23:54 | 6992 | 411 | 240 | 18 | ||
| 2026-02-27T23:54 | 7143 | 403 | -29.3 | -30.9 | ||
| 2026-02-27T23:55 | 7350 | 391 | 230 | 16 | ||
| 2026-02-27T23:55 | 7613 | 377 | -33.3 | -33.9 | ||
| 2026-02-27T23:56 | 7703 | 372 | 231 | 18 | ||
| 2026-02-27T23:56 | 7794 | 367 | -34.8 | -37.0 | ||
| 2026-02-27T23:56 | 7839 | 365 | 240 | 18 | ||
| 2026-02-27T23:57 | 7978 | 358 | -36.0 | -39.0 | ||
| 2026-02-27T23:57 | 8149 | 349 | -37.2 | -40.5 | ||
| 2026-02-27T23:57 | 8171 | 348 | 229 | 22 | ||
| 2026-02-27T23:58 | 8499 | 332 | 220 | 25 | ||
| 2026-02-27T23:58 | 8550 | 329 | -40.0 | -43.9 | ||
| 2026-02-27T23:59 | 8854 | 315 | 200 | 27 | ||
| 2026-02-28T00:00 | 9018 | 307 | -43.9 | |||
| 2026-02-28T00:00 | 9194 | 299 | 205 | 30 | ||
| 2026-02-28T00:01 | 9559 | 283 | 196 | 32 | ||
| 2026-02-28T00:02 | 9921 | 268 | 191 | 32 | ||
| 2026-02-28T00:03 | 10249 | 255 | 191 | 35 | ||
| 2026-02-28T00:03 | 10337 | 251 | -54.7 | |||
| 2026-02-28T00:04 | 10622 | 240 | 212 | 34 | ||
| 2026-02-28T00:04 | 10739 | 236 | -53.3 | |||
| 2026-02-28T00:05 | 10865 | 231 | 225 | 30 | ||
| 2026-02-28T00:05 | 10894 | 230 | -53.5 | |||
| 2026-02-28T00:05 | 11045 | 225 | 236 | 30 | ||
| 2026-02-28T00:06 | 11193 | 220 | -53.5 | |||
| 2026-02-28T00:06 | 11313 | 216 | 238 | 28 | ||
| 2026-02-28T00:07 | 11541 | 208 | -51.4 | |||
| 2026-02-28T00:07 | 11666 | 204 | 244 | 27 | ||
| 2026-02-28T00:07 | 11740 | 202 | -51.2 | |||
| 2026-02-28T00:07 | 11825 | 199 | 239 | 28 | ||
| 2026-02-28T00:08 | 12142 | 190 | 246 | 31 | ||
| 2026-02-28T00:08 | 12225 | 187 | -50.9 | |||
| 2026-02-28T00:09 | 12472 | 180 | 253 | 33 | ||
| 2026-02-28T00:10 | 12781 | 172 | 259 | 33 | ||
| 2026-02-28T00:11 | 13012 | 166 | -52.3 | |||
| 2026-02-28T00:11 | 13115 | 163 | 259 | 34 | ||
| 2026-02-28T00:12 | 13420 | 156 | 259 | 30 | ||
| 2026-02-28T00:13 | 13722 | 149 | 256 | 30 | ||
| 2026-02-28T00:14 | 13876 | 145 | -55.3 | |||
| 2026-02-28T00:14 | 14025 | 142 | 244 | 32 | ||
| 2026-02-28T00:15 | 14331 | 135 | -57.4 | |||
| 2026-02-28T00:15 | 14348 | 135 | 257 | 34 | ||
| 2026-02-28T00:16 | 14676 | 128 | -58.6 | 269 | 34 | |
| 2026-02-28T00:17 | 14977 | 122 | 265 | 29 | ||
| 2026-02-28T00:18 | 15057 | 120 | -60.0 | |||
| 2026-02-28T00:18 | 15279 | 116 | 262 | 26 | ||
| 2026-02-28T00:19 | 15428 | 113 | -60.9 | |||
| 2026-02-28T00:19 | 15597 | 110 | 247 | 28 | ||
| 2026-02-28T00:20 | 15703 | 108 | -62.5 | |||
| 2026-02-28T00:20 | 15899 | 105 | 246 | 31 | ||
| 2026-02-28T00:21 | 16168 | 101 | -64.3 | |||
| 2026-02-28T00:21 | 16204 | 100 | 258 | 31 | ||
| 2026-02-28T00:22 | 16396 | 97 | 259 | 26 | ||
| 2026-02-28T00:22 | 16436 | 96 | -63.5 | |||
| 2026-02-28T00:23 | 16664 | 93 | -62.7 | |||
| 2026-02-28T00:23 | 16708 | 92 | 259 | 34 | ||
| 2026-02-28T00:23 | 16879 | 90 | -62.9 | |||
| 2026-02-28T00:24 | 17037 | 87 | 269 | 35 | ||
| 2026-02-28T00:24 | 17124 | 86 | -62.2 | |||
| 2026-02-28T00:24 | 17232 | 85 | 283 | 27 | ||
| 2026-02-28T00:25 | 17329 | 83 | -60.6 | |||
| 2026-02-28T00:25 | 17572 | 80 | 284 | 16 | ||
| 2026-02-28T00:26 | 17856 | 77 | 273 | 12 | ||
| 2026-02-28T00:26 | 17920 | 76 | -62.0 | |||
| 2026-02-28T00:27 | 18070 | 74 | 245 | 9 | ||
| 2026-02-28T00:28 | 18302 | 71 | -63.4 | |||
| 2026-02-28T00:28 | 18388 | 70 | 248 | 15 | ||
| 2026-02-28T00:29 | 18724 | 67 | 247 | 18 | ||
| 2026-02-28T00:29 | 18797 | 66 | -62.5 | |||
| 2026-02-28T00:29 | 18883 | 65 | 258 | 16 | ||
| 2026-02-28T00:30 | 18981 | 64 | -61.5 | |||
| 2026-02-28T00:30 | 19106 | 63 | 271 | 21 | ||
| 2026-02-28T00:31 | 19306 | 61 | -61.3 | |||
| 2026-02-28T00:31 | 19423 | 59 | 291 | 13 | ||
| 2026-02-28T00:31 | 19505 | 59 | -61.0 | |||
| 2026-02-28T00:31 | 19602 | 58 | -59.7 | |||
| 2026-02-28T00:32 | 19755 | 56 | 300 | 8 | ||
| 2026-02-28T00:33 | 20086 | 53 | 281 | 10 | ||
| 2026-02-28T00:33 | 20239 | 52 | 288 | 8 | ||
| 2026-02-28T00:34 | 20394 | 51 | -62.0 | |||
| 2026-02-28T00:34 | 20482 | 50 | 269 | 4 | ||
| 2026-02-28T00:34 | 20582 | 49 | 344 | 2 | ||
| 2026-02-28T00:34 | 20618 | 49 | -60.0 | |||
| 2026-02-28T00:35 | 20710 | 48 | 117 | 3 | ||
| 2026-02-28T00:35 | 20986 | 46 | -59.2 | |||
| 2026-02-28T00:36 | 21070 | 46 | 284 | 4 | ||
| 2026-02-28T00:36 | 21154 | 45 | 304 | 5 | ||
| 2026-02-28T00:36 | 21266 | 44 | 282 | 3 | ||
| 2026-02-28T00:37 | 21435 | 43 | 359 | 3 | ||
| 2026-02-28T00:37 | 21540 | 42 | -58.3 | |||
| 2026-02-28T00:37 | 21583 | 42 | 113 | 1 | ||
| 2026-02-28T00:38 | 21721 | 41 | 331 | 3 | ||
| 2026-02-28T00:38 | 21859 | 40 | 70 | 3 | ||
| 2026-02-28T00:39 | 22201 | 38 | 138 | 2 | ||
| 2026-02-28T00:40 | 22438 | 37 | 25 | 3 | ||
| 2026-02-28T00:40 | 22490 | 36 | -58.3 | |||
| 2026-02-28T00:40 | 22629 | 36 | 49 | 4 | ||
| 2026-02-28T00:41 | 22877 | 34 | 98 | 5 | ||
| 2026-02-28T00:41 | 23029 | 33 | 139 | 8 | ||
| 2026-02-28T00:42 | 23238 | 32 | 161 | 5 | ||
| 2026-02-28T00:42 | 23435 | 31 | 99 | 4 | ||
| 2026-02-28T00:43 | 23557 | 31 | -58.4 | |||
| 2026-02-28T00:43 | 23661 | 30 | 130 | 3 | ||
| 2026-02-28T00:44 | 23939 | 29 | 95 | 4 | ||
| 2026-02-28T00:44 | 24024 | 29 | 87 | 3 | ||
| 2026-02-28T00:45 | 24271 | 27 | 19 | 2 | ||
| 2026-02-28T00:45 | 24481 | 27 | 108 | 4 | ||
| 2026-02-28T00:46 | 24599 | 26 | 102 | 4 | ||
| 2026-02-28T00:46 | 24699 | 26 | 89 | 4 | ||
| 2026-02-28T00:46 | 24823 | 25 | 110 | 5 | ||
| 2026-02-28T00:46 | 24923 | 25 | 89 | 4 | ||
| 2026-02-28T00:47 | 25001 | 24 | -58.0 | |||
| 2026-02-28T00:47 | 25027 | 24 | 119 | 5 | ||
| 2026-02-28T00:48 | 25318 | 23 | 58 | 7 | ||
| 2026-02-28T00:48 | 25357 | 23 | -57.1 | 58 | 7 | |
| 2026-02-28T11:33 | 26 | 1011 | 11.1 | 2.1 | 250 | 2 |
| 2026-02-28T11:33 | 33 | 1010 | 11.5 | 2.3 | 0 | 0 |
| 2026-02-28T11:33 | 58 | 1007 | 12.0 | 1.3 | ||
| 2026-02-28T11:33 | 65 | 1006 | 299 | 3 | ||
| 2026-02-28T11:33 | 109 | 1001 | 12.2 | 0.3 | ||
| 2026-02-28T11:33 | 118 | 1000 | 294 | 4 | ||
| 2026-02-28T11:34 | 206 | 990 | 12.3 | -0.6 | ||
| 2026-02-28T11:34 | 212 | 989 | 329 | 6 | ||
| 2026-02-28T11:34 | 390 | 968 | 328 | 6 | ||
| 2026-02-28T11:35 | 572 | 947 | 9.0 | -2.3 | ||
| 2026-02-28T11:35 | 691 | 933 | 346 | 10 | ||
| 2026-02-28T11:35 | 767 | 925 | 8.3 | -3.2 | ||
| 2026-02-28T11:36 | 967 | 903 | 319 | 6 | ||
| 2026-02-28T11:36 | 1144 | 884 | 312 | 4 | ||
| 2026-02-28T11:37 | 1218 | 876 | 4.5 | -3.3 | ||
| 2026-02-28T11:37 | 1268 | 870 | 273 | 3 | ||
| 2026-02-28T11:37 | 1354 | 861 | 3.3 | -1.6 | ||
| 2026-02-28T11:37 | 1524 | 843 | 2.4 | -1.8 | ||
| 2026-02-28T11:37 | 1529 | 843 | 244 | 3 | ||
| 2026-02-28T11:38 | 1585 | 837 | 2.6 | -1.8 | ||
| 2026-02-28T11:38 | 1605 | 835 | 251 | 4 | ||
| 2026-02-28T11:38 | 1614 | 834 | 3.1 | -3.3 | ||
| 2026-02-28T11:38 | 1640 | 831 | 4.7 | -3.8 | ||
| 2026-02-28T11:38 | 1716 | 823 | 229 | 3 | ||
| 2026-02-28T11:38 | 1775 | 818 | 4.3 | -9.1 | ||
| 2026-02-28T11:38 | 1823 | 813 | 4.6 | -15.3 | ||
| 2026-02-28T11:38 | 1845 | 810 | 19 | 3 | ||
| 2026-02-28T11:39 | 1955 | 800 | 42 | 3 | ||
| 2026-02-28T11:39 | 2056 | 790 | 3.1 | -17.7 | ||
| 2026-02-28T11:40 | 2199 | 776 | 164 | 3 | ||
| 2026-02-28T11:40 | 2356 | 761 | 185 | 6 | ||
| 2026-02-28T11:40 | 2490 | 748 | 203 | 3 | ||
| 2026-02-28T11:41 | 2550 | 743 | -0.5 | -19.1 | ||
| 2026-02-28T11:41 | 2623 | 736 | 298 | 3 | ||
| 2026-02-28T11:41 | 2830 | 717 | 321 | 5 | ||
| 2026-02-28T11:41 | 2892 | 711 | -3.3 | -21.0 | ||
| 2026-02-28T11:42 | 2920 | 709 | -3.1 | -21.3 | ||
| 2026-02-28T11:42 | 2926 | 708 | 325 | 8 | ||
| 2026-02-28T11:42 | 3012 | 701 | -3.3 | -22.0 | ||
| 2026-02-28T11:42 | 3022 | 700 | 324 | 13 | ||
| 2026-02-28T11:42 | 3203 | 684 | -3.3 | -23.7 | ||
| 2026-02-28T11:43 | 3344 | 672 | -3.4 | -25.0 | ||
| 2026-02-28T11:43 | 3366 | 670 | 321 | 23 | ||
| 2026-02-28T11:43 | 3572 | 653 | 314 | 24 | ||
| 2026-02-28T11:44 | 3898 | 626 | 305 | 24 | ||
| 2026-02-28T11:45 | 3908 | 625 | -7.1 | -29.4 | ||
| 2026-02-28T11:45 | 4237 | 599 | 312 | 25 | ||
| 2026-02-28T11:46 | 4408 | 586 | 319 | 23 | ||
| 2026-02-28T11:46 | 4542 | 576 | -11.5 | -31.7 | ||
| 2026-02-28T11:47 | 4728 | 562 | 312 | 22 | ||
| 2026-02-28T11:47 | 4787 | 557 | -13.1 | -35.8 | ||
| 2026-02-28T11:47 | 4872 | 551 | 312 | 20 | ||
| 2026-02-28T11:48 | 5115 | 534 | 320 | 20 | ||
| 2026-02-28T11:49 | 5241 | 525 | 318 | 20 | ||
| 2026-02-28T11:49 | 5445 | 511 | -18.8 | -43.9 | ||
| 2026-02-28T11:50 | 5575 | 502 | 319 | 21 | ||
| 2026-02-28T11:51 | 5932 | 478 | 317 | 22 | ||
| 2026-02-28T11:51 | 6252 | 458 | -25.6 | -49.3 | ||
| 2026-02-28T11:52 | 6286 | 455 | 313 | 25 | ||
| 2026-02-28T11:53 | 6632 | 434 | 320 | 26 | ||
| 2026-02-28T11:53 | 6802 | 424 | 321 | 26 | ||
| 2026-02-28T11:54 | 7093 | 407 | 318 | 27 | ||
| 2026-02-28T11:55 | 7445 | 387 | 315 | 25 | ||
| 2026-02-28T11:56 | 7742 | 370 | -39.7 | -55.0 | ||
| 2026-02-28T11:56 | 7771 | 369 | -40.0 | -55.3 | ||
| 2026-02-28T11:56 | 7793 | 368 | 310 | 23 | ||
| 2026-02-28T11:57 | 8131 | 350 | 310 | 26 | ||
| 2026-02-28T11:57 | 8182 | 347 | -43.5 | |||
| 2026-02-28T11:58 | 8467 | 333 | 309 | 27 | ||
| 2026-02-28T11:59 | 8820 | 315 | 302 | 28 | ||
| 2026-02-28T11:59 | 8975 | 308 | -50.4 | |||
| 2026-02-28T12:00 | 9045 | 305 | 303 | 30 | ||
| 2026-02-28T12:01 | 9388 | 289 | 299 | 30 | ||
| 2026-02-28T12:02 | 9714 | 274 | 297 | 29 | ||
| 2026-02-28T12:02 | 9851 | 268 | -56.6 | |||
| 2026-02-28T12:03 | 9998 | 262 | 300 | 32 | ||
| 2026-02-28T12:03 | 10092 | 258 | -55.6 | |||
| 2026-02-28T12:03 | 10187 | 255 | 306 | 30 | ||
| 2026-02-28T12:03 | 10252 | 252 | -53.7 | |||
| 2026-02-28T12:04 | 10382 | 247 | 291 | 30 | ||
| 2026-02-28T12:04 | 10412 | 246 | -53.6 | |||
| 2026-02-28T12:04 | 10541 | 241 | -51.7 | 290 | 34 | |
| 2026-02-28T12:05 | 10684 | 236 | 287 | 36 | ||
| 2026-02-28T12:05 | 10704 | 235 | -49.1 | |||
| 2026-02-28T12:05 | 10805 | 231 | -48.8 | |||
| 2026-02-28T12:05 | 10823 | 231 | 286 | 35 | ||
| 2026-02-28T12:06 | 11063 | 223 | 277 | 28 | ||
| 2026-02-28T12:07 | 11200 | 218 | -49.0 | |||
| 2026-02-28T12:07 | 11331 | 214 | 279 | 31 | ||
| 2026-02-28T12:08 | 11593 | 205 | -49.7 | |||
| 2026-02-28T12:08 | 11621 | 204 | 282 | 32 | ||
| 2026-02-28T12:09 | 11941 | 195 | 283 | 29 | ||
| 2026-02-28T12:09 | 11945 | 195 | -49.1 | |||
| 2026-02-28T12:10 | 12140 | 189 | -49.0 | |||
| 2026-02-28T12:10 | 12207 | 187 | 287 | 27 | ||
| 2026-02-28T12:11 | 12456 | 180 | 286 | 29 | ||
| 2026-02-28T12:12 | 12679 | 174 | 276 | 27 | ||
| 2026-02-28T12:13 | 12815 | 170 | 277 | 29 | ||
| 2026-02-28T12:13 | 12904 | 168 | -49.2 | |||
| 2026-02-28T12:14 | 13119 | 163 | 274 | 29 | ||
| 2026-02-28T12:15 | 13449 | 155 | 277 | 31 | ||
| 2026-02-28T12:15 | 13562 | 152 | -52.4 | |||
| 2026-02-28T12:16 | 13782 | 147 | 272 | 29 | ||
| 2026-02-28T12:16 | 13998 | 142 | -53.3 | |||
| 2026-02-28T12:17 | 14106 | 140 | 272 | 31 | ||
| 2026-02-28T12:18 | 14411 | 133 | 276 | 33 | ||
| 2026-02-28T12:18 | 14553 | 130 | -56.1 | |||
| 2026-02-28T12:19 | 14696 | 127 | 283 | 31 | ||
| 2026-02-28T12:19 | 14792 | 125 | -56.4 | |||
| 2026-02-28T12:20 | 14983 | 122 | 269 | 31 | ||
| 2026-02-28T12:21 | 15242 | 117 | 278 | 31 | ||
| 2026-02-28T12:21 | 15435 | 113 | -58.0 | |||
| 2026-02-28T12:22 | 15525 | 112 | 278 | 32 | ||
| 2026-02-28T12:22 | 15798 | 107 | -58.9 | |||
| 2026-02-28T12:23 | 15852 | 106 | 275 | 33 | ||
| 2026-02-28T12:23 | 16057 | 103 | 284 | 31 | ||
| 2026-02-28T12:24 | 16282 | 99 | -58.6 | |||
| 2026-02-28T12:24 | 16357 | 98 | 280 | 30 | ||
| 2026-02-28T12:25 | 16617 | 94 | 284 | 26 | ||
| 2026-02-28T12:25 | 16623 | 94 | -57.5 | |||
| 2026-02-28T12:25 | 16722 | 92 | -55.2 | |||
| 2026-02-28T12:25 | 16750 | 92 | 275 | 14 | ||
| 2026-02-28T12:26 | 17015 | 88 | 287 | 13 | ||
| 2026-02-28T12:26 | 17186 | 86 | 274 | 9 | ||
| 2026-02-28T12:27 | 17497 | 82 | 250 | 9 | ||
| 2026-02-28T12:27 | 17627 | 80 | 233 | 12 | ||
| 2026-02-28T12:28 | 17664 | 79 | -62.1 | |||
| 2026-02-28T12:28 | 17888 | 77 | -62.6 | |||
| 2026-02-28T12:28 | 17953 | 76 | 245 | 11 | ||
| 2026-02-28T12:29 | 18034 | 75 | -62.8 | |||
| 2026-02-28T12:29 | 18201 | 73 | 246 | 14 | ||
| 2026-02-28T12:29 | 18211 | 73 | -62.7 | |||
| 2026-02-28T12:30 | 18320 | 71 | -62.0 | |||
| 2026-02-28T12:30 | 18507 | 69 | 270 | 15 | ||
| 2026-02-28T12:30 | 18630 | 68 | -62.3 | |||
| 2026-02-28T12:31 | 18760 | 67 | 293 | 15 | ||
| 2026-02-28T12:31 | 18816 | 66 | -60.4 | |||
| 2026-02-28T12:32 | 19046 | 64 | 289 | 9 | ||
| 2026-02-28T12:33 | 19332 | 61 | -62.8 | |||
| 2026-02-28T12:33 | 19365 | 60 | 278 | 11 | ||
| 2026-02-28T12:33 | 19508 | 59 | -61.0 | |||
| 2026-02-28T12:34 | 19614 | 58 | -60.2 | |||
| 2026-02-28T12:34 | 19670 | 57 | 287 | 13 | ||
| 2026-02-28T12:35 | 19967 | 55 | 310 | 9 | ||
| 2026-02-28T12:35 | 20052 | 54 | -59.8 | |||
| 2026-02-28T12:35 | 20190 | 53 | 274 | 6 | ||
| 2026-02-28T12:36 | 20393 | 51 | 262 | 9 | ||
| 2026-02-28T12:36 | 20451 | 51 | -61.6 | |||
| 2026-02-28T12:37 | 20740 | 48 | 304 | 9 | ||
| 2026-02-28T12:37 | 20780 | 48 | -61.0 | |||
| 2026-02-28T12:38 | 20960 | 47 | 285 | 10 | ||
| 2026-02-28T12:38 | 21057 | 46 | -59.3 | |||
| 2026-02-28T12:38 | 21167 | 45 | 342 | 3 | ||
| 2026-02-28T12:39 | 21395 | 44 | 263 | 3 | ||
| 2026-02-28T12:39 | 21571 | 42 | -57.3 | |||
| 2026-02-28T12:39 | 21585 | 42 | 319 | 3 | ||
| 2026-02-28T12:40 | 21722 | 41 | 0 | 0 | ||
| 2026-02-28T12:40 | 21827 | 41 | 201 | 3 | ||
| 2026-02-28T12:40 | 21904 | 40 | 219 | 2 | ||
| 2026-02-28T12:41 | 22083 | 39 | -58.2 | |||
| 2026-02-28T12:41 | 22132 | 39 | 357 | 3 | ||
| 2026-02-28T12:41 | 22209 | 38 | 12 | 3 | ||
| 2026-02-28T12:42 | 22380 | 37 | 122 | 1 | ||
| 2026-02-28T12:42 | 22497 | 37 | 216 | 4 | ||
| 2026-02-28T12:43 | 22855 | 35 | 316 | 4 | ||
| 2026-02-28T12:44 | 23058 | 33 | 360 | 5 | ||
| 2026-02-28T12:44 | 23078 | 33 | 5 | 5 | ||
| 2026-02-28T12:44 | 23230 | 33 | -59.0 | |||
| 2026-02-28T12:44 | 23286 | 32 | 72 | 2 | ||
| 2026-02-28T12:45 | 23647 | 30 | 317 | 2 | ||
| 2026-02-28T12:46 | 24029 | 29 | 133 | 2 | ||
| 2026-02-28T12:47 | 24369 | 27 | 34 | 3 | ||
| 2026-02-28T12:47 | 24392 | 27 | -57.5 | |||
| 2026-02-28T12:48 | 24560 | 26 | 41 | 6 | ||
| 2026-02-28T12:48 | 24706 | 26 | 61 | 6 | ||
| 2026-02-28T12:49 | 24877 | 25 | 38 | 4 | ||
| 2026-02-28T12:49 | 25007 | 25 | 68 | 4 | ||
| 2026-02-28T12:50 | 25187 | 24 | 36 | 4 | ||
| 2026-02-28T12:50 | 25270 | 24 | 34 | 2 | ||
| 2026-02-28T12:51 | 25517 | 23 | -57.2 | 21 | 3 | |
| 2026-02-28T12:51 | 25802 | 22 | 23 | 10 | ||
| 2026-02-28T12:52 | 25982 | 21 | 61 | 8 | ||
| 2026-02-28T12:52 | 26197 | 20 | -56.3 | |||
| 2026-02-28T12:52 | 26227 | 20 | 91 | 8 | ||
| 2026-02-28T12:53 | 26389 | 20 | 125 | 8 | ||
| 2026-02-28T12:53 | 26682 | 19 | -55.9 | 92 | 7 | |
| 2026-02-28T12:54 | 26822 | 18 | 81 | 4 | ||
| 2026-02-28T12:54 | 26928 | 18 | 30 | 3 | ||
| 2026-02-28T12:55 | 27177 | 17 | 71 | 9 | ||
| 2026-02-28T12:56 | 27598 | 16 | 83 | 5 | ||
| 2026-02-28T12:56 | 27638 | 16 | -52.7 | |||
| 2026-02-28T12:56 | 27802 | 16 | 80 | 7 | ||
| 2026-02-28T12:57 | 28175 | 15 | 76 | 6 | ||
| 2026-02-28T12:58 | 28353 | 15 | 119 | 7 | ||
| 2026-02-28T12:58 | 28488 | 14 | 133 | 7 | ||
| 2026-02-28T12:58 | 28577 | 14 | -53.6 | 111 | 6 | |
| 2026-02-28T12:58 | 28716 | 14 | 125 | 6 | ||
| 2026-02-28T12:59 | 28955 | 13 | 122 | 7 | ||
| 2026-02-28T12:59 | 29104 | 13 | 84 | 2 | ||
| 2026-02-28T13:00 | 29200 | 13 | 42 | 3 | ||
| 2026-02-28T13:00 | 29307 | 13 | 35 | 3 | ||
| 2026-02-28T13:00 | 29568 | 12 | 103 | 6 | ||
| 2026-02-28T13:01 | 29620 | 12 | 108 | 5 | ||
| 2026-02-28T13:01 | 29729 | 12 | 60 | 4 | ||
| 2026-02-28T13:01 | 29787 | 12 | 27 | 4 | ||
| 2026-02-28T13:01 | 29842 | 12 | 22 | 4 | ||
| 2026-02-28T13:01 | 29954 | 11 | 75 | 4 | ||
| 2026-02-28T13:02 | 30125 | 11 | 79 | 5 | ||
| 2026-02-28T13:02 | 30243 | 11 | 39 | 4 | ||
| 2026-02-28T13:02 | 30426 | 11 | -53.2 | |||
| 2026-02-28T13:03 | 30550 | 10 | 46 | 6 | ||
| 2026-02-28T13:03 | 30676 | 10 | 36 | 7 | ||
| 2026-02-28T13:03 | 30804 | 10 | 72 | 8 | ||
| 2026-02-28T13:04 | 30873 | 10 | -52.0 | 62 | 6 | |
| 2026-02-28T13:04 | 30939 | 10 | 35 | 9 | ||
| 2026-02-28T13:04 | 31074 | 10 | 31 | 14 | ||
| 2026-02-28T13:05 | 31355 | 9 | 87 | 9 | ||
| 2026-02-28T13:05 | 31499 | 9 | -49.2 | |||
| 2026-02-28T13:05 | 31575 | 9 | 129 | 11 | ||
| 2026-02-28T13:06 | 31929 | 8 | -50.5 | 120 | 6 | |
| 2026-02-28T23:33 | 26 | 1018 | 9.6 | -0.3 | 20 | 1 |
| 2026-02-28T23:33 | 32 | 1017 | 9.6 | -0.9 | 0 | 0 |
| 2026-02-28T23:33 | 102 | 1009 | 8.3 | -1.8 | ||
| 2026-02-28T23:34 | 376 | 976 | 154 | 2 | ||
| 2026-02-28T23:34 | 381 | 975 | 5.7 | -2.9 | ||
| 2026-02-28T23:34 | 461 | 966 | 5.3 | -4.8 | ||
| 2026-02-28T23:34 | 526 | 958 | 38 | 2 | ||
| 2026-02-28T23:35 | 619 | 947 | 5.2 | -6.4 | ||
| 2026-02-28T23:35 | 681 | 940 | 313 | 2 | ||
| 2026-02-28T23:35 | 732 | 934 | 5.4 | -7.5 | ||
| 2026-02-28T23:35 | 811 | 925 | 333 | 1 | ||
| 2026-02-28T23:36 | 883 | 917 | 5.0 | -4.6 | ||
| 2026-02-28T23:36 | 929 | 912 | 5.7 | -6.9 | ||
| 2026-02-28T23:36 | 981 | 906 | 306 | 3 | ||
| 2026-02-28T23:36 | 1130 | 890 | 305 | 7 | ||
| 2026-02-28T23:36 | 1197 | 882 | 4.5 | -12.4 | ||
| 2026-02-28T23:37 | 1270 | 874 | 297 | 12 | ||
| 2026-02-28T23:37 | 1276 | 874 | 5.3 | -15.9 | ||
| 2026-02-28T23:37 | 1348 | 866 | 5.5 | -16.3 | ||
| 2026-02-28T23:37 | 1475 | 853 | 5.3 | -15.9 | ||
| 2026-02-28T23:37 | 1516 | 848 | 291 | 14 | ||
| 2026-02-28T23:38 | 1760 | 823 | 4.9 | -16.2 | ||
| 2026-02-28T23:38 | 1790 | 820 | 285 | 9 | ||
| 2026-02-28T23:38 | 1897 | 810 | 4.9 | -16.8 | ||
| 2026-02-28T23:38 | 1902 | 809 | 283 | 5 | ||
| 2026-02-28T23:39 | 2099 | 790 | 328 | 4 | ||
| 2026-02-28T23:39 | 2129 | 787 | 3.2 | -17.6 | ||
| 2026-02-28T23:40 | 2445 | 757 | 313 | 10 | ||
| 2026-02-28T23:41 | 2681 | 735 | 324 | 10 | ||
| 2026-02-28T23:41 | 2700 | 733 | -1.8 | -19.3 | ||
| 2026-02-28T23:41 | 2809 | 723 | -2.2 | -20.1 | ||
| 2026-02-28T23:41 | 2857 | 719 | 315 | 10 | ||
| 2026-02-28T23:41 | 2863 | 718 | -2.1 | -20.0 | ||
| 2026-02-28T23:42 | 3069 | 700 | -3.4 | -20.2 | ||
| 2026-02-28T23:42 | 3222 | 686 | 308 | 19 | ||
| 2026-02-28T23:42 | 3283 | 681 | -3.6 | -16.9 | ||
| 2026-02-28T23:43 | 3427 | 669 | 312 | 21 | ||
| 2026-02-28T23:43 | 3463 | 666 | -4.9 | -16.7 | ||
| 2026-02-28T23:43 | 3670 | 648 | -6.2 | -18.9 | ||
| 2026-02-28T23:44 | 3775 | 640 | -6.4 | -21.5 | ||
| 2026-02-28T23:44 | 3781 | 639 | 319 | 21 | ||
| 2026-02-28T23:45 | 4103 | 613 | 318 | 23 | ||
| 2026-02-28T23:45 | 4273 | 600 | 321 | 26 | ||
| 2026-02-28T23:45 | 4312 | 597 | -10.0 | -29.3 | ||
| 2026-02-28T23:45 | 4379 | 592 | 321 | 23 | ||
| 2026-02-28T23:46 | 4441 | 587 | -11.0 | -26.8 | ||
| 2026-02-28T23:46 | 4707 | 567 | 322 | 25 | ||
| 2026-02-28T23:47 | 4865 | 555 | 318 | 26 | ||
| 2026-02-28T23:48 | 5116 | 537 | 314 | 26 | ||
| 2026-02-28T23:48 | 5132 | 536 | -17.0 | -30.5 | ||
| 2026-02-28T23:49 | 5444 | 514 | 313 | 23 | ||
| 2026-02-28T23:49 | 5660 | 499 | -21.4 | -33.7 | ||
| 2026-02-28T23:50 | 5776 | 491 | 305 | 24 | ||
| 2026-02-28T23:51 | 6102 | 470 | 302 | 22 | ||
| 2026-02-28T23:51 | 6119 | 469 | -25.6 | -34.5 | ||
| 2026-02-28T23:52 | 6371 | 453 | 292 | 24 | ||
| 2026-02-28T23:52 | 6627 | 437 | -29.7 | -37.6 | ||
| 2026-02-28T23:53 | 6703 | 432 | 291 | 25 | ||
| 2026-02-28T23:54 | 7014 | 413 | 292 | 27 | ||
| 2026-02-28T23:54 | 7079 | 410 | -33.8 | -39.2 | ||
| 2026-02-28T23:54 | 7263 | 399 | -35.1 | -38.4 | ||
| 2026-02-28T23:55 | 7320 | 396 | 286 | 28 | ||
| 2026-02-28T23:55 | 7373 | 393 | -35.9 | -39.4 | ||
| 2026-02-28T23:55 | 7490 | 386 | -36.7 | -41.3 | ||
| 2026-02-28T23:55 | 7620 | 379 | -37.6 | -43.8 | ||
| 2026-02-28T23:56 | 7641 | 378 | 291 | 26 | ||
| 2026-02-28T23:56 | 7771 | 371 | -38.9 | -44.7 | ||
| 2026-02-28T23:56 | 7885 | 364 | -40.0 | -44.6 | ||
| 2026-02-28T23:57 | 7965 | 360 | 292 | 27 | ||
| 2026-02-28T23:57 | 8291 | 343 | 294 | 29 | ||
| 2026-02-28T23:58 | 8566 | 329 | -45.9 | |||
| 2026-02-28T23:59 | 8627 | 326 | 297 | 31 |
